﻿<?xml version="1.0" encoding="UTF-8" standalone="no" ?>
<gpx xmlns="http://www.topografix.com/GPX/1/1" creator="CompeGPS" version="1.1" xmlns:xsi="http://www.w3.org/2001/XMLSchema-instance" xsi:schemaLocation="http://www.topografix.com/GPX/1/1 http://www.topografix.com/GPX/1/1/gpx.xsd http://www.garmin.com/xmlschemas/GpxExtensions/v3 http://www.garmin.com/xmlschemas/GpxExtensionsv3.xsd http://www.garmin.com/xmlschemas/TrackPointExtension/v1 http://www.garmin.com/xmlschemas/TrackPointExtensionv1.xsd" xmlns:gpxtpx="http://www.garmin.com/xmlschemas/TrackPointExtension/v1">
  <metadata>
    <link href="http://www.compegps.com">
      <text>CompeGPS TEAM, SL</text>
    </link>
    <time>2012-03-04T11:28:54Z</time>
    <bounds maxlat="42.706247" maxlon="-1.518055" minlat="42.651822" minlon="-1.633348"/>
  </metadata>
  <trk>
    <name>alaitzXIII_01</name>
    <trkseg>
      <trkpt lat="42.654270" lon="-1.602437">
        <ele>750.0</ele>
        <time>2011-10-22T07:43:40Z</time>
      </trkpt>
      <trkpt lat="42.654270" lon="-1.602437">
        <ele>749.0</ele>
        <time>2011-10-22T07:44:47Z</time>
      </trkpt>
      <trkpt lat="42.654289" lon="-1.602437">
        <ele>749.0</ele>
        <time>2011-10-22T07:44:51Z</time>
      </trkpt>
      <trkpt lat="42.654312" lon="-1.602416">
        <ele>748.5</ele>
        <time>2011-10-22T07:44:53Z</time>
      </trkpt>
      <trkpt lat="42.654354" lon="-1.602416">
        <ele>749.0</ele>
        <time>2011-10-22T07:44:57Z</time>
      </trkpt>
      <trkpt lat="42.654354" lon="-1.602395">
        <ele>748.5</ele>
        <time>2011-10-22T07:44:58Z</time>
      </trkpt>
      <trkpt lat="42.654396" lon="-1.602373">
        <ele>749.0</ele>
        <time>2011-10-22T07:45:02Z</time>
      </trkpt>
      <trkpt lat="42.654442" lon="-1.602352">
        <ele>749.5</ele>
        <time>2011-10-22T07:45:07Z</time>
      </trkpt>
      <trkpt lat="42.654503" lon="-1.602309">
        <ele>750.9</ele>
        <time>2011-10-22T07:45:12Z</time>
      </trkpt>
      <trkpt lat="42.654503" lon="-1.602287">
        <ele>750.0</ele>
        <time>2011-10-22T07:45:14Z</time>
      </trkpt>
      <trkpt lat="42.654568" lon="-1.602244">
        <ele>750.9</ele>
        <time>2011-10-22T07:45:21Z</time>
      </trkpt>
      <trkpt lat="42.654591" lon="-1.602223">
        <ele>751.4</ele>
        <time>2011-10-22T07:45:23Z</time>
      </trkpt>
      <trkpt lat="42.654633" lon="-1.602223">
        <ele>750.9</ele>
        <time>2011-10-22T07:45:26Z</time>
      </trkpt>
      <trkpt lat="42.654697" lon="-1.602180">
        <ele>751.4</ele>
        <time>2011-10-22T07:45:32Z</time>
      </trkpt>
      <trkpt lat="42.654762" lon="-1.602094">
        <ele>751.4</ele>
        <time>2011-10-22T07:45:39Z</time>
      </trkpt>
      <trkpt lat="42.654762" lon="-1.602073">
        <ele>751.4</ele>
        <time>2011-10-22T07:45:41Z</time>
      </trkpt>
      <trkpt lat="42.654804" lon="-1.602030">
        <ele>751.4</ele>
        <time>2011-10-22T07:45:46Z</time>
      </trkpt>
      <trkpt lat="42.654804" lon="-1.602008">
        <ele>751.9</ele>
        <time>2011-10-22T07:45:47Z</time>
      </trkpt>
      <trkpt lat="42.654892" lon="-1.601923">
        <ele>750.4</ele>
        <time>2011-10-22T07:45:54Z</time>
      </trkpt>
      <trkpt lat="42.654911" lon="-1.601901">
        <ele>749.5</ele>
        <time>2011-10-22T07:45:57Z</time>
      </trkpt>
      <trkpt lat="42.655018" lon="-1.601772">
        <ele>749.5</ele>
        <time>2011-10-22T07:46:08Z</time>
      </trkpt>
      <trkpt lat="42.655018" lon="-1.601729">
        <ele>749.5</ele>
        <time>2011-10-22T07:46:10Z</time>
      </trkpt>
      <trkpt lat="42.655106" lon="-1.601665">
        <ele>748.5</ele>
        <time>2011-10-22T07:46:18Z</time>
      </trkpt>
      <trkpt lat="42.655148" lon="-1.601601">
        <ele>747.6</ele>
        <time>2011-10-22T07:46:37Z</time>
      </trkpt>
      <trkpt lat="42.655190" lon="-1.601558">
        <ele>747.6</ele>
        <time>2011-10-22T07:46:41Z</time>
      </trkpt>
      <trkpt lat="42.655212" lon="-1.601536">
        <ele>747.6</ele>
        <time>2011-10-22T07:46:43Z</time>
      </trkpt>
      <trkpt lat="42.655235" lon="-1.601515">
        <ele>747.1</ele>
        <time>2011-10-22T07:46:46Z</time>
      </trkpt>
      <trkpt lat="42.655277" lon="-1.601472">
        <ele>746.6</ele>
        <time>2011-10-22T07:46:49Z</time>
      </trkpt>
      <trkpt lat="42.655300" lon="-1.601450">
        <ele>746.6</ele>
        <time>2011-10-22T07:46:51Z</time>
      </trkpt>
      <trkpt lat="42.655361" lon="-1.601365">
        <ele>745.6</ele>
        <time>2011-10-22T07:46:58Z</time>
      </trkpt>
      <trkpt lat="42.655533" lon="-1.601129">
        <ele>746.1</ele>
        <time>2011-10-22T07:47:16Z</time>
      </trkpt>
      <trkpt lat="42.655579" lon="-1.601021">
        <ele>746.1</ele>
        <time>2011-10-22T07:47:23Z</time>
      </trkpt>
      <trkpt lat="42.655704" lon="-1.600850">
        <ele>744.7</ele>
        <time>2011-10-22T07:47:36Z</time>
      </trkpt>
      <trkpt lat="42.655750" lon="-1.600785">
        <ele>744.2</ele>
        <time>2011-10-22T07:47:41Z</time>
      </trkpt>
      <trkpt lat="42.655792" lon="-1.600678">
        <ele>743.2</ele>
        <time>2011-10-22T07:47:48Z</time>
      </trkpt>
      <trkpt lat="42.655857" lon="-1.600592">
        <ele>742.3</ele>
        <time>2011-10-22T07:47:54Z</time>
      </trkpt>
      <trkpt lat="42.655922" lon="-1.600442">
        <ele>739.9</ele>
        <time>2011-10-22T07:48:04Z</time>
      </trkpt>
      <trkpt lat="42.655964" lon="-1.600399">
        <ele>738.9</ele>
        <time>2011-10-22T07:48:09Z</time>
      </trkpt>
      <trkpt lat="42.655987" lon="-1.600378">
        <ele>738.4</ele>
        <time>2011-10-22T07:48:10Z</time>
      </trkpt>
      <trkpt lat="42.656006" lon="-1.600335">
        <ele>737.9</ele>
        <time>2011-10-22T07:48:13Z</time>
      </trkpt>
      <trkpt lat="42.656094" lon="-1.600249">
        <ele>737.0</ele>
        <time>2011-10-22T07:48:21Z</time>
      </trkpt>
      <trkpt lat="42.656200" lon="-1.600163">
        <ele>735.5</ele>
        <time>2011-10-22T07:48:30Z</time>
      </trkpt>
      <trkpt lat="42.656242" lon="-1.600120">
        <ele>735.1</ele>
        <time>2011-10-22T07:48:34Z</time>
      </trkpt>
      <trkpt lat="42.656307" lon="-1.600056">
        <ele>734.1</ele>
        <time>2011-10-22T07:48:40Z</time>
      </trkpt>
      <trkpt lat="42.656349" lon="-1.600034">
        <ele>733.6</ele>
        <time>2011-10-22T07:48:43Z</time>
      </trkpt>
      <trkpt lat="42.656391" lon="-1.600013">
        <ele>733.1</ele>
        <time>2011-10-22T07:48:46Z</time>
      </trkpt>
      <trkpt lat="42.656414" lon="-1.600013">
        <ele>733.1</ele>
        <time>2011-10-22T07:48:48Z</time>
      </trkpt>
      <trkpt lat="42.656456" lon="-1.599970">
        <ele>733.1</ele>
        <time>2011-10-22T07:48:52Z</time>
      </trkpt>
      <trkpt lat="42.656502" lon="-1.599970">
        <ele>733.1</ele>
        <time>2011-10-22T07:48:56Z</time>
      </trkpt>
      <trkpt lat="42.656651" lon="-1.599863">
        <ele>732.2</ele>
        <time>2011-10-22T07:49:08Z</time>
      </trkpt>
      <trkpt lat="42.656864" lon="-1.599669">
        <ele>729.3</ele>
        <time>2011-10-22T07:49:27Z</time>
      </trkpt>
      <trkpt lat="42.656906" lon="-1.599627">
        <ele>728.8</ele>
        <time>2011-10-22T07:49:31Z</time>
      </trkpt>
      <trkpt lat="42.657036" lon="-1.599541">
        <ele>728.3</ele>
        <time>2011-10-22T07:49:41Z</time>
      </trkpt>
      <trkpt lat="42.657230" lon="-1.599391">
        <ele>727.4</ele>
        <time>2011-10-22T07:49:57Z</time>
      </trkpt>
      <trkpt lat="42.657249" lon="-1.599369">
        <ele>726.4</ele>
        <time>2011-10-22T07:50:00Z</time>
      </trkpt>
      <trkpt lat="42.657337" lon="-1.599305">
        <ele>725.0</ele>
        <time>2011-10-22T07:50:07Z</time>
      </trkpt>
      <trkpt lat="42.657379" lon="-1.599262">
        <ele>724.5</ele>
        <time>2011-10-22T07:50:11Z</time>
      </trkpt>
      <trkpt lat="42.657551" lon="-1.599133">
        <ele>723.0</ele>
        <time>2011-10-22T07:50:25Z</time>
      </trkpt>
      <trkpt lat="42.657639" lon="-1.599090">
        <ele>722.1</ele>
        <time>2011-10-22T07:50:32Z</time>
      </trkpt>
      <trkpt lat="42.657703" lon="-1.599047">
        <ele>721.6</ele>
        <time>2011-10-22T07:50:37Z</time>
      </trkpt>
      <trkpt lat="42.657745" lon="-1.599026">
        <ele>722.1</ele>
        <time>2011-10-22T07:50:40Z</time>
      </trkpt>
      <trkpt lat="42.657745" lon="-1.599026">
        <ele>721.6</ele>
        <time>2011-10-22T07:50:41Z</time>
      </trkpt>
      <trkpt lat="42.657810" lon="-1.599004">
        <ele>721.1</ele>
        <time>2011-10-22T07:50:45Z</time>
      </trkpt>
      <trkpt lat="42.657829" lon="-1.598983">
        <ele>719.7</ele>
        <time>2011-10-22T07:50:48Z</time>
      </trkpt>
      <trkpt lat="42.657852" lon="-1.598983">
        <ele>719.7</ele>
        <time>2011-10-22T07:50:49Z</time>
      </trkpt>
      <trkpt lat="42.657917" lon="-1.598940">
        <ele>719.2</ele>
        <time>2011-10-22T07:50:54Z</time>
      </trkpt>
      <trkpt lat="42.657936" lon="-1.598918">
        <ele>719.2</ele>
        <time>2011-10-22T07:50:57Z</time>
      </trkpt>
      <trkpt lat="42.657982" lon="-1.598897">
        <ele>718.7</ele>
        <time>2011-10-22T07:50:59Z</time>
      </trkpt>
      <trkpt lat="42.658066" lon="-1.598811">
        <ele>718.2</ele>
        <time>2011-10-22T07:51:07Z</time>
      </trkpt>
      <trkpt lat="42.658089" lon="-1.598768">
        <ele>717.8</ele>
        <time>2011-10-22T07:51:10Z</time>
      </trkpt>
      <trkpt lat="42.658108" lon="-1.598682">
        <ele>718.7</ele>
        <time>2011-10-22T07:51:15Z</time>
      </trkpt>
      <trkpt lat="42.658173" lon="-1.598425">
        <ele>718.2</ele>
        <time>2011-10-22T07:51:30Z</time>
      </trkpt>
      <trkpt lat="42.658173" lon="-1.598361">
        <ele>718.7</ele>
        <time>2011-10-22T07:51:34Z</time>
      </trkpt>
      <trkpt lat="42.658195" lon="-1.598296">
        <ele>718.2</ele>
        <time>2011-10-22T07:51:37Z</time>
      </trkpt>
      <trkpt lat="42.658218" lon="-1.598296">
        <ele>718.2</ele>
        <time>2011-10-22T07:51:38Z</time>
      </trkpt>
      <trkpt lat="42.658260" lon="-1.598210">
        <ele>718.2</ele>
        <time>2011-10-22T07:51:43Z</time>
      </trkpt>
      <trkpt lat="42.658279" lon="-1.597953">
        <ele>718.2</ele>
        <time>2011-10-22T07:51:58Z</time>
      </trkpt>
      <trkpt lat="42.658279" lon="-1.597910">
        <ele>717.8</ele>
        <time>2011-10-22T07:52:01Z</time>
      </trkpt>
      <trkpt lat="42.658260" lon="-1.597781">
        <ele>718.2</ele>
        <time>2011-10-22T07:52:08Z</time>
      </trkpt>
      <trkpt lat="42.658279" lon="-1.597738">
        <ele>718.7</ele>
        <time>2011-10-22T07:52:11Z</time>
      </trkpt>
      <trkpt lat="42.658302" lon="-1.597674">
        <ele>718.7</ele>
        <time>2011-10-22T07:52:14Z</time>
      </trkpt>
      <trkpt lat="42.658325" lon="-1.597652">
        <ele>718.7</ele>
        <time>2011-10-22T07:52:17Z</time>
      </trkpt>
      <trkpt lat="42.658432" lon="-1.597545">
        <ele>719.2</ele>
        <time>2011-10-22T07:52:27Z</time>
      </trkpt>
      <trkpt lat="42.658516" lon="-1.597481">
        <ele>720.2</ele>
        <time>2011-10-22T07:52:35Z</time>
      </trkpt>
      <trkpt lat="42.658562" lon="-1.597459">
        <ele>720.6</ele>
        <time>2011-10-22T07:52:39Z</time>
      </trkpt>
      <trkpt lat="42.658623" lon="-1.597459">
        <ele>721.1</ele>
        <time>2011-10-22T07:52:43Z</time>
      </trkpt>
      <trkpt lat="42.658688" lon="-1.597459">
        <ele>722.1</ele>
        <time>2011-10-22T07:52:49Z</time>
      </trkpt>
      <trkpt lat="42.658775" lon="-1.597438">
        <ele>722.6</ele>
        <time>2011-10-22T07:52:55Z</time>
      </trkpt>
      <trkpt lat="42.658794" lon="-1.597438">
        <ele>723.0</ele>
        <time>2011-10-22T07:52:57Z</time>
      </trkpt>
      <trkpt lat="42.658817" lon="-1.597438">
        <ele>722.6</ele>
        <time>2011-10-22T07:53:01Z</time>
      </trkpt>
      <trkpt lat="42.658882" lon="-1.597416">
        <ele>723.5</ele>
        <time>2011-10-22T07:53:07Z</time>
      </trkpt>
      <trkpt lat="42.658966" lon="-1.597395">
        <ele>724.5</ele>
        <time>2011-10-22T07:53:14Z</time>
      </trkpt>
      <trkpt lat="42.659031" lon="-1.597373">
        <ele>724.0</ele>
        <time>2011-10-22T07:53:19Z</time>
      </trkpt>
      <trkpt lat="42.659054" lon="-1.597352">
        <ele>724.5</ele>
        <time>2011-10-22T07:53:21Z</time>
      </trkpt>
      <trkpt lat="42.659119" lon="-1.597309">
        <ele>725.5</ele>
        <time>2011-10-22T07:53:27Z</time>
      </trkpt>
      <trkpt lat="42.659267" lon="-1.597180">
        <ele>726.4</ele>
        <time>2011-10-22T07:53:41Z</time>
      </trkpt>
      <trkpt lat="42.659290" lon="-1.597159">
        <ele>725.9</ele>
        <time>2011-10-22T07:53:43Z</time>
      </trkpt>
      <trkpt lat="42.659374" lon="-1.597052">
        <ele>726.9</ele>
        <time>2011-10-22T07:53:52Z</time>
      </trkpt>
      <trkpt lat="42.659546" lon="-1.596794">
        <ele>728.3</ele>
        <time>2011-10-22T07:54:13Z</time>
      </trkpt>
      <trkpt lat="42.659569" lon="-1.596751">
        <ele>728.8</ele>
        <time>2011-10-22T07:54:18Z</time>
      </trkpt>
      <trkpt lat="42.659592" lon="-1.596708">
        <ele>728.3</ele>
        <time>2011-10-22T07:54:20Z</time>
      </trkpt>
      <trkpt lat="42.659611" lon="-1.596665">
        <ele>729.8</ele>
        <time>2011-10-22T07:54:24Z</time>
      </trkpt>
      <trkpt lat="42.659634" lon="-1.596665">
        <ele>729.8</ele>
        <time>2011-10-22T07:54:25Z</time>
      </trkpt>
      <trkpt lat="42.659653" lon="-1.596622">
        <ele>730.3</ele>
        <time>2011-10-22T07:54:28Z</time>
      </trkpt>
      <trkpt lat="42.659653" lon="-1.596622">
        <ele>729.8</ele>
        <time>2011-10-22T07:54:29Z</time>
      </trkpt>
      <trkpt lat="42.659676" lon="-1.596580">
        <ele>730.3</ele>
        <time>2011-10-22T07:54:32Z</time>
      </trkpt>
      <trkpt lat="42.659718" lon="-1.596515">
        <ele>730.3</ele>
        <time>2011-10-22T07:54:36Z</time>
      </trkpt>
      <trkpt lat="42.659763" lon="-1.596472">
        <ele>731.2</ele>
        <time>2011-10-22T07:54:40Z</time>
      </trkpt>
      <trkpt lat="42.659782" lon="-1.596429">
        <ele>731.2</ele>
        <time>2011-10-22T07:54:43Z</time>
      </trkpt>
      <trkpt lat="42.659805" lon="-1.596386">
        <ele>731.7</ele>
        <time>2011-10-22T07:54:46Z</time>
      </trkpt>
      <trkpt lat="42.659824" lon="-1.596365">
        <ele>731.7</ele>
        <time>2011-10-22T07:54:48Z</time>
      </trkpt>
      <trkpt lat="42.659847" lon="-1.596322">
        <ele>731.7</ele>
        <time>2011-10-22T07:54:51Z</time>
      </trkpt>
      <trkpt lat="42.659847" lon="-1.596279">
        <ele>731.7</ele>
        <time>2011-10-22T07:54:53Z</time>
      </trkpt>
      <trkpt lat="42.659889" lon="-1.596236">
        <ele>732.7</ele>
        <time>2011-10-22T07:54:57Z</time>
      </trkpt>
      <trkpt lat="42.659912" lon="-1.596215">
        <ele>732.2</ele>
        <time>2011-10-22T07:54:58Z</time>
      </trkpt>
      <trkpt lat="42.659935" lon="-1.596150">
        <ele>733.6</ele>
        <time>2011-10-22T07:55:02Z</time>
      </trkpt>
      <trkpt lat="42.659977" lon="-1.596086">
        <ele>734.1</ele>
        <time>2011-10-22T07:55:07Z</time>
      </trkpt>
      <trkpt lat="42.659996" lon="-1.596043">
        <ele>734.1</ele>
        <time>2011-10-22T07:55:11Z</time>
      </trkpt>
      <trkpt lat="42.660019" lon="-1.595979">
        <ele>735.1</ele>
        <time>2011-10-22T07:55:16Z</time>
      </trkpt>
      <trkpt lat="42.660042" lon="-1.595914">
        <ele>735.1</ele>
        <time>2011-10-22T07:55:20Z</time>
      </trkpt>
      <trkpt lat="42.660042" lon="-1.595914">
        <ele>735.1</ele>
        <time>2011-10-22T07:55:21Z</time>
      </trkpt>
      <trkpt lat="42.660061" lon="-1.595786">
        <ele>736.0</ele>
        <time>2011-10-22T07:55:29Z</time>
      </trkpt>
      <trkpt lat="42.660061" lon="-1.595743">
        <ele>736.0</ele>
        <time>2011-10-22T07:55:31Z</time>
      </trkpt>
      <trkpt lat="42.660107" lon="-1.595592">
        <ele>736.0</ele>
        <time>2011-10-22T07:55:41Z</time>
      </trkpt>
      <trkpt lat="42.660126" lon="-1.595528">
        <ele>737.5</ele>
        <time>2011-10-22T07:55:44Z</time>
      </trkpt>
      <trkpt lat="42.660149" lon="-1.595485">
        <ele>737.5</ele>
        <time>2011-10-22T07:55:47Z</time>
      </trkpt>
      <trkpt lat="42.660149" lon="-1.595442">
        <ele>737.5</ele>
        <time>2011-10-22T07:55:49Z</time>
      </trkpt>
      <trkpt lat="42.660191" lon="-1.595314">
        <ele>738.9</ele>
        <time>2011-10-22T07:55:57Z</time>
      </trkpt>
      <trkpt lat="42.660255" lon="-1.595163">
        <ele>739.4</ele>
        <time>2011-10-22T07:56:08Z</time>
      </trkpt>
      <trkpt lat="42.660278" lon="-1.595120">
        <ele>739.4</ele>
        <time>2011-10-22T07:56:10Z</time>
      </trkpt>
      <trkpt lat="42.660278" lon="-1.595078">
        <ele>739.9</ele>
        <time>2011-10-22T07:56:13Z</time>
      </trkpt>
      <trkpt lat="42.660297" lon="-1.594970">
        <ele>740.8</ele>
        <time>2011-10-22T07:56:20Z</time>
      </trkpt>
      <trkpt lat="42.660320" lon="-1.594927">
        <ele>741.3</ele>
        <time>2011-10-22T07:56:23Z</time>
      </trkpt>
      <trkpt lat="42.660320" lon="-1.594906">
        <ele>741.8</ele>
        <time>2011-10-22T07:56:24Z</time>
      </trkpt>
      <trkpt lat="42.660362" lon="-1.594756">
        <ele>742.8</ele>
        <time>2011-10-22T07:56:34Z</time>
      </trkpt>
      <trkpt lat="42.660385" lon="-1.594713">
        <ele>743.2</ele>
        <time>2011-10-22T07:56:36Z</time>
      </trkpt>
      <trkpt lat="42.660404" lon="-1.594648">
        <ele>743.2</ele>
        <time>2011-10-22T07:56:40Z</time>
      </trkpt>
      <trkpt lat="42.660511" lon="-1.594369">
        <ele>746.6</ele>
        <time>2011-10-22T07:57:00Z</time>
      </trkpt>
      <trkpt lat="42.660511" lon="-1.594369">
        <ele>747.1</ele>
        <time>2011-10-22T07:57:01Z</time>
      </trkpt>
      <trkpt lat="42.660534" lon="-1.594326">
        <ele>747.1</ele>
        <time>2011-10-22T07:57:04Z</time>
      </trkpt>
      <trkpt lat="42.660557" lon="-1.594241">
        <ele>748.0</ele>
        <time>2011-10-22T07:57:11Z</time>
      </trkpt>
      <trkpt lat="42.660576" lon="-1.594198">
        <ele>748.0</ele>
        <time>2011-10-22T07:57:14Z</time>
      </trkpt>
      <trkpt lat="42.660576" lon="-1.594176">
        <ele>748.5</ele>
        <time>2011-10-22T07:57:16Z</time>
      </trkpt>
      <trkpt lat="42.660599" lon="-1.594133">
        <ele>749.5</ele>
        <time>2011-10-22T07:57:19Z</time>
      </trkpt>
      <trkpt lat="42.660599" lon="-1.594090">
        <ele>749.5</ele>
        <time>2011-10-22T07:57:23Z</time>
      </trkpt>
      <trkpt lat="42.660641" lon="-1.593962">
        <ele>751.4</ele>
        <time>2011-10-22T07:57:32Z</time>
      </trkpt>
      <trkpt lat="42.660641" lon="-1.593919">
        <ele>752.8</ele>
        <time>2011-10-22T07:57:35Z</time>
      </trkpt>
      <trkpt lat="42.660664" lon="-1.593854">
        <ele>752.4</ele>
        <time>2011-10-22T07:57:39Z</time>
      </trkpt>
      <trkpt lat="42.660664" lon="-1.593790">
        <ele>753.8</ele>
        <time>2011-10-22T07:57:44Z</time>
      </trkpt>
      <trkpt lat="42.660706" lon="-1.593704">
        <ele>753.8</ele>
        <time>2011-10-22T07:57:49Z</time>
      </trkpt>
      <trkpt lat="42.660748" lon="-1.593640">
        <ele>754.3</ele>
        <time>2011-10-22T07:57:55Z</time>
      </trkpt>
      <trkpt lat="42.660770" lon="-1.593597">
        <ele>754.3</ele>
        <time>2011-10-22T07:57:58Z</time>
      </trkpt>
      <trkpt lat="42.660793" lon="-1.593554">
        <ele>754.8</ele>
        <time>2011-10-22T07:58:01Z</time>
      </trkpt>
      <trkpt lat="42.660942" lon="-1.593275">
        <ele>755.7</ele>
        <time>2011-10-22T07:58:22Z</time>
      </trkpt>
      <trkpt lat="42.660965" lon="-1.593211">
        <ele>756.2</ele>
        <time>2011-10-22T07:58:26Z</time>
      </trkpt>
      <trkpt lat="42.660984" lon="-1.593168">
        <ele>756.2</ele>
        <time>2011-10-22T07:58:29Z</time>
      </trkpt>
      <trkpt lat="42.661114" lon="-1.592975">
        <ele>759.6</ele>
        <time>2011-10-22T07:58:44Z</time>
      </trkpt>
      <trkpt lat="42.661137" lon="-1.592953">
        <ele>759.6</ele>
        <time>2011-10-22T07:58:46Z</time>
      </trkpt>
      <trkpt lat="42.661179" lon="-1.592867">
        <ele>760.1</ele>
        <time>2011-10-22T07:58:54Z</time>
      </trkpt>
      <trkpt lat="42.661243" lon="-1.592803">
        <ele>760.1</ele>
        <time>2011-10-22T07:58:59Z</time>
      </trkpt>
      <trkpt lat="42.661327" lon="-1.592696">
        <ele>760.5</ele>
        <time>2011-10-22T07:59:08Z</time>
      </trkpt>
      <trkpt lat="42.661369" lon="-1.592653">
        <ele>760.5</ele>
        <time>2011-10-22T07:59:13Z</time>
      </trkpt>
      <trkpt lat="42.661369" lon="-1.592631">
        <ele>760.5</ele>
        <time>2011-10-22T07:59:14Z</time>
      </trkpt>
      <trkpt lat="42.661434" lon="-1.592588">
        <ele>761.0</ele>
        <time>2011-10-22T07:59:19Z</time>
      </trkpt>
      <trkpt lat="42.661480" lon="-1.592546">
        <ele>761.5</ele>
        <time>2011-10-22T07:59:22Z</time>
      </trkpt>
      <trkpt lat="42.661522" lon="-1.592460">
        <ele>761.5</ele>
        <time>2011-10-22T07:59:28Z</time>
      </trkpt>
      <trkpt lat="42.661564" lon="-1.592417">
        <ele>762.5</ele>
        <time>2011-10-22T07:59:32Z</time>
      </trkpt>
      <trkpt lat="42.661652" lon="-1.592309">
        <ele>762.9</ele>
        <time>2011-10-22T07:59:41Z</time>
      </trkpt>
      <trkpt lat="42.661671" lon="-1.592267">
        <ele>762.9</ele>
        <time>2011-10-22T07:59:44Z</time>
      </trkpt>
      <trkpt lat="42.661736" lon="-1.592224">
        <ele>763.4</ele>
        <time>2011-10-22T07:59:48Z</time>
      </trkpt>
      <trkpt lat="42.661865" lon="-1.592073">
        <ele>764.9</ele>
        <time>2011-10-22T08:00:00Z</time>
      </trkpt>
      <trkpt lat="42.661884" lon="-1.592031">
        <ele>764.9</ele>
        <time>2011-10-22T08:00:03Z</time>
      </trkpt>
      <trkpt lat="42.661884" lon="-1.592009">
        <ele>764.4</ele>
        <time>2011-10-22T08:00:04Z</time>
      </trkpt>
      <trkpt lat="42.661930" lon="-1.591966">
        <ele>764.9</ele>
        <time>2011-10-22T08:00:08Z</time>
      </trkpt>
      <trkpt lat="42.661949" lon="-1.591902">
        <ele>765.8</ele>
        <time>2011-10-22T08:00:12Z</time>
      </trkpt>
      <trkpt lat="42.661972" lon="-1.591859">
        <ele>765.3</ele>
        <time>2011-10-22T08:00:15Z</time>
      </trkpt>
      <trkpt lat="42.662037" lon="-1.591773">
        <ele>765.8</ele>
        <time>2011-10-22T08:00:22Z</time>
      </trkpt>
      <trkpt lat="42.662056" lon="-1.591730">
        <ele>765.8</ele>
        <time>2011-10-22T08:00:26Z</time>
      </trkpt>
      <trkpt lat="42.662079" lon="-1.591687">
        <ele>765.8</ele>
        <time>2011-10-22T08:00:28Z</time>
      </trkpt>
      <trkpt lat="42.662102" lon="-1.591623">
        <ele>766.3</ele>
        <time>2011-10-22T08:00:33Z</time>
      </trkpt>
      <trkpt lat="42.662102" lon="-1.591537">
        <ele>767.3</ele>
        <time>2011-10-22T08:00:38Z</time>
      </trkpt>
      <trkpt lat="42.662144" lon="-1.591387">
        <ele>767.3</ele>
        <time>2011-10-22T08:00:47Z</time>
      </trkpt>
      <trkpt lat="42.662144" lon="-1.591322">
        <ele>767.8</ele>
        <time>2011-10-22T08:00:51Z</time>
      </trkpt>
      <trkpt lat="42.662167" lon="-1.591280">
        <ele>767.8</ele>
        <time>2011-10-22T08:00:53Z</time>
      </trkpt>
      <trkpt lat="42.662167" lon="-1.591258">
        <ele>768.2</ele>
        <time>2011-10-22T08:00:55Z</time>
      </trkpt>
      <trkpt lat="42.662209" lon="-1.591022">
        <ele>769.7</ele>
        <time>2011-10-22T08:01:08Z</time>
      </trkpt>
      <trkpt lat="42.662209" lon="-1.590958">
        <ele>769.7</ele>
        <time>2011-10-22T08:01:12Z</time>
      </trkpt>
      <trkpt lat="42.662228" lon="-1.590850">
        <ele>770.6</ele>
        <time>2011-10-22T08:01:18Z</time>
      </trkpt>
      <trkpt lat="42.662251" lon="-1.590786">
        <ele>771.6</ele>
        <time>2011-10-22T08:01:22Z</time>
      </trkpt>
      <trkpt lat="42.662251" lon="-1.590765">
        <ele>771.1</ele>
        <time>2011-10-22T08:01:24Z</time>
      </trkpt>
      <trkpt lat="42.662273" lon="-1.590700">
        <ele>772.6</ele>
        <time>2011-10-22T08:01:28Z</time>
      </trkpt>
      <trkpt lat="42.662273" lon="-1.590657">
        <ele>772.6</ele>
        <time>2011-10-22T08:01:30Z</time>
      </trkpt>
      <trkpt lat="42.662292" lon="-1.590614">
        <ele>773.0</ele>
        <time>2011-10-22T08:01:34Z</time>
      </trkpt>
      <trkpt lat="42.662292" lon="-1.590593">
        <ele>772.6</ele>
        <time>2011-10-22T08:01:35Z</time>
      </trkpt>
      <trkpt lat="42.662338" lon="-1.590528">
        <ele>773.5</ele>
        <time>2011-10-22T08:01:39Z</time>
      </trkpt>
      <trkpt lat="42.662338" lon="-1.590528">
        <ele>773.5</ele>
        <time>2011-10-22T08:01:40Z</time>
      </trkpt>
      <trkpt lat="42.662464" lon="-1.590335">
        <ele>774.5</ele>
        <time>2011-10-22T08:01:54Z</time>
      </trkpt>
      <trkpt lat="42.662529" lon="-1.590271">
        <ele>775.9</ele>
        <time>2011-10-22T08:02:03Z</time>
      </trkpt>
      <trkpt lat="42.662552" lon="-1.590250">
        <ele>775.9</ele>
        <time>2011-10-22T08:02:05Z</time>
      </trkpt>
      <trkpt lat="42.662571" lon="-1.590228">
        <ele>776.4</ele>
        <time>2011-10-22T08:02:08Z</time>
      </trkpt>
      <trkpt lat="42.662659" lon="-1.590164">
        <ele>776.4</ele>
        <time>2011-10-22T08:02:15Z</time>
      </trkpt>
      <trkpt lat="42.662682" lon="-1.590142">
        <ele>776.9</ele>
        <time>2011-10-22T08:02:17Z</time>
      </trkpt>
      <trkpt lat="42.662724" lon="-1.590121">
        <ele>776.9</ele>
        <time>2011-10-22T08:02:21Z</time>
      </trkpt>
      <trkpt lat="42.662766" lon="-1.590056">
        <ele>777.4</ele>
        <time>2011-10-22T08:02:28Z</time>
      </trkpt>
      <trkpt lat="42.662807" lon="-1.590014">
        <ele>777.8</ele>
        <time>2011-10-22T08:02:33Z</time>
      </trkpt>
      <trkpt lat="42.662872" lon="-1.589971">
        <ele>779.3</ele>
        <time>2011-10-22T08:02:40Z</time>
      </trkpt>
      <trkpt lat="42.662937" lon="-1.589906">
        <ele>781.2</ele>
        <time>2011-10-22T08:02:48Z</time>
      </trkpt>
      <trkpt lat="42.662979" lon="-1.589863">
        <ele>782.2</ele>
        <time>2011-10-22T08:02:52Z</time>
      </trkpt>
      <trkpt lat="42.663025" lon="-1.589842">
        <ele>782.7</ele>
        <time>2011-10-22T08:02:55Z</time>
      </trkpt>
      <trkpt lat="42.663044" lon="-1.589842">
        <ele>782.7</ele>
        <time>2011-10-22T08:02:57Z</time>
      </trkpt>
      <trkpt lat="42.663067" lon="-1.589820">
        <ele>783.1</ele>
        <time>2011-10-22T08:03:01Z</time>
      </trkpt>
      <trkpt lat="42.663109" lon="-1.589799">
        <ele>784.1</ele>
        <time>2011-10-22T08:03:04Z</time>
      </trkpt>
      <trkpt lat="42.663151" lon="-1.589756">
        <ele>785.1</ele>
        <time>2011-10-22T08:03:09Z</time>
      </trkpt>
      <trkpt lat="42.663151" lon="-1.589756">
        <ele>785.5</ele>
        <time>2011-10-22T08:03:10Z</time>
      </trkpt>
      <trkpt lat="42.663197" lon="-1.589735">
        <ele>786.5</ele>
        <time>2011-10-22T08:03:13Z</time>
      </trkpt>
      <trkpt lat="42.663303" lon="-1.589670">
        <ele>787.9</ele>
        <time>2011-10-22T08:03:25Z</time>
      </trkpt>
      <trkpt lat="42.663368" lon="-1.589606">
        <ele>788.4</ele>
        <time>2011-10-22T08:03:31Z</time>
      </trkpt>
      <trkpt lat="42.663559" lon="-1.589456">
        <ele>791.8</ele>
        <time>2011-10-22T08:03:49Z</time>
      </trkpt>
      <trkpt lat="42.663582" lon="-1.589434">
        <ele>791.8</ele>
        <time>2011-10-22T08:03:53Z</time>
      </trkpt>
      <trkpt lat="42.663647" lon="-1.589370">
        <ele>792.7</ele>
        <time>2011-10-22T08:03:59Z</time>
      </trkpt>
      <trkpt lat="42.663712" lon="-1.589305">
        <ele>792.7</ele>
        <time>2011-10-22T08:04:05Z</time>
      </trkpt>
      <trkpt lat="42.663731" lon="-1.589262">
        <ele>793.2</ele>
        <time>2011-10-22T08:04:09Z</time>
      </trkpt>
      <trkpt lat="42.663773" lon="-1.589220">
        <ele>793.7</ele>
        <time>2011-10-22T08:04:13Z</time>
      </trkpt>
      <trkpt lat="42.663773" lon="-1.589198">
        <ele>793.7</ele>
        <time>2011-10-22T08:04:14Z</time>
      </trkpt>
      <trkpt lat="42.663773" lon="-1.589177">
        <ele>793.2</ele>
        <time>2011-10-22T08:04:16Z</time>
      </trkpt>
      <trkpt lat="42.663795" lon="-1.589155">
        <ele>794.2</ele>
        <time>2011-10-22T08:04:18Z</time>
      </trkpt>
      <trkpt lat="42.663860" lon="-1.589048">
        <ele>794.2</ele>
        <time>2011-10-22T08:04:26Z</time>
      </trkpt>
      <trkpt lat="42.663883" lon="-1.589026">
        <ele>794.7</ele>
        <time>2011-10-22T08:04:28Z</time>
      </trkpt>
      <trkpt lat="42.663944" lon="-1.588962">
        <ele>794.2</ele>
        <time>2011-10-22T08:04:34Z</time>
      </trkpt>
      <trkpt lat="42.663990" lon="-1.588919">
        <ele>794.7</ele>
        <time>2011-10-22T08:04:38Z</time>
      </trkpt>
      <trkpt lat="42.664009" lon="-1.588898">
        <ele>795.1</ele>
        <time>2011-10-22T08:04:40Z</time>
      </trkpt>
      <trkpt lat="42.664055" lon="-1.588855">
        <ele>795.1</ele>
        <time>2011-10-22T08:04:44Z</time>
      </trkpt>
      <trkpt lat="42.664074" lon="-1.588833">
        <ele>795.6</ele>
        <time>2011-10-22T08:04:46Z</time>
      </trkpt>
      <trkpt lat="42.664162" lon="-1.588790">
        <ele>796.1</ele>
        <time>2011-10-22T08:04:52Z</time>
      </trkpt>
      <trkpt lat="42.664227" lon="-1.588748">
        <ele>797.1</ele>
        <time>2011-10-22T08:04:59Z</time>
      </trkpt>
      <trkpt lat="42.664246" lon="-1.588726">
        <ele>797.6</ele>
        <time>2011-10-22T08:05:01Z</time>
      </trkpt>
      <trkpt lat="42.664352" lon="-1.588662">
        <ele>798.0</ele>
        <time>2011-10-22T08:05:09Z</time>
      </trkpt>
      <trkpt lat="42.664459" lon="-1.588619">
        <ele>799.0</ele>
        <time>2011-10-22T08:05:17Z</time>
      </trkpt>
      <trkpt lat="42.664482" lon="-1.588597">
        <ele>799.5</ele>
        <time>2011-10-22T08:05:20Z</time>
      </trkpt>
      <trkpt lat="42.664524" lon="-1.588597">
        <ele>799.5</ele>
        <time>2011-10-22T08:05:23Z</time>
      </trkpt>
      <trkpt lat="42.664589" lon="-1.588554">
        <ele>800.4</ele>
        <time>2011-10-22T08:05:29Z</time>
      </trkpt>
      <trkpt lat="42.664612" lon="-1.588533">
        <ele>800.4</ele>
        <time>2011-10-22T08:05:32Z</time>
      </trkpt>
      <trkpt lat="42.664654" lon="-1.588511">
        <ele>801.4</ele>
        <time>2011-10-22T08:05:36Z</time>
      </trkpt>
      <trkpt lat="42.664677" lon="-1.588490">
        <ele>802.4</ele>
        <time>2011-10-22T08:05:39Z</time>
      </trkpt>
      <trkpt lat="42.664696" lon="-1.588426">
        <ele>804.3</ele>
        <time>2011-10-22T08:05:45Z</time>
      </trkpt>
      <trkpt lat="42.664719" lon="-1.588404">
        <ele>804.3</ele>
        <time>2011-10-22T08:05:48Z</time>
      </trkpt>
      <trkpt lat="42.664719" lon="-1.588404">
        <ele>804.8</ele>
        <time>2011-10-22T08:05:50Z</time>
      </trkpt>
      <trkpt lat="42.664719" lon="-1.588383">
        <ele>804.8</ele>
        <time>2011-10-22T08:05:52Z</time>
      </trkpt>
      <trkpt lat="42.664742" lon="-1.588361">
        <ele>804.8</ele>
        <time>2011-10-22T08:05:54Z</time>
      </trkpt>
      <trkpt lat="42.664783" lon="-1.588340">
        <ele>805.2</ele>
        <time>2011-10-22T08:05:58Z</time>
      </trkpt>
      <trkpt lat="42.664825" lon="-1.588297">
        <ele>805.7</ele>
        <time>2011-10-22T08:06:04Z</time>
      </trkpt>
      <trkpt lat="42.664848" lon="-1.588275">
        <ele>807.2</ele>
        <time>2011-10-22T08:06:07Z</time>
      </trkpt>
      <trkpt lat="42.664932" lon="-1.588168">
        <ele>810.0</ele>
        <time>2011-10-22T08:06:21Z</time>
      </trkpt>
      <trkpt lat="42.664974" lon="-1.588147">
        <ele>810.5</ele>
        <time>2011-10-22T08:06:24Z</time>
      </trkpt>
      <trkpt lat="42.665020" lon="-1.588125">
        <ele>812.0</ele>
        <time>2011-10-22T08:06:30Z</time>
      </trkpt>
      <trkpt lat="42.665104" lon="-1.588061">
        <ele>812.9</ele>
        <time>2011-10-22T08:06:39Z</time>
      </trkpt>
      <trkpt lat="42.665127" lon="-1.588061">
        <ele>813.4</ele>
        <time>2011-10-22T08:06:42Z</time>
      </trkpt>
      <trkpt lat="42.665146" lon="-1.588039">
        <ele>813.9</ele>
        <time>2011-10-22T08:06:45Z</time>
      </trkpt>
      <trkpt lat="42.665169" lon="-1.588018">
        <ele>813.9</ele>
        <time>2011-10-22T08:06:48Z</time>
      </trkpt>
      <trkpt lat="42.665192" lon="-1.588018">
        <ele>814.4</ele>
        <time>2011-10-22T08:06:49Z</time>
      </trkpt>
      <trkpt lat="42.665192" lon="-1.587996">
        <ele>814.4</ele>
        <time>2011-10-22T08:06:51Z</time>
      </trkpt>
      <trkpt lat="42.665257" lon="-1.587954">
        <ele>815.3</ele>
        <time>2011-10-22T08:06:57Z</time>
      </trkpt>
      <trkpt lat="42.665257" lon="-1.587932">
        <ele>815.3</ele>
        <time>2011-10-22T08:06:59Z</time>
      </trkpt>
      <trkpt lat="42.665276" lon="-1.587889">
        <ele>816.8</ele>
        <time>2011-10-22T08:07:02Z</time>
      </trkpt>
      <trkpt lat="42.665257" lon="-1.587825">
        <ele>817.3</ele>
        <time>2011-10-22T08:07:08Z</time>
      </trkpt>
      <trkpt lat="42.665257" lon="-1.587803">
        <ele>817.7</ele>
        <time>2011-10-22T08:07:11Z</time>
      </trkpt>
      <trkpt lat="42.665257" lon="-1.587803">
        <ele>817.3</ele>
        <time>2011-10-22T08:07:12Z</time>
      </trkpt>
      <trkpt lat="42.665257" lon="-1.587760">
        <ele>818.2</ele>
        <time>2011-10-22T08:07:16Z</time>
      </trkpt>
      <trkpt lat="42.665234" lon="-1.587739">
        <ele>818.7</ele>
        <time>2011-10-22T08:07:18Z</time>
      </trkpt>
      <trkpt lat="42.665211" lon="-1.587632">
        <ele>821.1</ele>
        <time>2011-10-22T08:07:27Z</time>
      </trkpt>
      <trkpt lat="42.665211" lon="-1.587589">
        <ele>822.1</ele>
        <time>2011-10-22T08:07:30Z</time>
      </trkpt>
      <trkpt lat="42.665192" lon="-1.587546">
        <ele>822.5</ele>
        <time>2011-10-22T08:07:36Z</time>
      </trkpt>
      <trkpt lat="42.665169" lon="-1.587524">
        <ele>823.0</ele>
        <time>2011-10-22T08:07:39Z</time>
      </trkpt>
      <trkpt lat="42.665169" lon="-1.587524">
        <ele>823.5</ele>
        <time>2011-10-22T08:07:40Z</time>
      </trkpt>
      <trkpt lat="42.665146" lon="-1.587503">
        <ele>823.5</ele>
        <time>2011-10-22T08:07:43Z</time>
      </trkpt>
      <trkpt lat="42.665104" lon="-1.587481">
        <ele>824.0</ele>
        <time>2011-10-22T08:07:46Z</time>
      </trkpt>
      <trkpt lat="42.665039" lon="-1.587439">
        <ele>825.4</ele>
        <time>2011-10-22T08:07:51Z</time>
      </trkpt>
      <trkpt lat="42.664997" lon="-1.587396">
        <ele>826.4</ele>
        <time>2011-10-22T08:07:58Z</time>
      </trkpt>
      <trkpt lat="42.664974" lon="-1.587374">
        <ele>826.4</ele>
        <time>2011-10-22T08:08:02Z</time>
      </trkpt>
      <trkpt lat="42.664932" lon="-1.587353">
        <ele>826.9</ele>
        <time>2011-10-22T08:08:06Z</time>
      </trkpt>
      <trkpt lat="42.664913" lon="-1.587331">
        <ele>827.4</ele>
        <time>2011-10-22T08:08:08Z</time>
      </trkpt>
      <trkpt lat="42.664867" lon="-1.587310">
        <ele>827.8</ele>
        <time>2011-10-22T08:08:11Z</time>
      </trkpt>
      <trkpt lat="42.664848" lon="-1.587288">
        <ele>827.8</ele>
        <time>2011-10-22T08:08:13Z</time>
      </trkpt>
      <trkpt lat="42.664825" lon="-1.587267">
        <ele>827.8</ele>
        <time>2011-10-22T08:08:15Z</time>
      </trkpt>
      <trkpt lat="42.664825" lon="-1.587203">
        <ele>828.8</ele>
        <time>2011-10-22T08:08:19Z</time>
      </trkpt>
      <trkpt lat="42.664848" lon="-1.587181">
        <ele>829.3</ele>
        <time>2011-10-22T08:08:22Z</time>
      </trkpt>
      <trkpt lat="42.664867" lon="-1.587160">
        <ele>829.8</ele>
        <time>2011-10-22T08:08:25Z</time>
      </trkpt>
      <trkpt lat="42.664913" lon="-1.587138">
        <ele>830.2</ele>
        <time>2011-10-22T08:08:30Z</time>
      </trkpt>
      <trkpt lat="42.664955" lon="-1.587117">
        <ele>832.2</ele>
        <time>2011-10-22T08:08:35Z</time>
      </trkpt>
      <trkpt lat="42.664955" lon="-1.587074">
        <ele>831.2</ele>
        <time>2011-10-22T08:08:38Z</time>
      </trkpt>
      <trkpt lat="42.664955" lon="-1.587009">
        <ele>833.1</ele>
        <time>2011-10-22T08:08:43Z</time>
      </trkpt>
      <trkpt lat="42.664955" lon="-1.587009">
        <ele>832.6</ele>
        <time>2011-10-22T08:08:44Z</time>
      </trkpt>
      <trkpt lat="42.664974" lon="-1.586924">
        <ele>834.1</ele>
        <time>2011-10-22T08:08:49Z</time>
      </trkpt>
      <trkpt lat="42.664974" lon="-1.586902">
        <ele>835.0</ele>
        <time>2011-10-22T08:08:51Z</time>
      </trkpt>
      <trkpt lat="42.664974" lon="-1.586881">
        <ele>836.0</ele>
        <time>2011-10-22T08:08:54Z</time>
      </trkpt>
      <trkpt lat="42.664974" lon="-1.586838">
        <ele>836.0</ele>
        <time>2011-10-22T08:08:56Z</time>
      </trkpt>
      <trkpt lat="42.664974" lon="-1.586773">
        <ele>836.0</ele>
        <time>2011-10-22T08:09:01Z</time>
      </trkpt>
      <trkpt lat="42.664974" lon="-1.586730">
        <ele>838.4</ele>
        <time>2011-10-22T08:09:05Z</time>
      </trkpt>
      <trkpt lat="42.664955" lon="-1.586688">
        <ele>838.9</ele>
        <time>2011-10-22T08:09:08Z</time>
      </trkpt>
      <trkpt lat="42.664932" lon="-1.586623">
        <ele>839.4</ele>
        <time>2011-10-22T08:09:13Z</time>
      </trkpt>
      <trkpt lat="42.664932" lon="-1.586580">
        <ele>839.8</ele>
        <time>2011-10-22T08:09:17Z</time>
      </trkpt>
      <trkpt lat="42.664913" lon="-1.586537">
        <ele>842.3</ele>
        <time>2011-10-22T08:09:21Z</time>
      </trkpt>
      <trkpt lat="42.664913" lon="-1.586516">
        <ele>842.3</ele>
        <time>2011-10-22T08:09:24Z</time>
      </trkpt>
      <trkpt lat="42.664913" lon="-1.586494">
        <ele>843.2</ele>
        <time>2011-10-22T08:09:26Z</time>
      </trkpt>
      <trkpt lat="42.664890" lon="-1.586430">
        <ele>844.7</ele>
        <time>2011-10-22T08:09:31Z</time>
      </trkpt>
      <trkpt lat="42.664848" lon="-1.586366">
        <ele>844.7</ele>
        <time>2011-10-22T08:09:38Z</time>
      </trkpt>
      <trkpt lat="42.664825" lon="-1.586366">
        <ele>845.1</ele>
        <time>2011-10-22T08:09:41Z</time>
      </trkpt>
      <trkpt lat="42.664719" lon="-1.586344">
        <ele>845.1</ele>
        <time>2011-10-22T08:09:51Z</time>
      </trkpt>
      <trkpt lat="42.664696" lon="-1.586323">
        <ele>845.6</ele>
        <time>2011-10-22T08:09:54Z</time>
      </trkpt>
      <trkpt lat="42.664677" lon="-1.586323">
        <ele>846.1</ele>
        <time>2011-10-22T08:09:56Z</time>
      </trkpt>
      <trkpt lat="42.664612" lon="-1.586301">
        <ele>846.1</ele>
        <time>2011-10-22T08:10:00Z</time>
      </trkpt>
      <trkpt lat="42.664589" lon="-1.586301">
        <ele>846.1</ele>
        <time>2011-10-22T08:10:02Z</time>
      </trkpt>
      <trkpt lat="42.664505" lon="-1.586215">
        <ele>847.1</ele>
        <time>2011-10-22T08:10:10Z</time>
      </trkpt>
      <trkpt lat="42.664482" lon="-1.586194">
        <ele>847.5</ele>
        <time>2011-10-22T08:10:13Z</time>
      </trkpt>
      <trkpt lat="42.664459" lon="-1.586173">
        <ele>847.1</ele>
        <time>2011-10-22T08:10:16Z</time>
      </trkpt>
      <trkpt lat="42.664417" lon="-1.586130">
        <ele>847.5</ele>
        <time>2011-10-22T08:10:28Z</time>
      </trkpt>
      <trkpt lat="42.664417" lon="-1.586108">
        <ele>848.5</ele>
        <time>2011-10-22T08:10:31Z</time>
      </trkpt>
      <trkpt lat="42.664398" lon="-1.586065">
        <ele>849.5</ele>
        <time>2011-10-22T08:10:33Z</time>
      </trkpt>
      <trkpt lat="42.664417" lon="-1.586044">
        <ele>849.9</ele>
        <time>2011-10-22T08:10:36Z</time>
      </trkpt>
      <trkpt lat="42.664417" lon="-1.586022">
        <ele>849.5</ele>
        <time>2011-10-22T08:10:38Z</time>
      </trkpt>
      <trkpt lat="42.664459" lon="-1.585894">
        <ele>851.9</ele>
        <time>2011-10-22T08:10:45Z</time>
      </trkpt>
      <trkpt lat="42.664482" lon="-1.585808">
        <ele>853.3</ele>
        <time>2011-10-22T08:10:51Z</time>
      </trkpt>
      <trkpt lat="42.664505" lon="-1.585658">
        <ele>856.7</ele>
        <time>2011-10-22T08:11:01Z</time>
      </trkpt>
      <trkpt lat="42.664505" lon="-1.585615">
        <ele>857.2</ele>
        <time>2011-10-22T08:11:03Z</time>
      </trkpt>
      <trkpt lat="42.664482" lon="-1.585486">
        <ele>858.1</ele>
        <time>2011-10-22T08:11:11Z</time>
      </trkpt>
      <trkpt lat="42.664482" lon="-1.585422">
        <ele>858.1</ele>
        <time>2011-10-22T08:11:14Z</time>
      </trkpt>
      <trkpt lat="42.664501" lon="-1.585408">
        <ele>874.5</ele>
        <time>2010-05-08T05:28:29Z</time>
      </trkpt>
      <trkpt lat="42.664599" lon="-1.585409">
        <ele>874.9</ele>
        <time>2010-05-08T05:28:40Z</time>
      </trkpt>
      <trkpt lat="42.664735" lon="-1.585423">
        <ele>874.9</ele>
        <time>2010-05-08T05:28:52Z</time>
      </trkpt>
      <trkpt lat="42.664777" lon="-1.585451">
        <ele>874.9</ele>
        <time>2010-05-08T05:28:56Z</time>
      </trkpt>
      <trkpt lat="42.664863" lon="-1.585511">
        <ele>875.4</ele>
        <time>2010-05-08T05:29:04Z</time>
      </trkpt>
      <trkpt lat="42.664918" lon="-1.585546">
        <ele>874.9</ele>
        <time>2010-05-08T05:29:09Z</time>
      </trkpt>
      <trkpt lat="42.665052" lon="-1.585573">
        <ele>873.5</ele>
        <time>2010-05-08T05:29:20Z</time>
      </trkpt>
      <trkpt lat="42.665054" lon="-1.585594">
        <ele>875.9</ele>
        <time>2010-05-08T05:29:23Z</time>
      </trkpt>
      <trkpt lat="42.665072" lon="-1.585619">
        <ele>875.4</ele>
        <time>2010-05-08T05:29:26Z</time>
      </trkpt>
      <trkpt lat="42.665131" lon="-1.585621">
        <ele>875.4</ele>
        <time>2010-05-08T05:29:29Z</time>
      </trkpt>
      <trkpt lat="42.665182" lon="-1.585697">
        <ele>875.9</ele>
        <time>2010-05-08T05:29:36Z</time>
      </trkpt>
      <trkpt lat="42.665297" lon="-1.585732">
        <ele>876.4</ele>
        <time>2010-05-08T05:29:42Z</time>
      </trkpt>
      <trkpt lat="42.665410" lon="-1.585776">
        <ele>876.9</ele>
        <time>2010-05-08T05:29:52Z</time>
      </trkpt>
      <trkpt lat="42.665424" lon="-1.585767">
        <ele>876.4</ele>
        <time>2010-05-08T05:29:53Z</time>
      </trkpt>
      <trkpt lat="42.665484" lon="-1.585696">
        <ele>875.9</ele>
        <time>2010-05-08T05:29:57Z</time>
      </trkpt>
      <trkpt lat="42.665603" lon="-1.585751">
        <ele>877.3</ele>
        <time>2010-05-08T05:30:09Z</time>
      </trkpt>
      <trkpt lat="42.665658" lon="-1.585724">
        <ele>877.8</ele>
        <time>2010-05-08T05:30:13Z</time>
      </trkpt>
      <trkpt lat="42.665759" lon="-1.585646">
        <ele>878.8</ele>
        <time>2010-05-08T05:30:24Z</time>
      </trkpt>
      <trkpt lat="42.665815" lon="-1.585651">
        <ele>877.8</ele>
        <time>2010-05-08T05:30:26Z</time>
      </trkpt>
      <trkpt lat="42.665922" lon="-1.585593">
        <ele>878.3</ele>
        <time>2010-05-08T05:30:37Z</time>
      </trkpt>
      <trkpt lat="42.665993" lon="-1.585576">
        <ele>878.8</ele>
        <time>2010-05-08T05:30:42Z</time>
      </trkpt>
      <trkpt lat="42.666021" lon="-1.585575">
        <ele>878.8</ele>
        <time>2010-05-08T05:30:46Z</time>
      </trkpt>
      <trkpt lat="42.666055" lon="-1.585563">
        <ele>879.3</ele>
        <time>2010-05-08T05:30:49Z</time>
      </trkpt>
      <trkpt lat="42.666093" lon="-1.585577">
        <ele>879.3</ele>
        <time>2010-05-08T05:30:53Z</time>
      </trkpt>
      <trkpt lat="42.666288" lon="-1.585458">
        <ele>879.7</ele>
        <time>2010-05-08T05:31:05Z</time>
      </trkpt>
      <trkpt lat="42.666278" lon="-1.585517">
        <ele>880.2</ele>
        <time>2010-05-08T05:31:10Z</time>
      </trkpt>
      <trkpt lat="42.666444" lon="-1.585478">
        <ele>880.2</ele>
        <time>2010-05-08T05:31:19Z</time>
      </trkpt>
      <trkpt lat="42.666475" lon="-1.585432">
        <ele>880.2</ele>
        <time>2010-05-08T05:31:21Z</time>
      </trkpt>
      <trkpt lat="42.666672" lon="-1.585381">
        <ele>880.2</ele>
        <time>2010-05-08T05:31:34Z</time>
      </trkpt>
      <trkpt lat="42.666752" lon="-1.585295">
        <ele>880.7</ele>
        <time>2010-05-08T05:31:46Z</time>
      </trkpt>
      <trkpt lat="42.666853" lon="-1.585201">
        <ele>881.7</ele>
        <time>2010-05-08T05:31:55Z</time>
      </trkpt>
      <trkpt lat="42.666952" lon="-1.585062">
        <ele>884.1</ele>
        <time>2010-05-08T05:32:08Z</time>
      </trkpt>
      <trkpt lat="42.667030" lon="-1.584996">
        <ele>884.1</ele>
        <time>2010-05-08T05:32:16Z</time>
      </trkpt>
      <trkpt lat="42.667078" lon="-1.585023">
        <ele>883.6</ele>
        <time>2010-05-08T05:32:20Z</time>
      </trkpt>
      <trkpt lat="42.667130" lon="-1.585009">
        <ele>883.1</ele>
        <time>2010-05-08T05:32:23Z</time>
      </trkpt>
      <trkpt lat="42.667258" lon="-1.584978">
        <ele>882.2</ele>
        <time>2010-05-08T05:32:32Z</time>
      </trkpt>
      <trkpt lat="42.667260" lon="-1.584980">
        <ele>882.6</ele>
        <time>2010-05-08T05:32:33Z</time>
      </trkpt>
      <trkpt lat="42.667395" lon="-1.584990">
        <ele>882.2</ele>
        <time>2010-05-08T05:32:40Z</time>
      </trkpt>
      <trkpt lat="42.667531" lon="-1.584880">
        <ele>882.2</ele>
        <time>2010-05-08T05:32:50Z</time>
      </trkpt>
      <trkpt lat="42.667654" lon="-1.584780">
        <ele>882.6</ele>
        <time>2010-05-08T05:33:01Z</time>
      </trkpt>
      <trkpt lat="42.667794" lon="-1.584701">
        <ele>883.6</ele>
        <time>2010-05-08T05:33:14Z</time>
      </trkpt>
      <trkpt lat="42.667869" lon="-1.584634">
        <ele>884.5</ele>
        <time>2010-05-08T05:33:19Z</time>
      </trkpt>
      <trkpt lat="42.668001" lon="-1.584515">
        <ele>885.0</ele>
        <time>2010-05-08T05:33:28Z</time>
      </trkpt>
      <trkpt lat="42.668003" lon="-1.584550">
        <ele>885.0</ele>
        <time>2010-05-08T05:33:32Z</time>
      </trkpt>
      <trkpt lat="42.668118" lon="-1.584503">
        <ele>884.5</ele>
        <time>2010-05-08T05:33:42Z</time>
      </trkpt>
      <trkpt lat="42.668123" lon="-1.584485">
        <ele>885.0</ele>
        <time>2010-05-08T05:33:43Z</time>
      </trkpt>
      <trkpt lat="42.668222" lon="-1.584401">
        <ele>886.0</ele>
        <time>2010-05-08T05:33:52Z</time>
      </trkpt>
      <trkpt lat="42.668250" lon="-1.584380">
        <ele>886.0</ele>
        <time>2010-05-08T05:33:56Z</time>
      </trkpt>
      <trkpt lat="42.668332" lon="-1.584362">
        <ele>886.0</ele>
        <time>2010-05-08T05:34:00Z</time>
      </trkpt>
      <trkpt lat="42.668423" lon="-1.584325">
        <ele>886.5</ele>
        <time>2010-05-08T05:34:08Z</time>
      </trkpt>
      <trkpt lat="42.668583" lon="-1.584256">
        <ele>886.5</ele>
        <time>2010-05-08T05:34:21Z</time>
      </trkpt>
      <trkpt lat="42.668624" lon="-1.584231">
        <ele>887.0</ele>
        <time>2010-05-08T05:34:26Z</time>
      </trkpt>
      <trkpt lat="42.668770" lon="-1.584235">
        <ele>887.4</ele>
        <time>2010-05-08T05:34:33Z</time>
      </trkpt>
      <trkpt lat="42.668804" lon="-1.584199">
        <ele>887.4</ele>
        <time>2010-05-08T05:34:37Z</time>
      </trkpt>
      <trkpt lat="42.668976" lon="-1.584277">
        <ele>888.9</ele>
        <time>2010-05-08T05:34:47Z</time>
      </trkpt>
      <trkpt lat="42.668998" lon="-1.584269">
        <ele>888.9</ele>
        <time>2010-05-08T05:34:50Z</time>
      </trkpt>
      <trkpt lat="42.669105" lon="-1.584249">
        <ele>890.3</ele>
        <time>2010-05-08T05:34:56Z</time>
      </trkpt>
      <trkpt lat="42.669222" lon="-1.584244">
        <ele>891.8</ele>
        <time>2010-05-08T05:35:08Z</time>
      </trkpt>
      <trkpt lat="42.669264" lon="-1.584231">
        <ele>891.8</ele>
        <time>2010-05-08T05:35:11Z</time>
      </trkpt>
      <trkpt lat="42.669292" lon="-1.584212">
        <ele>892.2</ele>
        <time>2010-05-08T05:35:13Z</time>
      </trkpt>
      <trkpt lat="42.669348" lon="-1.584240">
        <ele>892.7</ele>
        <time>2010-05-08T05:35:18Z</time>
      </trkpt>
      <trkpt lat="42.669372" lon="-1.584289">
        <ele>893.7</ele>
        <time>2010-05-08T05:35:22Z</time>
      </trkpt>
      <trkpt lat="42.669450" lon="-1.584308">
        <ele>894.2</ele>
        <time>2010-05-08T05:35:27Z</time>
      </trkpt>
      <trkpt lat="42.669493" lon="-1.584313">
        <ele>894.2</ele>
        <time>2010-05-08T05:35:30Z</time>
      </trkpt>
      <trkpt lat="42.669549" lon="-1.584307">
        <ele>895.1</ele>
        <time>2010-05-08T05:35:35Z</time>
      </trkpt>
      <trkpt lat="42.669631" lon="-1.584347">
        <ele>895.6</ele>
        <time>2010-05-08T05:35:42Z</time>
      </trkpt>
      <trkpt lat="42.669789" lon="-1.584360">
        <ele>897.5</ele>
        <time>2010-05-08T05:35:53Z</time>
      </trkpt>
      <trkpt lat="42.669819" lon="-1.584427">
        <ele>898.0</ele>
        <time>2010-05-08T05:35:57Z</time>
      </trkpt>
      <trkpt lat="42.669883" lon="-1.584434">
        <ele>899.0</ele>
        <time>2010-05-08T05:36:03Z</time>
      </trkpt>
      <trkpt lat="42.669913" lon="-1.584436">
        <ele>899.0</ele>
        <time>2010-05-08T05:36:07Z</time>
      </trkpt>
      <trkpt lat="42.670037" lon="-1.584457">
        <ele>900.4</ele>
        <time>2010-05-08T05:36:15Z</time>
      </trkpt>
      <trkpt lat="42.670113" lon="-1.584485">
        <ele>902.3</ele>
        <time>2010-05-08T05:36:22Z</time>
      </trkpt>
      <trkpt lat="42.670136" lon="-1.584502">
        <ele>902.3</ele>
        <time>2010-05-08T05:36:24Z</time>
      </trkpt>
      <trkpt lat="42.670206" lon="-1.584513">
        <ele>903.3</ele>
        <time>2010-05-08T05:36:32Z</time>
      </trkpt>
      <trkpt lat="42.670248" lon="-1.584513">
        <ele>903.8</ele>
        <time>2010-05-08T05:36:35Z</time>
      </trkpt>
      <trkpt lat="42.670259" lon="-1.584495">
        <ele>903.8</ele>
        <time>2010-05-08T05:36:38Z</time>
      </trkpt>
      <trkpt lat="42.670307" lon="-1.584457">
        <ele>905.2</ele>
        <time>2010-05-08T05:36:43Z</time>
      </trkpt>
      <trkpt lat="42.670526" lon="-1.584547">
        <ele>906.2</ele>
        <time>2010-05-08T05:36:56Z</time>
      </trkpt>
      <trkpt lat="42.670566" lon="-1.584598">
        <ele>907.6</ele>
        <time>2010-05-08T05:37:00Z</time>
      </trkpt>
      <trkpt lat="42.670635" lon="-1.584583">
        <ele>908.1</ele>
        <time>2010-05-08T05:37:04Z</time>
      </trkpt>
      <trkpt lat="42.670772" lon="-1.584661">
        <ele>909.5</ele>
        <time>2010-05-08T05:37:15Z</time>
      </trkpt>
      <trkpt lat="42.670811" lon="-1.584637">
        <ele>910.0</ele>
        <time>2010-05-08T05:37:17Z</time>
      </trkpt>
      <trkpt lat="42.670880" lon="-1.584665">
        <ele>911.0</ele>
        <time>2010-05-08T05:37:26Z</time>
      </trkpt>
      <trkpt lat="42.670909" lon="-1.584712">
        <ele>911.5</ele>
        <time>2010-05-08T05:37:35Z</time>
      </trkpt>
      <trkpt lat="42.670960" lon="-1.584765">
        <ele>912.4</ele>
        <time>2010-05-08T05:37:39Z</time>
      </trkpt>
      <trkpt lat="42.670971" lon="-1.584767">
        <ele>913.4</ele>
        <time>2010-05-08T05:37:41Z</time>
      </trkpt>
      <trkpt lat="42.670973" lon="-1.584812">
        <ele>913.4</ele>
        <time>2010-05-08T05:37:44Z</time>
      </trkpt>
      <trkpt lat="42.671067" lon="-1.584816">
        <ele>914.8</ele>
        <time>2010-05-08T05:37:53Z</time>
      </trkpt>
      <trkpt lat="42.671127" lon="-1.584830">
        <ele>914.8</ele>
        <time>2010-05-08T05:37:58Z</time>
      </trkpt>
      <trkpt lat="42.671252" lon="-1.584880">
        <ele>917.7</ele>
        <time>2010-05-08T05:38:10Z</time>
      </trkpt>
      <trkpt lat="42.671254" lon="-1.584885">
        <ele>917.7</ele>
        <time>2010-05-08T05:38:11Z</time>
      </trkpt>
      <trkpt lat="42.671336" lon="-1.584865">
        <ele>919.6</ele>
        <time>2010-05-08T05:38:22Z</time>
      </trkpt>
      <trkpt lat="42.671422" lon="-1.584851">
        <ele>920.1</ele>
        <time>2010-05-08T05:38:27Z</time>
      </trkpt>
      <trkpt lat="42.671424" lon="-1.584812">
        <ele>920.6</ele>
        <time>2010-05-08T05:38:30Z</time>
      </trkpt>
      <trkpt lat="42.671580" lon="-1.584730">
        <ele>922.0</ele>
        <time>2010-05-08T05:38:46Z</time>
      </trkpt>
      <trkpt lat="42.671652" lon="-1.584718">
        <ele>923.0</ele>
        <time>2010-05-08T05:38:54Z</time>
      </trkpt>
      <trkpt lat="42.671754" lon="-1.584659">
        <ele>924.5</ele>
        <time>2010-05-08T05:39:05Z</time>
      </trkpt>
      <trkpt lat="42.671790" lon="-1.584644">
        <ele>924.5</ele>
        <time>2010-05-08T05:39:10Z</time>
      </trkpt>
      <trkpt lat="42.671892" lon="-1.584615">
        <ele>926.8</ele>
        <time>2010-05-08T05:39:22Z</time>
      </trkpt>
      <trkpt lat="42.671990" lon="-1.584572">
        <ele>927.8</ele>
        <time>2010-05-08T05:39:32Z</time>
      </trkpt>
      <trkpt lat="42.672124" lon="-1.584486">
        <ele>929.2</ele>
        <time>2010-05-08T05:39:46Z</time>
      </trkpt>
      <trkpt lat="42.672212" lon="-1.584402">
        <ele>930.2</ele>
        <time>2010-05-08T05:39:57Z</time>
      </trkpt>
      <trkpt lat="42.672293" lon="-1.584363">
        <ele>931.7</ele>
        <time>2010-05-08T05:40:07Z</time>
      </trkpt>
      <trkpt lat="42.672370" lon="-1.584321">
        <ele>932.6</ele>
        <time>2010-05-08T05:40:15Z</time>
      </trkpt>
      <trkpt lat="42.672479" lon="-1.584243">
        <ele>934.1</ele>
        <time>2010-05-08T05:40:28Z</time>
      </trkpt>
      <trkpt lat="42.672579" lon="-1.584233">
        <ele>935.5</ele>
        <time>2010-05-08T05:40:39Z</time>
      </trkpt>
      <trkpt lat="42.672653" lon="-1.584223">
        <ele>936.9</ele>
        <time>2010-05-08T05:40:50Z</time>
      </trkpt>
      <trkpt lat="42.672653" lon="-1.584159">
        <ele>937.4</ele>
        <time>2010-05-08T05:40:52Z</time>
      </trkpt>
      <trkpt lat="42.672689" lon="-1.584189">
        <ele>936.9</ele>
        <time>2010-05-08T05:40:56Z</time>
      </trkpt>
      <trkpt lat="42.672777" lon="-1.584170">
        <ele>938.4</ele>
        <time>2010-05-08T05:41:08Z</time>
      </trkpt>
      <trkpt lat="42.672866" lon="-1.584146">
        <ele>939.8</ele>
        <time>2010-05-08T05:41:17Z</time>
      </trkpt>
      <trkpt lat="42.672880" lon="-1.584111">
        <ele>939.8</ele>
        <time>2010-05-08T05:41:21Z</time>
      </trkpt>
      <trkpt lat="42.672949" lon="-1.584049">
        <ele>940.3</ele>
        <time>2010-05-08T05:41:32Z</time>
      </trkpt>
      <trkpt lat="42.672992" lon="-1.583995">
        <ele>940.3</ele>
        <time>2010-05-08T05:41:46Z</time>
      </trkpt>
      <trkpt lat="42.673004" lon="-1.584017">
        <ele>940.8</ele>
        <time>2010-05-08T05:42:04Z</time>
      </trkpt>
      <trkpt lat="42.673004" lon="-1.584017">
        <ele>941.3</ele>
        <time>2010-05-08T05:42:05Z</time>
      </trkpt>
      <trkpt lat="42.673045" lon="-1.583969">
        <ele>941.3</ele>
        <time>2010-05-08T05:42:13Z</time>
      </trkpt>
      <trkpt lat="42.673182" lon="-1.583856">
        <ele>942.7</ele>
        <time>2010-05-08T05:42:25Z</time>
      </trkpt>
      <trkpt lat="42.673254" lon="-1.583761">
        <ele>943.7</ele>
        <time>2010-05-08T05:42:34Z</time>
      </trkpt>
      <trkpt lat="42.673425" lon="-1.583656">
        <ele>944.2</ele>
        <time>2010-05-08T05:42:48Z</time>
      </trkpt>
      <trkpt lat="42.673536" lon="-1.583576">
        <ele>945.6</ele>
        <time>2010-05-08T05:43:01Z</time>
      </trkpt>
      <trkpt lat="42.673611" lon="-1.583516">
        <ele>946.6</ele>
        <time>2010-05-08T05:43:12Z</time>
      </trkpt>
      <trkpt lat="42.673742" lon="-1.583378">
        <ele>946.6</ele>
        <time>2010-05-08T05:43:24Z</time>
      </trkpt>
      <trkpt lat="42.673741" lon="-1.583312">
        <ele>945.6</ele>
        <time>2010-05-08T05:43:28Z</time>
      </trkpt>
      <trkpt lat="42.673760" lon="-1.583280">
        <ele>946.1</ele>
        <time>2010-05-08T05:43:32Z</time>
      </trkpt>
      <trkpt lat="42.673859" lon="-1.583252">
        <ele>946.6</ele>
        <time>2010-05-08T05:43:42Z</time>
      </trkpt>
      <trkpt lat="42.673937" lon="-1.583176">
        <ele>946.1</ele>
        <time>2010-05-08T05:43:50Z</time>
      </trkpt>
      <trkpt lat="42.674002" lon="-1.583155">
        <ele>946.6</ele>
        <time>2010-05-08T05:43:56Z</time>
      </trkpt>
      <trkpt lat="42.674105" lon="-1.583158">
        <ele>946.6</ele>
        <time>2010-05-08T05:44:01Z</time>
      </trkpt>
      <trkpt lat="42.674271" lon="-1.583189">
        <ele>947.0</ele>
        <time>2010-05-08T05:44:13Z</time>
      </trkpt>
      <trkpt lat="42.674290" lon="-1.583192">
        <ele>947.5</ele>
        <time>2010-05-08T05:44:15Z</time>
      </trkpt>
      <trkpt lat="42.674316" lon="-1.583256">
        <ele>948.0</ele>
        <time>2010-05-08T05:44:19Z</time>
      </trkpt>
      <trkpt lat="42.674401" lon="-1.583269">
        <ele>948.0</ele>
        <time>2010-05-08T05:44:26Z</time>
      </trkpt>
      <trkpt lat="42.674543" lon="-1.583288">
        <ele>949.0</ele>
        <time>2010-05-08T05:44:36Z</time>
      </trkpt>
      <trkpt lat="42.674552" lon="-1.583320">
        <ele>949.4</ele>
        <time>2010-05-08T05:44:38Z</time>
      </trkpt>
      <trkpt lat="42.674621" lon="-1.583435">
        <ele>951.4</ele>
        <time>2010-05-08T05:44:52Z</time>
      </trkpt>
      <trkpt lat="42.674623" lon="-1.583380">
        <ele>951.4</ele>
        <time>2010-05-08T05:44:56Z</time>
      </trkpt>
      <trkpt lat="42.674784" lon="-1.583512">
        <ele>952.3</ele>
        <time>2010-05-08T05:45:06Z</time>
      </trkpt>
      <trkpt lat="42.674902" lon="-1.583564">
        <ele>952.8</ele>
        <time>2010-05-08T05:45:16Z</time>
      </trkpt>
      <trkpt lat="42.674958" lon="-1.583563">
        <ele>952.8</ele>
        <time>2010-05-08T05:45:25Z</time>
      </trkpt>
      <trkpt lat="42.675081" lon="-1.583585">
        <ele>953.3</ele>
        <time>2010-05-08T05:45:36Z</time>
      </trkpt>
      <trkpt lat="42.675098" lon="-1.583620">
        <ele>953.3</ele>
        <time>2010-05-08T05:45:37Z</time>
      </trkpt>
      <trkpt lat="42.675221" lon="-1.583621">
        <ele>952.8</ele>
        <time>2010-05-08T05:45:48Z</time>
      </trkpt>
      <trkpt lat="42.675304" lon="-1.583607">
        <ele>952.8</ele>
        <time>2010-05-08T05:45:58Z</time>
      </trkpt>
      <trkpt lat="42.675412" lon="-1.583623">
        <ele>952.8</ele>
        <time>2010-05-08T05:46:07Z</time>
      </trkpt>
      <trkpt lat="42.675476" lon="-1.583620">
        <ele>953.3</ele>
        <time>2010-05-08T05:46:16Z</time>
      </trkpt>
      <trkpt lat="42.675634" lon="-1.583671">
        <ele>953.3</ele>
        <time>2010-05-08T05:46:33Z</time>
      </trkpt>
      <trkpt lat="42.675768" lon="-1.583678">
        <ele>953.8</ele>
        <time>2010-05-08T05:46:43Z</time>
      </trkpt>
      <trkpt lat="42.675868" lon="-1.583588">
        <ele>954.2</ele>
        <time>2010-05-08T05:46:54Z</time>
      </trkpt>
      <trkpt lat="42.675986" lon="-1.583583">
        <ele>954.7</ele>
        <time>2010-05-08T05:47:04Z</time>
      </trkpt>
      <trkpt lat="42.676019" lon="-1.583534">
        <ele>956.2</ele>
        <time>2010-05-08T05:47:15Z</time>
      </trkpt>
      <trkpt lat="42.676056" lon="-1.583506">
        <ele>956.2</ele>
        <time>2010-05-08T05:47:16Z</time>
      </trkpt>
      <trkpt lat="42.676177" lon="-1.583524">
        <ele>957.1</ele>
        <time>2010-05-08T05:47:25Z</time>
      </trkpt>
      <trkpt lat="42.676253" lon="-1.583488">
        <ele>958.1</ele>
        <time>2010-05-08T05:47:34Z</time>
      </trkpt>
      <trkpt lat="42.676329" lon="-1.583484">
        <ele>959.0</ele>
        <time>2010-05-08T05:47:40Z</time>
      </trkpt>
      <trkpt lat="42.676407" lon="-1.583488">
        <ele>959.5</ele>
        <time>2010-05-08T05:47:46Z</time>
      </trkpt>
      <trkpt lat="42.676479" lon="-1.583379">
        <ele>960.0</ele>
        <time>2010-05-08T05:47:56Z</time>
      </trkpt>
      <trkpt lat="42.676591" lon="-1.583252">
        <ele>961.0</ele>
        <time>2010-05-08T05:48:09Z</time>
      </trkpt>
      <trkpt lat="42.676623" lon="-1.583186">
        <ele>961.0</ele>
        <time>2010-05-08T05:48:13Z</time>
      </trkpt>
      <trkpt lat="42.676659" lon="-1.583084">
        <ele>962.4</ele>
        <time>2010-05-08T05:48:20Z</time>
      </trkpt>
      <trkpt lat="42.676672" lon="-1.583040">
        <ele>962.9</ele>
        <time>2010-05-08T05:48:24Z</time>
      </trkpt>
      <trkpt lat="42.676780" lon="-1.582924">
        <ele>965.8</ele>
        <time>2010-05-08T05:48:37Z</time>
      </trkpt>
      <trkpt lat="42.676795" lon="-1.582859">
        <ele>966.7</ele>
        <time>2010-05-08T05:48:40Z</time>
      </trkpt>
      <trkpt lat="42.676849" lon="-1.582812">
        <ele>966.3</ele>
        <time>2010-05-08T05:48:45Z</time>
      </trkpt>
      <trkpt lat="42.676922" lon="-1.582693">
        <ele>966.3</ele>
        <time>2010-05-08T05:48:54Z</time>
      </trkpt>
      <trkpt lat="42.676957" lon="-1.582652">
        <ele>966.7</ele>
        <time>2010-05-08T05:48:58Z</time>
      </trkpt>
      <trkpt lat="42.676989" lon="-1.582607">
        <ele>967.2</ele>
        <time>2010-05-08T05:49:02Z</time>
      </trkpt>
      <trkpt lat="42.677026" lon="-1.582414">
        <ele>968.2</ele>
        <time>2010-05-08T05:49:12Z</time>
      </trkpt>
      <trkpt lat="42.677055" lon="-1.582305">
        <ele>968.7</ele>
        <time>2010-05-08T05:49:19Z</time>
      </trkpt>
      <trkpt lat="42.677118" lon="-1.582291">
        <ele>968.7</ele>
        <time>2010-05-08T05:49:22Z</time>
      </trkpt>
      <trkpt lat="42.677174" lon="-1.582234">
        <ele>969.6</ele>
        <time>2010-05-08T05:49:26Z</time>
      </trkpt>
      <trkpt lat="42.677189" lon="-1.582213">
        <ele>969.6</ele>
        <time>2010-05-08T05:49:28Z</time>
      </trkpt>
      <trkpt lat="42.677173" lon="-1.582167">
        <ele>970.6</ele>
        <time>2010-05-08T05:49:32Z</time>
      </trkpt>
      <trkpt lat="42.677284" lon="-1.582096">
        <ele>972.5</ele>
        <time>2010-05-08T05:49:44Z</time>
      </trkpt>
      <trkpt lat="42.677351" lon="-1.581995">
        <ele>974.4</ele>
        <time>2010-05-08T05:49:55Z</time>
      </trkpt>
      <trkpt lat="42.677441" lon="-1.581909">
        <ele>976.8</ele>
        <time>2010-05-08T05:50:07Z</time>
      </trkpt>
      <trkpt lat="42.677446" lon="-1.581872">
        <ele>976.8</ele>
        <time>2010-05-08T05:50:10Z</time>
      </trkpt>
      <trkpt lat="42.677463" lon="-1.581847">
        <ele>977.3</ele>
        <time>2010-05-08T05:50:14Z</time>
      </trkpt>
      <trkpt lat="42.677486" lon="-1.581813">
        <ele>978.3</ele>
        <time>2010-05-08T05:50:16Z</time>
      </trkpt>
      <trkpt lat="42.677562" lon="-1.581700">
        <ele>980.7</ele>
        <time>2010-05-08T05:50:28Z</time>
      </trkpt>
      <trkpt lat="42.677571" lon="-1.581693">
        <ele>980.2</ele>
        <time>2010-05-08T05:50:29Z</time>
      </trkpt>
      <trkpt lat="42.677648" lon="-1.581634">
        <ele>982.6</ele>
        <time>2010-05-08T05:50:37Z</time>
      </trkpt>
      <trkpt lat="42.677687" lon="-1.581585">
        <ele>983.1</ele>
        <time>2010-05-08T05:50:42Z</time>
      </trkpt>
      <trkpt lat="42.677709" lon="-1.581579">
        <ele>983.1</ele>
        <time>2010-05-08T05:50:44Z</time>
      </trkpt>
      <trkpt lat="42.677766" lon="-1.581532">
        <ele>983.1</ele>
        <time>2010-05-08T05:50:50Z</time>
      </trkpt>
      <trkpt lat="42.677870" lon="-1.581410">
        <ele>985.5</ele>
        <time>2010-05-08T05:51:02Z</time>
      </trkpt>
      <trkpt lat="42.677890" lon="-1.581375">
        <ele>986.0</ele>
        <time>2010-05-08T05:51:04Z</time>
      </trkpt>
      <trkpt lat="42.677982" lon="-1.581220">
        <ele>985.5</ele>
        <time>2010-05-08T05:51:15Z</time>
      </trkpt>
      <trkpt lat="42.678005" lon="-1.581178">
        <ele>986.0</ele>
        <time>2010-05-08T05:51:18Z</time>
      </trkpt>
      <trkpt lat="42.678059" lon="-1.581094">
        <ele>987.4</ele>
        <time>2010-05-08T05:51:24Z</time>
      </trkpt>
      <trkpt lat="42.678057" lon="-1.581065">
        <ele>986.9</ele>
        <time>2010-05-08T05:51:27Z</time>
      </trkpt>
      <trkpt lat="42.678142" lon="-1.580997">
        <ele>987.9</ele>
        <time>2010-05-08T05:51:32Z</time>
      </trkpt>
      <trkpt lat="42.678153" lon="-1.580938">
        <ele>989.3</ele>
        <time>2010-05-08T05:51:36Z</time>
      </trkpt>
      <trkpt lat="42.678154" lon="-1.580924">
        <ele>990.8</ele>
        <time>2010-05-08T05:51:38Z</time>
      </trkpt>
      <trkpt lat="42.678235" lon="-1.580839">
        <ele>991.7</ele>
        <time>2010-05-08T05:51:44Z</time>
      </trkpt>
      <trkpt lat="42.678335" lon="-1.580672">
        <ele>992.2</ele>
        <time>2010-05-08T05:51:55Z</time>
      </trkpt>
      <trkpt lat="42.678445" lon="-1.580514">
        <ele>993.2</ele>
        <time>2010-05-08T05:52:07Z</time>
      </trkpt>
      <trkpt lat="42.678461" lon="-1.580456">
        <ele>994.6</ele>
        <time>2010-05-08T05:52:11Z</time>
      </trkpt>
      <trkpt lat="42.678466" lon="-1.580409">
        <ele>994.6</ele>
        <time>2010-05-08T05:52:13Z</time>
      </trkpt>
      <trkpt lat="42.678519" lon="-1.580348">
        <ele>995.6</ele>
        <time>2010-05-08T05:52:17Z</time>
      </trkpt>
      <trkpt lat="42.678566" lon="-1.580314">
        <ele>995.6</ele>
        <time>2010-05-08T05:52:21Z</time>
      </trkpt>
      <trkpt lat="42.678575" lon="-1.580262">
        <ele>996.1</ele>
        <time>2010-05-08T05:52:24Z</time>
      </trkpt>
      <trkpt lat="42.678601" lon="-1.580165">
        <ele>997.0</ele>
        <time>2010-05-08T05:52:30Z</time>
      </trkpt>
      <trkpt lat="42.678612" lon="-1.580126">
        <ele>997.0</ele>
        <time>2010-05-08T05:52:33Z</time>
      </trkpt>
      <trkpt lat="42.678681" lon="-1.579976">
        <ele>999.4</ele>
        <time>2010-05-08T05:52:44Z</time>
      </trkpt>
      <trkpt lat="42.678717" lon="-1.579836">
        <ele>1001.3</ele>
        <time>2010-05-08T05:52:51Z</time>
      </trkpt>
      <trkpt lat="42.678733" lon="-1.579692">
        <ele>1002.8</ele>
        <time>2010-05-08T05:53:02Z</time>
      </trkpt>
      <trkpt lat="42.678748" lon="-1.579645">
        <ele>1003.8</ele>
        <time>2010-05-08T05:53:06Z</time>
      </trkpt>
      <trkpt lat="42.678748" lon="-1.579616">
        <ele>1004.2</ele>
        <time>2010-05-08T05:53:08Z</time>
      </trkpt>
      <trkpt lat="42.678754" lon="-1.579559">
        <ele>1005.2</ele>
        <time>2010-05-08T05:53:11Z</time>
      </trkpt>
      <trkpt lat="42.678759" lon="-1.579514">
        <ele>1005.2</ele>
        <time>2010-05-08T05:53:14Z</time>
      </trkpt>
      <trkpt lat="42.678787" lon="-1.579345">
        <ele>1007.1</ele>
        <time>2010-05-08T05:53:26Z</time>
      </trkpt>
      <trkpt lat="42.678819" lon="-1.579183">
        <ele>1010.5</ele>
        <time>2010-05-08T05:53:38Z</time>
      </trkpt>
      <trkpt lat="42.678849" lon="-1.579091">
        <ele>1011.9</ele>
        <time>2010-05-08T05:53:44Z</time>
      </trkpt>
      <trkpt lat="42.678912" lon="-1.579032">
        <ele>1012.4</ele>
        <time>2010-05-08T05:53:49Z</time>
      </trkpt>
      <trkpt lat="42.678937" lon="-1.578981">
        <ele>1013.4</ele>
        <time>2010-05-08T05:53:53Z</time>
      </trkpt>
      <trkpt lat="42.678950" lon="-1.578961">
        <ele>1013.4</ele>
        <time>2010-05-08T05:53:55Z</time>
      </trkpt>
      <trkpt lat="42.679017" lon="-1.578824">
        <ele>1015.3</ele>
        <time>2010-05-08T05:54:06Z</time>
      </trkpt>
      <trkpt lat="42.679046" lon="-1.578827">
        <ele>1015.8</ele>
        <time>2010-05-08T05:54:07Z</time>
      </trkpt>
      <trkpt lat="42.679102" lon="-1.578736">
        <ele>1017.2</ele>
        <time>2010-05-08T05:54:12Z</time>
      </trkpt>
      <trkpt lat="42.679097" lon="-1.578704">
        <ele>1017.2</ele>
        <time>2010-05-08T05:54:14Z</time>
      </trkpt>
      <trkpt lat="42.679108" lon="-1.578688">
        <ele>1017.7</ele>
        <time>2010-05-08T05:54:16Z</time>
      </trkpt>
      <trkpt lat="42.679152" lon="-1.578616">
        <ele>1018.2</ele>
        <time>2010-05-08T05:54:22Z</time>
      </trkpt>
      <trkpt lat="42.679166" lon="-1.578579">
        <ele>1019.1</ele>
        <time>2010-05-08T05:54:25Z</time>
      </trkpt>
      <trkpt lat="42.679181" lon="-1.578561">
        <ele>1019.6</ele>
        <time>2010-05-08T05:54:28Z</time>
      </trkpt>
      <trkpt lat="42.679244" lon="-1.578493">
        <ele>1021.1</ele>
        <time>2010-05-08T05:54:36Z</time>
      </trkpt>
      <trkpt lat="42.679286" lon="-1.578428">
        <ele>1022.5</ele>
        <time>2010-05-08T05:54:43Z</time>
      </trkpt>
      <trkpt lat="42.679316" lon="-1.578394">
        <ele>1023.9</ele>
        <time>2010-05-08T05:54:46Z</time>
      </trkpt>
      <trkpt lat="42.679353" lon="-1.578300">
        <ele>1023.9</ele>
        <time>2010-05-08T05:54:53Z</time>
      </trkpt>
      <trkpt lat="42.679402" lon="-1.578261">
        <ele>1024.4</ele>
        <time>2010-05-08T05:54:58Z</time>
      </trkpt>
      <trkpt lat="42.679434" lon="-1.578219">
        <ele>1025.4</ele>
        <time>2010-05-08T05:55:02Z</time>
      </trkpt>
      <trkpt lat="42.679548" lon="-1.578114">
        <ele>1027.3</ele>
        <time>2010-05-08T05:55:14Z</time>
      </trkpt>
      <trkpt lat="42.679615" lon="-1.577973">
        <ele>1028.8</ele>
        <time>2010-05-08T05:55:25Z</time>
      </trkpt>
      <trkpt lat="42.679633" lon="-1.577918">
        <ele>1028.8</ele>
        <time>2010-05-08T05:55:29Z</time>
      </trkpt>
      <trkpt lat="42.679719" lon="-1.577747">
        <ele>1029.7</ele>
        <time>2010-05-08T05:55:41Z</time>
      </trkpt>
      <trkpt lat="42.679844" lon="-1.577565">
        <ele>1031.6</ele>
        <time>2010-05-08T05:55:52Z</time>
      </trkpt>
      <trkpt lat="42.679882" lon="-1.577559">
        <ele>1031.6</ele>
        <time>2010-05-08T05:55:54Z</time>
      </trkpt>
      <trkpt lat="42.679924" lon="-1.577527">
        <ele>1033.6</ele>
        <time>2010-05-08T05:55:58Z</time>
      </trkpt>
      <trkpt lat="42.679942" lon="-1.577509">
        <ele>1033.6</ele>
        <time>2010-05-08T05:56:00Z</time>
      </trkpt>
      <trkpt lat="42.679954" lon="-1.577471">
        <ele>1033.1</ele>
        <time>2010-05-08T05:56:03Z</time>
      </trkpt>
      <trkpt lat="42.680068" lon="-1.577355">
        <ele>1035.5</ele>
        <time>2010-05-08T05:56:15Z</time>
      </trkpt>
      <trkpt lat="42.680107" lon="-1.577340">
        <ele>1036.0</ele>
        <time>2010-05-08T05:56:18Z</time>
      </trkpt>
      <trkpt lat="42.680179" lon="-1.577303">
        <ele>1036.9</ele>
        <time>2010-05-08T05:56:25Z</time>
      </trkpt>
      <trkpt lat="42.680194" lon="-1.577286">
        <ele>1037.4</ele>
        <time>2010-05-08T05:56:27Z</time>
      </trkpt>
      <trkpt lat="42.680251" lon="-1.577227">
        <ele>1037.9</ele>
        <time>2010-05-08T05:56:33Z</time>
      </trkpt>
      <trkpt lat="42.680344" lon="-1.577173">
        <ele>1038.8</ele>
        <time>2010-05-08T05:56:42Z</time>
      </trkpt>
      <trkpt lat="42.680349" lon="-1.577139">
        <ele>1039.8</ele>
        <time>2010-05-08T05:56:44Z</time>
      </trkpt>
      <trkpt lat="42.680477" lon="-1.577090">
        <ele>1041.7</ele>
        <time>2010-05-08T05:56:53Z</time>
      </trkpt>
      <trkpt lat="42.680501" lon="-1.577045">
        <ele>1042.7</ele>
        <time>2010-05-08T05:56:57Z</time>
      </trkpt>
      <trkpt lat="42.680518" lon="-1.577035">
        <ele>1043.2</ele>
        <time>2010-05-08T05:57:00Z</time>
      </trkpt>
      <trkpt lat="42.680624" lon="-1.576950">
        <ele>1044.6</ele>
        <time>2010-05-08T05:57:11Z</time>
      </trkpt>
      <trkpt lat="42.680655" lon="-1.576945">
        <ele>1045.6</ele>
        <time>2010-05-08T05:57:15Z</time>
      </trkpt>
      <trkpt lat="42.680692" lon="-1.576939">
        <ele>1046.5</ele>
        <time>2010-05-08T05:57:21Z</time>
      </trkpt>
      <trkpt lat="42.680731" lon="-1.576905">
        <ele>1046.5</ele>
        <time>2010-05-08T05:57:23Z</time>
      </trkpt>
      <trkpt lat="42.680812" lon="-1.576878">
        <ele>1047.5</ele>
        <time>2010-05-08T05:57:30Z</time>
      </trkpt>
      <trkpt lat="42.680832" lon="-1.576822">
        <ele>1049.4</ele>
        <time>2010-05-08T05:57:37Z</time>
      </trkpt>
      <trkpt lat="42.680874" lon="-1.576676">
        <ele>1052.8</ele>
        <time>2010-05-08T05:57:48Z</time>
      </trkpt>
      <trkpt lat="42.680895" lon="-1.576632">
        <ele>1053.7</ele>
        <time>2010-05-08T05:57:52Z</time>
      </trkpt>
      <trkpt lat="42.680893" lon="-1.576605">
        <ele>1054.2</ele>
        <time>2010-05-08T05:57:55Z</time>
      </trkpt>
      <trkpt lat="42.680903" lon="-1.576570">
        <ele>1054.7</ele>
        <time>2010-05-08T05:57:59Z</time>
      </trkpt>
      <trkpt lat="42.680966" lon="-1.576464">
        <ele>1057.6</ele>
        <time>2010-05-08T05:58:11Z</time>
      </trkpt>
      <trkpt lat="42.680974" lon="-1.576445">
        <ele>1058.1</ele>
        <time>2010-05-08T05:58:13Z</time>
      </trkpt>
      <trkpt lat="42.680992" lon="-1.576321">
        <ele>1060.5</ele>
        <time>2010-05-08T05:58:23Z</time>
      </trkpt>
      <trkpt lat="42.681031" lon="-1.576292">
        <ele>1062.4</ele>
        <time>2010-05-08T05:58:27Z</time>
      </trkpt>
      <trkpt lat="42.681037" lon="-1.576174">
        <ele>1063.8</ele>
        <time>2010-05-08T05:58:36Z</time>
      </trkpt>
      <trkpt lat="42.681071" lon="-1.576055">
        <ele>1065.8</ele>
        <time>2010-05-08T05:58:46Z</time>
      </trkpt>
      <trkpt lat="42.681092" lon="-1.576001">
        <ele>1067.7</ele>
        <time>2010-05-08T05:58:54Z</time>
      </trkpt>
      <trkpt lat="42.681119" lon="-1.575913">
        <ele>1068.6</ele>
        <time>2010-05-08T05:59:00Z</time>
      </trkpt>
      <trkpt lat="42.681138" lon="-1.575890">
        <ele>1069.1</ele>
        <time>2010-05-08T05:59:03Z</time>
      </trkpt>
      <trkpt lat="42.681149" lon="-1.575847">
        <ele>1070.1</ele>
        <time>2010-05-08T05:59:07Z</time>
      </trkpt>
      <trkpt lat="42.681170" lon="-1.575826">
        <ele>1070.1</ele>
        <time>2010-05-08T05:59:10Z</time>
      </trkpt>
      <trkpt lat="42.681176" lon="-1.575769">
        <ele>1071.5</ele>
        <time>2010-05-08T05:59:15Z</time>
      </trkpt>
      <trkpt lat="42.681194" lon="-1.575719">
        <ele>1072.5</ele>
        <time>2010-05-08T05:59:20Z</time>
      </trkpt>
      <trkpt lat="42.681185" lon="-1.575702">
        <ele>1072.5</ele>
        <time>2010-05-08T05:59:22Z</time>
      </trkpt>
      <trkpt lat="42.681256" lon="-1.575606">
        <ele>1074.9</ele>
        <time>2010-05-08T05:59:31Z</time>
      </trkpt>
      <trkpt lat="42.681257" lon="-1.575554">
        <ele>1076.3</ele>
        <time>2010-05-08T05:59:37Z</time>
      </trkpt>
      <trkpt lat="42.681293" lon="-1.575490">
        <ele>1077.8</ele>
        <time>2010-05-08T05:59:42Z</time>
      </trkpt>
      <trkpt lat="42.681327" lon="-1.575350">
        <ele>1080.7</ele>
        <time>2010-05-08T05:59:54Z</time>
      </trkpt>
      <trkpt lat="42.681336" lon="-1.575318">
        <ele>1081.1</ele>
        <time>2010-05-08T05:59:57Z</time>
      </trkpt>
      <trkpt lat="42.681367" lon="-1.575293">
        <ele>1081.1</ele>
        <time>2010-05-08T06:00:00Z</time>
      </trkpt>
      <trkpt lat="42.681373" lon="-1.575261">
        <ele>1081.6</ele>
        <time>2010-05-08T06:00:02Z</time>
      </trkpt>
      <trkpt lat="42.681423" lon="-1.575161">
        <ele>1084.0</ele>
        <time>2010-05-08T06:00:12Z</time>
      </trkpt>
      <trkpt lat="42.681437" lon="-1.575123">
        <ele>1084.5</ele>
        <time>2010-05-08T06:00:16Z</time>
      </trkpt>
      <trkpt lat="42.681474" lon="-1.575069">
        <ele>1085.9</ele>
        <time>2010-05-08T06:00:22Z</time>
      </trkpt>
      <trkpt lat="42.681517" lon="-1.575118">
        <ele>1086.4</ele>
        <time>2010-05-08T06:00:26Z</time>
      </trkpt>
      <trkpt lat="42.681601" lon="-1.575046">
        <ele>1084.6</ele>
        <time>2010-05-08T03:52:38Z</time>
      </trkpt>
      <trkpt lat="42.681717" lon="-1.575043">
        <ele>1083.9</ele>
        <time>2010-05-06T11:38:19Z</time>
      </trkpt>
      <trkpt lat="42.681832" lon="-1.574978">
        <ele>1083.5</ele>
        <time>2010-04-03T23:54:08Z</time>
      </trkpt>
      <trkpt lat="42.681924" lon="-1.574913">
        <ele>1083.1</ele>
        <time>2008-06-15T09:10:53Z</time>
      </trkpt>
      <trkpt lat="42.681991" lon="-1.574738">
        <ele>1081.8</ele>
        <time>1970-08-06T22:40:05Z</time>
      </trkpt>
      <trkpt lat="42.682058" lon="-1.574486">
        <ele>1079.8</ele>
        <time>1970-01-01T00:00:00Z</time>
      </trkpt>
      <trkpt lat="42.682124" lon="-1.574201">
        <ele>1075.9</ele>
        <time>1970-01-01T00:00:00Z</time>
      </trkpt>
      <trkpt lat="42.682191" lon="-1.573996">
        <ele>1073.7</ele>
        <time>1970-01-01T00:00:00Z</time>
      </trkpt>
      <trkpt lat="42.682282" lon="-1.573805">
        <ele>1070.1</ele>
        <time>1970-01-01T00:00:00Z</time>
      </trkpt>
      <trkpt lat="42.682409" lon="-1.573739">
        <ele>1067.7</ele>
        <time>1970-01-01T00:00:00Z</time>
      </trkpt>
      <trkpt lat="42.682523" lon="-1.573642">
        <ele>1065.1</ele>
        <time>1970-01-01T00:00:00Z</time>
      </trkpt>
      <trkpt lat="42.682638" lon="-1.573529">
        <ele>1061.9</ele>
        <time>1970-01-01T00:00:00Z</time>
      </trkpt>
      <trkpt lat="42.682612" lon="-1.573279">
        <ele>1060.5</ele>
        <time>1970-01-01T00:00:00Z</time>
      </trkpt>
      <trkpt lat="42.682528" lon="-1.573045">
        <ele>1061.2</ele>
        <time>1970-01-01T00:00:00Z</time>
      </trkpt>
      <trkpt lat="42.682491" lon="-1.572810">
        <ele>1060.5</ele>
        <time>1970-01-01T00:00:00Z</time>
      </trkpt>
      <trkpt lat="42.682569" lon="-1.572573">
        <ele>1057.7</ele>
        <time>1970-01-01T00:00:00Z</time>
      </trkpt>
      <trkpt lat="42.682649" lon="-1.572398">
        <ele>1055.6</ele>
        <time>1970-01-01T00:00:00Z</time>
      </trkpt>
      <trkpt lat="42.682728" lon="-1.572314">
        <ele>1053.3</ele>
        <time>2010-05-08T06:07:53Z</time>
      </trkpt>
      <trkpt lat="42.682681" lon="-1.572072">
        <ele>1052.8</ele>
        <time>2010-05-08T06:08:03Z</time>
      </trkpt>
      <trkpt lat="42.682842" lon="-1.571906">
        <ele>1051.3</ele>
        <time>2010-05-08T06:08:09Z</time>
      </trkpt>
      <trkpt lat="42.682880" lon="-1.571720">
        <ele>1049.9</ele>
        <time>2010-05-08T06:08:19Z</time>
      </trkpt>
      <trkpt lat="42.682933" lon="-1.571415">
        <ele>1048.4</ele>
        <time>2010-05-08T06:08:30Z</time>
      </trkpt>
      <trkpt lat="42.682911" lon="-1.571340">
        <ele>1049.4</ele>
        <time>2010-05-08T06:08:35Z</time>
      </trkpt>
      <trkpt lat="42.682834" lon="-1.571053">
        <ele>1048.4</ele>
        <time>2010-05-08T06:08:48Z</time>
      </trkpt>
      <trkpt lat="42.682856" lon="-1.570636">
        <ele>1048.4</ele>
        <time>2010-05-08T06:09:06Z</time>
      </trkpt>
      <trkpt lat="42.682814" lon="-1.570391">
        <ele>1048.4</ele>
        <time>2010-05-08T06:09:19Z</time>
      </trkpt>
      <trkpt lat="42.682681" lon="-1.570153">
        <ele>1049.4</ele>
        <time>2010-05-08T06:09:34Z</time>
      </trkpt>
      <trkpt lat="42.682564" lon="-1.569904">
        <ele>1049.4</ele>
        <time>2010-05-08T06:09:44Z</time>
      </trkpt>
      <trkpt lat="42.682619" lon="-1.569924">
        <ele>1049.4</ele>
        <time>2010-05-08T06:09:45Z</time>
      </trkpt>
      <trkpt lat="42.682635" lon="-1.569869">
        <ele>1049.4</ele>
        <time>2010-05-08T06:09:50Z</time>
      </trkpt>
      <trkpt lat="42.682685" lon="-1.569707">
        <ele>1048.9</ele>
        <time>2010-05-08T06:09:59Z</time>
      </trkpt>
      <trkpt lat="42.682658" lon="-1.569668">
        <ele>1049.4</ele>
        <time>2010-05-08T06:10:01Z</time>
      </trkpt>
      <trkpt lat="42.682658" lon="-1.569593">
        <ele>1048.9</ele>
        <time>2010-05-08T06:10:08Z</time>
      </trkpt>
      <trkpt lat="42.682689" lon="-1.569391">
        <ele>1048.4</ele>
        <time>2010-05-08T06:10:16Z</time>
      </trkpt>
      <trkpt lat="42.682638" lon="-1.569220">
        <ele>1047.0</ele>
        <time>2010-05-08T06:10:34Z</time>
      </trkpt>
      <trkpt lat="42.682634" lon="-1.568987">
        <ele>1046.1</ele>
        <time>2010-05-08T06:10:41Z</time>
      </trkpt>
      <trkpt lat="42.682664" lon="-1.568794">
        <ele>1045.6</ele>
        <time>2010-05-08T06:10:54Z</time>
      </trkpt>
      <trkpt lat="42.682637" lon="-1.568753">
        <ele>1045.6</ele>
        <time>2010-05-08T06:10:58Z</time>
      </trkpt>
      <trkpt lat="42.682807" lon="-1.568484">
        <ele>1043.7</ele>
        <time>2010-05-08T06:11:11Z</time>
      </trkpt>
      <trkpt lat="42.682810" lon="-1.568364">
        <ele>1042.7</ele>
        <time>2010-05-08T06:11:20Z</time>
      </trkpt>
      <trkpt lat="42.682876" lon="-1.568213">
        <ele>1041.7</ele>
        <time>2010-05-08T06:11:29Z</time>
      </trkpt>
      <trkpt lat="42.682928" lon="-1.567928">
        <ele>1041.7</ele>
        <time>2010-05-08T06:11:43Z</time>
      </trkpt>
      <trkpt lat="42.682923" lon="-1.567607">
        <ele>1041.2</ele>
        <time>2010-05-08T06:12:01Z</time>
      </trkpt>
      <trkpt lat="42.682984" lon="-1.567250">
        <ele>1039.3</ele>
        <time>2010-05-08T06:12:30Z</time>
      </trkpt>
      <trkpt lat="42.682951" lon="-1.566903">
        <ele>1038.4</ele>
        <time>2010-05-08T06:12:48Z</time>
      </trkpt>
      <trkpt lat="42.683044" lon="-1.566773">
        <ele>1038.4</ele>
        <time>2010-05-08T06:12:57Z</time>
      </trkpt>
      <trkpt lat="42.683028" lon="-1.566574">
        <ele>1037.9</ele>
        <time>2010-05-08T06:13:08Z</time>
      </trkpt>
      <trkpt lat="42.683123" lon="-1.566390">
        <ele>1036.4</ele>
        <time>2010-05-08T06:13:20Z</time>
      </trkpt>
      <trkpt lat="42.683181" lon="-1.566269">
        <ele>1035.5</ele>
        <time>2010-05-08T06:14:12Z</time>
      </trkpt>
      <trkpt lat="42.683284" lon="-1.565706">
        <ele>1033.6</ele>
        <time>2010-05-08T06:14:22Z</time>
      </trkpt>
      <trkpt lat="42.683303" lon="-1.565433">
        <ele>1031.6</ele>
        <time>2010-05-08T06:14:32Z</time>
      </trkpt>
      <trkpt lat="42.683319" lon="-1.565005">
        <ele>1030.7</ele>
        <time>2010-05-08T06:14:52Z</time>
      </trkpt>
      <trkpt lat="42.683272" lon="-1.564878">
        <ele>1028.8</ele>
        <time>2010-05-08T06:15:04Z</time>
      </trkpt>
      <trkpt lat="42.683175" lon="-1.564449">
        <ele>1026.8</ele>
        <time>2010-05-08T06:15:44Z</time>
      </trkpt>
      <trkpt lat="42.683157" lon="-1.564346">
        <ele>1027.3</ele>
        <time>2010-05-08T06:15:55Z</time>
      </trkpt>
      <trkpt lat="42.683169" lon="-1.564264">
        <ele>1028.3</ele>
        <time>2010-05-08T06:16:02Z</time>
      </trkpt>
      <trkpt lat="42.683146" lon="-1.564023">
        <ele>1028.3</ele>
        <time>2010-05-08T06:16:08Z</time>
      </trkpt>
      <trkpt lat="42.683100" lon="-1.563954">
        <ele>1029.7</ele>
        <time>2010-05-08T06:16:23Z</time>
      </trkpt>
      <trkpt lat="42.683099" lon="-1.563850">
        <ele>1030.7</ele>
        <time>2010-05-08T06:16:34Z</time>
      </trkpt>
      <trkpt lat="42.683136" lon="-1.563514">
        <ele>1030.7</ele>
        <time>2010-05-08T06:16:43Z</time>
      </trkpt>
      <trkpt lat="42.683074" lon="-1.563518">
        <ele>1029.7</ele>
        <time>2010-05-08T06:16:46Z</time>
      </trkpt>
      <trkpt lat="42.683274" lon="-1.563227">
        <ele>1026.8</ele>
        <time>2010-05-08T06:17:02Z</time>
      </trkpt>
      <trkpt lat="42.683174" lon="-1.562995">
        <ele>1025.4</ele>
        <time>2010-05-08T06:17:17Z</time>
      </trkpt>
      <trkpt lat="42.683053" lon="-1.562832">
        <ele>1023.5</ele>
        <time>2010-05-08T06:17:30Z</time>
      </trkpt>
      <trkpt lat="42.683121" lon="-1.562413">
        <ele>1022.5</ele>
        <time>2010-05-08T06:17:45Z</time>
      </trkpt>
      <trkpt lat="42.682980" lon="-1.562160">
        <ele>1022.0</ele>
        <time>2010-05-08T06:18:00Z</time>
      </trkpt>
      <trkpt lat="42.683004" lon="-1.561946">
        <ele>1021.1</ele>
        <time>2010-05-08T06:18:07Z</time>
      </trkpt>
      <trkpt lat="42.682997" lon="-1.561836">
        <ele>1021.5</ele>
        <time>2010-05-08T06:18:21Z</time>
      </trkpt>
      <trkpt lat="42.682837" lon="-1.561458">
        <ele>1021.1</ele>
        <time>2010-05-08T06:18:35Z</time>
      </trkpt>
      <trkpt lat="42.682844" lon="-1.561361">
        <ele>1021.1</ele>
        <time>2010-05-08T06:18:37Z</time>
      </trkpt>
      <trkpt lat="42.682973" lon="-1.561289">
        <ele>1021.1</ele>
        <time>2010-05-08T06:18:40Z</time>
      </trkpt>
      <trkpt lat="42.682959" lon="-1.561025">
        <ele>1019.1</ele>
        <time>2010-05-08T06:18:51Z</time>
      </trkpt>
      <trkpt lat="42.683057" lon="-1.560725">
        <ele>1018.7</ele>
        <time>2010-05-08T06:19:01Z</time>
      </trkpt>
      <trkpt lat="42.683038" lon="-1.560638">
        <ele>1018.7</ele>
        <time>2010-05-08T06:19:03Z</time>
      </trkpt>
      <trkpt lat="42.683071" lon="-1.560436">
        <ele>1018.7</ele>
        <time>2010-05-08T06:19:09Z</time>
      </trkpt>
      <trkpt lat="42.683171" lon="-1.560166">
        <ele>1018.7</ele>
        <time>2010-05-08T06:19:18Z</time>
      </trkpt>
      <trkpt lat="42.683218" lon="-1.559885">
        <ele>1018.7</ele>
        <time>2010-05-08T06:19:25Z</time>
      </trkpt>
      <trkpt lat="42.683193" lon="-1.559849">
        <ele>1019.1</ele>
        <time>2010-05-08T06:19:28Z</time>
      </trkpt>
      <trkpt lat="42.683251" lon="-1.559561">
        <ele>1018.7</ele>
        <time>2010-05-08T06:19:36Z</time>
      </trkpt>
      <trkpt lat="42.683298" lon="-1.559209">
        <ele>1018.2</ele>
        <time>2010-05-08T06:19:49Z</time>
      </trkpt>
      <trkpt lat="42.683356" lon="-1.559074">
        <ele>1016.7</ele>
        <time>2010-05-08T06:20:03Z</time>
      </trkpt>
      <trkpt lat="42.683470" lon="-1.558878">
        <ele>1013.8</ele>
        <time>2010-05-08T06:20:13Z</time>
      </trkpt>
      <trkpt lat="42.683560" lon="-1.558707">
        <ele>1010.0</ele>
        <time>2010-05-08T06:20:23Z</time>
      </trkpt>
      <trkpt lat="42.683601" lon="-1.558391">
        <ele>1007.6</ele>
        <time>2010-05-08T06:20:33Z</time>
      </trkpt>
      <trkpt lat="42.683627" lon="-1.558211">
        <ele>1006.6</ele>
        <time>2010-05-08T06:20:45Z</time>
      </trkpt>
      <trkpt lat="42.683742" lon="-1.558056">
        <ele>1003.8</ele>
        <time>2010-05-08T06:20:57Z</time>
      </trkpt>
      <trkpt lat="42.683821" lon="-1.557893">
        <ele>1002.8</ele>
        <time>2010-05-08T06:21:11Z</time>
      </trkpt>
      <trkpt lat="42.683784" lon="-1.557782">
        <ele>1002.3</ele>
        <time>2010-05-08T06:21:23Z</time>
      </trkpt>
      <trkpt lat="42.683892" lon="-1.557539">
        <ele>1002.3</ele>
        <time>2010-05-08T06:21:34Z</time>
      </trkpt>
      <trkpt lat="42.683908" lon="-1.557485">
        <ele>1001.8</ele>
        <time>2010-05-08T06:21:39Z</time>
      </trkpt>
      <trkpt lat="42.684101" lon="-1.557344">
        <ele>999.0</ele>
        <time>2010-05-08T06:21:49Z</time>
      </trkpt>
      <trkpt lat="42.684220" lon="-1.557159">
        <ele>996.5</ele>
        <time>2010-05-08T06:21:58Z</time>
      </trkpt>
      <trkpt lat="42.684060" lon="-1.557059">
        <ele>997.0</ele>
        <time>2010-05-08T06:22:12Z</time>
      </trkpt>
      <trkpt lat="42.684057" lon="-1.556966">
        <ele>995.6</ele>
        <time>2010-05-08T06:22:31Z</time>
      </trkpt>
      <trkpt lat="42.684129" lon="-1.556533">
        <ele>995.6</ele>
        <time>2010-05-08T06:22:40Z</time>
      </trkpt>
      <trkpt lat="42.684149" lon="-1.556397">
        <ele>994.1</ele>
        <time>2010-05-08T06:22:50Z</time>
      </trkpt>
      <trkpt lat="42.684235" lon="-1.556170">
        <ele>990.8</ele>
        <time>2010-05-08T06:23:02Z</time>
      </trkpt>
      <trkpt lat="42.684308" lon="-1.556027">
        <ele>987.4</ele>
        <time>2010-05-08T06:23:13Z</time>
      </trkpt>
      <trkpt lat="42.684329" lon="-1.555863">
        <ele>986.5</ele>
        <time>2010-05-08T06:23:23Z</time>
      </trkpt>
      <trkpt lat="42.684358" lon="-1.555679">
        <ele>985.0</ele>
        <time>2010-05-08T06:23:35Z</time>
      </trkpt>
      <trkpt lat="42.684454" lon="-1.555560">
        <ele>983.6</ele>
        <time>2010-05-08T06:23:40Z</time>
      </trkpt>
      <trkpt lat="42.684518" lon="-1.555427">
        <ele>983.6</ele>
        <time>2010-05-08T06:23:50Z</time>
      </trkpt>
      <trkpt lat="42.684593" lon="-1.555338">
        <ele>980.7</ele>
        <time>2010-05-08T06:23:58Z</time>
      </trkpt>
      <trkpt lat="42.684540" lon="-1.555158">
        <ele>977.3</ele>
        <time>2010-05-08T06:24:14Z</time>
      </trkpt>
      <trkpt lat="42.684668" lon="-1.555037">
        <ele>976.8</ele>
        <time>2010-05-08T06:24:19Z</time>
      </trkpt>
      <trkpt lat="42.684747" lon="-1.554985">
        <ele>976.8</ele>
        <time>2010-05-08T06:24:27Z</time>
      </trkpt>
      <trkpt lat="42.684770" lon="-1.554772">
        <ele>976.8</ele>
        <time>2010-05-08T06:24:39Z</time>
      </trkpt>
      <trkpt lat="42.684768" lon="-1.554769">
        <ele>975.9</ele>
        <time>2010-05-08T06:24:41Z</time>
      </trkpt>
      <trkpt lat="42.684834" lon="-1.554645">
        <ele>972.5</ele>
        <time>2010-05-08T06:24:53Z</time>
      </trkpt>
      <trkpt lat="42.684883" lon="-1.554551">
        <ele>969.2</ele>
        <time>2010-05-08T06:25:04Z</time>
      </trkpt>
      <trkpt lat="42.684939" lon="-1.554403">
        <ele>967.7</ele>
        <time>2010-05-08T06:25:17Z</time>
      </trkpt>
      <trkpt lat="42.685111" lon="-1.554305">
        <ele>964.8</ele>
        <time>2010-05-08T06:25:39Z</time>
      </trkpt>
      <trkpt lat="42.685125" lon="-1.554302">
        <ele>964.3</ele>
        <time>2010-05-08T06:25:40Z</time>
      </trkpt>
      <trkpt lat="42.685181" lon="-1.554302">
        <ele>962.9</ele>
        <time>2010-05-08T06:25:50Z</time>
      </trkpt>
      <trkpt lat="42.685354" lon="-1.554245">
        <ele>961.9</ele>
        <time>2010-05-08T06:26:04Z</time>
      </trkpt>
      <trkpt lat="42.685411" lon="-1.554008">
        <ele>960.0</ele>
        <time>2010-05-08T06:26:25Z</time>
      </trkpt>
      <trkpt lat="42.685503" lon="-1.553769">
        <ele>959.5</ele>
        <time>2010-05-08T06:26:37Z</time>
      </trkpt>
      <trkpt lat="42.685624" lon="-1.553625">
        <ele>956.7</ele>
        <time>2010-05-08T06:26:48Z</time>
      </trkpt>
      <trkpt lat="42.685631" lon="-1.553592">
        <ele>953.8</ele>
        <time>2010-05-08T06:27:03Z</time>
      </trkpt>
      <trkpt lat="42.685764" lon="-1.553364">
        <ele>952.3</ele>
        <time>2010-05-08T06:27:16Z</time>
      </trkpt>
      <trkpt lat="42.685901" lon="-1.553272">
        <ele>949.0</ele>
        <time>2010-05-08T06:27:32Z</time>
      </trkpt>
      <trkpt lat="42.686020" lon="-1.553211">
        <ele>947.5</ele>
        <time>2010-05-08T06:27:43Z</time>
      </trkpt>
      <trkpt lat="42.686196" lon="-1.553097">
        <ele>946.6</ele>
        <time>2010-05-08T06:28:20Z</time>
      </trkpt>
      <trkpt lat="42.686352" lon="-1.552947">
        <ele>945.6</ele>
        <time>2010-05-08T06:28:31Z</time>
      </trkpt>
      <trkpt lat="42.686376" lon="-1.552918">
        <ele>945.1</ele>
        <time>2010-05-08T06:28:33Z</time>
      </trkpt>
      <trkpt lat="42.686395" lon="-1.552785">
        <ele>943.2</ele>
        <time>2010-05-08T06:28:53Z</time>
      </trkpt>
      <trkpt lat="42.686450" lon="-1.552646">
        <ele>942.2</ele>
        <time>2010-05-08T06:29:05Z</time>
      </trkpt>
      <trkpt lat="42.686482" lon="-1.552559">
        <ele>942.2</ele>
        <time>2010-05-08T06:29:10Z</time>
      </trkpt>
      <trkpt lat="42.686552" lon="-1.552462">
        <ele>941.8</ele>
        <time>2010-05-08T06:29:27Z</time>
      </trkpt>
      <trkpt lat="42.686643" lon="-1.552291">
        <ele>940.3</ele>
        <time>2010-05-08T06:29:42Z</time>
      </trkpt>
      <trkpt lat="42.686684" lon="-1.552229">
        <ele>939.8</ele>
        <time>2010-05-08T06:29:51Z</time>
      </trkpt>
      <trkpt lat="42.686708" lon="-1.552153">
        <ele>940.3</ele>
        <time>2010-05-08T06:30:00Z</time>
      </trkpt>
      <trkpt lat="42.686736" lon="-1.551914">
        <ele>937.9</ele>
        <time>2010-05-08T06:30:12Z</time>
      </trkpt>
      <trkpt lat="42.686749" lon="-1.551860">
        <ele>936.9</ele>
        <time>2010-05-08T06:30:17Z</time>
      </trkpt>
      <trkpt lat="42.686745" lon="-1.551759">
        <ele>937.4</ele>
        <time>2010-05-08T06:30:24Z</time>
      </trkpt>
      <trkpt lat="42.686737" lon="-1.551466">
        <ele>936.0</ele>
        <time>2010-05-08T06:30:36Z</time>
      </trkpt>
      <trkpt lat="42.686760" lon="-1.551270">
        <ele>935.0</ele>
        <time>2010-05-08T06:30:44Z</time>
      </trkpt>
      <trkpt lat="42.686728" lon="-1.551113">
        <ele>934.5</ele>
        <time>2010-05-08T06:30:51Z</time>
      </trkpt>
      <trkpt lat="42.686743" lon="-1.550786">
        <ele>933.6</ele>
        <time>2010-05-08T06:31:00Z</time>
      </trkpt>
      <trkpt lat="42.686711" lon="-1.550586">
        <ele>932.6</ele>
        <time>2010-05-08T06:31:07Z</time>
      </trkpt>
      <trkpt lat="42.686612" lon="-1.550251">
        <ele>931.2</ele>
        <time>2010-05-08T06:31:15Z</time>
      </trkpt>
      <trkpt lat="42.686601" lon="-1.550110">
        <ele>931.2</ele>
        <time>2010-05-08T06:31:19Z</time>
      </trkpt>
      <trkpt lat="42.686562" lon="-1.549859">
        <ele>929.7</ele>
        <time>2010-05-08T06:31:28Z</time>
      </trkpt>
      <trkpt lat="42.686686" lon="-1.549442">
        <ele>929.2</ele>
        <time>2010-05-08T06:31:33Z</time>
      </trkpt>
      <trkpt lat="42.686831" lon="-1.549118">
        <ele>927.8</ele>
        <time>2010-05-08T06:31:47Z</time>
      </trkpt>
      <trkpt lat="42.686806" lon="-1.548966">
        <ele>926.8</ele>
        <time>2010-05-08T06:31:53Z</time>
      </trkpt>
      <trkpt lat="42.686878" lon="-1.548596">
        <ele>924.9</ele>
        <time>2010-05-08T06:32:05Z</time>
      </trkpt>
      <trkpt lat="42.686829" lon="-1.548422">
        <ele>924.5</ele>
        <time>2010-05-08T06:32:12Z</time>
      </trkpt>
      <trkpt lat="42.686816" lon="-1.548386">
        <ele>923.5</ele>
        <time>2010-05-08T06:32:14Z</time>
      </trkpt>
      <trkpt lat="42.686773" lon="-1.548139">
        <ele>922.5</ele>
        <time>2010-05-08T06:32:25Z</time>
      </trkpt>
      <trkpt lat="42.686761" lon="-1.548080">
        <ele>922.5</ele>
        <time>2010-05-08T06:32:27Z</time>
      </trkpt>
      <trkpt lat="42.686773" lon="-1.547877">
        <ele>922.0</ele>
        <time>2010-05-08T06:32:33Z</time>
      </trkpt>
      <trkpt lat="42.686801" lon="-1.547679">
        <ele>920.6</ele>
        <time>2010-05-08T06:32:42Z</time>
      </trkpt>
      <trkpt lat="42.686838" lon="-1.547635">
        <ele>920.1</ele>
        <time>2010-05-08T06:32:46Z</time>
      </trkpt>
      <trkpt lat="42.686949" lon="-1.547460">
        <ele>918.2</ele>
        <time>2010-05-08T06:32:55Z</time>
      </trkpt>
      <trkpt lat="42.686985" lon="-1.547303">
        <ele>916.3</ele>
        <time>2010-05-08T06:33:02Z</time>
      </trkpt>
      <trkpt lat="42.687035" lon="-1.547157">
        <ele>915.8</ele>
        <time>2010-05-08T06:33:08Z</time>
      </trkpt>
      <trkpt lat="42.687085" lon="-1.546988">
        <ele>913.4</ele>
        <time>2010-05-08T06:33:17Z</time>
      </trkpt>
      <trkpt lat="42.687102" lon="-1.546953">
        <ele>912.9</ele>
        <time>2010-05-08T06:33:20Z</time>
      </trkpt>
      <trkpt lat="42.687138" lon="-1.546893">
        <ele>911.5</ele>
        <time>2010-05-08T06:33:24Z</time>
      </trkpt>
      <trkpt lat="42.687223" lon="-1.546799">
        <ele>910.5</ele>
        <time>2010-05-08T06:33:33Z</time>
      </trkpt>
      <trkpt lat="42.687271" lon="-1.546726">
        <ele>910.0</ele>
        <time>2010-05-08T06:33:38Z</time>
      </trkpt>
      <trkpt lat="42.687319" lon="-1.546621">
        <ele>909.1</ele>
        <time>2010-05-08T06:33:46Z</time>
      </trkpt>
      <trkpt lat="42.687471" lon="-1.546487">
        <ele>907.1</ele>
        <time>2010-05-08T06:33:56Z</time>
      </trkpt>
      <trkpt lat="42.687623" lon="-1.546274">
        <ele>905.2</ele>
        <time>2010-05-08T06:34:07Z</time>
      </trkpt>
      <trkpt lat="42.687732" lon="-1.546137">
        <ele>904.7</ele>
        <time>2010-05-08T06:34:16Z</time>
      </trkpt>
      <trkpt lat="42.687813" lon="-1.546106">
        <ele>904.3</ele>
        <time>2010-05-08T06:34:19Z</time>
      </trkpt>
      <trkpt lat="42.687865" lon="-1.545921">
        <ele>903.3</ele>
        <time>2010-05-08T06:34:25Z</time>
      </trkpt>
      <trkpt lat="42.687890" lon="-1.545835">
        <ele>902.3</ele>
        <time>2010-05-08T06:34:29Z</time>
      </trkpt>
      <trkpt lat="42.687945" lon="-1.545619">
        <ele>899.9</ele>
        <time>2010-05-08T06:34:38Z</time>
      </trkpt>
      <trkpt lat="42.687982" lon="-1.545469">
        <ele>899.0</ele>
        <time>2010-05-08T06:34:43Z</time>
      </trkpt>
      <trkpt lat="42.688019" lon="-1.545347">
        <ele>897.5</ele>
        <time>2010-05-08T06:34:48Z</time>
      </trkpt>
      <trkpt lat="42.688165" lon="-1.545038">
        <ele>895.6</ele>
        <time>2010-05-08T06:34:57Z</time>
      </trkpt>
      <trkpt lat="42.688175" lon="-1.545019">
        <ele>895.1</ele>
        <time>2010-05-08T06:34:58Z</time>
      </trkpt>
      <trkpt lat="42.688199" lon="-1.544964">
        <ele>894.2</ele>
        <time>2010-05-08T06:35:01Z</time>
      </trkpt>
      <trkpt lat="42.688227" lon="-1.544861">
        <ele>893.7</ele>
        <time>2010-05-08T06:35:06Z</time>
      </trkpt>
      <trkpt lat="42.688259" lon="-1.544818">
        <ele>893.2</ele>
        <time>2010-05-08T06:35:08Z</time>
      </trkpt>
      <trkpt lat="42.688300" lon="-1.544649">
        <ele>891.8</ele>
        <time>2010-05-08T06:35:16Z</time>
      </trkpt>
      <trkpt lat="42.688313" lon="-1.544534">
        <ele>891.3</ele>
        <time>2010-05-08T06:35:21Z</time>
      </trkpt>
      <trkpt lat="42.688425" lon="-1.544351">
        <ele>890.3</ele>
        <time>2010-05-08T06:35:30Z</time>
      </trkpt>
      <trkpt lat="42.688513" lon="-1.544171">
        <ele>888.4</ele>
        <time>2010-05-08T06:35:38Z</time>
      </trkpt>
      <trkpt lat="42.688597" lon="-1.544062">
        <ele>888.4</ele>
        <time>2010-05-08T06:35:42Z</time>
      </trkpt>
      <trkpt lat="42.688651" lon="-1.544006">
        <ele>887.4</ele>
        <time>2010-05-08T06:35:45Z</time>
      </trkpt>
      <trkpt lat="42.688754" lon="-1.543813">
        <ele>886.5</ele>
        <time>2010-05-08T06:35:52Z</time>
      </trkpt>
      <trkpt lat="42.688789" lon="-1.543750">
        <ele>886.0</ele>
        <time>2010-05-08T06:35:54Z</time>
      </trkpt>
      <trkpt lat="42.688861" lon="-1.543597">
        <ele>884.5</ele>
        <time>2010-05-08T06:35:59Z</time>
      </trkpt>
      <trkpt lat="42.688892" lon="-1.543582">
        <ele>884.1</ele>
        <time>2010-05-08T06:36:00Z</time>
      </trkpt>
      <trkpt lat="42.688922" lon="-1.543560">
        <ele>884.5</ele>
        <time>2010-05-08T06:36:01Z</time>
      </trkpt>
      <trkpt lat="42.688962" lon="-1.543475">
        <ele>884.5</ele>
        <time>2010-05-08T06:36:05Z</time>
      </trkpt>
      <trkpt lat="42.689033" lon="-1.543458">
        <ele>884.1</ele>
        <time>2010-05-08T06:36:08Z</time>
      </trkpt>
      <trkpt lat="42.689041" lon="-1.543229">
        <ele>882.2</ele>
        <time>2010-05-08T06:36:19Z</time>
      </trkpt>
      <trkpt lat="42.689102" lon="-1.542992">
        <ele>880.2</ele>
        <time>2010-05-08T06:36:30Z</time>
      </trkpt>
      <trkpt lat="42.689207" lon="-1.542934">
        <ele>879.3</ele>
        <time>2010-05-08T06:36:38Z</time>
      </trkpt>
      <trkpt lat="42.689367" lon="-1.542946">
        <ele>877.3</ele>
        <time>2010-05-08T06:36:49Z</time>
      </trkpt>
      <trkpt lat="42.689433" lon="-1.542907">
        <ele>876.4</ele>
        <time>2010-05-08T06:36:59Z</time>
      </trkpt>
      <trkpt lat="42.689558" lon="-1.542866">
        <ele>874.9</ele>
        <time>2010-05-08T06:37:07Z</time>
      </trkpt>
      <trkpt lat="42.689704" lon="-1.542823">
        <ele>873.5</ele>
        <time>2010-05-08T06:37:18Z</time>
      </trkpt>
      <trkpt lat="42.689743" lon="-1.542814">
        <ele>873.0</ele>
        <time>2010-05-08T06:37:21Z</time>
      </trkpt>
      <trkpt lat="42.689808" lon="-1.542708">
        <ele>871.6</ele>
        <time>2010-05-08T06:37:29Z</time>
      </trkpt>
      <trkpt lat="42.689788" lon="-1.542665">
        <ele>869.7</ele>
        <time>2010-05-08T06:37:32Z</time>
      </trkpt>
      <trkpt lat="42.689790" lon="-1.542631">
        <ele>868.7</ele>
        <time>2010-05-08T06:37:35Z</time>
      </trkpt>
      <trkpt lat="42.689934" lon="-1.542484">
        <ele>867.2</ele>
        <time>2010-05-08T06:37:45Z</time>
      </trkpt>
      <trkpt lat="42.689961" lon="-1.542438">
        <ele>867.2</ele>
        <time>2010-05-08T06:37:47Z</time>
      </trkpt>
      <trkpt lat="42.690029" lon="-1.542420">
        <ele>866.8</ele>
        <time>2010-05-08T06:37:49Z</time>
      </trkpt>
      <trkpt lat="42.690015" lon="-1.542356">
        <ele>867.2</ele>
        <time>2010-05-08T06:37:54Z</time>
      </trkpt>
      <trkpt lat="42.690001" lon="-1.542305">
        <ele>866.8</ele>
        <time>2010-05-08T06:37:56Z</time>
      </trkpt>
      <trkpt lat="42.689948" lon="-1.542172">
        <ele>865.8</ele>
        <time>2010-05-08T06:38:02Z</time>
      </trkpt>
      <trkpt lat="42.689927" lon="-1.542046">
        <ele>865.3</ele>
        <time>2010-05-08T06:38:14Z</time>
      </trkpt>
      <trkpt lat="42.689951" lon="-1.542029">
        <ele>866.8</ele>
        <time>2010-05-08T06:38:17Z</time>
      </trkpt>
      <trkpt lat="42.689998" lon="-1.541935">
        <ele>867.2</ele>
        <time>2010-05-08T06:38:23Z</time>
      </trkpt>
      <trkpt lat="42.690008" lon="-1.541865">
        <ele>868.2</ele>
        <time>2010-05-08T06:38:29Z</time>
      </trkpt>
      <trkpt lat="42.690084" lon="-1.541730">
        <ele>869.2</ele>
        <time>2010-05-08T06:38:36Z</time>
      </trkpt>
      <trkpt lat="42.690152" lon="-1.541578">
        <ele>870.1</ele>
        <time>2010-05-08T06:38:45Z</time>
      </trkpt>
      <trkpt lat="42.690193" lon="-1.541465">
        <ele>872.0</ele>
        <time>2010-05-08T06:38:54Z</time>
      </trkpt>
      <trkpt lat="42.690189" lon="-1.541431">
        <ele>869.7</ele>
        <time>2010-05-08T06:38:56Z</time>
      </trkpt>
      <trkpt lat="42.690190" lon="-1.541282">
        <ele>872.5</ele>
        <time>2010-05-08T06:39:03Z</time>
      </trkpt>
      <trkpt lat="42.690190" lon="-1.541231">
        <ele>874.0</ele>
        <time>2010-05-08T06:39:08Z</time>
      </trkpt>
      <trkpt lat="42.690148" lon="-1.541175">
        <ele>874.9</ele>
        <time>2010-05-08T06:39:13Z</time>
      </trkpt>
      <trkpt lat="42.690149" lon="-1.540963">
        <ele>876.4</ele>
        <time>2010-05-08T06:39:25Z</time>
      </trkpt>
      <trkpt lat="42.690156" lon="-1.540889">
        <ele>877.8</ele>
        <time>2010-05-08T06:39:29Z</time>
      </trkpt>
      <trkpt lat="42.690141" lon="-1.540758">
        <ele>878.8</ele>
        <time>2010-05-08T06:39:38Z</time>
      </trkpt>
      <trkpt lat="42.690151" lon="-1.540671">
        <ele>880.7</ele>
        <time>2010-05-08T06:39:44Z</time>
      </trkpt>
      <trkpt lat="42.690171" lon="-1.540546">
        <ele>882.2</ele>
        <time>2010-05-08T06:39:53Z</time>
      </trkpt>
      <trkpt lat="42.690173" lon="-1.540510">
        <ele>882.6</ele>
        <time>2010-05-08T06:39:55Z</time>
      </trkpt>
      <trkpt lat="42.690144" lon="-1.540464">
        <ele>883.1</ele>
        <time>2010-05-08T06:40:00Z</time>
      </trkpt>
      <trkpt lat="42.690145" lon="-1.540426">
        <ele>883.6</ele>
        <time>2010-05-08T06:40:02Z</time>
      </trkpt>
      <trkpt lat="42.690126" lon="-1.540358">
        <ele>884.5</ele>
        <time>2010-05-08T06:40:06Z</time>
      </trkpt>
      <trkpt lat="42.690115" lon="-1.540298">
        <ele>886.0</ele>
        <time>2010-05-08T06:40:11Z</time>
      </trkpt>
      <trkpt lat="42.690062" lon="-1.540135">
        <ele>888.9</ele>
        <time>2010-05-08T06:40:26Z</time>
      </trkpt>
      <trkpt lat="42.690023" lon="-1.540031">
        <ele>890.8</ele>
        <time>2010-05-08T06:40:33Z</time>
      </trkpt>
      <trkpt lat="42.690012" lon="-1.539914">
        <ele>891.3</ele>
        <time>2010-05-08T06:40:40Z</time>
      </trkpt>
      <trkpt lat="42.689990" lon="-1.539842">
        <ele>893.2</ele>
        <time>2010-05-08T06:40:48Z</time>
      </trkpt>
      <trkpt lat="42.689922" lon="-1.539742">
        <ele>894.6</ele>
        <time>2010-05-08T06:40:59Z</time>
      </trkpt>
      <trkpt lat="42.689872" lon="-1.539616">
        <ele>896.6</ele>
        <time>2010-05-08T06:41:10Z</time>
      </trkpt>
      <trkpt lat="42.689838" lon="-1.539533">
        <ele>898.0</ele>
        <time>2010-05-08T06:41:17Z</time>
      </trkpt>
      <trkpt lat="42.689816" lon="-1.539411">
        <ele>899.0</ele>
        <time>2010-05-08T06:41:25Z</time>
      </trkpt>
      <trkpt lat="42.689783" lon="-1.539244">
        <ele>900.9</ele>
        <time>2010-05-08T06:41:35Z</time>
      </trkpt>
      <trkpt lat="42.689780" lon="-1.539078">
        <ele>902.8</ele>
        <time>2010-05-08T06:41:47Z</time>
      </trkpt>
      <trkpt lat="42.689717" lon="-1.538990">
        <ele>904.3</ele>
        <time>2010-05-08T06:41:53Z</time>
      </trkpt>
      <trkpt lat="42.689682" lon="-1.538932">
        <ele>905.2</ele>
        <time>2010-05-08T06:41:59Z</time>
      </trkpt>
      <trkpt lat="42.689655" lon="-1.538838">
        <ele>907.6</ele>
        <time>2010-05-08T06:42:09Z</time>
      </trkpt>
      <trkpt lat="42.689614" lon="-1.538792">
        <ele>907.6</ele>
        <time>2010-05-08T06:42:13Z</time>
      </trkpt>
      <trkpt lat="42.689550" lon="-1.538732">
        <ele>909.1</ele>
        <time>2010-05-08T06:42:19Z</time>
      </trkpt>
      <trkpt lat="42.689488" lon="-1.538648">
        <ele>912.9</ele>
        <time>2010-05-08T06:42:34Z</time>
      </trkpt>
      <trkpt lat="42.689511" lon="-1.538461">
        <ele>916.3</ele>
        <time>2010-05-08T06:42:53Z</time>
      </trkpt>
      <trkpt lat="42.689494" lon="-1.538303">
        <ele>918.2</ele>
        <time>2010-05-08T06:43:07Z</time>
      </trkpt>
      <trkpt lat="42.689512" lon="-1.538114">
        <ele>920.6</ele>
        <time>2010-05-08T06:43:18Z</time>
      </trkpt>
      <trkpt lat="42.689518" lon="-1.537980">
        <ele>922.5</ele>
        <time>2010-05-08T06:43:33Z</time>
      </trkpt>
      <trkpt lat="42.689598" lon="-1.537907">
        <ele>923.5</ele>
        <time>2010-05-08T06:43:43Z</time>
      </trkpt>
      <trkpt lat="42.689874" lon="-1.537815">
        <ele>925.4</ele>
        <time>2010-05-08T06:43:52Z</time>
      </trkpt>
      <trkpt lat="42.689903" lon="-1.537794">
        <ele>925.9</ele>
        <time>2010-05-08T06:43:55Z</time>
      </trkpt>
      <trkpt lat="42.689943" lon="-1.537753">
        <ele>926.8</ele>
        <time>2010-05-08T06:43:59Z</time>
      </trkpt>
      <trkpt lat="42.689962" lon="-1.537719">
        <ele>927.3</ele>
        <time>2010-05-08T06:44:01Z</time>
      </trkpt>
      <trkpt lat="42.689971" lon="-1.537632">
        <ele>928.3</ele>
        <time>2010-05-08T06:44:05Z</time>
      </trkpt>
      <trkpt lat="42.689968" lon="-1.537592">
        <ele>928.8</ele>
        <time>2010-05-08T06:44:08Z</time>
      </trkpt>
      <trkpt lat="42.689985" lon="-1.537571">
        <ele>929.2</ele>
        <time>2010-05-08T06:44:10Z</time>
      </trkpt>
      <trkpt lat="42.689986" lon="-1.537549">
        <ele>930.2</ele>
        <time>2010-05-08T06:44:12Z</time>
      </trkpt>
      <trkpt lat="42.689970" lon="-1.537507">
        <ele>930.7</ele>
        <time>2010-05-08T06:44:17Z</time>
      </trkpt>
      <trkpt lat="42.690031" lon="-1.537422">
        <ele>932.1</ele>
        <time>2010-05-08T06:44:24Z</time>
      </trkpt>
      <trkpt lat="42.690037" lon="-1.537362">
        <ele>932.6</ele>
        <time>2010-05-08T06:44:28Z</time>
      </trkpt>
      <trkpt lat="42.689998" lon="-1.537306">
        <ele>932.6</ele>
        <time>2010-05-08T06:44:34Z</time>
      </trkpt>
      <trkpt lat="42.690026" lon="-1.537290">
        <ele>934.1</ele>
        <time>2010-05-08T06:44:37Z</time>
      </trkpt>
      <trkpt lat="42.690016" lon="-1.537269">
        <ele>933.6</ele>
        <time>2010-05-08T06:44:40Z</time>
      </trkpt>
      <trkpt lat="42.690002" lon="-1.537219">
        <ele>934.5</ele>
        <time>2010-05-08T06:44:43Z</time>
      </trkpt>
      <trkpt lat="42.690072" lon="-1.537100">
        <ele>936.9</ele>
        <time>2010-05-08T06:44:52Z</time>
      </trkpt>
      <trkpt lat="42.690139" lon="-1.537170">
        <ele>937.9</ele>
        <time>2010-05-08T06:44:56Z</time>
      </trkpt>
      <trkpt lat="42.690169" lon="-1.537149">
        <ele>937.9</ele>
        <time>2010-05-08T06:44:59Z</time>
      </trkpt>
      <trkpt lat="42.690285" lon="-1.537096">
        <ele>941.8</ele>
        <time>2010-05-08T06:45:10Z</time>
      </trkpt>
      <trkpt lat="42.690266" lon="-1.537071">
        <ele>941.8</ele>
        <time>2010-05-08T06:45:12Z</time>
      </trkpt>
      <trkpt lat="42.690298" lon="-1.537070">
        <ele>943.2</ele>
        <time>2010-05-08T06:45:18Z</time>
      </trkpt>
      <trkpt lat="42.690341" lon="-1.537031">
        <ele>945.1</ele>
        <time>2010-05-08T06:45:27Z</time>
      </trkpt>
      <trkpt lat="42.690430" lon="-1.536993">
        <ele>946.6</ele>
        <time>2010-05-08T06:45:37Z</time>
      </trkpt>
      <trkpt lat="42.690487" lon="-1.536933">
        <ele>948.0</ele>
        <time>2010-05-08T06:45:44Z</time>
      </trkpt>
      <trkpt lat="42.690500" lon="-1.536907">
        <ele>948.5</ele>
        <time>2010-05-08T06:45:46Z</time>
      </trkpt>
      <trkpt lat="42.690512" lon="-1.536845">
        <ele>949.4</ele>
        <time>2010-05-08T06:45:53Z</time>
      </trkpt>
      <trkpt lat="42.690555" lon="-1.536757">
        <ele>949.0</ele>
        <time>2010-05-08T06:45:58Z</time>
      </trkpt>
      <trkpt lat="42.690566" lon="-1.536721">
        <ele>949.9</ele>
        <time>2010-05-08T06:46:01Z</time>
      </trkpt>
      <trkpt lat="42.690562" lon="-1.536676">
        <ele>949.9</ele>
        <time>2010-05-08T06:46:05Z</time>
      </trkpt>
      <trkpt lat="42.690555" lon="-1.536565">
        <ele>949.9</ele>
        <time>2010-05-08T06:46:10Z</time>
      </trkpt>
      <trkpt lat="42.690601" lon="-1.536499">
        <ele>949.9</ele>
        <time>2010-05-08T06:46:13Z</time>
      </trkpt>
      <trkpt lat="42.690630" lon="-1.536427">
        <ele>950.9</ele>
        <time>2010-05-08T06:46:22Z</time>
      </trkpt>
      <trkpt lat="42.690662" lon="-1.536420">
        <ele>952.3</ele>
        <time>2010-05-08T06:46:26Z</time>
      </trkpt>
      <trkpt lat="42.690707" lon="-1.536448">
        <ele>953.8</ele>
        <time>2010-05-08T06:46:30Z</time>
      </trkpt>
      <trkpt lat="42.690733" lon="-1.536396">
        <ele>956.2</ele>
        <time>2010-05-08T06:46:42Z</time>
      </trkpt>
      <trkpt lat="42.690782" lon="-1.536354">
        <ele>959.0</ele>
        <time>2010-05-08T06:46:53Z</time>
      </trkpt>
      <trkpt lat="42.690837" lon="-1.536293">
        <ele>959.5</ele>
        <time>2010-05-08T06:46:54Z</time>
      </trkpt>
      <trkpt lat="42.690791" lon="-1.536306">
        <ele>959.5</ele>
        <time>2010-05-08T06:46:57Z</time>
      </trkpt>
      <trkpt lat="42.690882" lon="-1.536242">
        <ele>961.0</ele>
        <time>2010-05-08T06:47:04Z</time>
      </trkpt>
      <trkpt lat="42.690898" lon="-1.536188">
        <ele>961.5</ele>
        <time>2010-05-08T06:47:06Z</time>
      </trkpt>
      <trkpt lat="42.690969" lon="-1.536127">
        <ele>963.4</ele>
        <time>2010-05-08T06:47:16Z</time>
      </trkpt>
      <trkpt lat="42.690980" lon="-1.536078">
        <ele>964.8</ele>
        <time>2010-05-08T06:47:21Z</time>
      </trkpt>
      <trkpt lat="42.691032" lon="-1.536036">
        <ele>964.8</ele>
        <time>2010-05-08T06:47:25Z</time>
      </trkpt>
      <trkpt lat="42.691051" lon="-1.535936">
        <ele>967.7</ele>
        <time>2010-05-08T06:47:34Z</time>
      </trkpt>
      <trkpt lat="42.691133" lon="-1.535868">
        <ele>970.6</ele>
        <time>2010-05-08T06:47:45Z</time>
      </trkpt>
      <trkpt lat="42.691131" lon="-1.535855">
        <ele>970.6</ele>
        <time>2010-05-08T06:47:49Z</time>
      </trkpt>
      <trkpt lat="42.691215" lon="-1.535654">
        <ele>971.5</ele>
        <time>2010-05-08T06:48:01Z</time>
      </trkpt>
      <trkpt lat="42.691261" lon="-1.535515">
        <ele>972.5</ele>
        <time>2010-05-08T06:48:12Z</time>
      </trkpt>
      <trkpt lat="42.691281" lon="-1.535458">
        <ele>973.0</ele>
        <time>2010-05-08T06:48:16Z</time>
      </trkpt>
      <trkpt lat="42.691260" lon="-1.535323">
        <ele>974.0</ele>
        <time>2010-05-08T06:48:22Z</time>
      </trkpt>
      <trkpt lat="42.691278" lon="-1.535305">
        <ele>973.5</ele>
        <time>2010-05-08T06:48:25Z</time>
      </trkpt>
      <trkpt lat="42.691284" lon="-1.535150">
        <ele>974.0</ele>
        <time>2010-05-08T06:48:32Z</time>
      </trkpt>
      <trkpt lat="42.691373" lon="-1.535051">
        <ele>975.9</ele>
        <time>2010-05-08T06:48:39Z</time>
      </trkpt>
      <trkpt lat="42.691358" lon="-1.535070">
        <ele>976.4</ele>
        <time>2010-05-08T06:48:43Z</time>
      </trkpt>
      <trkpt lat="42.691411" lon="-1.535033">
        <ele>977.8</ele>
        <time>2010-05-08T06:48:56Z</time>
      </trkpt>
      <trkpt lat="42.691423" lon="-1.534966">
        <ele>979.7</ele>
        <time>2010-05-08T06:49:01Z</time>
      </trkpt>
      <trkpt lat="42.691418" lon="-1.534939">
        <ele>979.7</ele>
        <time>2010-05-08T06:49:03Z</time>
      </trkpt>
      <trkpt lat="42.691424" lon="-1.534855">
        <ele>982.1</ele>
        <time>2010-05-08T06:49:11Z</time>
      </trkpt>
      <trkpt lat="42.691429" lon="-1.534790">
        <ele>985.5</ele>
        <time>2010-05-08T06:49:26Z</time>
      </trkpt>
      <trkpt lat="42.691472" lon="-1.534740">
        <ele>987.9</ele>
        <time>2010-05-08T06:49:39Z</time>
      </trkpt>
      <trkpt lat="42.691543" lon="-1.534587">
        <ele>990.8</ele>
        <time>2010-05-08T06:49:56Z</time>
      </trkpt>
      <trkpt lat="42.691588" lon="-1.534537">
        <ele>992.2</ele>
        <time>2010-05-08T06:50:06Z</time>
      </trkpt>
      <trkpt lat="42.691563" lon="-1.534495">
        <ele>993.7</ele>
        <time>2010-05-08T06:50:09Z</time>
      </trkpt>
      <trkpt lat="42.691582" lon="-1.534397">
        <ele>993.7</ele>
        <time>2010-05-08T06:50:18Z</time>
      </trkpt>
      <trkpt lat="42.691599" lon="-1.534300">
        <ele>993.2</ele>
        <time>2010-05-08T06:50:22Z</time>
      </trkpt>
      <trkpt lat="42.691572" lon="-1.534121">
        <ele>991.7</ele>
        <time>2010-05-08T06:50:33Z</time>
      </trkpt>
      <trkpt lat="42.691644" lon="-1.534070">
        <ele>990.8</ele>
        <time>2010-05-08T06:50:39Z</time>
      </trkpt>
      <trkpt lat="42.691614" lon="-1.534011">
        <ele>991.3</ele>
        <time>2010-05-08T06:50:44Z</time>
      </trkpt>
      <trkpt lat="42.691690" lon="-1.533925">
        <ele>991.7</ele>
        <time>2010-05-08T06:50:55Z</time>
      </trkpt>
      <trkpt lat="42.691677" lon="-1.533921">
        <ele>993.7</ele>
        <time>2010-05-08T06:51:02Z</time>
      </trkpt>
      <trkpt lat="42.691745" lon="-1.533889">
        <ele>994.1</ele>
        <time>2010-05-08T06:51:08Z</time>
      </trkpt>
      <trkpt lat="42.691773" lon="-1.533879">
        <ele>996.1</ele>
        <time>2010-05-08T06:51:18Z</time>
      </trkpt>
      <trkpt lat="42.691855" lon="-1.533788">
        <ele>999.0</ele>
        <time>2010-05-08T06:51:29Z</time>
      </trkpt>
      <trkpt lat="42.691909" lon="-1.533759">
        <ele>1001.8</ele>
        <time>2010-05-08T06:51:42Z</time>
      </trkpt>
      <trkpt lat="42.691958" lon="-1.533660">
        <ele>1001.8</ele>
        <time>2010-05-08T06:51:52Z</time>
      </trkpt>
      <trkpt lat="42.691977" lon="-1.533603">
        <ele>1003.8</ele>
        <time>2010-05-08T06:52:04Z</time>
      </trkpt>
      <trkpt lat="42.692055" lon="-1.533486">
        <ele>1006.6</ele>
        <time>2010-05-08T06:52:23Z</time>
      </trkpt>
      <trkpt lat="42.692058" lon="-1.533458">
        <ele>1008.1</ele>
        <time>2010-05-08T06:52:31Z</time>
      </trkpt>
      <trkpt lat="42.692051" lon="-1.533386">
        <ele>1009.5</ele>
        <time>2010-05-08T06:52:41Z</time>
      </trkpt>
      <trkpt lat="42.692088" lon="-1.533310">
        <ele>1011.9</ele>
        <time>2010-05-08T06:52:50Z</time>
      </trkpt>
      <trkpt lat="42.692097" lon="-1.533215">
        <ele>1013.4</ele>
        <time>2010-05-08T06:53:02Z</time>
      </trkpt>
      <trkpt lat="42.692131" lon="-1.533191">
        <ele>1015.3</ele>
        <time>2010-05-08T06:53:17Z</time>
      </trkpt>
      <trkpt lat="42.692128" lon="-1.533202">
        <ele>1017.2</ele>
        <time>2010-05-08T06:53:27Z</time>
      </trkpt>
      <trkpt lat="42.692201" lon="-1.533185">
        <ele>1019.6</ele>
        <time>2010-05-08T06:53:41Z</time>
      </trkpt>
      <trkpt lat="42.692207" lon="-1.533229">
        <ele>1023.5</ele>
        <time>2010-05-08T06:53:59Z</time>
      </trkpt>
      <trkpt lat="42.692225" lon="-1.533218">
        <ele>1024.9</ele>
        <time>2010-05-08T06:54:09Z</time>
      </trkpt>
      <trkpt lat="42.692270" lon="-1.533198">
        <ele>1026.8</ele>
        <time>2010-05-08T06:54:20Z</time>
      </trkpt>
      <trkpt lat="42.692275" lon="-1.533156">
        <ele>1027.8</ele>
        <time>2010-05-08T06:54:29Z</time>
      </trkpt>
      <trkpt lat="42.692304" lon="-1.533159">
        <ele>1030.7</ele>
        <time>2010-05-08T06:54:38Z</time>
      </trkpt>
      <trkpt lat="42.692331" lon="-1.533156">
        <ele>1032.6</ele>
        <time>2010-05-08T06:54:52Z</time>
      </trkpt>
      <trkpt lat="42.692346" lon="-1.533122">
        <ele>1034.0</ele>
        <time>2010-05-08T06:55:03Z</time>
      </trkpt>
      <trkpt lat="42.692375" lon="-1.533099">
        <ele>1036.0</ele>
        <time>2010-05-08T06:55:20Z</time>
      </trkpt>
      <trkpt lat="42.692420" lon="-1.533075">
        <ele>1037.9</ele>
        <time>2010-05-08T06:55:33Z</time>
      </trkpt>
      <trkpt lat="42.692425" lon="-1.533063">
        <ele>1039.8</ele>
        <time>2010-05-08T06:55:37Z</time>
      </trkpt>
      <trkpt lat="42.692438" lon="-1.533035">
        <ele>1042.2</ele>
        <time>2010-05-08T06:55:48Z</time>
      </trkpt>
      <trkpt lat="42.692449" lon="-1.533102">
        <ele>1044.6</ele>
        <time>2010-05-08T06:55:57Z</time>
      </trkpt>
      <trkpt lat="42.692396" lon="-1.533179">
        <ele>1046.1</ele>
        <time>2010-05-08T06:56:06Z</time>
      </trkpt>
      <trkpt lat="42.692453" lon="-1.533176">
        <ele>1047.0</ele>
        <time>2010-05-08T06:56:13Z</time>
      </trkpt>
      <trkpt lat="42.692458" lon="-1.533178">
        <ele>1048.4</ele>
        <time>2010-05-08T06:56:24Z</time>
      </trkpt>
      <trkpt lat="42.692523" lon="-1.533193">
        <ele>1052.3</ele>
        <time>2010-05-08T06:56:38Z</time>
      </trkpt>
      <trkpt lat="42.692553" lon="-1.533214">
        <ele>1054.2</ele>
        <time>2010-05-08T06:56:54Z</time>
      </trkpt>
      <trkpt lat="42.692631" lon="-1.533201">
        <ele>1057.1</ele>
        <time>2010-05-08T06:57:08Z</time>
      </trkpt>
      <trkpt lat="42.692671" lon="-1.533202">
        <ele>1059.5</ele>
        <time>2010-05-08T06:57:19Z</time>
      </trkpt>
      <trkpt lat="42.692690" lon="-1.533234">
        <ele>1060.9</ele>
        <time>2010-05-08T06:57:29Z</time>
      </trkpt>
      <trkpt lat="42.692699" lon="-1.533277">
        <ele>1061.9</ele>
        <time>2010-05-08T06:57:36Z</time>
      </trkpt>
      <trkpt lat="42.692772" lon="-1.533336">
        <ele>1065.3</ele>
        <time>2010-05-08T06:57:49Z</time>
      </trkpt>
      <trkpt lat="42.692819" lon="-1.533304">
        <ele>1064.8</ele>
        <time>2010-05-08T06:57:53Z</time>
      </trkpt>
      <trkpt lat="42.692882" lon="-1.533306">
        <ele>1065.8</ele>
        <time>2010-05-08T06:57:58Z</time>
      </trkpt>
      <trkpt lat="42.692917" lon="-1.533342">
        <ele>1067.7</ele>
        <time>2010-05-08T06:58:06Z</time>
      </trkpt>
      <trkpt lat="42.692968" lon="-1.533355">
        <ele>1070.1</ele>
        <time>2010-05-08T06:58:18Z</time>
      </trkpt>
      <trkpt lat="42.693018" lon="-1.533342">
        <ele>1071.5</ele>
        <time>2010-05-08T06:58:28Z</time>
      </trkpt>
      <trkpt lat="42.693036" lon="-1.533351">
        <ele>1072.0</ele>
        <time>2010-05-08T06:58:29Z</time>
      </trkpt>
      <trkpt lat="42.693096" lon="-1.533331">
        <ele>1074.9</ele>
        <time>2010-05-08T06:58:42Z</time>
      </trkpt>
      <trkpt lat="42.693124" lon="-1.533347">
        <ele>1075.8</ele>
        <time>2010-05-08T06:58:49Z</time>
      </trkpt>
      <trkpt lat="42.693173" lon="-1.533296">
        <ele>1078.3</ele>
        <time>2010-05-08T06:59:00Z</time>
      </trkpt>
      <trkpt lat="42.693223" lon="-1.533248">
        <ele>1081.6</ele>
        <time>2010-05-08T06:59:16Z</time>
      </trkpt>
      <trkpt lat="42.693252" lon="-1.533227">
        <ele>1083.5</ele>
        <time>2010-05-08T06:59:23Z</time>
      </trkpt>
      <trkpt lat="42.693295" lon="-1.533197">
        <ele>1084.5</ele>
        <time>2010-05-08T06:59:29Z</time>
      </trkpt>
      <trkpt lat="42.693339" lon="-1.533131">
        <ele>1085.9</ele>
        <time>2010-05-08T06:59:39Z</time>
      </trkpt>
      <trkpt lat="42.693363" lon="-1.533108">
        <ele>1087.4</ele>
        <time>2010-05-08T06:59:49Z</time>
      </trkpt>
      <trkpt lat="42.693427" lon="-1.533070">
        <ele>1089.3</ele>
        <time>2010-05-08T07:00:01Z</time>
      </trkpt>
      <trkpt lat="42.693481" lon="-1.533049">
        <ele>1091.7</ele>
        <time>2010-05-08T07:00:09Z</time>
      </trkpt>
      <trkpt lat="42.693519" lon="-1.533046">
        <ele>1093.6</ele>
        <time>2010-05-08T07:00:17Z</time>
      </trkpt>
      <trkpt lat="42.693565" lon="-1.533022">
        <ele>1096.0</ele>
        <time>2010-05-08T07:00:27Z</time>
      </trkpt>
      <trkpt lat="42.693614" lon="-1.532967">
        <ele>1098.4</ele>
        <time>2010-05-08T07:00:41Z</time>
      </trkpt>
      <trkpt lat="42.693668" lon="-1.532907">
        <ele>1100.8</ele>
        <time>2010-05-08T07:00:54Z</time>
      </trkpt>
      <trkpt lat="42.693700" lon="-1.532898">
        <ele>1104.2</ele>
        <time>2010-05-08T07:01:07Z</time>
      </trkpt>
      <trkpt lat="42.693713" lon="-1.532850">
        <ele>1106.1</ele>
        <time>2010-05-08T07:01:16Z</time>
      </trkpt>
      <trkpt lat="42.693731" lon="-1.532821">
        <ele>1106.6</ele>
        <time>2010-05-08T07:01:22Z</time>
      </trkpt>
      <trkpt lat="42.693764" lon="-1.532767">
        <ele>1107.1</ele>
        <time>2010-05-08T07:01:26Z</time>
      </trkpt>
      <trkpt lat="42.693820" lon="-1.532692">
        <ele>1109.0</ele>
        <time>2010-05-08T07:01:34Z</time>
      </trkpt>
      <trkpt lat="42.693864" lon="-1.532618">
        <ele>1111.9</ele>
        <time>2010-05-08T07:01:45Z</time>
      </trkpt>
      <trkpt lat="42.693895" lon="-1.532549">
        <ele>1113.3</ele>
        <time>2010-05-08T07:01:55Z</time>
      </trkpt>
      <trkpt lat="42.693920" lon="-1.532487">
        <ele>1114.8</ele>
        <time>2010-05-08T07:02:04Z</time>
      </trkpt>
      <trkpt lat="42.693939" lon="-1.532374">
        <ele>1116.2</ele>
        <time>2010-05-08T07:02:13Z</time>
      </trkpt>
      <trkpt lat="42.693931" lon="-1.532330">
        <ele>1115.8</ele>
        <time>2010-05-08T07:02:16Z</time>
      </trkpt>
      <trkpt lat="42.693928" lon="-1.532169">
        <ele>1118.2</ele>
        <time>2010-05-08T07:02:28Z</time>
      </trkpt>
      <trkpt lat="42.693953" lon="-1.532098">
        <ele>1119.1</ele>
        <time>2010-05-08T07:02:36Z</time>
      </trkpt>
      <trkpt lat="42.693979" lon="-1.532071">
        <ele>1120.1</ele>
        <time>2010-05-08T07:02:41Z</time>
      </trkpt>
      <trkpt lat="42.694038" lon="-1.532037">
        <ele>1123.0</ele>
        <time>2010-05-08T07:02:50Z</time>
      </trkpt>
      <trkpt lat="42.694080" lon="-1.531974">
        <ele>1125.4</ele>
        <time>2010-05-08T07:03:05Z</time>
      </trkpt>
      <trkpt lat="42.694096" lon="-1.531891">
        <ele>1127.8</ele>
        <time>2010-05-08T07:03:18Z</time>
      </trkpt>
      <trkpt lat="42.694094" lon="-1.531872">
        <ele>1127.8</ele>
        <time>2010-05-08T07:03:20Z</time>
      </trkpt>
      <trkpt lat="42.694115" lon="-1.531799">
        <ele>1128.7</ele>
        <time>2010-05-08T07:03:30Z</time>
      </trkpt>
      <trkpt lat="42.694115" lon="-1.531704">
        <ele>1128.7</ele>
        <time>2010-05-08T07:03:39Z</time>
      </trkpt>
      <trkpt lat="42.694136" lon="-1.531610">
        <ele>1130.2</ele>
        <time>2010-05-08T07:03:52Z</time>
      </trkpt>
      <trkpt lat="42.694116" lon="-1.531547">
        <ele>1132.1</ele>
        <time>2010-05-08T07:04:04Z</time>
      </trkpt>
      <trkpt lat="42.694152" lon="-1.531502">
        <ele>1135.0</ele>
        <time>2010-05-08T07:04:13Z</time>
      </trkpt>
      <trkpt lat="42.694184" lon="-1.531487">
        <ele>1137.9</ele>
        <time>2010-05-08T07:04:31Z</time>
      </trkpt>
      <trkpt lat="42.694251" lon="-1.531456">
        <ele>1141.2</ele>
        <time>2010-05-08T07:04:46Z</time>
      </trkpt>
      <trkpt lat="42.694309" lon="-1.531421">
        <ele>1144.6</ele>
        <time>2010-05-08T07:05:00Z</time>
      </trkpt>
      <trkpt lat="42.694357" lon="-1.531376">
        <ele>1147.0</ele>
        <time>2010-05-08T07:05:15Z</time>
      </trkpt>
      <trkpt lat="42.694378" lon="-1.531384">
        <ele>1148.9</ele>
        <time>2010-05-08T07:05:29Z</time>
      </trkpt>
      <trkpt lat="42.694451" lon="-1.531334">
        <ele>1152.3</ele>
        <time>2010-05-08T07:05:46Z</time>
      </trkpt>
      <trkpt lat="42.694451" lon="-1.531321">
        <ele>1152.3</ele>
        <time>2010-05-08T07:05:50Z</time>
      </trkpt>
      <trkpt lat="42.694510" lon="-1.531205">
        <ele>1154.2</ele>
        <time>2010-05-08T07:06:13Z</time>
      </trkpt>
      <trkpt lat="42.694534" lon="-1.531190">
        <ele>1157.6</ele>
        <time>2010-05-08T07:08:10Z</time>
      </trkpt>
      <trkpt lat="42.694580" lon="-1.531161">
        <ele>1160.4</ele>
        <time>2010-05-08T07:08:43Z</time>
      </trkpt>
      <trkpt lat="42.694584" lon="-1.531143">
        <ele>1162.8</ele>
        <time>2010-05-08T07:09:29Z</time>
      </trkpt>
      <trkpt lat="42.694578" lon="-1.531192">
        <ele>1164.3</ele>
        <time>2010-05-08T07:10:06Z</time>
      </trkpt>
      <trkpt lat="42.694571" lon="-1.531165">
        <ele>1165.7</ele>
        <time>2010-05-08T07:10:16Z</time>
      </trkpt>
      <trkpt lat="42.694613" lon="-1.531201">
        <ele>1168.1</ele>
        <time>2010-05-08T07:11:02Z</time>
      </trkpt>
      <trkpt lat="42.694636" lon="-1.531253">
        <ele>1170.5</ele>
        <time>2010-05-08T07:11:24Z</time>
      </trkpt>
      <trkpt lat="42.694660" lon="-1.531215">
        <ele>1173.4</ele>
        <time>2010-05-08T07:12:19Z</time>
      </trkpt>
      <trkpt lat="42.694693" lon="-1.531207">
        <ele>1176.8</ele>
        <time>2010-05-08T07:12:53Z</time>
      </trkpt>
      <trkpt lat="42.694720" lon="-1.531202">
        <ele>1177.8</ele>
        <time>2010-05-08T07:13:28Z</time>
      </trkpt>
      <trkpt lat="42.694729" lon="-1.531195">
        <ele>1179.2</ele>
        <time>2010-05-08T07:13:53Z</time>
      </trkpt>
      <trkpt lat="42.694761" lon="-1.531177">
        <ele>1182.6</ele>
        <time>2010-05-08T07:14:34Z</time>
      </trkpt>
      <trkpt lat="42.694779" lon="-1.531193">
        <ele>1184.5</ele>
        <time>2010-05-08T07:14:57Z</time>
      </trkpt>
      <trkpt lat="42.694790" lon="-1.531192">
        <ele>1187.8</ele>
        <time>2010-05-08T07:15:28Z</time>
      </trkpt>
      <trkpt lat="42.694827" lon="-1.531161">
        <ele>1189.3</ele>
        <time>2010-05-08T07:15:41Z</time>
      </trkpt>
      <trkpt lat="42.694832" lon="-1.531180">
        <ele>1191.7</ele>
        <time>2010-05-08T07:16:06Z</time>
      </trkpt>
      <trkpt lat="42.694859" lon="-1.531168">
        <ele>1194.6</ele>
        <time>2010-05-08T07:16:27Z</time>
      </trkpt>
      <trkpt lat="42.694904" lon="-1.531164">
        <ele>1197.9</ele>
        <time>2010-05-08T07:16:47Z</time>
      </trkpt>
      <trkpt lat="42.694910" lon="-1.531163">
        <ele>1198.4</ele>
        <time>2010-05-08T07:16:52Z</time>
      </trkpt>
      <trkpt lat="42.694933" lon="-1.531150">
        <ele>1200.8</ele>
        <time>2010-05-08T07:17:07Z</time>
      </trkpt>
      <trkpt lat="42.694949" lon="-1.531146">
        <ele>1201.3</ele>
        <time>2010-05-08T07:17:15Z</time>
      </trkpt>
      <trkpt lat="42.694958" lon="-1.531144">
        <ele>1202.3</ele>
        <time>2010-05-08T07:17:28Z</time>
      </trkpt>
      <trkpt lat="42.694976" lon="-1.531147">
        <ele>1205.2</ele>
        <time>2010-05-08T07:17:48Z</time>
      </trkpt>
      <trkpt lat="42.695005" lon="-1.531220">
        <ele>1208.5</ele>
        <time>2010-05-08T07:18:10Z</time>
      </trkpt>
      <trkpt lat="42.695012" lon="-1.531238">
        <ele>1211.4</ele>
        <time>2010-05-08T07:18:27Z</time>
      </trkpt>
      <trkpt lat="42.695052" lon="-1.531200">
        <ele>1213.8</ele>
        <time>2010-05-08T07:18:57Z</time>
      </trkpt>
      <trkpt lat="42.695075" lon="-1.531150">
        <ele>1217.2</ele>
        <time>2010-05-08T07:19:13Z</time>
      </trkpt>
      <trkpt lat="42.695101" lon="-1.531182">
        <ele>1219.1</ele>
        <time>2010-05-08T07:19:29Z</time>
      </trkpt>
      <trkpt lat="42.695105" lon="-1.531253">
        <ele>1221.5</ele>
        <time>2010-05-08T07:19:39Z</time>
      </trkpt>
      <trkpt lat="42.695129" lon="-1.531329">
        <ele>1223.9</ele>
        <time>2010-05-08T07:19:50Z</time>
      </trkpt>
      <trkpt lat="42.695131" lon="-1.531326">
        <ele>1223.9</ele>
        <time>2010-05-08T07:19:51Z</time>
      </trkpt>
      <trkpt lat="42.695184" lon="-1.531353">
        <ele>1226.3</ele>
        <time>2010-05-08T07:20:03Z</time>
      </trkpt>
      <trkpt lat="42.695216" lon="-1.531311">
        <ele>1228.2</ele>
        <time>2010-05-08T07:20:15Z</time>
      </trkpt>
      <trkpt lat="42.695241" lon="-1.531316">
        <ele>1231.6</ele>
        <time>2010-05-08T07:20:48Z</time>
      </trkpt>
      <trkpt lat="42.695266" lon="-1.531353">
        <ele>1234.0</ele>
        <time>2010-05-08T07:20:59Z</time>
      </trkpt>
      <trkpt lat="42.695246" lon="-1.531388">
        <ele>1235.9</ele>
        <time>2010-05-08T07:21:46Z</time>
      </trkpt>
      <trkpt lat="42.695272" lon="-1.531345">
        <ele>1236.4</ele>
        <time>2010-05-08T07:22:14Z</time>
      </trkpt>
      <trkpt lat="42.695293" lon="-1.531382">
        <ele>1239.3</ele>
        <time>2010-05-08T07:22:39Z</time>
      </trkpt>
      <trkpt lat="42.695305" lon="-1.531447">
        <ele>1243.1</ele>
        <time>2010-05-08T07:22:58Z</time>
      </trkpt>
      <trkpt lat="42.695302" lon="-1.531462">
        <ele>1243.1</ele>
        <time>2010-05-08T07:22:59Z</time>
      </trkpt>
      <trkpt lat="42.695316" lon="-1.531518">
        <ele>1246.5</ele>
        <time>2010-05-08T07:23:10Z</time>
      </trkpt>
      <trkpt lat="42.695326" lon="-1.531536">
        <ele>1248.9</ele>
        <time>2010-05-08T07:23:27Z</time>
      </trkpt>
      <trkpt lat="42.695332" lon="-1.531594">
        <ele>1250.8</ele>
        <time>2010-05-08T07:23:48Z</time>
      </trkpt>
      <trkpt lat="42.695326" lon="-1.531630">
        <ele>1252.7</ele>
        <time>2010-05-08T07:24:00Z</time>
      </trkpt>
      <trkpt lat="42.695332" lon="-1.531648">
        <ele>1254.2</ele>
        <time>2010-05-08T07:24:03Z</time>
      </trkpt>
      <trkpt lat="42.695356" lon="-1.531675">
        <ele>1253.7</ele>
        <time>2010-05-08T07:24:06Z</time>
      </trkpt>
      <trkpt lat="42.695398" lon="-1.531656">
        <ele>1254.2</ele>
        <time>2010-05-08T07:24:10Z</time>
      </trkpt>
      <trkpt lat="42.695497" lon="-1.531625">
        <ele>1257.5</ele>
        <time>2010-05-08T07:24:22Z</time>
      </trkpt>
      <trkpt lat="42.695501" lon="-1.531629">
        <ele>1259.9</ele>
        <time>2010-05-08T07:24:35Z</time>
      </trkpt>
      <trkpt lat="42.695550" lon="-1.531636">
        <ele>1261.4</ele>
        <time>2010-05-08T07:24:40Z</time>
      </trkpt>
      <trkpt lat="42.695607" lon="-1.531502">
        <ele>1262.3</ele>
        <time>2010-05-08T07:24:53Z</time>
      </trkpt>
      <trkpt lat="42.695679" lon="-1.531446">
        <ele>1263.8</ele>
        <time>2010-05-08T07:25:02Z</time>
      </trkpt>
      <trkpt lat="42.695738" lon="-1.531436">
        <ele>1264.8</ele>
        <time>2010-05-08T07:25:12Z</time>
      </trkpt>
      <trkpt lat="42.695800" lon="-1.531444">
        <ele>1266.7</ele>
        <time>2010-05-08T07:25:21Z</time>
      </trkpt>
      <trkpt lat="42.695842" lon="-1.531450">
        <ele>1270.5</ele>
        <time>2010-05-08T07:25:35Z</time>
      </trkpt>
      <trkpt lat="42.695867" lon="-1.531438">
        <ele>1270.5</ele>
        <time>2010-05-08T07:25:37Z</time>
      </trkpt>
      <trkpt lat="42.695845" lon="-1.531332">
        <ele>1272.9</ele>
        <time>2010-05-08T07:25:46Z</time>
      </trkpt>
      <trkpt lat="42.695907" lon="-1.531318">
        <ele>1275.3</ele>
        <time>2010-05-08T07:25:55Z</time>
      </trkpt>
      <trkpt lat="42.695929" lon="-1.531253">
        <ele>1277.7</ele>
        <time>2010-05-08T07:26:07Z</time>
      </trkpt>
      <trkpt lat="42.695923" lon="-1.531238">
        <ele>1279.2</ele>
        <time>2010-05-08T07:26:10Z</time>
      </trkpt>
      <trkpt lat="42.695963" lon="-1.531106">
        <ele>1279.7</ele>
        <time>2010-05-08T07:26:20Z</time>
      </trkpt>
      <trkpt lat="42.695969" lon="-1.531066">
        <ele>1279.2</ele>
        <time>2010-05-08T07:26:22Z</time>
      </trkpt>
      <trkpt lat="42.696021" lon="-1.531003">
        <ele>1277.2</ele>
        <time>2010-05-08T07:26:28Z</time>
      </trkpt>
      <trkpt lat="42.696078" lon="-1.530836">
        <ele>1276.8</ele>
        <time>2010-05-08T07:26:41Z</time>
      </trkpt>
      <trkpt lat="42.696089" lon="-1.530700">
        <ele>1275.3</ele>
        <time>2010-05-08T07:26:53Z</time>
      </trkpt>
      <trkpt lat="42.696101" lon="-1.530603">
        <ele>1272.4</ele>
        <time>2010-05-08T07:27:03Z</time>
      </trkpt>
      <trkpt lat="42.696095" lon="-1.530499">
        <ele>1271.5</ele>
        <time>2010-05-08T07:27:11Z</time>
      </trkpt>
      <trkpt lat="42.696060" lon="-1.530432">
        <ele>1268.1</ele>
        <time>2010-05-08T07:27:16Z</time>
      </trkpt>
      <trkpt lat="42.696031" lon="-1.530368">
        <ele>1265.7</ele>
        <time>2010-05-08T07:27:23Z</time>
      </trkpt>
      <trkpt lat="42.696038" lon="-1.530311">
        <ele>1263.3</ele>
        <time>2010-05-08T07:27:27Z</time>
      </trkpt>
      <trkpt lat="42.696059" lon="-1.530297">
        <ele>1263.3</ele>
        <time>2010-05-08T07:27:28Z</time>
      </trkpt>
      <trkpt lat="42.696101" lon="-1.530252">
        <ele>1262.8</ele>
        <time>2010-05-08T07:27:32Z</time>
      </trkpt>
      <trkpt lat="42.696106" lon="-1.530162">
        <ele>1261.9</ele>
        <time>2010-05-08T07:27:37Z</time>
      </trkpt>
      <trkpt lat="42.696202" lon="-1.530102">
        <ele>1263.8</ele>
        <time>2010-05-08T07:27:49Z</time>
      </trkpt>
      <trkpt lat="42.696195" lon="-1.530098">
        <ele>1263.8</ele>
        <time>2010-05-08T07:27:54Z</time>
      </trkpt>
      <trkpt lat="42.696224" lon="-1.530152">
        <ele>1263.3</ele>
        <time>2010-05-08T07:28:01Z</time>
      </trkpt>
      <trkpt lat="42.696254" lon="-1.530192">
        <ele>1263.3</ele>
        <time>2010-05-08T07:28:15Z</time>
      </trkpt>
      <trkpt lat="42.696247" lon="-1.530140">
        <ele>1263.3</ele>
        <time>2010-05-08T07:29:03Z</time>
      </trkpt>
      <trkpt lat="42.696235" lon="-1.530144">
        <ele>1263.3</ele>
        <time>2010-05-08T07:30:30Z</time>
      </trkpt>
      <trkpt lat="42.696256" lon="-1.530148">
        <ele>1262.8</ele>
        <time>2010-05-08T07:31:01Z</time>
      </trkpt>
      <trkpt lat="42.696254" lon="-1.530174">
        <ele>1262.8</ele>
        <time>2010-05-08T07:31:40Z</time>
      </trkpt>
      <trkpt lat="42.696257" lon="-1.530213">
        <ele>1263.8</ele>
        <time>2010-05-08T07:31:56Z</time>
      </trkpt>
      <trkpt lat="42.696330" lon="-1.530238">
        <ele>1262.3</ele>
        <time>2010-05-08T07:32:03Z</time>
      </trkpt>
      <trkpt lat="42.696469" lon="-1.530433">
        <ele>1261.9</ele>
        <time>2010-05-08T07:32:18Z</time>
      </trkpt>
      <trkpt lat="42.696517" lon="-1.530485">
        <ele>1262.3</ele>
        <time>2010-05-08T07:32:23Z</time>
      </trkpt>
      <trkpt lat="42.696586" lon="-1.530626">
        <ele>1262.3</ele>
        <time>2010-05-08T07:32:37Z</time>
      </trkpt>
      <trkpt lat="42.696517" lon="-1.530603">
        <ele>1263.8</ele>
        <time>2010-05-08T07:32:44Z</time>
      </trkpt>
      <trkpt lat="42.696382" lon="-1.530516">
        <ele>1265.7</ele>
        <time>2010-05-08T07:32:55Z</time>
      </trkpt>
      <trkpt lat="42.696275" lon="-1.530453">
        <ele>1267.6</ele>
        <time>2010-05-08T07:33:02Z</time>
      </trkpt>
      <trkpt lat="42.696242" lon="-1.530489">
        <ele>1269.1</ele>
        <time>2010-05-08T07:33:07Z</time>
      </trkpt>
      <trkpt lat="42.696228" lon="-1.530537">
        <ele>1269.1</ele>
        <time>2010-05-08T07:33:10Z</time>
      </trkpt>
      <trkpt lat="42.696231" lon="-1.530599">
        <ele>1270.0</ele>
        <time>2010-05-08T07:33:14Z</time>
      </trkpt>
      <trkpt lat="42.696245" lon="-1.530637">
        <ele>1270.5</ele>
        <time>2010-05-08T07:33:16Z</time>
      </trkpt>
      <trkpt lat="42.696264" lon="-1.530657">
        <ele>1270.0</ele>
        <time>2010-05-08T07:33:18Z</time>
      </trkpt>
      <trkpt lat="42.696395" lon="-1.530779">
        <ele>1272.4</ele>
        <time>2010-05-08T07:33:30Z</time>
      </trkpt>
      <trkpt lat="42.696427" lon="-1.530810">
        <ele>1272.4</ele>
        <time>2010-05-08T07:33:33Z</time>
      </trkpt>
      <trkpt lat="42.696524" lon="-1.530941">
        <ele>1273.4</ele>
        <time>2010-05-08T07:33:44Z</time>
      </trkpt>
      <trkpt lat="42.696559" lon="-1.531091">
        <ele>1274.8</ele>
        <time>2010-05-08T07:33:51Z</time>
      </trkpt>
      <trkpt lat="42.696585" lon="-1.531116">
        <ele>1273.9</ele>
        <time>2010-05-08T07:33:53Z</time>
      </trkpt>
      <trkpt lat="42.696568" lon="-1.531286">
        <ele>1274.8</ele>
        <time>2010-05-08T07:34:05Z</time>
      </trkpt>
      <trkpt lat="42.696577" lon="-1.531310">
        <ele>1273.9</ele>
        <time>2010-05-08T07:34:06Z</time>
      </trkpt>
      <trkpt lat="42.696555" lon="-1.531347">
        <ele>1273.4</ele>
        <time>2010-05-08T07:34:08Z</time>
      </trkpt>
      <trkpt lat="42.696510" lon="-1.531364">
        <ele>1273.9</ele>
        <time>2010-05-08T07:34:13Z</time>
      </trkpt>
      <trkpt lat="42.696495" lon="-1.531463">
        <ele>1272.0</ele>
        <time>2010-05-08T07:34:20Z</time>
      </trkpt>
      <trkpt lat="42.696360" lon="-1.531503">
        <ele>1271.5</ele>
        <time>2010-05-08T07:34:31Z</time>
      </trkpt>
      <trkpt lat="42.696312" lon="-1.531536">
        <ele>1271.0</ele>
        <time>2010-05-08T07:34:40Z</time>
      </trkpt>
      <trkpt lat="42.696287" lon="-1.531573">
        <ele>1269.1</ele>
        <time>2010-05-08T07:34:45Z</time>
      </trkpt>
      <trkpt lat="42.696263" lon="-1.531603">
        <ele>1268.6</ele>
        <time>2010-05-08T07:34:47Z</time>
      </trkpt>
      <trkpt lat="42.696287" lon="-1.531708">
        <ele>1266.2</ele>
        <time>2010-05-08T07:34:52Z</time>
      </trkpt>
      <trkpt lat="42.696348" lon="-1.531682">
        <ele>1265.2</ele>
        <time>2010-05-08T07:34:55Z</time>
      </trkpt>
      <trkpt lat="42.696466" lon="-1.531730">
        <ele>1262.3</ele>
        <time>2010-05-08T07:35:06Z</time>
      </trkpt>
      <trkpt lat="42.696468" lon="-1.531786">
        <ele>1260.9</ele>
        <time>2010-05-08T07:35:09Z</time>
      </trkpt>
      <trkpt lat="42.696588" lon="-1.531803">
        <ele>1258.0</ele>
        <time>2010-05-08T07:35:17Z</time>
      </trkpt>
      <trkpt lat="42.696618" lon="-1.531832">
        <ele>1257.1</ele>
        <time>2010-05-08T07:35:20Z</time>
      </trkpt>
      <trkpt lat="42.696727" lon="-1.531874">
        <ele>1252.7</ele>
        <time>2010-05-08T07:35:30Z</time>
      </trkpt>
      <trkpt lat="42.696777" lon="-1.531893">
        <ele>1250.8</ele>
        <time>2010-05-08T07:35:35Z</time>
      </trkpt>
      <trkpt lat="42.696880" lon="-1.531919">
        <ele>1247.9</ele>
        <time>2010-05-08T07:35:45Z</time>
      </trkpt>
      <trkpt lat="42.696917" lon="-1.531909">
        <ele>1245.5</ele>
        <time>2010-05-08T07:35:48Z</time>
      </trkpt>
      <trkpt lat="42.696952" lon="-1.531889">
        <ele>1244.6</ele>
        <time>2010-05-08T07:35:52Z</time>
      </trkpt>
      <trkpt lat="42.696975" lon="-1.531907">
        <ele>1243.6</ele>
        <time>2010-05-08T07:35:54Z</time>
      </trkpt>
      <trkpt lat="42.696989" lon="-1.531958">
        <ele>1241.7</ele>
        <time>2010-05-08T07:35:57Z</time>
      </trkpt>
      <trkpt lat="42.697066" lon="-1.531976">
        <ele>1238.3</ele>
        <time>2010-05-08T07:36:04Z</time>
      </trkpt>
      <trkpt lat="42.697106" lon="-1.531984">
        <ele>1236.9</ele>
        <time>2010-05-08T07:36:08Z</time>
      </trkpt>
      <trkpt lat="42.697230" lon="-1.531961">
        <ele>1233.5</ele>
        <time>2010-05-08T07:36:17Z</time>
      </trkpt>
      <trkpt lat="42.697336" lon="-1.531918">
        <ele>1230.6</ele>
        <time>2010-05-08T07:36:26Z</time>
      </trkpt>
      <trkpt lat="42.697351" lon="-1.531944">
        <ele>1229.7</ele>
        <time>2010-05-08T07:36:28Z</time>
      </trkpt>
      <trkpt lat="42.697359" lon="-1.531964">
        <ele>1227.7</ele>
        <time>2010-05-08T07:36:33Z</time>
      </trkpt>
      <trkpt lat="42.697359" lon="-1.532057">
        <ele>1226.3</ele>
        <time>2010-05-08T07:36:40Z</time>
      </trkpt>
      <trkpt lat="42.697408" lon="-1.532043">
        <ele>1225.3</ele>
        <time>2010-05-08T07:36:43Z</time>
      </trkpt>
      <trkpt lat="42.697446" lon="-1.531976">
        <ele>1223.9</ele>
        <time>2010-05-08T07:36:49Z</time>
      </trkpt>
      <trkpt lat="42.697450" lon="-1.531941">
        <ele>1222.4</ele>
        <time>2010-05-08T07:36:51Z</time>
      </trkpt>
      <trkpt lat="42.697493" lon="-1.531937">
        <ele>1222.0</ele>
        <time>2010-05-08T07:36:55Z</time>
      </trkpt>
      <trkpt lat="42.697526" lon="-1.531998">
        <ele>1219.1</ele>
        <time>2010-05-08T07:37:03Z</time>
      </trkpt>
      <trkpt lat="42.697623" lon="-1.532038">
        <ele>1215.7</ele>
        <time>2010-05-08T07:37:12Z</time>
      </trkpt>
      <trkpt lat="42.697622" lon="-1.532132">
        <ele>1212.8</ele>
        <time>2010-05-08T07:37:21Z</time>
      </trkpt>
      <trkpt lat="42.697692" lon="-1.532147">
        <ele>1210.9</ele>
        <time>2010-05-08T07:37:28Z</time>
      </trkpt>
      <trkpt lat="42.697637" lon="-1.532270">
        <ele>1207.1</ele>
        <time>2010-05-08T07:37:40Z</time>
      </trkpt>
      <trkpt lat="42.697741" lon="-1.532288">
        <ele>1203.7</ele>
        <time>2010-05-08T07:37:50Z</time>
      </trkpt>
      <trkpt lat="42.697875" lon="-1.532198">
        <ele>1200.8</ele>
        <time>2010-05-08T07:38:02Z</time>
      </trkpt>
      <trkpt lat="42.697895" lon="-1.532186">
        <ele>1197.9</ele>
        <time>2010-05-08T07:38:09Z</time>
      </trkpt>
      <trkpt lat="42.697920" lon="-1.532188">
        <ele>1197.0</ele>
        <time>2010-05-08T07:38:11Z</time>
      </trkpt>
      <trkpt lat="42.697966" lon="-1.532191">
        <ele>1197.0</ele>
        <time>2010-05-08T07:38:12Z</time>
      </trkpt>
      <trkpt lat="42.698020" lon="-1.532141">
        <ele>1195.5</ele>
        <time>2010-05-08T07:38:18Z</time>
      </trkpt>
      <trkpt lat="42.698066" lon="-1.532166">
        <ele>1192.2</ele>
        <time>2010-05-08T07:38:31Z</time>
      </trkpt>
      <trkpt lat="42.698099" lon="-1.532165">
        <ele>1191.7</ele>
        <time>2010-05-08T07:38:37Z</time>
      </trkpt>
      <trkpt lat="42.698110" lon="-1.532207">
        <ele>1190.2</ele>
        <time>2010-05-08T07:38:40Z</time>
      </trkpt>
      <trkpt lat="42.698136" lon="-1.532262">
        <ele>1187.8</ele>
        <time>2010-05-08T07:38:48Z</time>
      </trkpt>
      <trkpt lat="42.698117" lon="-1.532318">
        <ele>1185.9</ele>
        <time>2010-05-08T07:38:52Z</time>
      </trkpt>
      <trkpt lat="42.698150" lon="-1.532330">
        <ele>1185.0</ele>
        <time>2010-05-08T07:38:56Z</time>
      </trkpt>
      <trkpt lat="42.698187" lon="-1.532289">
        <ele>1184.5</ele>
        <time>2010-05-08T07:38:58Z</time>
      </trkpt>
      <trkpt lat="42.698264" lon="-1.532204">
        <ele>1183.0</ele>
        <time>2010-05-08T07:39:10Z</time>
      </trkpt>
      <trkpt lat="42.698271" lon="-1.532237">
        <ele>1182.1</ele>
        <time>2010-05-08T07:39:14Z</time>
      </trkpt>
      <trkpt lat="42.698272" lon="-1.532276">
        <ele>1181.1</ele>
        <time>2010-05-08T07:39:18Z</time>
      </trkpt>
      <trkpt lat="42.698295" lon="-1.532272">
        <ele>1179.7</ele>
        <time>2010-05-08T07:39:21Z</time>
      </trkpt>
      <trkpt lat="42.698355" lon="-1.532276">
        <ele>1176.3</ele>
        <time>2010-05-08T07:39:33Z</time>
      </trkpt>
      <trkpt lat="42.698403" lon="-1.532277">
        <ele>1175.3</ele>
        <time>2010-05-08T07:39:37Z</time>
      </trkpt>
      <trkpt lat="42.698435" lon="-1.532257">
        <ele>1172.5</ele>
        <time>2010-05-08T07:39:47Z</time>
      </trkpt>
      <trkpt lat="42.698498" lon="-1.532233">
        <ele>1169.6</ele>
        <time>2010-05-08T07:39:57Z</time>
      </trkpt>
      <trkpt lat="42.698499" lon="-1.532224">
        <ele>1168.6</ele>
        <time>2010-05-08T07:39:59Z</time>
      </trkpt>
      <trkpt lat="42.698514" lon="-1.532192">
        <ele>1167.7</ele>
        <time>2010-05-08T07:40:01Z</time>
      </trkpt>
      <trkpt lat="42.698583" lon="-1.532145">
        <ele>1164.8</ele>
        <time>2010-05-08T07:40:12Z</time>
      </trkpt>
      <trkpt lat="42.698618" lon="-1.532103">
        <ele>1163.3</ele>
        <time>2010-05-08T07:40:17Z</time>
      </trkpt>
      <trkpt lat="42.698670" lon="-1.532070">
        <ele>1160.4</ele>
        <time>2010-05-08T07:40:30Z</time>
      </trkpt>
      <trkpt lat="42.698705" lon="-1.532028">
        <ele>1160.4</ele>
        <time>2010-05-08T07:40:34Z</time>
      </trkpt>
      <trkpt lat="42.698731" lon="-1.531973">
        <ele>1159.5</ele>
        <time>2010-05-08T07:40:40Z</time>
      </trkpt>
      <trkpt lat="42.698720" lon="-1.531842">
        <ele>1157.6</ele>
        <time>2010-05-08T07:40:52Z</time>
      </trkpt>
      <trkpt lat="42.698729" lon="-1.531812">
        <ele>1157.6</ele>
        <time>2010-05-08T07:40:54Z</time>
      </trkpt>
      <trkpt lat="42.698745" lon="-1.531692">
        <ele>1155.2</ele>
        <time>2010-05-08T07:41:08Z</time>
      </trkpt>
      <trkpt lat="42.698755" lon="-1.531678">
        <ele>1154.2</ele>
        <time>2010-05-08T07:41:12Z</time>
      </trkpt>
      <trkpt lat="42.698799" lon="-1.531471">
        <ele>1152.3</ele>
        <time>2010-05-08T07:41:21Z</time>
      </trkpt>
      <trkpt lat="42.698812" lon="-1.531589">
        <ele>1148.9</ele>
        <time>2010-05-08T07:41:29Z</time>
      </trkpt>
      <trkpt lat="42.698852" lon="-1.531512">
        <ele>1147.0</ele>
        <time>2010-05-08T07:41:35Z</time>
      </trkpt>
      <trkpt lat="42.698943" lon="-1.531414">
        <ele>1145.1</ele>
        <time>2010-05-08T07:41:44Z</time>
      </trkpt>
      <trkpt lat="42.698931" lon="-1.531352">
        <ele>1142.7</ele>
        <time>2010-05-08T07:41:49Z</time>
      </trkpt>
      <trkpt lat="42.699024" lon="-1.531349">
        <ele>1139.3</ele>
        <time>2010-05-08T07:42:01Z</time>
      </trkpt>
      <trkpt lat="42.699032" lon="-1.531215">
        <ele>1136.4</ele>
        <time>2010-05-08T07:42:08Z</time>
      </trkpt>
      <trkpt lat="42.699037" lon="-1.531219">
        <ele>1135.0</ele>
        <time>2010-05-08T07:42:11Z</time>
      </trkpt>
      <trkpt lat="42.699081" lon="-1.531276">
        <ele>1134.0</ele>
        <time>2010-05-08T07:42:14Z</time>
      </trkpt>
      <trkpt lat="42.699143" lon="-1.531358">
        <ele>1130.2</ele>
        <time>2010-05-08T07:42:22Z</time>
      </trkpt>
      <trkpt lat="42.699246" lon="-1.531456">
        <ele>1127.8</ele>
        <time>2010-05-08T07:42:28Z</time>
      </trkpt>
      <trkpt lat="42.699287" lon="-1.531508">
        <ele>1125.8</ele>
        <time>2010-05-08T07:42:32Z</time>
      </trkpt>
      <trkpt lat="42.699321" lon="-1.531600">
        <ele>1123.9</ele>
        <time>2010-05-08T07:42:36Z</time>
      </trkpt>
      <trkpt lat="42.699363" lon="-1.531705">
        <ele>1121.5</ele>
        <time>2010-05-08T07:42:44Z</time>
      </trkpt>
      <trkpt lat="42.699459" lon="-1.531808">
        <ele>1118.6</ele>
        <time>2010-05-08T07:42:52Z</time>
      </trkpt>
      <trkpt lat="42.699541" lon="-1.531944">
        <ele>1115.3</ele>
        <time>2010-05-08T07:43:00Z</time>
      </trkpt>
      <trkpt lat="42.699548" lon="-1.532024">
        <ele>1113.8</ele>
        <time>2010-05-08T07:43:04Z</time>
      </trkpt>
      <trkpt lat="42.699635" lon="-1.531967">
        <ele>1111.4</ele>
        <time>2010-05-08T07:43:09Z</time>
      </trkpt>
      <trkpt lat="42.699669" lon="-1.531922">
        <ele>1110.5</ele>
        <time>2010-05-08T07:43:11Z</time>
      </trkpt>
      <trkpt lat="42.699668" lon="-1.531877">
        <ele>1108.5</ele>
        <time>2010-05-08T07:43:15Z</time>
      </trkpt>
      <trkpt lat="42.699724" lon="-1.531831">
        <ele>1107.1</ele>
        <time>2010-05-08T07:43:18Z</time>
      </trkpt>
      <trkpt lat="42.699772" lon="-1.531795">
        <ele>1105.7</ele>
        <time>2010-05-08T07:43:21Z</time>
      </trkpt>
      <trkpt lat="42.699781" lon="-1.531826">
        <ele>1103.7</ele>
        <time>2010-05-08T07:43:26Z</time>
      </trkpt>
      <trkpt lat="42.699791" lon="-1.531854">
        <ele>1102.8</ele>
        <time>2010-05-08T07:43:29Z</time>
      </trkpt>
      <trkpt lat="42.699833" lon="-1.531918">
        <ele>1099.9</ele>
        <time>2010-05-08T07:43:34Z</time>
      </trkpt>
      <trkpt lat="42.699899" lon="-1.532003">
        <ele>1096.5</ele>
        <time>2010-05-08T07:43:42Z</time>
      </trkpt>
      <trkpt lat="42.699930" lon="-1.532013">
        <ele>1095.1</ele>
        <time>2010-05-08T07:43:44Z</time>
      </trkpt>
      <trkpt lat="42.699944" lon="-1.532030">
        <ele>1094.6</ele>
        <time>2010-05-08T07:43:45Z</time>
      </trkpt>
      <trkpt lat="42.700004" lon="-1.532134">
        <ele>1091.2</ele>
        <time>2010-05-08T07:43:51Z</time>
      </trkpt>
      <trkpt lat="42.700093" lon="-1.531993">
        <ele>1088.3</ele>
        <time>2010-05-08T07:43:59Z</time>
      </trkpt>
      <trkpt lat="42.700093" lon="-1.531993">
        <ele>1087.9</ele>
        <time>2010-05-08T07:44:01Z</time>
      </trkpt>
      <trkpt lat="42.700091" lon="-1.532061">
        <ele>1086.9</ele>
        <time>2010-05-08T07:44:03Z</time>
      </trkpt>
      <trkpt lat="42.700108" lon="-1.532120">
        <ele>1085.0</ele>
        <time>2010-05-08T07:44:07Z</time>
      </trkpt>
      <trkpt lat="42.700131" lon="-1.532126">
        <ele>1084.5</ele>
        <time>2010-05-08T07:44:08Z</time>
      </trkpt>
      <trkpt lat="42.700262" lon="-1.531929">
        <ele>1081.1</ele>
        <time>2010-05-08T07:44:15Z</time>
      </trkpt>
      <trkpt lat="42.700266" lon="-1.531861">
        <ele>1079.2</ele>
        <time>2010-05-08T07:44:19Z</time>
      </trkpt>
      <trkpt lat="42.700251" lon="-1.531916">
        <ele>1078.7</ele>
        <time>2010-05-08T07:44:21Z</time>
      </trkpt>
      <trkpt lat="42.700317" lon="-1.532059">
        <ele>1074.9</ele>
        <time>2010-05-08T07:44:28Z</time>
      </trkpt>
      <trkpt lat="42.700399" lon="-1.532276">
        <ele>1071.1</ele>
        <time>2010-05-08T07:44:36Z</time>
      </trkpt>
      <trkpt lat="42.700399" lon="-1.532293">
        <ele>1070.1</ele>
        <time>2010-05-08T07:44:37Z</time>
      </trkpt>
      <trkpt lat="42.700409" lon="-1.532320">
        <ele>1068.6</ele>
        <time>2010-05-08T07:44:40Z</time>
      </trkpt>
      <trkpt lat="42.700497" lon="-1.532385">
        <ele>1066.2</ele>
        <time>2010-05-08T07:44:44Z</time>
      </trkpt>
      <trkpt lat="42.700531" lon="-1.532435">
        <ele>1064.8</ele>
        <time>2010-05-08T07:44:47Z</time>
      </trkpt>
      <trkpt lat="42.700544" lon="-1.532441">
        <ele>1064.3</ele>
        <time>2010-05-08T07:44:48Z</time>
      </trkpt>
      <trkpt lat="42.700572" lon="-1.532540">
        <ele>1061.4</ele>
        <time>2010-05-08T07:44:53Z</time>
      </trkpt>
      <trkpt lat="42.700626" lon="-1.532613">
        <ele>1060.0</ele>
        <time>2010-05-08T07:44:56Z</time>
      </trkpt>
      <trkpt lat="42.700687" lon="-1.532712">
        <ele>1056.6</ele>
        <time>2010-05-08T07:45:01Z</time>
      </trkpt>
      <trkpt lat="42.700725" lon="-1.532787">
        <ele>1053.7</ele>
        <time>2010-05-08T07:45:06Z</time>
      </trkpt>
      <trkpt lat="42.700764" lon="-1.532841">
        <ele>1052.3</ele>
        <time>2010-05-08T07:45:09Z</time>
      </trkpt>
      <trkpt lat="42.700812" lon="-1.532890">
        <ele>1049.9</ele>
        <time>2010-05-08T07:45:13Z</time>
      </trkpt>
      <trkpt lat="42.700845" lon="-1.533065">
        <ele>1047.0</ele>
        <time>2010-05-08T07:45:18Z</time>
      </trkpt>
      <trkpt lat="42.700903" lon="-1.533159">
        <ele>1044.6</ele>
        <time>2010-05-08T07:45:22Z</time>
      </trkpt>
      <trkpt lat="42.700948" lon="-1.533196">
        <ele>1043.7</ele>
        <time>2010-05-08T07:45:24Z</time>
      </trkpt>
      <trkpt lat="42.700958" lon="-1.533287">
        <ele>1041.2</ele>
        <time>2010-05-08T07:45:28Z</time>
      </trkpt>
      <trkpt lat="42.701036" lon="-1.533373">
        <ele>1038.8</ele>
        <time>2010-05-08T07:45:33Z</time>
      </trkpt>
      <trkpt lat="42.701076" lon="-1.533509">
        <ele>1035.5</ele>
        <time>2010-05-08T07:45:39Z</time>
      </trkpt>
      <trkpt lat="42.701131" lon="-1.533547">
        <ele>1033.6</ele>
        <time>2010-05-08T07:45:43Z</time>
      </trkpt>
      <trkpt lat="42.701173" lon="-1.533736">
        <ele>1030.2</ele>
        <time>2010-05-08T07:45:51Z</time>
      </trkpt>
      <trkpt lat="42.701181" lon="-1.533765">
        <ele>1029.7</ele>
        <time>2010-05-08T07:45:52Z</time>
      </trkpt>
      <trkpt lat="42.701224" lon="-1.533862">
        <ele>1027.3</ele>
        <time>2010-05-08T07:46:06Z</time>
      </trkpt>
      <trkpt lat="42.701234" lon="-1.533873">
        <ele>1026.3</ele>
        <time>2010-05-08T07:46:07Z</time>
      </trkpt>
      <trkpt lat="42.701327" lon="-1.533894">
        <ele>1025.4</ele>
        <time>2010-05-08T07:46:12Z</time>
      </trkpt>
      <trkpt lat="42.701335" lon="-1.533934">
        <ele>1024.9</ele>
        <time>2010-05-08T07:46:14Z</time>
      </trkpt>
      <trkpt lat="42.701343" lon="-1.533964">
        <ele>1024.9</ele>
        <time>2010-05-08T07:46:16Z</time>
      </trkpt>
      <trkpt lat="42.701465" lon="-1.533887">
        <ele>1020.1</ele>
        <time>2010-05-08T07:46:25Z</time>
      </trkpt>
      <trkpt lat="42.701481" lon="-1.533833">
        <ele>1018.7</ele>
        <time>2010-05-08T07:46:28Z</time>
      </trkpt>
      <trkpt lat="42.701532" lon="-1.533834">
        <ele>1016.7</ele>
        <time>2010-05-08T07:46:34Z</time>
      </trkpt>
      <trkpt lat="42.701559" lon="-1.533845">
        <ele>1016.2</ele>
        <time>2010-05-08T07:46:35Z</time>
      </trkpt>
      <trkpt lat="42.701598" lon="-1.533759">
        <ele>1014.8</ele>
        <time>2010-05-08T07:46:40Z</time>
      </trkpt>
      <trkpt lat="42.701620" lon="-1.533722">
        <ele>1013.4</ele>
        <time>2010-05-08T07:46:44Z</time>
      </trkpt>
      <trkpt lat="42.701652" lon="-1.533518">
        <ele>1011.9</ele>
        <time>2010-05-08T07:46:53Z</time>
      </trkpt>
      <trkpt lat="42.701649" lon="-1.533488">
        <ele>1011.9</ele>
        <time>2010-05-08T07:46:55Z</time>
      </trkpt>
      <trkpt lat="42.701716" lon="-1.533439">
        <ele>1011.0</ele>
        <time>2010-05-08T07:46:59Z</time>
      </trkpt>
      <trkpt lat="42.701701" lon="-1.533372">
        <ele>1011.0</ele>
        <time>2010-05-08T07:47:01Z</time>
      </trkpt>
      <trkpt lat="42.701693" lon="-1.533259">
        <ele>1010.5</ele>
        <time>2010-05-08T07:47:04Z</time>
      </trkpt>
      <trkpt lat="42.701774" lon="-1.533157">
        <ele>1007.6</ele>
        <time>2010-05-08T07:47:11Z</time>
      </trkpt>
      <trkpt lat="42.701783" lon="-1.533144">
        <ele>1007.1</ele>
        <time>2010-05-08T07:47:12Z</time>
      </trkpt>
      <trkpt lat="42.701797" lon="-1.533125">
        <ele>1006.2</ele>
        <time>2010-05-08T07:47:14Z</time>
      </trkpt>
      <trkpt lat="42.701810" lon="-1.533085">
        <ele>1005.7</ele>
        <time>2010-05-08T07:47:15Z</time>
      </trkpt>
      <trkpt lat="42.701856" lon="-1.533096">
        <ele>1004.2</ele>
        <time>2010-05-08T07:47:17Z</time>
      </trkpt>
      <trkpt lat="42.701858" lon="-1.532913">
        <ele>1002.3</ele>
        <time>2010-05-08T07:47:23Z</time>
      </trkpt>
      <trkpt lat="42.701941" lon="-1.532827">
        <ele>998.5</ele>
        <time>2010-05-08T07:47:30Z</time>
      </trkpt>
      <trkpt lat="42.701898" lon="-1.532682">
        <ele>997.0</ele>
        <time>2010-05-08T07:47:38Z</time>
      </trkpt>
      <trkpt lat="42.701906" lon="-1.532748">
        <ele>994.6</ele>
        <time>2010-05-08T07:47:42Z</time>
      </trkpt>
      <trkpt lat="42.702000" lon="-1.532658">
        <ele>994.6</ele>
        <time>2010-05-08T07:47:47Z</time>
      </trkpt>
      <trkpt lat="42.702072" lon="-1.532390">
        <ele>992.2</ele>
        <time>2010-05-08T07:48:00Z</time>
      </trkpt>
      <trkpt lat="42.702098" lon="-1.532330">
        <ele>990.3</ele>
        <time>2010-05-08T07:48:05Z</time>
      </trkpt>
      <trkpt lat="42.702108" lon="-1.532316">
        <ele>988.8</ele>
        <time>2010-05-08T07:48:07Z</time>
      </trkpt>
      <trkpt lat="42.702155" lon="-1.532261">
        <ele>985.5</ele>
        <time>2010-05-08T07:48:13Z</time>
      </trkpt>
      <trkpt lat="42.702135" lon="-1.532213">
        <ele>985.0</ele>
        <time>2010-05-08T07:48:18Z</time>
      </trkpt>
      <trkpt lat="42.702203" lon="-1.532143">
        <ele>982.1</ele>
        <time>2010-05-08T07:48:25Z</time>
      </trkpt>
      <trkpt lat="42.702199" lon="-1.531875">
        <ele>979.2</ele>
        <time>2010-05-08T07:48:33Z</time>
      </trkpt>
      <trkpt lat="42.702255" lon="-1.531865">
        <ele>977.8</ele>
        <time>2010-05-08T07:48:35Z</time>
      </trkpt>
      <trkpt lat="42.702248" lon="-1.531753">
        <ele>976.4</ele>
        <time>2010-05-08T07:48:39Z</time>
      </trkpt>
      <trkpt lat="42.702237" lon="-1.531720">
        <ele>975.4</ele>
        <time>2010-05-08T07:48:41Z</time>
      </trkpt>
      <trkpt lat="42.702285" lon="-1.531637">
        <ele>973.5</ele>
        <time>2010-05-08T07:48:46Z</time>
      </trkpt>
      <trkpt lat="42.702288" lon="-1.531492">
        <ele>971.5</ele>
        <time>2010-05-08T07:48:51Z</time>
      </trkpt>
      <trkpt lat="42.702375" lon="-1.531478">
        <ele>968.2</ele>
        <time>2010-05-08T07:48:57Z</time>
      </trkpt>
      <trkpt lat="42.702376" lon="-1.531324">
        <ele>966.7</ele>
        <time>2010-05-08T07:49:00Z</time>
      </trkpt>
      <trkpt lat="42.702381" lon="-1.531292">
        <ele>965.3</ele>
        <time>2010-05-08T07:49:03Z</time>
      </trkpt>
      <trkpt lat="42.702461" lon="-1.531112">
        <ele>961.9</ele>
        <time>2010-05-08T07:49:10Z</time>
      </trkpt>
      <trkpt lat="42.702473" lon="-1.531109">
        <ele>961.9</ele>
        <time>2010-05-08T07:49:11Z</time>
      </trkpt>
      <trkpt lat="42.702475" lon="-1.531096">
        <ele>961.5</ele>
        <time>2010-05-08T07:49:13Z</time>
      </trkpt>
      <trkpt lat="42.702541" lon="-1.531049">
        <ele>958.6</ele>
        <time>2010-05-08T07:49:19Z</time>
      </trkpt>
      <trkpt lat="42.702509" lon="-1.530946">
        <ele>956.7</ele>
        <time>2010-05-08T07:49:25Z</time>
      </trkpt>
      <trkpt lat="42.702487" lon="-1.530717">
        <ele>954.2</ele>
        <time>2010-05-08T07:49:33Z</time>
      </trkpt>
      <trkpt lat="42.702459" lon="-1.530576">
        <ele>952.3</ele>
        <time>2010-05-08T07:49:47Z</time>
      </trkpt>
      <trkpt lat="42.702494" lon="-1.530556">
        <ele>949.0</ele>
        <time>2010-05-08T07:50:01Z</time>
      </trkpt>
      <trkpt lat="42.702531" lon="-1.530518">
        <ele>947.5</ele>
        <time>2010-05-08T07:50:14Z</time>
      </trkpt>
      <trkpt lat="42.702525" lon="-1.530279">
        <ele>945.6</ele>
        <time>2010-05-08T07:50:25Z</time>
      </trkpt>
      <trkpt lat="42.702464" lon="-1.530222">
        <ele>944.6</ele>
        <time>2010-05-08T07:50:31Z</time>
      </trkpt>
      <trkpt lat="42.702449" lon="-1.530138">
        <ele>943.2</ele>
        <time>2010-05-08T07:50:35Z</time>
      </trkpt>
      <trkpt lat="42.702343" lon="-1.529984">
        <ele>942.2</ele>
        <time>2010-05-08T07:50:43Z</time>
      </trkpt>
      <trkpt lat="42.702307" lon="-1.529710">
        <ele>938.9</ele>
        <time>2010-05-08T07:50:55Z</time>
      </trkpt>
      <trkpt lat="42.702295" lon="-1.529638">
        <ele>937.4</ele>
        <time>2010-05-08T07:51:00Z</time>
      </trkpt>
      <trkpt lat="42.702253" lon="-1.529366">
        <ele>934.5</ele>
        <time>2010-05-08T07:51:07Z</time>
      </trkpt>
      <trkpt lat="42.702222" lon="-1.529200">
        <ele>931.7</ele>
        <time>2010-05-08T07:51:15Z</time>
      </trkpt>
      <trkpt lat="42.702191" lon="-1.528975">
        <ele>929.2</ele>
        <time>2010-05-08T07:51:23Z</time>
      </trkpt>
      <trkpt lat="42.702224" lon="-1.528934">
        <ele>928.8</ele>
        <time>2010-05-08T07:51:27Z</time>
      </trkpt>
      <trkpt lat="42.702188" lon="-1.528838">
        <ele>927.8</ele>
        <time>2010-05-08T07:51:31Z</time>
      </trkpt>
      <trkpt lat="42.702083" lon="-1.528627">
        <ele>926.4</ele>
        <time>2010-05-08T07:51:43Z</time>
      </trkpt>
      <trkpt lat="42.702104" lon="-1.528615">
        <ele>925.9</ele>
        <time>2010-05-08T07:52:09Z</time>
      </trkpt>
      <trkpt lat="42.702146" lon="-1.528605">
        <ele>925.9</ele>
        <time>2010-05-08T07:52:12Z</time>
      </trkpt>
      <trkpt lat="42.702151" lon="-1.528601">
        <ele>926.4</ele>
        <time>2010-05-08T07:52:14Z</time>
      </trkpt>
      <trkpt lat="42.702158" lon="-1.528557">
        <ele>924.9</ele>
        <time>2010-05-08T07:52:16Z</time>
      </trkpt>
      <trkpt lat="42.702067" lon="-1.528302">
        <ele>922.5</ele>
        <time>2010-05-08T07:52:25Z</time>
      </trkpt>
      <trkpt lat="42.702060" lon="-1.528293">
        <ele>925.9</ele>
        <time>2010-05-08T07:52:26Z</time>
      </trkpt>
      <trkpt lat="42.702065" lon="-1.528267">
        <ele>922.0</ele>
        <time>2010-05-08T07:52:27Z</time>
      </trkpt>
      <trkpt lat="42.701999" lon="-1.528017">
        <ele>918.7</ele>
        <time>2010-05-08T07:52:36Z</time>
      </trkpt>
      <trkpt lat="42.701966" lon="-1.527924">
        <ele>917.2</ele>
        <time>2010-05-08T07:52:39Z</time>
      </trkpt>
      <trkpt lat="42.701911" lon="-1.527740">
        <ele>914.3</ele>
        <time>2010-05-08T07:52:47Z</time>
      </trkpt>
      <trkpt lat="42.701890" lon="-1.527673">
        <ele>913.9</ele>
        <time>2010-05-08T07:52:49Z</time>
      </trkpt>
      <trkpt lat="42.701868" lon="-1.527597">
        <ele>912.4</ele>
        <time>2010-05-08T07:52:51Z</time>
      </trkpt>
      <trkpt lat="42.701843" lon="-1.527491">
        <ele>911.5</ele>
        <time>2010-05-08T07:52:55Z</time>
      </trkpt>
      <trkpt lat="42.701769" lon="-1.527140">
        <ele>909.5</ele>
        <time>2010-05-08T07:53:04Z</time>
      </trkpt>
      <trkpt lat="42.701734" lon="-1.526828">
        <ele>906.2</ele>
        <time>2010-05-08T07:53:12Z</time>
      </trkpt>
      <trkpt lat="42.701735" lon="-1.526786">
        <ele>905.7</ele>
        <time>2010-05-08T07:53:13Z</time>
      </trkpt>
      <trkpt lat="42.701672" lon="-1.526518">
        <ele>903.3</ele>
        <time>2010-05-08T07:53:21Z</time>
      </trkpt>
      <trkpt lat="42.701633" lon="-1.526282">
        <ele>901.4</ele>
        <time>2010-05-08T07:53:29Z</time>
      </trkpt>
      <trkpt lat="42.701531" lon="-1.526004">
        <ele>899.0</ele>
        <time>2010-05-08T07:53:37Z</time>
      </trkpt>
      <trkpt lat="42.701448" lon="-1.525687">
        <ele>897.0</ele>
        <time>2010-05-08T07:53:46Z</time>
      </trkpt>
      <trkpt lat="42.701446" lon="-1.525678">
        <ele>896.1</ele>
        <time>2010-05-08T07:53:47Z</time>
      </trkpt>
      <trkpt lat="42.701378" lon="-1.525465">
        <ele>894.6</ele>
        <time>2010-05-08T07:53:59Z</time>
      </trkpt>
      <trkpt lat="42.701339" lon="-1.525354">
        <ele>894.2</ele>
        <time>2010-05-08T07:54:05Z</time>
      </trkpt>
      <trkpt lat="42.701282" lon="-1.525157">
        <ele>892.7</ele>
        <time>2010-05-08T07:54:14Z</time>
      </trkpt>
      <trkpt lat="42.701241" lon="-1.525060">
        <ele>891.3</ele>
        <time>2010-05-08T07:54:21Z</time>
      </trkpt>
      <trkpt lat="42.701170" lon="-1.524963">
        <ele>890.8</ele>
        <time>2010-05-08T07:54:30Z</time>
      </trkpt>
      <trkpt lat="42.701215" lon="-1.525051">
        <ele>891.3</ele>
        <time>2010-05-08T07:54:35Z</time>
      </trkpt>
      <trkpt lat="42.701279" lon="-1.525123">
        <ele>892.2</ele>
        <time>2010-05-08T07:54:40Z</time>
      </trkpt>
      <trkpt lat="42.701285" lon="-1.525174">
        <ele>892.2</ele>
        <time>2010-05-08T07:54:43Z</time>
      </trkpt>
      <trkpt lat="42.701337" lon="-1.525276">
        <ele>893.2</ele>
        <time>2010-05-08T07:54:51Z</time>
      </trkpt>
      <trkpt lat="42.701409" lon="-1.525517">
        <ele>895.1</ele>
        <time>2010-05-08T07:55:04Z</time>
      </trkpt>
      <trkpt lat="42.701406" lon="-1.525599">
        <ele>894.6</ele>
        <time>2010-05-08T07:55:08Z</time>
      </trkpt>
      <trkpt lat="42.701435" lon="-1.525658">
        <ele>896.1</ele>
        <time>2010-05-08T07:55:12Z</time>
      </trkpt>
      <trkpt lat="42.701477" lon="-1.525842">
        <ele>897.0</ele>
        <time>2010-05-08T07:55:22Z</time>
      </trkpt>
      <trkpt lat="42.701508" lon="-1.525925">
        <ele>898.0</ele>
        <time>2010-05-08T07:55:28Z</time>
      </trkpt>
      <trkpt lat="42.701502" lon="-1.526041">
        <ele>898.5</ele>
        <time>2010-05-08T07:55:35Z</time>
      </trkpt>
      <trkpt lat="42.701580" lon="-1.526130">
        <ele>899.5</ele>
        <time>2010-05-08T07:55:41Z</time>
      </trkpt>
      <trkpt lat="42.701673" lon="-1.526159">
        <ele>899.9</ele>
        <time>2010-05-08T07:55:51Z</time>
      </trkpt>
      <trkpt lat="42.701647" lon="-1.526140">
        <ele>899.9</ele>
        <time>2010-05-08T07:55:52Z</time>
      </trkpt>
      <trkpt lat="42.701669" lon="-1.526101">
        <ele>898.0</ele>
        <time>2010-05-08T07:55:55Z</time>
      </trkpt>
      <trkpt lat="42.701669" lon="-1.526044">
        <ele>896.6</ele>
        <time>2010-05-08T07:55:58Z</time>
      </trkpt>
      <trkpt lat="42.701653" lon="-1.525990">
        <ele>896.1</ele>
        <time>2010-05-08T07:56:00Z</time>
      </trkpt>
      <trkpt lat="42.701629" lon="-1.525925">
        <ele>893.7</ele>
        <time>2010-05-08T07:56:07Z</time>
      </trkpt>
      <trkpt lat="42.701665" lon="-1.525931">
        <ele>892.7</ele>
        <time>2010-05-08T07:56:10Z</time>
      </trkpt>
      <trkpt lat="42.701652" lon="-1.525843">
        <ele>889.8</ele>
        <time>2010-05-08T07:56:20Z</time>
      </trkpt>
      <trkpt lat="42.701667" lon="-1.525784">
        <ele>888.4</ele>
        <time>2010-05-08T07:56:23Z</time>
      </trkpt>
      <trkpt lat="42.701649" lon="-1.525735">
        <ele>887.0</ele>
        <time>2010-05-08T07:56:29Z</time>
      </trkpt>
      <trkpt lat="42.701662" lon="-1.525667">
        <ele>885.5</ele>
        <time>2010-05-08T07:56:36Z</time>
      </trkpt>
      <trkpt lat="42.701648" lon="-1.525631">
        <ele>884.1</ele>
        <time>2010-05-08T07:56:39Z</time>
      </trkpt>
      <trkpt lat="42.701650" lon="-1.525623">
        <ele>884.1</ele>
        <time>2010-05-08T07:56:40Z</time>
      </trkpt>
      <trkpt lat="42.701654" lon="-1.525568">
        <ele>883.1</ele>
        <time>2010-05-08T07:56:42Z</time>
      </trkpt>
      <trkpt lat="42.701632" lon="-1.525526">
        <ele>881.2</ele>
        <time>2010-05-08T07:56:46Z</time>
      </trkpt>
      <trkpt lat="42.701619" lon="-1.525335">
        <ele>878.3</ele>
        <time>2010-05-08T07:56:57Z</time>
      </trkpt>
      <trkpt lat="42.701596" lon="-1.525191">
        <ele>875.4</ele>
        <time>2010-05-08T07:57:04Z</time>
      </trkpt>
      <trkpt lat="42.701589" lon="-1.525147">
        <ele>874.9</ele>
        <time>2010-05-08T07:57:05Z</time>
      </trkpt>
      <trkpt lat="42.701569" lon="-1.525086">
        <ele>872.5</ele>
        <time>2010-05-08T07:57:09Z</time>
      </trkpt>
      <trkpt lat="42.701545" lon="-1.524861">
        <ele>869.2</ele>
        <time>2010-05-08T07:57:16Z</time>
      </trkpt>
      <trkpt lat="42.701532" lon="-1.524833">
        <ele>868.7</ele>
        <time>2010-05-08T07:57:18Z</time>
      </trkpt>
      <trkpt lat="42.701528" lon="-1.524646">
        <ele>865.3</ele>
        <time>2010-05-08T07:57:26Z</time>
      </trkpt>
      <trkpt lat="42.701527" lon="-1.524642">
        <ele>864.8</ele>
        <time>2010-05-08T07:57:27Z</time>
      </trkpt>
      <trkpt lat="42.701523" lon="-1.524632">
        <ele>864.4</ele>
        <time>2010-05-08T07:57:29Z</time>
      </trkpt>
      <trkpt lat="42.701486" lon="-1.524588">
        <ele>862.9</ele>
        <time>2010-05-08T07:57:33Z</time>
      </trkpt>
      <trkpt lat="42.701494" lon="-1.524487">
        <ele>860.5</ele>
        <time>2010-05-08T07:57:40Z</time>
      </trkpt>
      <trkpt lat="42.701474" lon="-1.524384">
        <ele>858.1</ele>
        <time>2010-05-08T07:57:46Z</time>
      </trkpt>
      <trkpt lat="42.701518" lon="-1.524445">
        <ele>857.2</ele>
        <time>2010-05-08T07:57:50Z</time>
      </trkpt>
      <trkpt lat="42.701525" lon="-1.524453">
        <ele>856.2</ele>
        <time>2010-05-08T07:57:52Z</time>
      </trkpt>
      <trkpt lat="42.701630" lon="-1.524526">
        <ele>851.9</ele>
        <time>2010-05-08T07:58:00Z</time>
      </trkpt>
      <trkpt lat="42.701633" lon="-1.524513">
        <ele>852.3</ele>
        <time>2010-05-08T07:58:01Z</time>
      </trkpt>
      <trkpt lat="42.701690" lon="-1.524553">
        <ele>849.0</ele>
        <time>2010-05-08T07:58:08Z</time>
      </trkpt>
      <trkpt lat="42.701692" lon="-1.524563">
        <ele>848.0</ele>
        <time>2010-05-08T07:58:13Z</time>
      </trkpt>
      <trkpt lat="42.701717" lon="-1.524559">
        <ele>847.1</ele>
        <time>2010-05-08T07:58:15Z</time>
      </trkpt>
      <trkpt lat="42.701758" lon="-1.524530">
        <ele>845.6</ele>
        <time>2010-05-08T07:58:18Z</time>
      </trkpt>
      <trkpt lat="42.701825" lon="-1.524534">
        <ele>843.7</ele>
        <time>2010-05-08T07:58:29Z</time>
      </trkpt>
      <trkpt lat="42.701898" lon="-1.524584">
        <ele>840.8</ele>
        <time>2010-05-08T07:58:40Z</time>
      </trkpt>
      <trkpt lat="42.701944" lon="-1.524578">
        <ele>838.4</ele>
        <time>2010-05-08T07:58:46Z</time>
      </trkpt>
      <trkpt lat="42.701893" lon="-1.524449">
        <ele>836.5</ele>
        <time>2010-05-08T07:58:56Z</time>
      </trkpt>
      <trkpt lat="42.701908" lon="-1.524392">
        <ele>833.6</ele>
        <time>2010-05-08T07:59:06Z</time>
      </trkpt>
      <trkpt lat="42.701920" lon="-1.524257">
        <ele>830.2</ele>
        <time>2010-05-08T07:59:17Z</time>
      </trkpt>
      <trkpt lat="42.701916" lon="-1.524254">
        <ele>829.8</ele>
        <time>2010-05-08T07:59:18Z</time>
      </trkpt>
      <trkpt lat="42.701891" lon="-1.524207">
        <ele>828.8</ele>
        <time>2010-05-08T07:59:20Z</time>
      </trkpt>
      <trkpt lat="42.701853" lon="-1.524108">
        <ele>826.9</ele>
        <time>2010-05-08T07:59:29Z</time>
      </trkpt>
      <trkpt lat="42.701872" lon="-1.524044">
        <ele>826.4</ele>
        <time>2010-05-08T07:59:34Z</time>
      </trkpt>
      <trkpt lat="42.701878" lon="-1.524026">
        <ele>825.9</ele>
        <time>2010-05-08T07:59:36Z</time>
      </trkpt>
      <trkpt lat="42.701837" lon="-1.523961">
        <ele>824.5</ele>
        <time>2010-05-08T07:59:41Z</time>
      </trkpt>
      <trkpt lat="42.701833" lon="-1.523874">
        <ele>822.5</ele>
        <time>2010-05-08T07:59:48Z</time>
      </trkpt>
      <trkpt lat="42.701847" lon="-1.523791">
        <ele>818.7</ele>
        <time>2010-05-08T07:59:58Z</time>
      </trkpt>
      <trkpt lat="42.701864" lon="-1.523697">
        <ele>816.8</ele>
        <time>2010-05-08T08:00:05Z</time>
      </trkpt>
      <trkpt lat="42.701844" lon="-1.523650">
        <ele>814.4</ele>
        <time>2010-05-08T08:00:09Z</time>
      </trkpt>
      <trkpt lat="42.701815" lon="-1.523565">
        <ele>813.4</ele>
        <time>2010-05-08T08:00:13Z</time>
      </trkpt>
      <trkpt lat="42.701775" lon="-1.523545">
        <ele>811.5</ele>
        <time>2010-05-08T08:00:18Z</time>
      </trkpt>
      <trkpt lat="42.701776" lon="-1.523444">
        <ele>807.2</ele>
        <time>2010-05-08T08:00:28Z</time>
      </trkpt>
      <trkpt lat="42.701784" lon="-1.523439">
        <ele>806.7</ele>
        <time>2010-05-08T08:00:29Z</time>
      </trkpt>
      <trkpt lat="42.701782" lon="-1.523418">
        <ele>805.7</ele>
        <time>2010-05-08T08:00:33Z</time>
      </trkpt>
      <trkpt lat="42.701818" lon="-1.523404">
        <ele>804.3</ele>
        <time>2010-05-08T08:00:37Z</time>
      </trkpt>
      <trkpt lat="42.701825" lon="-1.523392">
        <ele>803.8</ele>
        <time>2010-05-08T08:00:39Z</time>
      </trkpt>
      <trkpt lat="42.701813" lon="-1.523310">
        <ele>801.9</ele>
        <time>2010-05-08T08:00:44Z</time>
      </trkpt>
      <trkpt lat="42.701798" lon="-1.523293">
        <ele>800.4</ele>
        <time>2010-05-08T08:00:48Z</time>
      </trkpt>
      <trkpt lat="42.701798" lon="-1.523304">
        <ele>799.5</ele>
        <time>2010-05-08T08:00:50Z</time>
      </trkpt>
      <trkpt lat="42.701780" lon="-1.523173">
        <ele>796.1</ele>
        <time>2010-05-08T08:00:59Z</time>
      </trkpt>
      <trkpt lat="42.701780" lon="-1.523173">
        <ele>795.6</ele>
        <time>2010-05-08T08:01:01Z</time>
      </trkpt>
      <trkpt lat="42.701810" lon="-1.523094">
        <ele>793.7</ele>
        <time>2010-05-08T08:01:05Z</time>
      </trkpt>
      <trkpt lat="42.701811" lon="-1.523084">
        <ele>793.2</ele>
        <time>2010-05-08T08:01:06Z</time>
      </trkpt>
      <trkpt lat="42.701806" lon="-1.523032">
        <ele>789.9</ele>
        <time>2010-05-08T08:01:13Z</time>
      </trkpt>
      <trkpt lat="42.701668" lon="-1.522829">
        <ele>789.4</ele>
        <time>2010-05-08T08:01:24Z</time>
      </trkpt>
      <trkpt lat="42.701664" lon="-1.522771">
        <ele>786.5</ele>
        <time>2010-05-08T08:01:33Z</time>
      </trkpt>
      <trkpt lat="42.701654" lon="-1.522707">
        <ele>785.0</ele>
        <time>2010-05-08T08:01:34Z</time>
      </trkpt>
      <trkpt lat="42.701649" lon="-1.522698">
        <ele>784.6</ele>
        <time>2010-05-08T08:01:36Z</time>
      </trkpt>
      <trkpt lat="42.701565" lon="-1.522592">
        <ele>784.1</ele>
        <time>2010-05-08T08:01:45Z</time>
      </trkpt>
      <trkpt lat="42.701568" lon="-1.522478">
        <ele>780.7</ele>
        <time>2010-05-08T08:01:56Z</time>
      </trkpt>
      <trkpt lat="42.701462" lon="-1.522448">
        <ele>781.7</ele>
        <time>2010-05-08T08:02:04Z</time>
      </trkpt>
      <trkpt lat="42.701451" lon="-1.522396">
        <ele>782.7</ele>
        <time>2010-05-08T08:02:07Z</time>
      </trkpt>
      <trkpt lat="42.701423" lon="-1.522388">
        <ele>783.1</ele>
        <time>2010-05-08T08:02:09Z</time>
      </trkpt>
      <trkpt lat="42.701373" lon="-1.522339">
        <ele>783.6</ele>
        <time>2010-05-08T08:02:14Z</time>
      </trkpt>
      <trkpt lat="42.701287" lon="-1.522307">
        <ele>784.1</ele>
        <time>2010-05-08T08:02:26Z</time>
      </trkpt>
      <trkpt lat="42.701257" lon="-1.522213">
        <ele>783.6</ele>
        <time>2010-05-08T08:02:33Z</time>
      </trkpt>
      <trkpt lat="42.701208" lon="-1.522150">
        <ele>782.2</ele>
        <time>2010-05-08T08:02:36Z</time>
      </trkpt>
      <trkpt lat="42.701144" lon="-1.522123">
        <ele>782.7</ele>
        <time>2010-05-08T08:02:45Z</time>
      </trkpt>
      <trkpt lat="42.701108" lon="-1.522071">
        <ele>779.8</ele>
        <time>2010-05-08T08:02:58Z</time>
      </trkpt>
      <trkpt lat="42.701066" lon="-1.521987">
        <ele>778.8</ele>
        <time>2010-05-08T08:03:07Z</time>
      </trkpt>
      <trkpt lat="42.701095" lon="-1.521960">
        <ele>776.9</ele>
        <time>2010-05-08T08:03:11Z</time>
      </trkpt>
      <trkpt lat="42.701122" lon="-1.521919">
        <ele>775.4</ele>
        <time>2010-05-08T08:03:13Z</time>
      </trkpt>
      <trkpt lat="42.701100" lon="-1.521924">
        <ele>773.5</ele>
        <time>2010-05-08T08:03:26Z</time>
      </trkpt>
      <trkpt lat="42.701085" lon="-1.521876">
        <ele>771.6</ele>
        <time>2010-05-08T08:03:30Z</time>
      </trkpt>
      <trkpt lat="42.701101" lon="-1.521768">
        <ele>768.7</ele>
        <time>2010-05-08T08:03:40Z</time>
      </trkpt>
      <trkpt lat="42.701150" lon="-1.521742">
        <ele>765.3</ele>
        <time>2010-05-08T08:03:49Z</time>
      </trkpt>
      <trkpt lat="42.701152" lon="-1.521689">
        <ele>763.9</ele>
        <time>2010-05-08T08:03:55Z</time>
      </trkpt>
      <trkpt lat="42.701140" lon="-1.521665">
        <ele>762.0</ele>
        <time>2010-05-08T08:03:59Z</time>
      </trkpt>
      <trkpt lat="42.701135" lon="-1.521542">
        <ele>758.6</ele>
        <time>2010-05-08T08:04:07Z</time>
      </trkpt>
      <trkpt lat="42.701142" lon="-1.521542">
        <ele>756.7</ele>
        <time>2010-05-08T08:04:11Z</time>
      </trkpt>
      <trkpt lat="42.701149" lon="-1.521514">
        <ele>755.7</ele>
        <time>2010-05-08T08:04:15Z</time>
      </trkpt>
      <trkpt lat="42.701128" lon="-1.521423">
        <ele>753.3</ele>
        <time>2010-05-08T08:04:22Z</time>
      </trkpt>
      <trkpt lat="42.701073" lon="-1.521290">
        <ele>749.5</ele>
        <time>2010-05-08T08:04:31Z</time>
      </trkpt>
      <trkpt lat="42.701043" lon="-1.521183">
        <ele>747.1</ele>
        <time>2010-05-08T08:04:39Z</time>
      </trkpt>
      <trkpt lat="42.701019" lon="-1.521134">
        <ele>745.6</ele>
        <time>2010-05-08T08:04:42Z</time>
      </trkpt>
      <trkpt lat="42.701012" lon="-1.521125">
        <ele>745.2</ele>
        <time>2010-05-08T08:04:44Z</time>
      </trkpt>
      <trkpt lat="42.700989" lon="-1.521048">
        <ele>743.2</ele>
        <time>2010-05-08T08:04:48Z</time>
      </trkpt>
      <trkpt lat="42.700944" lon="-1.521022">
        <ele>741.8</ele>
        <time>2010-05-08T08:04:51Z</time>
      </trkpt>
      <trkpt lat="42.700960" lon="-1.520932">
        <ele>739.4</ele>
        <time>2010-05-08T08:04:57Z</time>
      </trkpt>
      <trkpt lat="42.700930" lon="-1.520904">
        <ele>738.4</ele>
        <time>2010-05-08T08:04:59Z</time>
      </trkpt>
      <trkpt lat="42.700895" lon="-1.520752">
        <ele>734.6</ele>
        <time>2010-05-08T08:05:09Z</time>
      </trkpt>
      <trkpt lat="42.700894" lon="-1.520725">
        <ele>733.1</ele>
        <time>2010-05-08T08:05:14Z</time>
      </trkpt>
      <trkpt lat="42.700880" lon="-1.520679">
        <ele>731.2</ele>
        <time>2010-05-08T08:05:17Z</time>
      </trkpt>
      <trkpt lat="42.700881" lon="-1.520660">
        <ele>731.2</ele>
        <time>2010-05-08T08:05:18Z</time>
      </trkpt>
      <trkpt lat="42.700854" lon="-1.520576">
        <ele>728.8</ele>
        <time>2010-05-08T08:05:23Z</time>
      </trkpt>
      <trkpt lat="42.700864" lon="-1.520553">
        <ele>727.9</ele>
        <time>2010-05-08T08:05:25Z</time>
      </trkpt>
      <trkpt lat="42.700801" lon="-1.520399">
        <ele>723.5</ele>
        <time>2010-05-08T08:05:36Z</time>
      </trkpt>
      <trkpt lat="42.700801" lon="-1.520371">
        <ele>723.0</ele>
        <time>2010-05-08T08:05:40Z</time>
      </trkpt>
      <trkpt lat="42.700873" lon="-1.520354">
        <ele>720.2</ele>
        <time>2010-05-08T08:05:45Z</time>
      </trkpt>
      <trkpt lat="42.700853" lon="-1.520320">
        <ele>719.7</ele>
        <time>2010-05-08T08:05:47Z</time>
      </trkpt>
      <trkpt lat="42.700730" lon="-1.520174">
        <ele>719.2</ele>
        <time>2010-05-08T08:06:04Z</time>
      </trkpt>
      <trkpt lat="42.700718" lon="-1.520099">
        <ele>717.3</ele>
        <time>2010-05-08T08:06:16Z</time>
      </trkpt>
      <trkpt lat="42.700706" lon="-1.520030">
        <ele>714.9</ele>
        <time>2010-05-08T08:06:22Z</time>
      </trkpt>
      <trkpt lat="42.700732" lon="-1.520031">
        <ele>713.0</ele>
        <time>2010-05-08T08:06:26Z</time>
      </trkpt>
      <trkpt lat="42.700709" lon="-1.519976">
        <ele>712.0</ele>
        <time>2010-05-08T08:06:29Z</time>
      </trkpt>
      <trkpt lat="42.700704" lon="-1.519876">
        <ele>711.0</ele>
        <time>2010-05-08T08:06:32Z</time>
      </trkpt>
      <trkpt lat="42.700712" lon="-1.519808">
        <ele>707.2</ele>
        <time>2010-05-08T08:06:40Z</time>
      </trkpt>
      <trkpt lat="42.700702" lon="-1.519723">
        <ele>704.8</ele>
        <time>2010-05-08T08:06:46Z</time>
      </trkpt>
      <trkpt lat="42.700688" lon="-1.519564">
        <ele>701.9</ele>
        <time>2010-05-08T08:06:54Z</time>
      </trkpt>
      <trkpt lat="42.700672" lon="-1.519458">
        <ele>700.0</ele>
        <time>2010-05-08T08:07:00Z</time>
      </trkpt>
      <trkpt lat="42.700672" lon="-1.519353">
        <ele>696.6</ele>
        <time>2010-05-08T08:07:09Z</time>
      </trkpt>
      <trkpt lat="42.700660" lon="-1.519309">
        <ele>696.1</ele>
        <time>2010-05-08T08:07:11Z</time>
      </trkpt>
      <trkpt lat="42.700665" lon="-1.519159">
        <ele>692.8</ele>
        <time>2010-05-08T08:07:21Z</time>
      </trkpt>
      <trkpt lat="42.700660" lon="-1.519139">
        <ele>692.8</ele>
        <time>2010-05-08T08:07:22Z</time>
      </trkpt>
      <trkpt lat="42.700646" lon="-1.519030">
        <ele>691.3</ele>
        <time>2010-05-08T08:07:25Z</time>
      </trkpt>
      <trkpt lat="42.700668" lon="-1.519008">
        <ele>689.4</ele>
        <time>2010-05-08T08:07:28Z</time>
      </trkpt>
      <trkpt lat="42.700670" lon="-1.518960">
        <ele>688.4</ele>
        <time>2010-05-08T08:07:32Z</time>
      </trkpt>
      <trkpt lat="42.700651" lon="-1.518813">
        <ele>685.1</ele>
        <time>2010-05-08T08:07:40Z</time>
      </trkpt>
      <trkpt lat="42.700648" lon="-1.518784">
        <ele>684.6</ele>
        <time>2010-05-08T08:07:43Z</time>
      </trkpt>
      <trkpt lat="42.700603" lon="-1.518458">
        <ele>679.8</ele>
        <time>2010-05-08T08:07:56Z</time>
      </trkpt>
      <trkpt lat="42.700602" lon="-1.518422">
        <ele>679.3</ele>
        <time>2010-05-08T08:07:58Z</time>
      </trkpt>
      <trkpt lat="42.700604" lon="-1.518264">
        <ele>675.5</ele>
        <time>2010-05-08T08:08:08Z</time>
      </trkpt>
      <trkpt lat="42.700598" lon="-1.518240">
        <ele>675.5</ele>
        <time>2010-05-08T08:08:09Z</time>
      </trkpt>
      <trkpt lat="42.700603" lon="-1.518216">
        <ele>674.5</ele>
        <time>2010-05-08T08:08:12Z</time>
      </trkpt>
      <trkpt lat="42.700576" lon="-1.518145">
        <ele>672.6</ele>
        <time>2010-05-08T08:08:15Z</time>
      </trkpt>
      <trkpt lat="42.700628" lon="-1.518068">
        <ele>670.2</ele>
        <time>2010-05-08T08:08:24Z</time>
      </trkpt>
      <trkpt lat="42.700623" lon="-1.518055">
        <ele>670.2</ele>
        <time>2010-05-08T08:08:25Z</time>
      </trkpt>
      <trkpt lat="42.700779" lon="-1.518132">
        <ele>667.3</ele>
        <time>2010-05-08T08:08:37Z</time>
      </trkpt>
      <trkpt lat="42.700907" lon="-1.518197">
        <ele>663.9</ele>
        <time>2010-05-08T08:08:48Z</time>
      </trkpt>
      <trkpt lat="42.701054" lon="-1.518285">
        <ele>661.0</ele>
        <time>2010-05-08T08:08:59Z</time>
      </trkpt>
      <trkpt lat="42.701105" lon="-1.518330">
        <ele>660.1</ele>
        <time>2010-05-08T08:09:05Z</time>
      </trkpt>
      <trkpt lat="42.701233" lon="-1.518441">
        <ele>658.2</ele>
        <time>2010-05-08T08:09:15Z</time>
      </trkpt>
      <trkpt lat="42.701359" lon="-1.518605">
        <ele>655.8</ele>
        <time>2010-05-08T08:09:26Z</time>
      </trkpt>
      <trkpt lat="42.701450" lon="-1.518695">
        <ele>653.8</ele>
        <time>2010-05-08T08:09:35Z</time>
      </trkpt>
      <trkpt lat="42.701656" lon="-1.518798">
        <ele>651.9</ele>
        <time>2010-05-08T08:09:50Z</time>
      </trkpt>
      <trkpt lat="42.701806" lon="-1.518925">
        <ele>649.5</ele>
        <time>2010-05-08T08:10:04Z</time>
      </trkpt>
      <trkpt lat="42.701931" lon="-1.519056">
        <ele>648.5</ele>
        <time>2010-05-08T08:10:14Z</time>
      </trkpt>
      <trkpt lat="42.702147" lon="-1.519242">
        <ele>645.7</ele>
        <time>2010-05-08T08:10:33Z</time>
      </trkpt>
      <trkpt lat="42.702262" lon="-1.519244">
        <ele>643.3</ele>
        <time>2010-05-08T08:10:42Z</time>
      </trkpt>
      <trkpt lat="42.702411" lon="-1.519444">
        <ele>641.8</ele>
        <time>2010-05-08T08:10:51Z</time>
      </trkpt>
      <trkpt lat="42.702550" lon="-1.519540">
        <ele>639.4</ele>
        <time>2010-05-08T08:11:02Z</time>
      </trkpt>
      <trkpt lat="42.702691" lon="-1.519741">
        <ele>636.5</ele>
        <time>2010-05-08T08:11:17Z</time>
      </trkpt>
      <trkpt lat="42.702756" lon="-1.519814">
        <ele>635.1</ele>
        <time>2010-05-08T08:11:24Z</time>
      </trkpt>
      <trkpt lat="42.702805" lon="-1.519913">
        <ele>633.7</ele>
        <time>2010-05-08T08:11:30Z</time>
      </trkpt>
      <trkpt lat="42.702963" lon="-1.520081">
        <ele>630.8</ele>
        <time>2010-05-08T08:11:43Z</time>
      </trkpt>
      <trkpt lat="42.703002" lon="-1.520127">
        <ele>629.8</ele>
        <time>2010-05-08T08:11:50Z</time>
      </trkpt>
      <trkpt lat="42.703107" lon="-1.520148">
        <ele>628.4</ele>
        <time>2010-05-08T08:11:54Z</time>
      </trkpt>
      <trkpt lat="42.703112" lon="-1.520302">
        <ele>628.4</ele>
        <time>2010-05-08T08:12:04Z</time>
      </trkpt>
      <trkpt lat="42.703112" lon="-1.520302">
        <ele>628.4</ele>
        <time>2010-05-08T08:12:05Z</time>
      </trkpt>
      <trkpt lat="42.703195" lon="-1.520252">
        <ele>626.4</ele>
        <time>2010-05-08T08:12:08Z</time>
      </trkpt>
      <trkpt lat="42.703214" lon="-1.520274">
        <ele>626.0</ele>
        <time>2010-05-08T08:12:11Z</time>
      </trkpt>
      <trkpt lat="42.703384" lon="-1.520410">
        <ele>623.1</ele>
        <time>2010-05-08T08:12:26Z</time>
      </trkpt>
      <trkpt lat="42.703505" lon="-1.520489">
        <ele>621.6</ele>
        <time>2010-05-08T08:12:37Z</time>
      </trkpt>
      <trkpt lat="42.703632" lon="-1.520599">
        <ele>618.8</ele>
        <time>2010-05-08T08:12:48Z</time>
      </trkpt>
      <trkpt lat="42.703687" lon="-1.520798">
        <ele>619.7</ele>
        <time>2010-05-08T08:12:59Z</time>
      </trkpt>
      <trkpt lat="42.703829" lon="-1.520969">
        <ele>621.2</ele>
        <time>2010-05-08T08:13:12Z</time>
      </trkpt>
      <trkpt lat="42.703881" lon="-1.521035">
        <ele>620.7</ele>
        <time>2010-05-08T08:13:17Z</time>
      </trkpt>
      <trkpt lat="42.703934" lon="-1.521119">
        <ele>622.6</ele>
        <time>2010-05-08T08:13:23Z</time>
      </trkpt>
      <trkpt lat="42.703966" lon="-1.521179">
        <ele>622.6</ele>
        <time>2010-05-08T08:13:26Z</time>
      </trkpt>
      <trkpt lat="42.704043" lon="-1.521346">
        <ele>623.5</ele>
        <time>2010-05-08T08:13:37Z</time>
      </trkpt>
      <trkpt lat="42.704063" lon="-1.521400">
        <ele>624.0</ele>
        <time>2010-05-08T08:13:40Z</time>
      </trkpt>
      <trkpt lat="42.704092" lon="-1.521449">
        <ele>624.0</ele>
        <time>2010-05-08T08:13:44Z</time>
      </trkpt>
      <trkpt lat="42.704155" lon="-1.521597">
        <ele>625.5</ele>
        <time>2010-05-08T08:13:53Z</time>
      </trkpt>
      <trkpt lat="42.704246" lon="-1.521755">
        <ele>626.4</ele>
        <time>2010-05-08T08:14:04Z</time>
      </trkpt>
      <trkpt lat="42.704256" lon="-1.521758">
        <ele>626.4</ele>
        <time>2010-05-08T08:14:05Z</time>
      </trkpt>
      <trkpt lat="42.704313" lon="-1.521942">
        <ele>627.9</ele>
        <time>2010-05-08T08:14:14Z</time>
      </trkpt>
      <trkpt lat="42.704344" lon="-1.522027">
        <ele>628.4</ele>
        <time>2010-05-08T08:14:20Z</time>
      </trkpt>
      <trkpt lat="42.704465" lon="-1.522273">
        <ele>629.3</ele>
        <time>2010-05-08T08:14:34Z</time>
      </trkpt>
      <trkpt lat="42.704493" lon="-1.522424">
        <ele>630.3</ele>
        <time>2010-05-08T08:14:43Z</time>
      </trkpt>
      <trkpt lat="42.704581" lon="-1.522643">
        <ele>632.2</ele>
        <time>2010-05-08T08:14:56Z</time>
      </trkpt>
      <trkpt lat="42.704605" lon="-1.522662">
        <ele>632.2</ele>
        <time>2010-05-08T08:14:57Z</time>
      </trkpt>
      <trkpt lat="42.704612" lon="-1.522678">
        <ele>632.7</ele>
        <time>2010-05-08T08:14:59Z</time>
      </trkpt>
      <trkpt lat="42.704666" lon="-1.522932">
        <ele>633.7</ele>
        <time>2010-05-08T08:15:11Z</time>
      </trkpt>
      <trkpt lat="42.704679" lon="-1.522995">
        <ele>633.7</ele>
        <time>2010-05-08T08:15:13Z</time>
      </trkpt>
      <trkpt lat="42.704657" lon="-1.523063">
        <ele>634.1</ele>
        <time>2010-05-08T08:15:18Z</time>
      </trkpt>
      <trkpt lat="42.704690" lon="-1.523235">
        <ele>635.6</ele>
        <time>2010-05-08T08:15:27Z</time>
      </trkpt>
      <trkpt lat="42.704786" lon="-1.523462">
        <ele>636.5</ele>
        <time>2010-05-08T08:15:39Z</time>
      </trkpt>
      <trkpt lat="42.704831" lon="-1.523491">
        <ele>637.0</ele>
        <time>2010-05-08T08:15:43Z</time>
      </trkpt>
      <trkpt lat="42.704874" lon="-1.523572">
        <ele>638.0</ele>
        <time>2010-05-08T08:15:48Z</time>
      </trkpt>
      <trkpt lat="42.704900" lon="-1.523710">
        <ele>638.9</ele>
        <time>2010-05-08T08:15:58Z</time>
      </trkpt>
      <trkpt lat="42.704944" lon="-1.523892">
        <ele>639.9</ele>
        <time>2010-05-08T08:16:07Z</time>
      </trkpt>
      <trkpt lat="42.705005" lon="-1.524031">
        <ele>640.9</ele>
        <time>2010-05-08T08:16:15Z</time>
      </trkpt>
      <trkpt lat="42.705112" lon="-1.524208">
        <ele>641.3</ele>
        <time>2010-05-08T08:16:24Z</time>
      </trkpt>
      <trkpt lat="42.705197" lon="-1.524351">
        <ele>643.3</ele>
        <time>2010-05-08T08:16:36Z</time>
      </trkpt>
      <trkpt lat="42.705292" lon="-1.524617">
        <ele>644.2</ele>
        <time>2010-05-08T08:16:46Z</time>
      </trkpt>
      <trkpt lat="42.705364" lon="-1.524824">
        <ele>646.1</ele>
        <time>2010-05-08T08:17:00Z</time>
      </trkpt>
      <trkpt lat="42.705412" lon="-1.524900">
        <ele>646.6</ele>
        <time>2010-05-08T08:17:07Z</time>
      </trkpt>
      <trkpt lat="42.705384" lon="-1.525174">
        <ele>647.6</ele>
        <time>2010-05-08T08:17:19Z</time>
      </trkpt>
      <trkpt lat="42.705462" lon="-1.525358">
        <ele>648.1</ele>
        <time>2010-05-08T08:17:29Z</time>
      </trkpt>
      <trkpt lat="42.705459" lon="-1.525424">
        <ele>648.5</ele>
        <time>2010-05-08T08:17:32Z</time>
      </trkpt>
      <trkpt lat="42.705522" lon="-1.525559">
        <ele>649.0</ele>
        <time>2010-05-08T08:17:40Z</time>
      </trkpt>
      <trkpt lat="42.705509" lon="-1.525680">
        <ele>649.5</ele>
        <time>2010-05-08T08:17:44Z</time>
      </trkpt>
      <trkpt lat="42.705513" lon="-1.525831">
        <ele>650.5</ele>
        <time>2010-05-08T08:17:53Z</time>
      </trkpt>
      <trkpt lat="42.705531" lon="-1.526090">
        <ele>651.9</ele>
        <time>2010-05-08T08:18:06Z</time>
      </trkpt>
      <trkpt lat="42.705591" lon="-1.526236">
        <ele>651.9</ele>
        <time>2010-05-08T08:18:14Z</time>
      </trkpt>
      <trkpt lat="42.705638" lon="-1.526459">
        <ele>653.3</ele>
        <time>2010-05-08T08:18:26Z</time>
      </trkpt>
      <trkpt lat="42.705684" lon="-1.526606">
        <ele>653.8</ele>
        <time>2010-05-08T08:18:32Z</time>
      </trkpt>
      <trkpt lat="42.705742" lon="-1.526846">
        <ele>655.3</ele>
        <time>2010-05-08T08:18:44Z</time>
      </trkpt>
      <trkpt lat="42.705755" lon="-1.526880">
        <ele>654.8</ele>
        <time>2010-05-08T08:18:47Z</time>
      </trkpt>
      <trkpt lat="42.705827" lon="-1.527052">
        <ele>656.7</ele>
        <time>2010-05-08T08:18:57Z</time>
      </trkpt>
      <trkpt lat="42.705837" lon="-1.527260">
        <ele>656.7</ele>
        <time>2010-05-08T08:19:06Z</time>
      </trkpt>
      <trkpt lat="42.705953" lon="-1.527375">
        <ele>657.7</ele>
        <time>2010-05-08T08:19:11Z</time>
      </trkpt>
      <trkpt lat="42.705955" lon="-1.527575">
        <ele>659.6</ele>
        <time>2010-05-08T08:19:25Z</time>
      </trkpt>
      <trkpt lat="42.706036" lon="-1.527806">
        <ele>660.1</ele>
        <time>2010-05-08T08:19:34Z</time>
      </trkpt>
      <trkpt lat="42.706084" lon="-1.527914">
        <ele>660.6</ele>
        <time>2010-05-08T08:19:40Z</time>
      </trkpt>
      <trkpt lat="42.706087" lon="-1.528101">
        <ele>662.5</ele>
        <time>2010-05-08T08:19:52Z</time>
      </trkpt>
      <trkpt lat="42.706080" lon="-1.528153">
        <ele>662.5</ele>
        <time>2010-05-08T08:19:57Z</time>
      </trkpt>
      <trkpt lat="42.706057" lon="-1.528404">
        <ele>664.9</ele>
        <time>2010-05-08T08:20:11Z</time>
      </trkpt>
      <trkpt lat="42.705980" lon="-1.528618">
        <ele>665.8</ele>
        <time>2010-05-08T08:20:23Z</time>
      </trkpt>
      <trkpt lat="42.705975" lon="-1.528632">
        <ele>666.8</ele>
        <time>2010-05-08T08:20:24Z</time>
      </trkpt>
      <trkpt lat="42.705914" lon="-1.528833">
        <ele>667.8</ele>
        <time>2010-05-08T08:20:36Z</time>
      </trkpt>
      <trkpt lat="42.705965" lon="-1.529101">
        <ele>669.2</ele>
        <time>2010-05-08T08:20:47Z</time>
      </trkpt>
      <trkpt lat="42.705964" lon="-1.529145">
        <ele>669.7</ele>
        <time>2010-05-08T08:20:50Z</time>
      </trkpt>
      <trkpt lat="42.706007" lon="-1.529410">
        <ele>670.7</ele>
        <time>2010-05-08T08:21:02Z</time>
      </trkpt>
      <trkpt lat="42.706012" lon="-1.529440">
        <ele>672.1</ele>
        <time>2010-05-08T08:21:03Z</time>
      </trkpt>
      <trkpt lat="42.706040" lon="-1.529618">
        <ele>673.1</ele>
        <time>2010-05-08T08:21:13Z</time>
      </trkpt>
      <trkpt lat="42.706015" lon="-1.529739">
        <ele>673.5</ele>
        <time>2010-05-08T08:21:21Z</time>
      </trkpt>
      <trkpt lat="42.706015" lon="-1.529752">
        <ele>674.0</ele>
        <time>2010-05-08T08:21:22Z</time>
      </trkpt>
      <trkpt lat="42.705924" lon="-1.529798">
        <ele>675.0</ele>
        <time>2010-05-08T08:21:28Z</time>
      </trkpt>
      <trkpt lat="42.705886" lon="-1.529853">
        <ele>675.5</ele>
        <time>2010-05-08T08:21:33Z</time>
      </trkpt>
      <trkpt lat="42.705834" lon="-1.529939">
        <ele>676.4</ele>
        <time>2010-05-08T08:21:42Z</time>
      </trkpt>
      <trkpt lat="42.705817" lon="-1.529986">
        <ele>676.9</ele>
        <time>2010-05-08T08:21:44Z</time>
      </trkpt>
      <trkpt lat="42.705803" lon="-1.530140">
        <ele>677.9</ele>
        <time>2010-05-08T08:21:49Z</time>
      </trkpt>
      <trkpt lat="42.705824" lon="-1.530295">
        <ele>679.8</ele>
        <time>2010-05-08T08:21:58Z</time>
      </trkpt>
      <trkpt lat="42.705834" lon="-1.530317">
        <ele>679.3</ele>
        <time>2010-05-08T08:21:59Z</time>
      </trkpt>
      <trkpt lat="42.705828" lon="-1.530342">
        <ele>679.3</ele>
        <time>2010-05-08T08:22:01Z</time>
      </trkpt>
      <trkpt lat="42.705852" lon="-1.530487">
        <ele>680.8</ele>
        <time>2010-05-08T08:22:10Z</time>
      </trkpt>
      <trkpt lat="42.705889" lon="-1.530647">
        <ele>682.2</ele>
        <time>2010-05-08T08:22:20Z</time>
      </trkpt>
      <trkpt lat="42.705984" lon="-1.530924">
        <ele>684.1</ele>
        <time>2010-05-08T08:22:34Z</time>
      </trkpt>
      <trkpt lat="42.706002" lon="-1.530980">
        <ele>685.1</ele>
        <time>2010-05-08T08:22:37Z</time>
      </trkpt>
      <trkpt lat="42.706094" lon="-1.531132">
        <ele>686.0</ele>
        <time>2010-05-08T08:22:48Z</time>
      </trkpt>
      <trkpt lat="42.706083" lon="-1.531233">
        <ele>687.5</ele>
        <time>2010-05-08T08:22:55Z</time>
      </trkpt>
      <trkpt lat="42.706093" lon="-1.531378">
        <ele>689.4</ele>
        <time>2010-05-08T08:23:05Z</time>
      </trkpt>
      <trkpt lat="42.706131" lon="-1.531503">
        <ele>690.4</ele>
        <time>2010-05-08T08:23:10Z</time>
      </trkpt>
      <trkpt lat="42.706157" lon="-1.531576">
        <ele>690.8</ele>
        <time>2010-05-08T08:23:14Z</time>
      </trkpt>
      <trkpt lat="42.706130" lon="-1.531579">
        <ele>691.3</ele>
        <time>2010-05-08T08:23:16Z</time>
      </trkpt>
      <trkpt lat="42.706179" lon="-1.531796">
        <ele>692.8</ele>
        <time>2010-05-08T08:23:26Z</time>
      </trkpt>
      <trkpt lat="42.706164" lon="-1.531831">
        <ele>693.2</ele>
        <time>2010-05-08T08:23:30Z</time>
      </trkpt>
      <trkpt lat="42.706178" lon="-1.531949">
        <ele>695.2</ele>
        <time>2010-05-08T08:23:38Z</time>
      </trkpt>
      <trkpt lat="42.706247" lon="-1.532158">
        <ele>696.6</ele>
        <time>2010-05-08T08:23:49Z</time>
      </trkpt>
      <trkpt lat="42.706209" lon="-1.532277">
        <ele>698.0</ele>
        <time>2010-05-08T08:23:56Z</time>
      </trkpt>
      <trkpt lat="42.706239" lon="-1.532372">
        <ele>698.5</ele>
        <time>2010-05-08T08:24:00Z</time>
      </trkpt>
      <trkpt lat="42.706227" lon="-1.532557">
        <ele>700.9</ele>
        <time>2010-05-08T08:24:11Z</time>
      </trkpt>
      <trkpt lat="42.706137" lon="-1.532682">
        <ele>701.9</ele>
        <time>2010-05-08T08:24:20Z</time>
      </trkpt>
      <trkpt lat="42.706174" lon="-1.532804">
        <ele>702.9</ele>
        <time>2010-05-08T08:24:26Z</time>
      </trkpt>
      <trkpt lat="42.706178" lon="-1.532922">
        <ele>704.8</ele>
        <time>2010-05-08T08:24:33Z</time>
      </trkpt>
      <trkpt lat="42.706131" lon="-1.533035">
        <ele>705.8</ele>
        <time>2010-05-08T08:24:40Z</time>
      </trkpt>
      <trkpt lat="42.706145" lon="-1.533262">
        <ele>707.7</ele>
        <time>2010-05-08T08:24:50Z</time>
      </trkpt>
      <trkpt lat="42.706130" lon="-1.533454">
        <ele>709.1</ele>
        <time>2010-05-08T08:25:00Z</time>
      </trkpt>
      <trkpt lat="42.706049" lon="-1.533677">
        <ele>711.5</ele>
        <time>2010-05-08T08:25:13Z</time>
      </trkpt>
      <trkpt lat="42.706029" lon="-1.533818">
        <ele>713.0</ele>
        <time>2010-05-08T08:25:23Z</time>
      </trkpt>
      <trkpt lat="42.705995" lon="-1.533989">
        <ele>714.9</ele>
        <time>2010-05-08T08:25:32Z</time>
      </trkpt>
      <trkpt lat="42.706007" lon="-1.534022">
        <ele>714.9</ele>
        <time>2010-05-08T08:25:33Z</time>
      </trkpt>
      <trkpt lat="42.705943" lon="-1.534227">
        <ele>717.3</ele>
        <time>2010-05-08T08:25:44Z</time>
      </trkpt>
      <trkpt lat="42.705902" lon="-1.534414">
        <ele>719.2</ele>
        <time>2010-05-08T08:25:54Z</time>
      </trkpt>
      <trkpt lat="42.705846" lon="-1.534441">
        <ele>719.7</ele>
        <time>2010-05-08T08:25:57Z</time>
      </trkpt>
      <trkpt lat="42.705768" lon="-1.534625">
        <ele>721.6</ele>
        <time>2010-05-08T08:26:08Z</time>
      </trkpt>
      <trkpt lat="42.705747" lon="-1.534744">
        <ele>723.0</ele>
        <time>2010-05-08T08:26:16Z</time>
      </trkpt>
      <trkpt lat="42.705733" lon="-1.535019">
        <ele>724.5</ele>
        <time>2010-05-08T08:26:28Z</time>
      </trkpt>
      <trkpt lat="42.705662" lon="-1.535210">
        <ele>726.9</ele>
        <time>2010-05-08T08:26:40Z</time>
      </trkpt>
      <trkpt lat="42.705639" lon="-1.535348">
        <ele>728.3</ele>
        <time>2010-05-08T08:26:50Z</time>
      </trkpt>
      <trkpt lat="42.705637" lon="-1.535475">
        <ele>730.3</ele>
        <time>2010-05-08T08:26:57Z</time>
      </trkpt>
      <trkpt lat="42.705625" lon="-1.535550">
        <ele>730.7</ele>
        <time>2010-05-08T08:27:01Z</time>
      </trkpt>
      <trkpt lat="42.705627" lon="-1.535644">
        <ele>732.2</ele>
        <time>2010-05-08T08:27:06Z</time>
      </trkpt>
      <trkpt lat="42.705591" lon="-1.535897">
        <ele>733.6</ele>
        <time>2010-05-08T08:27:12Z</time>
      </trkpt>
      <trkpt lat="42.705595" lon="-1.536000">
        <ele>734.6</ele>
        <time>2010-05-08T08:27:16Z</time>
      </trkpt>
      <trkpt lat="42.705598" lon="-1.536058">
        <ele>735.5</ele>
        <time>2010-05-08T08:27:21Z</time>
      </trkpt>
      <trkpt lat="42.705602" lon="-1.536133">
        <ele>736.5</ele>
        <time>2010-05-08T08:27:26Z</time>
      </trkpt>
      <trkpt lat="42.705614" lon="-1.536181">
        <ele>737.0</ele>
        <time>2010-05-08T08:27:28Z</time>
      </trkpt>
      <trkpt lat="42.705596" lon="-1.536211">
        <ele>737.5</ele>
        <time>2010-05-08T08:27:31Z</time>
      </trkpt>
      <trkpt lat="42.705607" lon="-1.536374">
        <ele>738.9</ele>
        <time>2010-05-08T08:27:39Z</time>
      </trkpt>
      <trkpt lat="42.705605" lon="-1.536470">
        <ele>740.8</ele>
        <time>2010-05-08T08:27:47Z</time>
      </trkpt>
      <trkpt lat="42.705603" lon="-1.536546">
        <ele>741.3</ele>
        <time>2010-05-08T08:27:51Z</time>
      </trkpt>
      <trkpt lat="42.705599" lon="-1.536555">
        <ele>742.3</ele>
        <time>2010-05-08T08:27:54Z</time>
      </trkpt>
      <trkpt lat="42.705610" lon="-1.536630">
        <ele>743.2</ele>
        <time>2010-05-08T08:27:58Z</time>
      </trkpt>
      <trkpt lat="42.705613" lon="-1.536670">
        <ele>744.2</ele>
        <time>2010-05-08T08:28:01Z</time>
      </trkpt>
      <trkpt lat="42.705599" lon="-1.536694">
        <ele>744.7</ele>
        <time>2010-05-08T08:28:04Z</time>
      </trkpt>
      <trkpt lat="42.705584" lon="-1.536750">
        <ele>744.7</ele>
        <time>2010-05-08T08:28:08Z</time>
      </trkpt>
      <trkpt lat="42.705573" lon="-1.536798">
        <ele>746.1</ele>
        <time>2010-05-08T08:28:11Z</time>
      </trkpt>
      <trkpt lat="42.705498" lon="-1.536933">
        <ele>747.1</ele>
        <time>2010-05-08T08:28:21Z</time>
      </trkpt>
      <trkpt lat="42.705533" lon="-1.537020">
        <ele>747.6</ele>
        <time>2010-05-08T08:28:24Z</time>
      </trkpt>
      <trkpt lat="42.705574" lon="-1.537032">
        <ele>748.5</ele>
        <time>2010-05-08T08:28:28Z</time>
      </trkpt>
      <trkpt lat="42.705634" lon="-1.537183">
        <ele>750.0</ele>
        <time>2010-05-08T08:28:36Z</time>
      </trkpt>
      <trkpt lat="42.705698" lon="-1.537241">
        <ele>750.0</ele>
        <time>2010-05-08T08:28:41Z</time>
      </trkpt>
      <trkpt lat="42.705751" lon="-1.537361">
        <ele>751.9</ele>
        <time>2010-05-08T08:28:51Z</time>
      </trkpt>
      <trkpt lat="42.705886" lon="-1.537474">
        <ele>753.8</ele>
        <time>2010-05-08T08:29:00Z</time>
      </trkpt>
      <trkpt lat="42.705874" lon="-1.537534">
        <ele>754.3</ele>
        <time>2010-05-08T08:29:05Z</time>
      </trkpt>
      <trkpt lat="42.705873" lon="-1.537627">
        <ele>756.7</ele>
        <time>2010-05-08T08:29:16Z</time>
      </trkpt>
      <trkpt lat="42.705871" lon="-1.537639">
        <ele>756.2</ele>
        <time>2010-05-08T08:29:17Z</time>
      </trkpt>
      <trkpt lat="42.705912" lon="-1.537615">
        <ele>757.7</ele>
        <time>2010-05-08T08:29:24Z</time>
      </trkpt>
      <trkpt lat="42.705879" lon="-1.537633">
        <ele>758.1</ele>
        <time>2010-05-08T08:29:28Z</time>
      </trkpt>
      <trkpt lat="42.705855" lon="-1.537721">
        <ele>759.6</ele>
        <time>2010-05-08T08:29:35Z</time>
      </trkpt>
      <trkpt lat="42.705873" lon="-1.537837">
        <ele>761.0</ele>
        <time>2010-05-08T08:29:42Z</time>
      </trkpt>
      <trkpt lat="42.705865" lon="-1.537969">
        <ele>762.9</ele>
        <time>2010-05-08T08:29:53Z</time>
      </trkpt>
      <trkpt lat="42.705830" lon="-1.538160">
        <ele>764.4</ele>
        <time>2010-05-08T08:30:02Z</time>
      </trkpt>
      <trkpt lat="42.705816" lon="-1.538209">
        <ele>765.3</ele>
        <time>2010-05-08T08:30:06Z</time>
      </trkpt>
      <trkpt lat="42.705797" lon="-1.538282">
        <ele>766.3</ele>
        <time>2010-05-08T08:30:11Z</time>
      </trkpt>
      <trkpt lat="42.705763" lon="-1.538293">
        <ele>767.3</ele>
        <time>2010-05-08T08:30:13Z</time>
      </trkpt>
      <trkpt lat="42.705698" lon="-1.538395">
        <ele>769.2</ele>
        <time>2010-05-08T08:30:23Z</time>
      </trkpt>
      <trkpt lat="42.705618" lon="-1.538373">
        <ele>770.6</ele>
        <time>2010-05-08T08:30:33Z</time>
      </trkpt>
      <trkpt lat="42.705487" lon="-1.538308">
        <ele>774.0</ele>
        <time>2010-05-08T08:30:46Z</time>
      </trkpt>
      <trkpt lat="42.705377" lon="-1.538269">
        <ele>775.9</ele>
        <time>2010-05-08T08:30:56Z</time>
      </trkpt>
      <trkpt lat="42.705322" lon="-1.538276">
        <ele>776.9</ele>
        <time>2010-05-08T08:31:02Z</time>
      </trkpt>
      <trkpt lat="42.705208" lon="-1.538220">
        <ele>779.3</ele>
        <time>2010-05-08T08:31:12Z</time>
      </trkpt>
      <trkpt lat="42.705148" lon="-1.538177">
        <ele>781.2</ele>
        <time>2010-05-08T08:31:21Z</time>
      </trkpt>
      <trkpt lat="42.705068" lon="-1.538116">
        <ele>782.2</ele>
        <time>2010-05-08T08:31:26Z</time>
      </trkpt>
      <trkpt lat="42.705002" lon="-1.538032">
        <ele>784.1</ele>
        <time>2010-05-08T08:31:37Z</time>
      </trkpt>
      <trkpt lat="42.705005" lon="-1.538027">
        <ele>784.1</ele>
        <time>2010-05-08T08:31:38Z</time>
      </trkpt>
      <trkpt lat="42.704888" lon="-1.537958">
        <ele>786.5</ele>
        <time>2010-05-08T08:31:50Z</time>
      </trkpt>
      <trkpt lat="42.704861" lon="-1.537952">
        <ele>786.5</ele>
        <time>2010-05-08T08:31:53Z</time>
      </trkpt>
      <trkpt lat="42.704838" lon="-1.537956">
        <ele>787.5</ele>
        <time>2010-05-08T08:31:55Z</time>
      </trkpt>
      <trkpt lat="42.704755" lon="-1.537936">
        <ele>788.9</ele>
        <time>2010-05-08T08:32:04Z</time>
      </trkpt>
      <trkpt lat="42.704749" lon="-1.537944">
        <ele>788.9</ele>
        <time>2010-05-08T08:32:06Z</time>
      </trkpt>
      <trkpt lat="42.704654" lon="-1.538013">
        <ele>789.4</ele>
        <time>2010-05-08T08:32:14Z</time>
      </trkpt>
      <trkpt lat="42.704608" lon="-1.538067">
        <ele>789.9</ele>
        <time>2010-05-08T08:32:18Z</time>
      </trkpt>
      <trkpt lat="42.704550" lon="-1.538141">
        <ele>789.4</ele>
        <time>2010-05-08T08:32:25Z</time>
      </trkpt>
      <trkpt lat="42.704481" lon="-1.538166">
        <ele>790.3</ele>
        <time>2010-05-08T08:32:29Z</time>
      </trkpt>
      <trkpt lat="42.704451" lon="-1.538190">
        <ele>790.3</ele>
        <time>2010-05-08T08:32:32Z</time>
      </trkpt>
      <trkpt lat="42.704382" lon="-1.538224">
        <ele>790.8</ele>
        <time>2010-05-08T08:32:37Z</time>
      </trkpt>
      <trkpt lat="42.704181" lon="-1.538229">
        <ele>790.8</ele>
        <time>2010-05-08T08:32:46Z</time>
      </trkpt>
      <trkpt lat="42.704020" lon="-1.538332">
        <ele>791.8</ele>
        <time>2010-05-08T08:32:58Z</time>
      </trkpt>
      <trkpt lat="42.703903" lon="-1.538355">
        <ele>792.3</ele>
        <time>2010-05-08T08:33:06Z</time>
      </trkpt>
      <trkpt lat="42.703875" lon="-1.538412">
        <ele>792.7</ele>
        <time>2010-05-08T08:33:11Z</time>
      </trkpt>
      <trkpt lat="42.703745" lon="-1.538445">
        <ele>792.7</ele>
        <time>2010-05-08T08:33:21Z</time>
      </trkpt>
      <trkpt lat="42.703621" lon="-1.538426">
        <ele>793.7</ele>
        <time>2010-05-08T08:33:29Z</time>
      </trkpt>
      <trkpt lat="42.703528" lon="-1.538368">
        <ele>793.7</ele>
        <time>2010-05-08T08:33:37Z</time>
      </trkpt>
      <trkpt lat="42.703511" lon="-1.538359">
        <ele>794.2</ele>
        <time>2010-05-08T08:33:38Z</time>
      </trkpt>
      <trkpt lat="42.703401" lon="-1.538311">
        <ele>794.7</ele>
        <time>2010-05-08T08:33:47Z</time>
      </trkpt>
      <trkpt lat="42.703286" lon="-1.538235">
        <ele>794.2</ele>
        <time>2010-05-08T08:33:56Z</time>
      </trkpt>
      <trkpt lat="42.703244" lon="-1.538214">
        <ele>794.7</ele>
        <time>2010-05-08T08:34:00Z</time>
      </trkpt>
      <trkpt lat="42.703087" lon="-1.538061">
        <ele>795.2</ele>
        <time>2010-05-08T08:34:10Z</time>
      </trkpt>
      <trkpt lat="42.703007" lon="-1.537973">
        <ele>796.1</ele>
        <time>2010-05-08T08:34:16Z</time>
      </trkpt>
      <trkpt lat="42.702882" lon="-1.537830">
        <ele>796.1</ele>
        <time>2010-05-08T08:34:24Z</time>
      </trkpt>
      <trkpt lat="42.702802" lon="-1.537754">
        <ele>796.6</ele>
        <time>2010-05-08T08:34:29Z</time>
      </trkpt>
      <trkpt lat="42.702775" lon="-1.537735">
        <ele>797.1</ele>
        <time>2010-05-08T08:34:31Z</time>
      </trkpt>
      <trkpt lat="42.702748" lon="-1.537713">
        <ele>796.6</ele>
        <time>2010-05-08T08:34:33Z</time>
      </trkpt>
      <trkpt lat="42.702635" lon="-1.537643">
        <ele>797.1</ele>
        <time>2010-05-08T08:34:43Z</time>
      </trkpt>
      <trkpt lat="42.702568" lon="-1.537612">
        <ele>797.5</ele>
        <time>2010-05-08T08:34:50Z</time>
      </trkpt>
      <trkpt lat="42.702555" lon="-1.537610">
        <ele>797.1</ele>
        <time>2010-05-08T08:34:51Z</time>
      </trkpt>
      <trkpt lat="42.702456" lon="-1.537605">
        <ele>797.5</ele>
        <time>2010-05-08T08:35:01Z</time>
      </trkpt>
      <trkpt lat="42.702376" lon="-1.537628">
        <ele>797.1</ele>
        <time>2010-05-08T08:35:06Z</time>
      </trkpt>
      <trkpt lat="42.702370" lon="-1.537659">
        <ele>797.5</ele>
        <time>2010-05-08T08:35:08Z</time>
      </trkpt>
      <trkpt lat="42.702208" lon="-1.537655">
        <ele>797.5</ele>
        <time>2010-05-08T08:35:17Z</time>
      </trkpt>
      <trkpt lat="42.701985" lon="-1.537716">
        <ele>798.5</ele>
        <time>2010-05-08T08:35:26Z</time>
      </trkpt>
      <trkpt lat="42.701955" lon="-1.537752">
        <ele>798.0</ele>
        <time>2010-05-08T08:35:30Z</time>
      </trkpt>
      <trkpt lat="42.701763" lon="-1.537724">
        <ele>799.0</ele>
        <time>2010-05-08T08:35:38Z</time>
      </trkpt>
      <trkpt lat="42.701626" lon="-1.537763">
        <ele>799.0</ele>
        <time>2010-05-08T08:35:47Z</time>
      </trkpt>
      <trkpt lat="42.701540" lon="-1.537781">
        <ele>799.0</ele>
        <time>2010-05-08T08:35:54Z</time>
      </trkpt>
      <trkpt lat="42.701455" lon="-1.537815">
        <ele>800.0</ele>
        <time>2010-05-08T08:35:59Z</time>
      </trkpt>
      <trkpt lat="42.701364" lon="-1.537852">
        <ele>799.5</ele>
        <time>2010-05-08T08:36:06Z</time>
      </trkpt>
      <trkpt lat="42.701313" lon="-1.537860">
        <ele>799.5</ele>
        <time>2010-05-08T08:36:09Z</time>
      </trkpt>
      <trkpt lat="42.701231" lon="-1.537858">
        <ele>800.0</ele>
        <time>2010-05-08T08:36:13Z</time>
      </trkpt>
      <trkpt lat="42.701206" lon="-1.537865">
        <ele>800.4</ele>
        <time>2010-05-08T08:36:15Z</time>
      </trkpt>
      <trkpt lat="42.701072" lon="-1.537885">
        <ele>800.4</ele>
        <time>2010-05-08T08:36:24Z</time>
      </trkpt>
      <trkpt lat="42.700944" lon="-1.537947">
        <ele>800.9</ele>
        <time>2010-05-08T08:36:35Z</time>
      </trkpt>
      <trkpt lat="42.700767" lon="-1.538037">
        <ele>801.9</ele>
        <time>2010-05-08T08:36:46Z</time>
      </trkpt>
      <trkpt lat="42.700734" lon="-1.538061">
        <ele>801.4</ele>
        <time>2010-05-08T08:36:48Z</time>
      </trkpt>
      <trkpt lat="42.700668" lon="-1.538099">
        <ele>801.9</ele>
        <time>2010-05-08T08:36:53Z</time>
      </trkpt>
      <trkpt lat="42.700637" lon="-1.538107">
        <ele>801.4</ele>
        <time>2010-05-08T08:36:55Z</time>
      </trkpt>
      <trkpt lat="42.700591" lon="-1.538140">
        <ele>802.4</ele>
        <time>2010-05-08T08:36:58Z</time>
      </trkpt>
      <trkpt lat="42.700466" lon="-1.538217">
        <ele>802.8</ele>
        <time>2010-05-08T08:37:08Z</time>
      </trkpt>
      <trkpt lat="42.700387" lon="-1.538259">
        <ele>802.8</ele>
        <time>2010-05-08T08:37:14Z</time>
      </trkpt>
      <trkpt lat="42.700359" lon="-1.538278">
        <ele>802.4</ele>
        <time>2010-05-08T08:37:16Z</time>
      </trkpt>
      <trkpt lat="42.700317" lon="-1.538335">
        <ele>802.8</ele>
        <time>2010-05-08T08:37:20Z</time>
      </trkpt>
      <trkpt lat="42.700267" lon="-1.538355">
        <ele>802.8</ele>
        <time>2010-05-08T08:37:23Z</time>
      </trkpt>
      <trkpt lat="42.700199" lon="-1.538441">
        <ele>803.3</ele>
        <time>2010-05-08T08:37:30Z</time>
      </trkpt>
      <trkpt lat="42.700125" lon="-1.538476">
        <ele>802.8</ele>
        <time>2010-05-08T08:37:35Z</time>
      </trkpt>
      <trkpt lat="42.700105" lon="-1.538505">
        <ele>802.8</ele>
        <time>2010-05-08T08:37:37Z</time>
      </trkpt>
      <trkpt lat="42.700051" lon="-1.538526">
        <ele>803.3</ele>
        <time>2010-05-08T08:37:41Z</time>
      </trkpt>
      <trkpt lat="42.699915" lon="-1.538576">
        <ele>803.3</ele>
        <time>2010-05-08T08:37:52Z</time>
      </trkpt>
      <trkpt lat="42.699883" lon="-1.538602">
        <ele>803.8</ele>
        <time>2010-05-08T08:37:55Z</time>
      </trkpt>
      <trkpt lat="42.699795" lon="-1.538647">
        <ele>804.3</ele>
        <time>2010-05-08T08:38:01Z</time>
      </trkpt>
      <trkpt lat="42.699718" lon="-1.538762">
        <ele>804.8</ele>
        <time>2010-05-08T08:38:10Z</time>
      </trkpt>
      <trkpt lat="42.699708" lon="-1.538781">
        <ele>804.8</ele>
        <time>2010-05-08T08:38:11Z</time>
      </trkpt>
      <trkpt lat="42.699679" lon="-1.538806">
        <ele>805.2</ele>
        <time>2010-05-08T08:38:13Z</time>
      </trkpt>
      <trkpt lat="42.699613" lon="-1.538917">
        <ele>805.2</ele>
        <time>2010-05-08T08:38:19Z</time>
      </trkpt>
      <trkpt lat="42.699580" lon="-1.539004">
        <ele>805.2</ele>
        <time>2010-05-08T08:38:25Z</time>
      </trkpt>
      <trkpt lat="42.699543" lon="-1.539089">
        <ele>805.2</ele>
        <time>2010-05-08T08:38:30Z</time>
      </trkpt>
      <trkpt lat="42.699401" lon="-1.539220">
        <ele>806.7</ele>
        <time>2010-05-08T08:38:42Z</time>
      </trkpt>
      <trkpt lat="42.699336" lon="-1.539311">
        <ele>806.7</ele>
        <time>2010-05-08T08:38:49Z</time>
      </trkpt>
      <trkpt lat="42.699307" lon="-1.539384">
        <ele>806.7</ele>
        <time>2010-05-08T08:38:54Z</time>
      </trkpt>
      <trkpt lat="42.699227" lon="-1.539506">
        <ele>807.6</ele>
        <time>2010-05-08T08:39:04Z</time>
      </trkpt>
      <trkpt lat="42.699214" lon="-1.539539">
        <ele>807.6</ele>
        <time>2010-05-08T08:39:06Z</time>
      </trkpt>
      <trkpt lat="42.699169" lon="-1.539615">
        <ele>808.1</ele>
        <time>2010-05-08T08:39:10Z</time>
      </trkpt>
      <trkpt lat="42.698988" lon="-1.540281">
        <ele>808.1</ele>
        <time>2010-05-08T08:39:21Z</time>
      </trkpt>
      <trkpt lat="42.698904" lon="-1.540377">
        <ele>809.1</ele>
        <time>2010-05-08T08:39:31Z</time>
      </trkpt>
      <trkpt lat="42.698819" lon="-1.540477">
        <ele>809.1</ele>
        <time>2010-05-08T08:39:40Z</time>
      </trkpt>
      <trkpt lat="42.698770" lon="-1.540523">
        <ele>809.6</ele>
        <time>2010-05-08T08:39:48Z</time>
      </trkpt>
      <trkpt lat="42.698700" lon="-1.540566">
        <ele>810.0</ele>
        <time>2010-05-08T08:39:58Z</time>
      </trkpt>
      <trkpt lat="42.698668" lon="-1.540589">
        <ele>810.5</ele>
        <time>2010-05-08T08:40:01Z</time>
      </trkpt>
      <trkpt lat="42.698621" lon="-1.540669">
        <ele>811.0</ele>
        <time>2010-05-08T08:40:07Z</time>
      </trkpt>
      <trkpt lat="42.698623" lon="-1.540688">
        <ele>811.0</ele>
        <time>2010-05-08T08:40:08Z</time>
      </trkpt>
      <trkpt lat="42.698600" lon="-1.540752">
        <ele>811.0</ele>
        <time>2010-05-08T08:40:11Z</time>
      </trkpt>
      <trkpt lat="42.698417" lon="-1.540803">
        <ele>811.5</ele>
        <time>2010-05-08T08:40:21Z</time>
      </trkpt>
      <trkpt lat="42.698314" lon="-1.540762">
        <ele>811.5</ele>
        <time>2010-05-08T08:40:25Z</time>
      </trkpt>
      <trkpt lat="42.698084" lon="-1.540847">
        <ele>812.0</ele>
        <time>2010-05-08T08:40:36Z</time>
      </trkpt>
      <trkpt lat="42.698031" lon="-1.540853">
        <ele>812.5</ele>
        <time>2010-05-08T08:40:41Z</time>
      </trkpt>
      <trkpt lat="42.697885" lon="-1.540937">
        <ele>812.5</ele>
        <time>2010-05-08T08:40:51Z</time>
      </trkpt>
      <trkpt lat="42.697830" lon="-1.540941">
        <ele>813.4</ele>
        <time>2010-05-08T08:40:55Z</time>
      </trkpt>
      <trkpt lat="42.697727" lon="-1.540980">
        <ele>814.4</ele>
        <time>2010-05-08T08:41:05Z</time>
      </trkpt>
      <trkpt lat="42.697698" lon="-1.540981">
        <ele>814.4</ele>
        <time>2010-05-08T08:41:09Z</time>
      </trkpt>
      <trkpt lat="42.697681" lon="-1.541005">
        <ele>814.4</ele>
        <time>2010-05-08T08:41:11Z</time>
      </trkpt>
      <trkpt lat="42.697624" lon="-1.541057">
        <ele>814.4</ele>
        <time>2010-05-08T08:41:15Z</time>
      </trkpt>
      <trkpt lat="42.697607" lon="-1.541083">
        <ele>814.4</ele>
        <time>2010-05-08T08:41:17Z</time>
      </trkpt>
      <trkpt lat="42.697504" lon="-1.541116">
        <ele>815.3</ele>
        <time>2010-05-08T08:41:25Z</time>
      </trkpt>
      <trkpt lat="42.697481" lon="-1.541151">
        <ele>815.3</ele>
        <time>2010-05-08T08:41:28Z</time>
      </trkpt>
      <trkpt lat="42.697424" lon="-1.541241">
        <ele>815.8</ele>
        <time>2010-05-08T08:41:38Z</time>
      </trkpt>
      <trkpt lat="42.697337" lon="-1.541308">
        <ele>816.3</ele>
        <time>2010-05-08T08:41:42Z</time>
      </trkpt>
      <trkpt lat="42.697317" lon="-1.541375">
        <ele>816.3</ele>
        <time>2010-05-08T08:41:46Z</time>
      </trkpt>
      <trkpt lat="42.697206" lon="-1.541493">
        <ele>818.2</ele>
        <time>2010-05-08T08:41:56Z</time>
      </trkpt>
      <trkpt lat="42.697007" lon="-1.541848">
        <ele>819.2</ele>
        <time>2010-05-08T08:42:05Z</time>
      </trkpt>
      <trkpt lat="42.696973" lon="-1.541919">
        <ele>820.1</ele>
        <time>2010-05-08T08:42:12Z</time>
      </trkpt>
      <trkpt lat="42.696934" lon="-1.541899">
        <ele>820.1</ele>
        <time>2010-05-08T08:42:14Z</time>
      </trkpt>
      <trkpt lat="42.696806" lon="-1.542117">
        <ele>821.1</ele>
        <time>2010-05-08T08:42:24Z</time>
      </trkpt>
      <trkpt lat="42.696764" lon="-1.542226">
        <ele>822.1</ele>
        <time>2010-05-08T08:42:31Z</time>
      </trkpt>
      <trkpt lat="42.696725" lon="-1.542280">
        <ele>821.6</ele>
        <time>2010-05-08T08:42:35Z</time>
      </trkpt>
      <trkpt lat="42.696674" lon="-1.542394">
        <ele>823.0</ele>
        <time>2010-05-08T08:42:44Z</time>
      </trkpt>
      <trkpt lat="42.696589" lon="-1.542495">
        <ele>823.0</ele>
        <time>2010-05-08T08:42:49Z</time>
      </trkpt>
      <trkpt lat="42.696524" lon="-1.542494">
        <ele>824.0</ele>
        <time>2010-05-08T08:42:55Z</time>
      </trkpt>
      <trkpt lat="42.696394" lon="-1.542488">
        <ele>825.0</ele>
        <time>2010-05-08T08:43:04Z</time>
      </trkpt>
      <trkpt lat="42.696335" lon="-1.542456">
        <ele>825.4</ele>
        <time>2010-05-08T08:43:12Z</time>
      </trkpt>
      <trkpt lat="42.696291" lon="-1.542475">
        <ele>825.9</ele>
        <time>2010-05-08T08:43:22Z</time>
      </trkpt>
      <trkpt lat="42.696194" lon="-1.542449">
        <ele>826.4</ele>
        <time>2010-05-08T08:43:30Z</time>
      </trkpt>
      <trkpt lat="42.695975" lon="-1.542288">
        <ele>827.8</ele>
        <time>2010-05-08T08:43:41Z</time>
      </trkpt>
      <trkpt lat="42.695782" lon="-1.542269">
        <ele>829.3</ele>
        <time>2010-05-08T08:43:57Z</time>
      </trkpt>
      <trkpt lat="42.695637" lon="-1.542210">
        <ele>829.8</ele>
        <time>2010-05-08T08:44:05Z</time>
      </trkpt>
      <trkpt lat="42.695539" lon="-1.542172">
        <ele>830.7</ele>
        <time>2010-05-08T08:44:18Z</time>
      </trkpt>
      <trkpt lat="42.695459" lon="-1.542202">
        <ele>832.6</ele>
        <time>2010-05-08T08:44:32Z</time>
      </trkpt>
      <trkpt lat="42.695448" lon="-1.542295">
        <ele>833.1</ele>
        <time>2010-05-08T08:44:43Z</time>
      </trkpt>
      <trkpt lat="42.695446" lon="-1.542421">
        <ele>834.1</ele>
        <time>2010-05-08T08:44:54Z</time>
      </trkpt>
      <trkpt lat="42.695338" lon="-1.542458">
        <ele>834.6</ele>
        <time>2010-05-08T08:45:01Z</time>
      </trkpt>
      <trkpt lat="42.695210" lon="-1.542430">
        <ele>835.0</ele>
        <time>2010-05-08T08:45:07Z</time>
      </trkpt>
      <trkpt lat="42.695077" lon="-1.542387">
        <ele>835.0</ele>
        <time>2010-05-08T08:45:13Z</time>
      </trkpt>
      <trkpt lat="42.694872" lon="-1.542357">
        <ele>836.5</ele>
        <time>2010-05-08T08:45:22Z</time>
      </trkpt>
      <trkpt lat="42.694531" lon="-1.542226">
        <ele>837.0</ele>
        <time>2010-05-08T08:45:31Z</time>
      </trkpt>
      <trkpt lat="42.694419" lon="-1.542282">
        <ele>836.5</ele>
        <time>2010-05-08T08:45:40Z</time>
      </trkpt>
      <trkpt lat="42.694375" lon="-1.542326">
        <ele>837.9</ele>
        <time>2010-05-08T08:45:44Z</time>
      </trkpt>
      <trkpt lat="42.694316" lon="-1.542339">
        <ele>837.9</ele>
        <time>2010-05-08T08:45:48Z</time>
      </trkpt>
      <trkpt lat="42.694190" lon="-1.542382">
        <ele>838.9</ele>
        <time>2010-05-08T08:45:59Z</time>
      </trkpt>
      <trkpt lat="42.694044" lon="-1.542437">
        <ele>839.8</ele>
        <time>2010-05-08T08:46:07Z</time>
      </trkpt>
      <trkpt lat="42.693938" lon="-1.542580">
        <ele>840.8</ele>
        <time>2010-05-08T08:46:18Z</time>
      </trkpt>
      <trkpt lat="42.693853" lon="-1.542693">
        <ele>841.8</ele>
        <time>2010-05-08T08:46:28Z</time>
      </trkpt>
      <trkpt lat="42.693796" lon="-1.542775">
        <ele>841.8</ele>
        <time>2010-05-08T08:46:35Z</time>
      </trkpt>
      <trkpt lat="42.693685" lon="-1.542827">
        <ele>842.7</ele>
        <time>2010-05-08T08:46:42Z</time>
      </trkpt>
      <trkpt lat="42.693604" lon="-1.542899">
        <ele>842.7</ele>
        <time>2010-05-08T08:46:46Z</time>
      </trkpt>
      <trkpt lat="42.693502" lon="-1.542965">
        <ele>843.7</ele>
        <time>2010-05-08T08:46:51Z</time>
      </trkpt>
      <trkpt lat="42.693221" lon="-1.543104">
        <ele>844.2</ele>
        <time>2010-05-08T08:47:01Z</time>
      </trkpt>
      <trkpt lat="42.693057" lon="-1.543097">
        <ele>845.1</ele>
        <time>2010-05-08T08:47:07Z</time>
      </trkpt>
      <trkpt lat="42.692938" lon="-1.543093">
        <ele>845.6</ele>
        <time>2010-05-08T08:47:17Z</time>
      </trkpt>
      <trkpt lat="42.692861" lon="-1.543214">
        <ele>846.1</ele>
        <time>2010-05-08T08:47:26Z</time>
      </trkpt>
      <trkpt lat="42.692712" lon="-1.543193">
        <ele>846.6</ele>
        <time>2010-05-08T08:47:33Z</time>
      </trkpt>
      <trkpt lat="42.692650" lon="-1.543237">
        <ele>846.6</ele>
        <time>2010-05-08T08:47:39Z</time>
      </trkpt>
      <trkpt lat="42.692512" lon="-1.543219">
        <ele>848.0</ele>
        <time>2010-05-08T08:47:51Z</time>
      </trkpt>
      <trkpt lat="42.692341" lon="-1.543270">
        <ele>849.5</ele>
        <time>2010-05-08T08:48:03Z</time>
      </trkpt>
      <trkpt lat="42.692232" lon="-1.543250">
        <ele>850.9</ele>
        <time>2010-05-08T08:48:12Z</time>
      </trkpt>
      <trkpt lat="42.692165" lon="-1.543217">
        <ele>850.9</ele>
        <time>2010-05-08T08:48:15Z</time>
      </trkpt>
      <trkpt lat="42.692097" lon="-1.543218">
        <ele>851.4</ele>
        <time>2010-05-08T08:48:19Z</time>
      </trkpt>
      <trkpt lat="42.691854" lon="-1.543186">
        <ele>853.8</ele>
        <time>2010-05-08T08:48:37Z</time>
      </trkpt>
      <trkpt lat="42.691765" lon="-1.543123">
        <ele>854.3</ele>
        <time>2010-05-08T08:48:47Z</time>
      </trkpt>
      <trkpt lat="42.691663" lon="-1.543119">
        <ele>854.8</ele>
        <time>2010-05-08T08:48:54Z</time>
      </trkpt>
      <trkpt lat="42.691580" lon="-1.543066">
        <ele>856.2</ele>
        <time>2010-05-08T08:48:59Z</time>
      </trkpt>
      <trkpt lat="42.691530" lon="-1.543050">
        <ele>856.2</ele>
        <time>2010-05-08T08:49:03Z</time>
      </trkpt>
      <trkpt lat="42.691379" lon="-1.543004">
        <ele>857.6</ele>
        <time>2010-05-08T08:49:15Z</time>
      </trkpt>
      <trkpt lat="42.691288" lon="-1.542953">
        <ele>859.1</ele>
        <time>2010-05-08T08:49:25Z</time>
      </trkpt>
      <trkpt lat="42.691128" lon="-1.542915">
        <ele>860.0</ele>
        <time>2010-05-08T08:49:34Z</time>
      </trkpt>
      <trkpt lat="42.691117" lon="-1.542916">
        <ele>860.0</ele>
        <time>2010-05-08T08:49:35Z</time>
      </trkpt>
      <trkpt lat="42.690998" lon="-1.542915">
        <ele>861.0</ele>
        <time>2010-05-08T08:49:45Z</time>
      </trkpt>
      <trkpt lat="42.690894" lon="-1.542913">
        <ele>861.5</ele>
        <time>2010-05-08T08:49:53Z</time>
      </trkpt>
      <trkpt lat="42.690796" lon="-1.542957">
        <ele>862.0</ele>
        <time>2010-05-08T08:49:58Z</time>
      </trkpt>
      <trkpt lat="42.690827" lon="-1.543057">
        <ele>862.4</ele>
        <time>2010-05-08T08:50:03Z</time>
      </trkpt>
      <trkpt lat="42.690801" lon="-1.543196">
        <ele>864.8</ele>
        <time>2010-05-08T08:50:13Z</time>
      </trkpt>
      <trkpt lat="42.690769" lon="-1.543294">
        <ele>866.3</ele>
        <time>2010-05-08T08:50:21Z</time>
      </trkpt>
      <trkpt lat="42.690822" lon="-1.543399">
        <ele>868.2</ele>
        <time>2010-05-08T08:50:35Z</time>
      </trkpt>
      <trkpt lat="42.690845" lon="-1.543468">
        <ele>869.7</ele>
        <time>2010-05-08T08:50:45Z</time>
      </trkpt>
      <trkpt lat="42.690879" lon="-1.543554">
        <ele>872.0</ele>
        <time>2010-05-08T08:51:01Z</time>
      </trkpt>
      <trkpt lat="42.690962" lon="-1.543674">
        <ele>873.5</ele>
        <time>2010-05-08T08:51:10Z</time>
      </trkpt>
      <trkpt lat="42.690951" lon="-1.543686">
        <ele>874.9</ele>
        <time>2010-05-08T08:51:20Z</time>
      </trkpt>
      <trkpt lat="42.690933" lon="-1.543758">
        <ele>875.9</ele>
        <time>2010-05-08T08:51:30Z</time>
      </trkpt>
      <trkpt lat="42.690927" lon="-1.543801">
        <ele>876.9</ele>
        <time>2010-05-08T08:51:34Z</time>
      </trkpt>
      <trkpt lat="42.690908" lon="-1.543821">
        <ele>876.9</ele>
        <time>2010-05-08T08:51:36Z</time>
      </trkpt>
      <trkpt lat="42.690892" lon="-1.543898">
        <ele>879.3</ele>
        <time>2010-05-08T08:51:47Z</time>
      </trkpt>
      <trkpt lat="42.690892" lon="-1.543921">
        <ele>878.3</ele>
        <time>2010-05-08T08:51:49Z</time>
      </trkpt>
      <trkpt lat="42.690849" lon="-1.543982">
        <ele>880.2</ele>
        <time>2010-05-08T08:51:59Z</time>
      </trkpt>
      <trkpt lat="42.690890" lon="-1.543999">
        <ele>880.7</ele>
        <time>2010-05-08T08:52:04Z</time>
      </trkpt>
      <trkpt lat="42.690863" lon="-1.544091">
        <ele>883.1</ele>
        <time>2010-05-08T08:52:13Z</time>
      </trkpt>
      <trkpt lat="42.690852" lon="-1.544175">
        <ele>885.0</ele>
        <time>2010-05-08T08:52:24Z</time>
      </trkpt>
      <trkpt lat="42.690844" lon="-1.544306">
        <ele>887.9</ele>
        <time>2010-05-08T08:52:41Z</time>
      </trkpt>
      <trkpt lat="42.690790" lon="-1.544480">
        <ele>890.8</ele>
        <time>2010-05-08T08:53:01Z</time>
      </trkpt>
      <trkpt lat="42.690776" lon="-1.544549">
        <ele>892.2</ele>
        <time>2010-05-08T08:53:15Z</time>
      </trkpt>
      <trkpt lat="42.690764" lon="-1.544673">
        <ele>893.2</ele>
        <time>2010-05-08T08:53:31Z</time>
      </trkpt>
      <trkpt lat="42.690698" lon="-1.544716">
        <ele>896.6</ele>
        <time>2010-05-08T08:53:55Z</time>
      </trkpt>
      <trkpt lat="42.690693" lon="-1.544735">
        <ele>896.6</ele>
        <time>2010-05-08T08:53:59Z</time>
      </trkpt>
      <trkpt lat="42.690686" lon="-1.544748">
        <ele>896.6</ele>
        <time>2010-05-08T08:54:01Z</time>
      </trkpt>
      <trkpt lat="42.690653" lon="-1.544800">
        <ele>898.5</ele>
        <time>2010-05-08T08:54:12Z</time>
      </trkpt>
      <trkpt lat="42.690637" lon="-1.544859">
        <ele>899.9</ele>
        <time>2010-05-08T08:54:29Z</time>
      </trkpt>
      <trkpt lat="42.690597" lon="-1.544885">
        <ele>899.9</ele>
        <time>2010-05-08T08:55:02Z</time>
      </trkpt>
      <trkpt lat="42.690702" lon="-1.544933">
        <ele>900.4</ele>
        <time>2010-05-08T08:56:12Z</time>
      </trkpt>
      <trkpt lat="42.690575" lon="-1.544952">
        <ele>901.4</ele>
        <time>2010-05-08T08:56:25Z</time>
      </trkpt>
      <trkpt lat="42.690526" lon="-1.544962">
        <ele>902.3</ele>
        <time>2010-05-08T08:56:37Z</time>
      </trkpt>
      <trkpt lat="42.690543" lon="-1.545022">
        <ele>903.3</ele>
        <time>2010-05-08T08:56:54Z</time>
      </trkpt>
      <trkpt lat="42.690528" lon="-1.545035">
        <ele>904.3</ele>
        <time>2010-05-08T08:57:05Z</time>
      </trkpt>
      <trkpt lat="42.690500" lon="-1.545073">
        <ele>907.1</ele>
        <time>2010-05-08T08:57:16Z</time>
      </trkpt>
      <trkpt lat="42.690489" lon="-1.545091">
        <ele>907.1</ele>
        <time>2010-05-08T08:57:18Z</time>
      </trkpt>
      <trkpt lat="42.690448" lon="-1.545145">
        <ele>909.1</ele>
        <time>2010-05-08T08:57:26Z</time>
      </trkpt>
      <trkpt lat="42.690429" lon="-1.545216">
        <ele>910.0</ele>
        <time>2010-05-08T08:57:34Z</time>
      </trkpt>
      <trkpt lat="42.690390" lon="-1.545259">
        <ele>911.0</ele>
        <time>2010-05-08T08:57:43Z</time>
      </trkpt>
      <trkpt lat="42.690378" lon="-1.545279">
        <ele>911.5</ele>
        <time>2010-05-08T08:57:45Z</time>
      </trkpt>
      <trkpt lat="42.690310" lon="-1.545370">
        <ele>913.9</ele>
        <time>2010-05-08T08:57:56Z</time>
      </trkpt>
      <trkpt lat="42.690274" lon="-1.545423">
        <ele>914.8</ele>
        <time>2010-05-08T08:58:03Z</time>
      </trkpt>
      <trkpt lat="42.690238" lon="-1.545499">
        <ele>918.2</ele>
        <time>2010-05-08T08:58:14Z</time>
      </trkpt>
      <trkpt lat="42.690142" lon="-1.545620">
        <ele>919.6</ele>
        <time>2010-05-08T08:58:26Z</time>
      </trkpt>
      <trkpt lat="42.690091" lon="-1.545632">
        <ele>920.6</ele>
        <time>2010-05-08T08:58:35Z</time>
      </trkpt>
      <trkpt lat="42.690060" lon="-1.545660">
        <ele>922.0</ele>
        <time>2010-05-08T08:58:42Z</time>
      </trkpt>
      <trkpt lat="42.690019" lon="-1.545719">
        <ele>923.0</ele>
        <time>2010-05-08T08:58:53Z</time>
      </trkpt>
      <trkpt lat="42.689939" lon="-1.545761">
        <ele>924.5</ele>
        <time>2010-05-08T08:59:07Z</time>
      </trkpt>
      <trkpt lat="42.689909" lon="-1.545806">
        <ele>926.4</ele>
        <time>2010-05-08T08:59:16Z</time>
      </trkpt>
      <trkpt lat="42.689891" lon="-1.545843">
        <ele>928.3</ele>
        <time>2010-05-08T08:59:25Z</time>
      </trkpt>
      <trkpt lat="42.689891" lon="-1.545850">
        <ele>928.8</ele>
        <time>2010-05-08T08:59:28Z</time>
      </trkpt>
      <trkpt lat="42.689838" lon="-1.545875">
        <ele>931.2</ele>
        <time>2010-05-08T08:59:37Z</time>
      </trkpt>
      <trkpt lat="42.689800" lon="-1.545912">
        <ele>932.6</ele>
        <time>2010-05-08T08:59:46Z</time>
      </trkpt>
      <trkpt lat="42.689760" lon="-1.545950">
        <ele>934.5</ele>
        <time>2010-05-08T08:59:57Z</time>
      </trkpt>
      <trkpt lat="42.689757" lon="-1.545953">
        <ele>935.0</ele>
        <time>2010-05-08T08:59:58Z</time>
      </trkpt>
      <trkpt lat="42.689750" lon="-1.545991">
        <ele>935.5</ele>
        <time>2010-05-08T09:00:01Z</time>
      </trkpt>
      <trkpt lat="42.689729" lon="-1.546039">
        <ele>936.5</ele>
        <time>2010-05-08T09:00:06Z</time>
      </trkpt>
      <trkpt lat="42.689700" lon="-1.546088">
        <ele>937.4</ele>
        <time>2010-05-08T09:00:14Z</time>
      </trkpt>
      <trkpt lat="42.689699" lon="-1.546122">
        <ele>937.9</ele>
        <time>2010-05-08T09:00:17Z</time>
      </trkpt>
      <trkpt lat="42.689693" lon="-1.546169">
        <ele>939.3</ele>
        <time>2010-05-08T09:00:23Z</time>
      </trkpt>
      <trkpt lat="42.689667" lon="-1.546203">
        <ele>939.8</ele>
        <time>2010-05-08T09:00:27Z</time>
      </trkpt>
      <trkpt lat="42.689674" lon="-1.546246">
        <ele>940.8</ele>
        <time>2010-05-08T09:00:30Z</time>
      </trkpt>
      <trkpt lat="42.689658" lon="-1.546305">
        <ele>942.2</ele>
        <time>2010-05-08T09:00:40Z</time>
      </trkpt>
      <trkpt lat="42.689604" lon="-1.546320">
        <ele>944.6</ele>
        <time>2010-05-08T09:00:51Z</time>
      </trkpt>
      <trkpt lat="42.689588" lon="-1.546354">
        <ele>946.6</ele>
        <time>2010-05-08T09:00:59Z</time>
      </trkpt>
      <trkpt lat="42.689532" lon="-1.546441">
        <ele>947.5</ele>
        <time>2010-05-08T09:01:10Z</time>
      </trkpt>
      <trkpt lat="42.689525" lon="-1.546449">
        <ele>948.0</ele>
        <time>2010-05-08T09:01:11Z</time>
      </trkpt>
      <trkpt lat="42.689517" lon="-1.546487">
        <ele>948.5</ele>
        <time>2010-05-08T09:01:15Z</time>
      </trkpt>
      <trkpt lat="42.689490" lon="-1.546511">
        <ele>949.4</ele>
        <time>2010-05-08T09:01:19Z</time>
      </trkpt>
      <trkpt lat="42.689478" lon="-1.546554">
        <ele>949.9</ele>
        <time>2010-05-08T09:01:23Z</time>
      </trkpt>
      <trkpt lat="42.689392" lon="-1.546649">
        <ele>952.3</ele>
        <time>2010-05-08T09:01:33Z</time>
      </trkpt>
      <trkpt lat="42.689407" lon="-1.546753">
        <ele>954.2</ele>
        <time>2010-05-08T09:01:45Z</time>
      </trkpt>
      <trkpt lat="42.689356" lon="-1.546827">
        <ele>955.7</ele>
        <time>2010-05-08T09:01:54Z</time>
      </trkpt>
      <trkpt lat="42.689390" lon="-1.546953">
        <ele>958.1</ele>
        <time>2010-05-08T09:02:03Z</time>
      </trkpt>
      <trkpt lat="42.689428" lon="-1.547021">
        <ele>961.0</ele>
        <time>2010-05-08T09:02:14Z</time>
      </trkpt>
      <trkpt lat="42.689737" lon="-1.547068">
        <ele>962.9</ele>
        <time>2010-05-08T09:02:45Z</time>
      </trkpt>
      <trkpt lat="42.689852" lon="-1.547129">
        <ele>964.3</ele>
        <time>2010-05-08T09:02:57Z</time>
      </trkpt>
      <trkpt lat="42.689883" lon="-1.547124">
        <ele>964.8</ele>
        <time>2010-05-08T09:03:00Z</time>
      </trkpt>
      <trkpt lat="42.689896" lon="-1.547076">
        <ele>965.3</ele>
        <time>2010-05-08T09:03:03Z</time>
      </trkpt>
      <trkpt lat="42.689963" lon="-1.547029">
        <ele>964.8</ele>
        <time>2010-05-08T09:03:06Z</time>
      </trkpt>
      <trkpt lat="42.690143" lon="-1.546999">
        <ele>966.3</ele>
        <time>2010-05-08T09:03:18Z</time>
      </trkpt>
      <trkpt lat="42.690270" lon="-1.546923">
        <ele>968.2</ele>
        <time>2010-05-08T09:03:29Z</time>
      </trkpt>
      <trkpt lat="42.690333" lon="-1.546899">
        <ele>969.2</ele>
        <time>2010-05-08T09:03:32Z</time>
      </trkpt>
      <trkpt lat="42.690382" lon="-1.546862">
        <ele>969.6</ele>
        <time>2010-05-08T09:03:37Z</time>
      </trkpt>
      <trkpt lat="42.690493" lon="-1.546841">
        <ele>971.5</ele>
        <time>2010-05-08T09:03:45Z</time>
      </trkpt>
      <trkpt lat="42.690620" lon="-1.546772">
        <ele>973.0</ele>
        <time>2010-05-08T09:03:55Z</time>
      </trkpt>
      <trkpt lat="42.690694" lon="-1.546727">
        <ele>974.0</ele>
        <time>2010-05-08T09:04:04Z</time>
      </trkpt>
      <trkpt lat="42.690750" lon="-1.546665">
        <ele>974.9</ele>
        <time>2010-05-08T09:04:10Z</time>
      </trkpt>
      <trkpt lat="42.690875" lon="-1.546622">
        <ele>975.4</ele>
        <time>2010-05-08T09:04:19Z</time>
      </trkpt>
      <trkpt lat="42.690892" lon="-1.546637">
        <ele>975.9</ele>
        <time>2010-05-08T09:04:21Z</time>
      </trkpt>
      <trkpt lat="42.691018" lon="-1.546656">
        <ele>975.4</ele>
        <time>2010-05-08T09:04:34Z</time>
      </trkpt>
      <trkpt lat="42.691025" lon="-1.546679">
        <ele>974.9</ele>
        <time>2010-05-08T09:04:37Z</time>
      </trkpt>
      <trkpt lat="42.691082" lon="-1.546703">
        <ele>974.9</ele>
        <time>2010-05-08T09:04:39Z</time>
      </trkpt>
      <trkpt lat="42.691058" lon="-1.546795">
        <ele>976.8</ele>
        <time>2010-05-08T09:04:48Z</time>
      </trkpt>
      <trkpt lat="42.691085" lon="-1.546804">
        <ele>978.3</ele>
        <time>2010-05-08T09:04:51Z</time>
      </trkpt>
      <trkpt lat="42.691041" lon="-1.546891">
        <ele>979.2</ele>
        <time>2010-05-08T09:04:57Z</time>
      </trkpt>
      <trkpt lat="42.691108" lon="-1.546876">
        <ele>979.7</ele>
        <time>2010-05-08T09:05:00Z</time>
      </trkpt>
      <trkpt lat="42.691022" lon="-1.546965">
        <ele>982.1</ele>
        <time>2010-05-08T09:05:08Z</time>
      </trkpt>
      <trkpt lat="42.691039" lon="-1.546956">
        <ele>983.6</ele>
        <time>2010-05-08T09:05:13Z</time>
      </trkpt>
      <trkpt lat="42.690986" lon="-1.547004">
        <ele>985.0</ele>
        <time>2010-05-08T09:05:20Z</time>
      </trkpt>
      <trkpt lat="42.691012" lon="-1.547012">
        <ele>985.0</ele>
        <time>2010-05-08T09:05:22Z</time>
      </trkpt>
      <trkpt lat="42.691077" lon="-1.547013">
        <ele>985.5</ele>
        <time>2010-05-08T09:05:25Z</time>
      </trkpt>
      <trkpt lat="42.690968" lon="-1.547089">
        <ele>987.9</ele>
        <time>2010-05-08T09:05:35Z</time>
      </trkpt>
      <trkpt lat="42.690975" lon="-1.547108">
        <ele>988.4</ele>
        <time>2010-05-08T09:05:38Z</time>
      </trkpt>
      <trkpt lat="42.690896" lon="-1.547167">
        <ele>990.8</ele>
        <time>2010-05-08T09:05:54Z</time>
      </trkpt>
      <trkpt lat="42.690873" lon="-1.547186">
        <ele>994.1</ele>
        <time>2010-05-08T09:06:09Z</time>
      </trkpt>
      <trkpt lat="42.690843" lon="-1.547286">
        <ele>997.0</ele>
        <time>2010-05-08T09:06:30Z</time>
      </trkpt>
      <trkpt lat="42.690796" lon="-1.547335">
        <ele>999.0</ele>
        <time>2010-05-08T09:06:46Z</time>
      </trkpt>
      <trkpt lat="42.690726" lon="-1.547477">
        <ele>1002.3</ele>
        <time>2010-05-08T09:07:02Z</time>
      </trkpt>
      <trkpt lat="42.690694" lon="-1.547495">
        <ele>1005.7</ele>
        <time>2010-05-08T09:07:21Z</time>
      </trkpt>
      <trkpt lat="42.690636" lon="-1.547624">
        <ele>1007.6</ele>
        <time>2010-05-08T09:07:31Z</time>
      </trkpt>
      <trkpt lat="42.690543" lon="-1.547693">
        <ele>1009.5</ele>
        <time>2010-05-08T09:07:42Z</time>
      </trkpt>
      <trkpt lat="42.690455" lon="-1.547728">
        <ele>1012.4</ele>
        <time>2010-05-08T09:07:52Z</time>
      </trkpt>
      <trkpt lat="42.690452" lon="-1.547800">
        <ele>1013.8</ele>
        <time>2010-05-08T09:08:01Z</time>
      </trkpt>
      <trkpt lat="42.690437" lon="-1.547822">
        <ele>1014.3</ele>
        <time>2010-05-08T09:08:04Z</time>
      </trkpt>
      <trkpt lat="42.690368" lon="-1.547833">
        <ele>1015.3</ele>
        <time>2010-05-08T09:08:11Z</time>
      </trkpt>
      <trkpt lat="42.690288" lon="-1.547968">
        <ele>1017.2</ele>
        <time>2010-05-08T09:08:23Z</time>
      </trkpt>
      <trkpt lat="42.690264" lon="-1.548051">
        <ele>1018.2</ele>
        <time>2010-05-08T09:08:29Z</time>
      </trkpt>
      <trkpt lat="42.690237" lon="-1.548105">
        <ele>1019.6</ele>
        <time>2010-05-08T09:08:35Z</time>
      </trkpt>
      <trkpt lat="42.690215" lon="-1.548122">
        <ele>1019.6</ele>
        <time>2010-05-08T09:08:37Z</time>
      </trkpt>
      <trkpt lat="42.690193" lon="-1.548149">
        <ele>1020.1</ele>
        <time>2010-05-08T09:08:39Z</time>
      </trkpt>
      <trkpt lat="42.690163" lon="-1.548271">
        <ele>1022.0</ele>
        <time>2010-05-08T09:08:49Z</time>
      </trkpt>
      <trkpt lat="42.690160" lon="-1.548285">
        <ele>1022.5</ele>
        <time>2010-05-08T09:08:50Z</time>
      </trkpt>
      <trkpt lat="42.690126" lon="-1.548296">
        <ele>1023.5</ele>
        <time>2010-05-08T09:08:53Z</time>
      </trkpt>
      <trkpt lat="42.690104" lon="-1.548305">
        <ele>1023.5</ele>
        <time>2010-05-08T09:08:55Z</time>
      </trkpt>
      <trkpt lat="42.690114" lon="-1.548339">
        <ele>1023.9</ele>
        <time>2010-05-08T09:08:58Z</time>
      </trkpt>
      <trkpt lat="42.690127" lon="-1.548390">
        <ele>1025.4</ele>
        <time>2010-05-08T09:09:04Z</time>
      </trkpt>
      <trkpt lat="42.690169" lon="-1.548450">
        <ele>1027.3</ele>
        <time>2010-05-08T09:09:11Z</time>
      </trkpt>
      <trkpt lat="42.690215" lon="-1.548477">
        <ele>1029.7</ele>
        <time>2010-05-08T09:09:22Z</time>
      </trkpt>
      <trkpt lat="42.690297" lon="-1.548449">
        <ele>1031.2</ele>
        <time>2010-05-08T09:09:32Z</time>
      </trkpt>
      <trkpt lat="42.690389" lon="-1.548517">
        <ele>1033.6</ele>
        <time>2010-05-08T09:09:45Z</time>
      </trkpt>
      <trkpt lat="42.690432" lon="-1.548506">
        <ele>1035.0</ele>
        <time>2010-05-08T09:09:51Z</time>
      </trkpt>
      <trkpt lat="42.690429" lon="-1.548533">
        <ele>1035.0</ele>
        <time>2010-05-08T09:09:55Z</time>
      </trkpt>
      <trkpt lat="42.690488" lon="-1.548627">
        <ele>1036.4</ele>
        <time>2010-05-08T09:10:04Z</time>
      </trkpt>
      <trkpt lat="42.690508" lon="-1.548708">
        <ele>1037.4</ele>
        <time>2010-05-08T09:10:09Z</time>
      </trkpt>
      <trkpt lat="42.690646" lon="-1.548808">
        <ele>1036.9</ele>
        <time>2010-05-08T09:10:17Z</time>
      </trkpt>
      <trkpt lat="42.690669" lon="-1.548975">
        <ele>1036.9</ele>
        <time>2010-05-08T09:10:27Z</time>
      </trkpt>
      <trkpt lat="42.690663" lon="-1.548994">
        <ele>1036.4</ele>
        <time>2010-05-08T09:10:31Z</time>
      </trkpt>
      <trkpt lat="42.690663" lon="-1.548994">
        <ele>1034.5</ele>
        <time>2010-05-08T09:10:32Z</time>
      </trkpt>
      <trkpt lat="42.690725" lon="-1.549200">
        <ele>1033.6</ele>
        <time>2010-05-08T09:10:44Z</time>
      </trkpt>
      <trkpt lat="42.690733" lon="-1.549258">
        <ele>1033.6</ele>
        <time>2010-05-08T09:10:45Z</time>
      </trkpt>
      <trkpt lat="42.690874" lon="-1.549415">
        <ele>1033.1</ele>
        <time>2010-05-08T09:10:56Z</time>
      </trkpt>
      <trkpt lat="42.690959" lon="-1.549464">
        <ele>1033.1</ele>
        <time>2010-05-08T09:11:06Z</time>
      </trkpt>
      <trkpt lat="42.691194" lon="-1.549429">
        <ele>1034.0</ele>
        <time>2010-05-08T09:11:18Z</time>
      </trkpt>
      <trkpt lat="42.691230" lon="-1.549390">
        <ele>1034.0</ele>
        <time>2010-05-08T09:11:19Z</time>
      </trkpt>
      <trkpt lat="42.691232" lon="-1.549322">
        <ele>1034.5</ele>
        <time>2010-05-08T09:11:22Z</time>
      </trkpt>
      <trkpt lat="42.691229" lon="-1.549283">
        <ele>1036.0</ele>
        <time>2010-05-08T09:11:25Z</time>
      </trkpt>
      <trkpt lat="42.691267" lon="-1.549160">
        <ele>1037.4</ele>
        <time>2010-05-08T09:11:34Z</time>
      </trkpt>
      <trkpt lat="42.691336" lon="-1.549099">
        <ele>1039.8</ele>
        <time>2010-05-08T09:11:42Z</time>
      </trkpt>
      <trkpt lat="42.691454" lon="-1.549067">
        <ele>1041.2</ele>
        <time>2010-05-08T09:11:54Z</time>
      </trkpt>
      <trkpt lat="42.691478" lon="-1.549061">
        <ele>1041.7</ele>
        <time>2010-05-08T09:11:56Z</time>
      </trkpt>
      <trkpt lat="42.691609" lon="-1.549071">
        <ele>1042.2</ele>
        <time>2010-05-08T09:12:07Z</time>
      </trkpt>
      <trkpt lat="42.691739" lon="-1.549089">
        <ele>1043.2</ele>
        <time>2010-05-08T09:12:16Z</time>
      </trkpt>
      <trkpt lat="42.691966" lon="-1.549173">
        <ele>1042.2</ele>
        <time>2010-05-08T09:12:34Z</time>
      </trkpt>
      <trkpt lat="42.692110" lon="-1.549239">
        <ele>1042.2</ele>
        <time>2010-05-08T09:12:40Z</time>
      </trkpt>
      <trkpt lat="42.692128" lon="-1.549365">
        <ele>1042.2</ele>
        <time>2010-05-08T09:12:48Z</time>
      </trkpt>
      <trkpt lat="42.692151" lon="-1.549444">
        <ele>1042.2</ele>
        <time>2010-05-08T09:12:52Z</time>
      </trkpt>
      <trkpt lat="42.692115" lon="-1.549545">
        <ele>1043.7</ele>
        <time>2010-05-08T09:12:58Z</time>
      </trkpt>
      <trkpt lat="42.692115" lon="-1.549610">
        <ele>1044.1</ele>
        <time>2010-05-08T09:13:01Z</time>
      </trkpt>
      <trkpt lat="42.692092" lon="-1.549673">
        <ele>1044.1</ele>
        <time>2010-05-08T09:13:13Z</time>
      </trkpt>
      <trkpt lat="42.692069" lon="-1.549683">
        <ele>1044.6</ele>
        <time>2010-05-08T09:13:14Z</time>
      </trkpt>
      <trkpt lat="42.692077" lon="-1.549812">
        <ele>1046.5</ele>
        <time>2010-05-08T09:13:24Z</time>
      </trkpt>
      <trkpt lat="42.692062" lon="-1.549871">
        <ele>1044.6</ele>
        <time>2010-05-08T09:13:27Z</time>
      </trkpt>
      <trkpt lat="42.691966" lon="-1.550082">
        <ele>1045.1</ele>
        <time>2010-05-08T09:13:38Z</time>
      </trkpt>
      <trkpt lat="42.691931" lon="-1.550159">
        <ele>1044.6</ele>
        <time>2010-05-08T09:13:42Z</time>
      </trkpt>
      <trkpt lat="42.691870" lon="-1.550438">
        <ele>1045.1</ele>
        <time>2010-05-08T09:13:56Z</time>
      </trkpt>
      <trkpt lat="42.691867" lon="-1.550448">
        <ele>1045.6</ele>
        <time>2010-05-08T09:13:58Z</time>
      </trkpt>
      <trkpt lat="42.691830" lon="-1.550560">
        <ele>1045.1</ele>
        <time>2010-05-08T09:14:07Z</time>
      </trkpt>
      <trkpt lat="42.691765" lon="-1.550693">
        <ele>1044.6</ele>
        <time>2010-05-08T09:14:13Z</time>
      </trkpt>
      <trkpt lat="42.691760" lon="-1.550713">
        <ele>1044.6</ele>
        <time>2010-05-08T09:14:15Z</time>
      </trkpt>
      <trkpt lat="42.691753" lon="-1.550817">
        <ele>1045.1</ele>
        <time>2010-05-08T09:14:20Z</time>
      </trkpt>
      <trkpt lat="42.691730" lon="-1.550985">
        <ele>1045.1</ele>
        <time>2010-05-08T09:14:28Z</time>
      </trkpt>
      <trkpt lat="42.691691" lon="-1.551136">
        <ele>1046.1</ele>
        <time>2010-05-08T09:14:38Z</time>
      </trkpt>
      <trkpt lat="42.691620" lon="-1.551360">
        <ele>1046.5</ele>
        <time>2010-05-08T09:14:48Z</time>
      </trkpt>
      <trkpt lat="42.691621" lon="-1.551498">
        <ele>1047.5</ele>
        <time>2010-05-08T09:14:57Z</time>
      </trkpt>
      <trkpt lat="42.691462" lon="-1.551686">
        <ele>1049.4</ele>
        <time>2010-05-08T09:15:08Z</time>
      </trkpt>
      <trkpt lat="42.691408" lon="-1.551882">
        <ele>1050.9</ele>
        <time>2010-05-08T09:15:21Z</time>
      </trkpt>
      <trkpt lat="42.691294" lon="-1.552045">
        <ele>1053.7</ele>
        <time>2010-05-08T09:15:35Z</time>
      </trkpt>
      <trkpt lat="42.691293" lon="-1.552111">
        <ele>1054.2</ele>
        <time>2010-05-08T09:15:39Z</time>
      </trkpt>
      <trkpt lat="42.691243" lon="-1.552319">
        <ele>1057.1</ele>
        <time>2010-05-08T09:15:53Z</time>
      </trkpt>
      <trkpt lat="42.691243" lon="-1.552315">
        <ele>1056.6</ele>
        <time>2010-05-08T09:15:54Z</time>
      </trkpt>
      <trkpt lat="42.691163" lon="-1.552448">
        <ele>1058.1</ele>
        <time>2010-05-08T09:16:08Z</time>
      </trkpt>
      <trkpt lat="42.691096" lon="-1.552659">
        <ele>1059.0</ele>
        <time>2010-05-08T09:16:19Z</time>
      </trkpt>
      <trkpt lat="42.690978" lon="-1.552693">
        <ele>1060.5</ele>
        <time>2010-05-08T09:16:27Z</time>
      </trkpt>
      <trkpt lat="42.690967" lon="-1.552896">
        <ele>1061.9</ele>
        <time>2010-05-08T09:16:34Z</time>
      </trkpt>
      <trkpt lat="42.690876" lon="-1.553073">
        <ele>1062.9</ele>
        <time>2010-05-08T09:16:46Z</time>
      </trkpt>
      <trkpt lat="42.690867" lon="-1.553120">
        <ele>1063.4</ele>
        <time>2010-05-08T09:16:51Z</time>
      </trkpt>
      <trkpt lat="42.690835" lon="-1.553306">
        <ele>1064.3</ele>
        <time>2010-05-08T09:16:57Z</time>
      </trkpt>
      <trkpt lat="42.690834" lon="-1.553458">
        <ele>1066.7</ele>
        <time>2010-05-08T09:17:09Z</time>
      </trkpt>
      <trkpt lat="42.690758" lon="-1.553623">
        <ele>1067.2</ele>
        <time>2010-05-08T09:17:21Z</time>
      </trkpt>
      <trkpt lat="42.690757" lon="-1.553950">
        <ele>1068.6</ele>
        <time>2010-05-08T09:17:37Z</time>
      </trkpt>
      <trkpt lat="42.690751" lon="-1.554149">
        <ele>1069.6</ele>
        <time>2010-05-08T09:17:49Z</time>
      </trkpt>
      <trkpt lat="42.690667" lon="-1.554394">
        <ele>1069.1</ele>
        <time>2010-05-08T09:18:01Z</time>
      </trkpt>
      <trkpt lat="42.690652" lon="-1.554612">
        <ele>1068.2</ele>
        <time>2010-05-08T09:18:14Z</time>
      </trkpt>
      <trkpt lat="42.690569" lon="-1.554770">
        <ele>1067.7</ele>
        <time>2010-05-08T09:18:22Z</time>
      </trkpt>
      <trkpt lat="42.690431" lon="-1.554954">
        <ele>1068.2</ele>
        <time>2010-05-08T09:18:35Z</time>
      </trkpt>
      <trkpt lat="42.690377" lon="-1.555066">
        <ele>1068.2</ele>
        <time>2010-05-08T09:18:48Z</time>
      </trkpt>
      <trkpt lat="42.690238" lon="-1.555414">
        <ele>1066.7</ele>
        <time>2010-05-08T09:19:01Z</time>
      </trkpt>
      <trkpt lat="42.690192" lon="-1.555686">
        <ele>1065.8</ele>
        <time>2010-05-08T09:19:18Z</time>
      </trkpt>
      <trkpt lat="42.690221" lon="-1.555929">
        <ele>1064.3</ele>
        <time>2010-05-08T09:19:25Z</time>
      </trkpt>
      <trkpt lat="42.690248" lon="-1.556050">
        <ele>1063.4</ele>
        <time>2010-05-08T09:19:35Z</time>
      </trkpt>
      <trkpt lat="42.690102" lon="-1.556230">
        <ele>1060.9</ele>
        <time>2010-05-08T09:19:48Z</time>
      </trkpt>
      <trkpt lat="42.690098" lon="-1.556498">
        <ele>1059.5</ele>
        <time>2010-05-08T09:19:59Z</time>
      </trkpt>
      <trkpt lat="42.690186" lon="-1.556732">
        <ele>1058.1</ele>
        <time>2010-05-08T09:20:14Z</time>
      </trkpt>
      <trkpt lat="42.690113" lon="-1.556834">
        <ele>1058.6</ele>
        <time>2010-05-08T09:20:17Z</time>
      </trkpt>
      <trkpt lat="42.690070" lon="-1.557037">
        <ele>1058.1</ele>
        <time>2010-05-08T09:20:27Z</time>
      </trkpt>
      <trkpt lat="42.689992" lon="-1.557078">
        <ele>1057.6</ele>
        <time>2010-05-08T09:20:31Z</time>
      </trkpt>
      <trkpt lat="42.690036" lon="-1.557278">
        <ele>1057.6</ele>
        <time>2010-05-08T09:20:41Z</time>
      </trkpt>
      <trkpt lat="42.690077" lon="-1.557448">
        <ele>1057.6</ele>
        <time>2010-05-08T09:20:49Z</time>
      </trkpt>
      <trkpt lat="42.690107" lon="-1.557598">
        <ele>1057.6</ele>
        <time>2010-05-08T09:21:02Z</time>
      </trkpt>
      <trkpt lat="42.689749" lon="-1.557861">
        <ele>1057.6</ele>
        <time>2010-05-08T09:21:26Z</time>
      </trkpt>
      <trkpt lat="42.689806" lon="-1.558046">
        <ele>1057.6</ele>
        <time>2010-05-08T09:21:35Z</time>
      </trkpt>
      <trkpt lat="42.689753" lon="-1.558084">
        <ele>1058.1</ele>
        <time>2010-05-08T09:21:37Z</time>
      </trkpt>
      <trkpt lat="42.689764" lon="-1.558288">
        <ele>1058.1</ele>
        <time>2010-05-08T09:21:45Z</time>
      </trkpt>
      <trkpt lat="42.689760" lon="-1.558362">
        <ele>1058.1</ele>
        <time>2010-05-08T09:21:48Z</time>
      </trkpt>
      <trkpt lat="42.689795" lon="-1.558518">
        <ele>1058.1</ele>
        <time>2010-05-08T09:22:01Z</time>
      </trkpt>
      <trkpt lat="42.689834" lon="-1.558735">
        <ele>1057.1</ele>
        <time>2010-05-08T09:22:13Z</time>
      </trkpt>
      <trkpt lat="42.689812" lon="-1.558956">
        <ele>1056.2</ele>
        <time>2010-05-08T09:22:23Z</time>
      </trkpt>
      <trkpt lat="42.689826" lon="-1.558962">
        <ele>1056.2</ele>
        <time>2010-05-08T09:22:24Z</time>
      </trkpt>
      <trkpt lat="42.689786" lon="-1.559092">
        <ele>1054.7</ele>
        <time>2010-05-08T09:22:30Z</time>
      </trkpt>
      <trkpt lat="42.689749" lon="-1.559295">
        <ele>1053.3</ele>
        <time>2010-05-08T09:22:45Z</time>
      </trkpt>
      <trkpt lat="42.689559" lon="-1.559556">
        <ele>1051.8</ele>
        <time>2010-05-08T09:22:58Z</time>
      </trkpt>
      <trkpt lat="42.689534" lon="-1.559819">
        <ele>1051.3</ele>
        <time>2010-05-08T09:23:10Z</time>
      </trkpt>
      <trkpt lat="42.689493" lon="-1.559781">
        <ele>1051.8</ele>
        <time>2010-05-08T09:23:12Z</time>
      </trkpt>
      <trkpt lat="42.689422" lon="-1.560116">
        <ele>1050.9</ele>
        <time>2010-05-08T09:23:29Z</time>
      </trkpt>
      <trkpt lat="42.689470" lon="-1.560230">
        <ele>1050.9</ele>
        <time>2010-05-08T09:23:39Z</time>
      </trkpt>
      <trkpt lat="42.689427" lon="-1.560479">
        <ele>1048.9</ele>
        <time>2010-05-08T09:23:51Z</time>
      </trkpt>
      <trkpt lat="42.689319" lon="-1.560766">
        <ele>1048.9</ele>
        <time>2010-05-08T09:24:09Z</time>
      </trkpt>
      <trkpt lat="42.689215" lon="-1.560958">
        <ele>1048.0</ele>
        <time>2010-05-08T09:24:19Z</time>
      </trkpt>
      <trkpt lat="42.689097" lon="-1.561127">
        <ele>1048.0</ele>
        <time>2010-05-08T09:24:30Z</time>
      </trkpt>
      <trkpt lat="42.689040" lon="-1.561377">
        <ele>1046.1</ele>
        <time>2010-05-08T09:24:44Z</time>
      </trkpt>
      <trkpt lat="42.688888" lon="-1.561632">
        <ele>1045.1</ele>
        <time>2010-05-08T09:25:00Z</time>
      </trkpt>
      <trkpt lat="42.688793" lon="-1.561725">
        <ele>1045.1</ele>
        <time>2010-05-08T09:25:07Z</time>
      </trkpt>
      <trkpt lat="42.688736" lon="-1.561744">
        <ele>1045.1</ele>
        <time>2010-05-08T09:25:13Z</time>
      </trkpt>
      <trkpt lat="42.688601" lon="-1.561934">
        <ele>1045.1</ele>
        <time>2010-05-08T09:25:23Z</time>
      </trkpt>
      <trkpt lat="42.688586" lon="-1.561948">
        <ele>1044.6</ele>
        <time>2010-05-08T09:25:25Z</time>
      </trkpt>
      <trkpt lat="42.688521" lon="-1.562008">
        <ele>1044.6</ele>
        <time>2010-05-08T09:25:30Z</time>
      </trkpt>
      <trkpt lat="42.688481" lon="-1.562079">
        <ele>1044.1</ele>
        <time>2010-05-08T09:25:35Z</time>
      </trkpt>
      <trkpt lat="42.688343" lon="-1.562249">
        <ele>1043.7</ele>
        <time>2010-05-08T09:25:46Z</time>
      </trkpt>
      <trkpt lat="42.688133" lon="-1.562557">
        <ele>1044.1</ele>
        <time>2010-05-08T09:26:01Z</time>
      </trkpt>
      <trkpt lat="42.687988" lon="-1.562658">
        <ele>1043.7</ele>
        <time>2010-05-08T09:26:11Z</time>
      </trkpt>
      <trkpt lat="42.687961" lon="-1.562800">
        <ele>1044.6</ele>
        <time>2010-05-08T09:26:17Z</time>
      </trkpt>
      <trkpt lat="42.687963" lon="-1.562866">
        <ele>1044.1</ele>
        <time>2010-05-08T09:26:20Z</time>
      </trkpt>
      <trkpt lat="42.687975" lon="-1.562910">
        <ele>1044.6</ele>
        <time>2010-05-08T09:26:23Z</time>
      </trkpt>
      <trkpt lat="42.687963" lon="-1.563002">
        <ele>1044.6</ele>
        <time>2010-05-08T09:26:27Z</time>
      </trkpt>
      <trkpt lat="42.687930" lon="-1.563158">
        <ele>1044.6</ele>
        <time>2010-05-08T09:26:34Z</time>
      </trkpt>
      <trkpt lat="42.687910" lon="-1.563199">
        <ele>1044.6</ele>
        <time>2010-05-08T09:26:37Z</time>
      </trkpt>
      <trkpt lat="42.687944" lon="-1.563416">
        <ele>1045.1</ele>
        <time>2010-05-08T09:26:47Z</time>
      </trkpt>
      <trkpt lat="42.687943" lon="-1.563431">
        <ele>1045.1</ele>
        <time>2010-05-08T09:26:48Z</time>
      </trkpt>
      <trkpt lat="42.687929" lon="-1.563541">
        <ele>1045.1</ele>
        <time>2010-05-08T09:26:53Z</time>
      </trkpt>
      <trkpt lat="42.687913" lon="-1.563623">
        <ele>1045.1</ele>
        <time>2010-05-08T09:26:57Z</time>
      </trkpt>
      <trkpt lat="42.687974" lon="-1.563785">
        <ele>1044.6</ele>
        <time>2010-05-08T09:27:03Z</time>
      </trkpt>
      <trkpt lat="42.688001" lon="-1.563829">
        <ele>1045.1</ele>
        <time>2010-05-08T09:27:05Z</time>
      </trkpt>
      <trkpt lat="42.687910" lon="-1.563851">
        <ele>1045.6</ele>
        <time>2010-05-08T09:27:10Z</time>
      </trkpt>
      <trkpt lat="42.687895" lon="-1.563896">
        <ele>1045.6</ele>
        <time>2010-05-08T09:27:12Z</time>
      </trkpt>
      <trkpt lat="42.687867" lon="-1.563952">
        <ele>1045.6</ele>
        <time>2010-05-08T09:27:15Z</time>
      </trkpt>
      <trkpt lat="42.687863" lon="-1.564095">
        <ele>1045.6</ele>
        <time>2010-05-08T09:27:26Z</time>
      </trkpt>
      <trkpt lat="42.687836" lon="-1.564242">
        <ele>1046.1</ele>
        <time>2010-05-08T09:27:36Z</time>
      </trkpt>
      <trkpt lat="42.687840" lon="-1.564285">
        <ele>1046.5</ele>
        <time>2010-05-08T09:27:38Z</time>
      </trkpt>
      <trkpt lat="42.687851" lon="-1.564304">
        <ele>1046.5</ele>
        <time>2010-05-08T09:27:40Z</time>
      </trkpt>
      <trkpt lat="42.687942" lon="-1.564443">
        <ele>1046.5</ele>
        <time>2010-05-08T09:27:53Z</time>
      </trkpt>
      <trkpt lat="42.687948" lon="-1.564459">
        <ele>1047.0</ele>
        <time>2010-05-08T09:27:57Z</time>
      </trkpt>
      <trkpt lat="42.687969" lon="-1.564493">
        <ele>1047.0</ele>
        <time>2010-05-08T09:28:00Z</time>
      </trkpt>
      <trkpt lat="42.687983" lon="-1.564542">
        <ele>1048.0</ele>
        <time>2010-05-08T09:28:02Z</time>
      </trkpt>
      <trkpt lat="42.687884" lon="-1.564985">
        <ele>1048.0</ele>
        <time>2010-05-08T09:28:13Z</time>
      </trkpt>
      <trkpt lat="42.687887" lon="-1.564994">
        <ele>1048.0</ele>
        <time>2010-05-08T09:28:14Z</time>
      </trkpt>
      <trkpt lat="42.687902" lon="-1.565195">
        <ele>1048.0</ele>
        <time>2010-05-08T09:28:24Z</time>
      </trkpt>
      <trkpt lat="42.687892" lon="-1.565242">
        <ele>1048.0</ele>
        <time>2010-05-08T09:28:27Z</time>
      </trkpt>
      <trkpt lat="42.687948" lon="-1.565376">
        <ele>1048.4</ele>
        <time>2010-05-08T09:28:38Z</time>
      </trkpt>
      <trkpt lat="42.687948" lon="-1.565446">
        <ele>1048.9</ele>
        <time>2010-05-08T09:28:43Z</time>
      </trkpt>
      <trkpt lat="42.687985" lon="-1.565717">
        <ele>1048.4</ele>
        <time>2010-05-08T09:28:56Z</time>
      </trkpt>
      <trkpt lat="42.687999" lon="-1.565742">
        <ele>1048.4</ele>
        <time>2010-05-08T09:28:57Z</time>
      </trkpt>
      <trkpt lat="42.688059" lon="-1.566081">
        <ele>1048.9</ele>
        <time>2010-05-08T09:29:07Z</time>
      </trkpt>
      <trkpt lat="42.688108" lon="-1.566250">
        <ele>1048.4</ele>
        <time>2010-05-08T09:29:14Z</time>
      </trkpt>
      <trkpt lat="42.688175" lon="-1.566495">
        <ele>1048.9</ele>
        <time>2010-05-08T09:29:27Z</time>
      </trkpt>
      <trkpt lat="42.688177" lon="-1.566614">
        <ele>1048.9</ele>
        <time>2010-05-08T09:29:34Z</time>
      </trkpt>
      <trkpt lat="42.688178" lon="-1.566767">
        <ele>1049.4</ele>
        <time>2010-05-08T09:29:41Z</time>
      </trkpt>
      <trkpt lat="42.688141" lon="-1.566794">
        <ele>1048.9</ele>
        <time>2010-05-08T09:29:43Z</time>
      </trkpt>
      <trkpt lat="42.688127" lon="-1.566913">
        <ele>1049.4</ele>
        <time>2010-05-08T09:29:50Z</time>
      </trkpt>
      <trkpt lat="42.688071" lon="-1.567013">
        <ele>1049.4</ele>
        <time>2010-05-08T09:29:57Z</time>
      </trkpt>
      <trkpt lat="42.688023" lon="-1.567227">
        <ele>1049.4</ele>
        <time>2010-05-08T09:30:08Z</time>
      </trkpt>
      <trkpt lat="42.688023" lon="-1.567280">
        <ele>1049.4</ele>
        <time>2010-05-08T09:30:10Z</time>
      </trkpt>
      <trkpt lat="42.688013" lon="-1.567406">
        <ele>1049.9</ele>
        <time>2010-05-08T09:30:15Z</time>
      </trkpt>
      <trkpt lat="42.687949" lon="-1.567572">
        <ele>1050.4</ele>
        <time>2010-05-08T09:30:25Z</time>
      </trkpt>
      <trkpt lat="42.687955" lon="-1.567739">
        <ele>1050.4</ele>
        <time>2010-05-08T09:30:36Z</time>
      </trkpt>
      <trkpt lat="42.687914" lon="-1.567833">
        <ele>1050.9</ele>
        <time>2010-05-08T09:30:41Z</time>
      </trkpt>
      <trkpt lat="42.687820" lon="-1.568009">
        <ele>1050.9</ele>
        <time>2010-05-08T09:30:52Z</time>
      </trkpt>
      <trkpt lat="42.687790" lon="-1.568068">
        <ele>1050.4</ele>
        <time>2010-05-08T09:30:57Z</time>
      </trkpt>
      <trkpt lat="42.687677" lon="-1.568167">
        <ele>1050.4</ele>
        <time>2010-05-08T09:31:06Z</time>
      </trkpt>
      <trkpt lat="42.687658" lon="-1.568209">
        <ele>1050.9</ele>
        <time>2010-05-08T09:31:08Z</time>
      </trkpt>
      <trkpt lat="42.687643" lon="-1.568304">
        <ele>1050.4</ele>
        <time>2010-05-08T09:31:12Z</time>
      </trkpt>
      <trkpt lat="42.687622" lon="-1.568355">
        <ele>1051.3</ele>
        <time>2010-05-08T09:31:15Z</time>
      </trkpt>
      <trkpt lat="42.687619" lon="-1.568417">
        <ele>1050.9</ele>
        <time>2010-05-08T09:31:18Z</time>
      </trkpt>
      <trkpt lat="42.687575" lon="-1.568467">
        <ele>1050.9</ele>
        <time>2010-05-08T09:31:22Z</time>
      </trkpt>
      <trkpt lat="42.687455" lon="-1.568536">
        <ele>1051.3</ele>
        <time>2010-05-08T09:31:31Z</time>
      </trkpt>
      <trkpt lat="42.687438" lon="-1.568590">
        <ele>1051.3</ele>
        <time>2010-05-08T09:31:34Z</time>
      </trkpt>
      <trkpt lat="42.687373" lon="-1.568592">
        <ele>1052.3</ele>
        <time>2010-05-08T09:31:39Z</time>
      </trkpt>
      <trkpt lat="42.687309" lon="-1.568617">
        <ele>1052.3</ele>
        <time>2010-05-08T09:31:43Z</time>
      </trkpt>
      <trkpt lat="42.687290" lon="-1.568644">
        <ele>1052.8</ele>
        <time>2010-05-08T09:31:46Z</time>
      </trkpt>
      <trkpt lat="42.687247" lon="-1.568647">
        <ele>1052.8</ele>
        <time>2010-05-08T09:31:50Z</time>
      </trkpt>
      <trkpt lat="42.687116" lon="-1.568624">
        <ele>1056.8</ele>
        <time>2010-05-08T05:51:41Z</time>
      </trkpt>
      <trkpt lat="42.686978" lon="-1.568643">
        <ele>1057.4</ele>
        <time>2010-04-01T14:43:52Z</time>
      </trkpt>
      <trkpt lat="42.686803" lon="-1.568568">
        <ele>1059.0</ele>
        <time>1984-09-18T23:00:15Z</time>
      </trkpt>
      <trkpt lat="42.686630" lon="-1.568588">
        <ele>1059.0</ele>
        <time>1970-01-01T00:00:00Z</time>
      </trkpt>
      <trkpt lat="42.686469" lon="-1.568638">
        <ele>1059.9</ele>
        <time>1970-01-01T00:00:00Z</time>
      </trkpt>
      <trkpt lat="42.686343" lon="-1.568719">
        <ele>1060.2</ele>
        <time>1970-01-01T00:00:00Z</time>
      </trkpt>
      <trkpt lat="42.686308" lon="-1.568641">
        <ele>1060.6</ele>
        <time>1970-01-01T00:00:00Z</time>
      </trkpt>
      <trkpt lat="42.686203" lon="-1.568612">
        <ele>1062.3</ele>
        <time>1970-01-01T00:00:00Z</time>
      </trkpt>
      <trkpt lat="42.686041" lon="-1.568600">
        <ele>1064.4</ele>
        <time>1970-01-01T00:00:00Z</time>
      </trkpt>
      <trkpt lat="42.685881" lon="-1.568697">
        <ele>1066.4</ele>
        <time>1970-01-01T00:00:00Z</time>
      </trkpt>
      <trkpt lat="42.685721" lon="-1.568858">
        <ele>1068.3</ele>
        <time>1970-01-01T00:00:00Z</time>
      </trkpt>
      <trkpt lat="42.685619" lon="-1.569048">
        <ele>1069.6</ele>
        <time>1970-01-01T00:00:00Z</time>
      </trkpt>
      <trkpt lat="42.685517" lon="-1.569176">
        <ele>1070.4</ele>
        <time>1970-01-01T00:00:00Z</time>
      </trkpt>
      <trkpt lat="42.685380" lon="-1.569304">
        <ele>1071.0</ele>
        <time>1970-01-01T00:00:00Z</time>
      </trkpt>
      <trkpt lat="42.685243" lon="-1.569432">
        <ele>1071.6</ele>
        <time>1970-01-01T00:00:00Z</time>
      </trkpt>
      <trkpt lat="42.685106" lon="-1.569529">
        <ele>1072.4</ele>
        <time>1970-01-01T00:00:00Z</time>
      </trkpt>
      <trkpt lat="42.685062" lon="-1.569687">
        <ele>1071.2</ele>
        <time>1970-01-01T00:00:00Z</time>
      </trkpt>
      <trkpt lat="42.684995" lon="-1.569877">
        <ele>1070.2</ele>
        <time>1970-01-01T00:00:00Z</time>
      </trkpt>
      <trkpt lat="42.684963" lon="-1.570096">
        <ele>1070.1</ele>
        <time>1970-01-01T00:00:00Z</time>
      </trkpt>
      <trkpt lat="42.684885" lon="-1.570255">
        <ele>1070.2</ele>
        <time>1970-01-01T00:00:00Z</time>
      </trkpt>
      <trkpt lat="42.684830" lon="-1.570475">
        <ele>1071.0</ele>
        <time>1970-01-01T00:00:00Z</time>
      </trkpt>
      <trkpt lat="42.684752" lon="-1.570681">
        <ele>1071.0</ele>
        <time>1970-01-01T00:00:00Z</time>
      </trkpt>
      <trkpt lat="42.684685" lon="-1.570902">
        <ele>1071.7</ele>
        <time>1970-01-01T00:00:00Z</time>
      </trkpt>
      <trkpt lat="42.684594" lon="-1.571029">
        <ele>1071.1</ele>
        <time>1970-01-01T00:00:00Z</time>
      </trkpt>
      <trkpt lat="42.684481" lon="-1.571173">
        <ele>1071.0</ele>
        <time>1970-01-01T00:00:00Z</time>
      </trkpt>
      <trkpt lat="42.684368" lon="-1.571379">
        <ele>1069.7</ele>
        <time>1970-01-01T00:00:00Z</time>
      </trkpt>
      <trkpt lat="42.684253" lon="-1.571444">
        <ele>1068.1</ele>
        <time>1970-01-01T00:00:00Z</time>
      </trkpt>
      <trkpt lat="42.684116" lon="-1.571573">
        <ele>1063.8</ele>
        <time>1970-01-01T00:00:00Z</time>
      </trkpt>
      <trkpt lat="42.684165" lon="-1.571807">
        <ele>1061.5</ele>
        <time>1970-01-01T00:00:00Z</time>
      </trkpt>
      <trkpt lat="42.684156" lon="-1.571995">
        <ele>1060.2</ele>
        <time>1970-01-01T00:00:00Z</time>
      </trkpt>
      <trkpt lat="42.684148" lon="-1.572215">
        <ele>1059.3</ele>
        <time>1970-01-01T00:00:00Z</time>
      </trkpt>
      <trkpt lat="42.684161" lon="-1.572339">
        <ele>1060.5</ele>
        <time>1970-01-01T00:00:00Z</time>
      </trkpt>
      <trkpt lat="42.684187" lon="-1.572543">
        <ele>1062.4</ele>
        <time>1970-01-01T00:00:00Z</time>
      </trkpt>
      <trkpt lat="42.684259" lon="-1.572682">
        <ele>1064.1</ele>
        <time>1970-01-01T00:00:00Z</time>
      </trkpt>
      <trkpt lat="42.684273" lon="-1.572870">
        <ele>1064.2</ele>
        <time>1970-01-01T00:00:00Z</time>
      </trkpt>
      <trkpt lat="42.684263" lon="-1.573011">
        <ele>1064.1</ele>
        <time>1970-01-01T00:00:00Z</time>
      </trkpt>
      <trkpt lat="42.684301" lon="-1.573198">
        <ele>1064.5</ele>
        <time>1970-01-01T00:00:00Z</time>
      </trkpt>
      <trkpt lat="42.684339" lon="-1.573432">
        <ele>1064.9</ele>
        <time>1970-01-01T00:00:00Z</time>
      </trkpt>
      <trkpt lat="42.684354" lon="-1.573619">
        <ele>1065.1</ele>
        <time>1970-01-01T00:00:00Z</time>
      </trkpt>
      <trkpt lat="42.684380" lon="-1.573823">
        <ele>1065.7</ele>
        <time>1970-01-01T00:00:00Z</time>
      </trkpt>
      <trkpt lat="42.684348" lon="-1.574027">
        <ele>1065.8</ele>
        <time>1970-01-01T00:00:00Z</time>
      </trkpt>
      <trkpt lat="42.684329" lon="-1.574325">
        <ele>1065.5</ele>
        <time>1970-01-01T00:00:00Z</time>
      </trkpt>
      <trkpt lat="42.684264" lon="-1.574703">
        <ele>1065.0</ele>
        <time>1970-01-01T00:00:00Z</time>
      </trkpt>
      <trkpt lat="42.684233" lon="-1.575002">
        <ele>1065.0</ele>
        <time>1970-01-01T00:00:00Z</time>
      </trkpt>
      <trkpt lat="42.684202" lon="-1.575284">
        <ele>1065.1</ele>
        <time>1970-01-01T00:00:00Z</time>
      </trkpt>
      <trkpt lat="42.684217" lon="-1.575535">
        <ele>1066.2</ele>
        <time>1970-01-01T00:00:00Z</time>
      </trkpt>
      <trkpt lat="42.684196" lon="-1.575708">
        <ele>1066.0</ele>
        <time>1970-01-01T00:00:00Z</time>
      </trkpt>
      <trkpt lat="42.684164" lon="-1.575897">
        <ele>1065.6</ele>
        <time>1970-01-01T00:00:00Z</time>
      </trkpt>
      <trkpt lat="42.684133" lon="-1.576179">
        <ele>1065.0</ele>
        <time>1970-01-01T00:00:00Z</time>
      </trkpt>
      <trkpt lat="42.684102" lon="-1.576462">
        <ele>1065.0</ele>
        <time>1970-01-01T00:00:00Z</time>
      </trkpt>
      <trkpt lat="42.684106" lon="-1.576760">
        <ele>1065.0</ele>
        <time>1970-01-01T00:00:00Z</time>
      </trkpt>
      <trkpt lat="42.684098" lon="-1.576995">
        <ele>1065.0</ele>
        <time>1970-01-01T00:00:00Z</time>
      </trkpt>
      <trkpt lat="42.684102" lon="-1.577277">
        <ele>1064.1</ele>
        <time>1970-01-01T00:00:00Z</time>
      </trkpt>
      <trkpt lat="42.683976" lon="-1.577469">
        <ele>1058.6</ele>
        <time>2010-05-08T09:44:30Z</time>
      </trkpt>
      <trkpt lat="42.683950" lon="-1.577470">
        <ele>1059.5</ele>
        <time>2010-05-08T09:44:32Z</time>
      </trkpt>
      <trkpt lat="42.683921" lon="-1.577440">
        <ele>1059.5</ele>
        <time>2010-05-08T09:44:34Z</time>
      </trkpt>
      <trkpt lat="42.683850" lon="-1.577461">
        <ele>1059.0</ele>
        <time>2010-05-08T09:44:38Z</time>
      </trkpt>
      <trkpt lat="42.683643" lon="-1.577479">
        <ele>1059.0</ele>
        <time>2010-05-08T09:44:53Z</time>
      </trkpt>
      <trkpt lat="42.683473" lon="-1.577563">
        <ele>1058.6</ele>
        <time>2010-05-08T09:45:06Z</time>
      </trkpt>
      <trkpt lat="42.683302" lon="-1.577730">
        <ele>1060.0</ele>
        <time>2010-05-08T09:45:19Z</time>
      </trkpt>
      <trkpt lat="42.683228" lon="-1.577904">
        <ele>1060.0</ele>
        <time>2010-05-08T09:45:29Z</time>
      </trkpt>
      <trkpt lat="42.683209" lon="-1.577943">
        <ele>1060.0</ele>
        <time>2010-05-08T09:45:31Z</time>
      </trkpt>
      <trkpt lat="42.683122" lon="-1.578135">
        <ele>1058.6</ele>
        <time>2010-05-08T09:45:41Z</time>
      </trkpt>
      <trkpt lat="42.683084" lon="-1.578276">
        <ele>1057.1</ele>
        <time>2010-05-08T09:45:51Z</time>
      </trkpt>
      <trkpt lat="42.683070" lon="-1.578307">
        <ele>1056.6</ele>
        <time>2010-05-08T09:45:53Z</time>
      </trkpt>
      <trkpt lat="42.683086" lon="-1.578407">
        <ele>1055.2</ele>
        <time>2010-05-08T09:46:01Z</time>
      </trkpt>
      <trkpt lat="42.683041" lon="-1.578452">
        <ele>1053.3</ele>
        <time>2010-05-08T09:46:06Z</time>
      </trkpt>
      <trkpt lat="42.683009" lon="-1.578490">
        <ele>1051.8</ele>
        <time>2010-05-08T09:46:09Z</time>
      </trkpt>
      <trkpt lat="42.682940" lon="-1.578582">
        <ele>1048.9</ele>
        <time>2010-05-08T09:46:19Z</time>
      </trkpt>
      <trkpt lat="42.682901" lon="-1.578653">
        <ele>1046.1</ele>
        <time>2010-05-08T09:46:26Z</time>
      </trkpt>
      <trkpt lat="42.682883" lon="-1.578693">
        <ele>1045.6</ele>
        <time>2010-05-08T09:46:28Z</time>
      </trkpt>
      <trkpt lat="42.682801" lon="-1.578811">
        <ele>1043.7</ele>
        <time>2010-05-08T09:46:36Z</time>
      </trkpt>
      <trkpt lat="42.682790" lon="-1.578976">
        <ele>1041.7</ele>
        <time>2010-05-08T09:46:45Z</time>
      </trkpt>
      <trkpt lat="42.682763" lon="-1.579111">
        <ele>1038.8</ele>
        <time>2010-05-08T09:46:51Z</time>
      </trkpt>
      <trkpt lat="42.682753" lon="-1.579172">
        <ele>1038.4</ele>
        <time>2010-05-08T09:46:54Z</time>
      </trkpt>
      <trkpt lat="42.682723" lon="-1.579264">
        <ele>1036.4</ele>
        <time>2010-05-08T09:47:01Z</time>
      </trkpt>
      <trkpt lat="42.682715" lon="-1.579336">
        <ele>1035.0</ele>
        <time>2010-05-08T09:47:05Z</time>
      </trkpt>
      <trkpt lat="42.682694" lon="-1.579389">
        <ele>1034.0</ele>
        <time>2010-05-08T09:47:10Z</time>
      </trkpt>
      <trkpt lat="42.682688" lon="-1.579433">
        <ele>1033.1</ele>
        <time>2010-05-08T09:47:12Z</time>
      </trkpt>
      <trkpt lat="42.682682" lon="-1.579580">
        <ele>1030.7</ele>
        <time>2010-05-08T09:47:18Z</time>
      </trkpt>
      <trkpt lat="42.682652" lon="-1.579614">
        <ele>1029.7</ele>
        <time>2010-05-08T09:47:22Z</time>
      </trkpt>
      <trkpt lat="42.682837" lon="-1.579851">
        <ele>1028.3</ele>
        <time>2010-05-08T09:47:39Z</time>
      </trkpt>
      <trkpt lat="42.682682" lon="-1.579740">
        <ele>1028.3</ele>
        <time>2010-05-08T09:48:01Z</time>
      </trkpt>
      <trkpt lat="42.682644" lon="-1.579722">
        <ele>1027.8</ele>
        <time>2010-05-08T09:48:09Z</time>
      </trkpt>
      <trkpt lat="42.682629" lon="-1.579771">
        <ele>1026.8</ele>
        <time>2010-05-08T09:48:12Z</time>
      </trkpt>
      <trkpt lat="42.682583" lon="-1.579988">
        <ele>1023.5</ele>
        <time>2010-05-08T09:48:24Z</time>
      </trkpt>
      <trkpt lat="42.682573" lon="-1.580051">
        <ele>1021.5</ele>
        <time>2010-05-08T09:48:27Z</time>
      </trkpt>
      <trkpt lat="42.682553" lon="-1.580154">
        <ele>1019.6</ele>
        <time>2010-05-08T09:48:34Z</time>
      </trkpt>
      <trkpt lat="42.682520" lon="-1.580307">
        <ele>1016.7</ele>
        <time>2010-05-08T09:48:41Z</time>
      </trkpt>
      <trkpt lat="42.682482" lon="-1.580415">
        <ele>1015.3</ele>
        <time>2010-05-08T09:48:46Z</time>
      </trkpt>
      <trkpt lat="42.682484" lon="-1.580516">
        <ele>1013.4</ele>
        <time>2010-05-08T09:48:51Z</time>
      </trkpt>
      <trkpt lat="42.682442" lon="-1.580695">
        <ele>1011.4</ele>
        <time>2010-05-08T09:48:59Z</time>
      </trkpt>
      <trkpt lat="42.682441" lon="-1.580771">
        <ele>1010.0</ele>
        <time>2010-05-08T09:49:02Z</time>
      </trkpt>
      <trkpt lat="42.682433" lon="-1.580813">
        <ele>1010.0</ele>
        <time>2010-05-08T09:49:04Z</time>
      </trkpt>
      <trkpt lat="42.682419" lon="-1.580996">
        <ele>1006.2</ele>
        <time>2010-05-08T09:49:14Z</time>
      </trkpt>
      <trkpt lat="42.682372" lon="-1.581198">
        <ele>1001.8</ele>
        <time>2010-05-08T09:49:24Z</time>
      </trkpt>
      <trkpt lat="42.682329" lon="-1.581323">
        <ele>1000.4</ele>
        <time>2010-05-08T09:49:30Z</time>
      </trkpt>
      <trkpt lat="42.682318" lon="-1.581372">
        <ele>999.4</ele>
        <time>2010-05-08T09:49:32Z</time>
      </trkpt>
      <trkpt lat="42.682241" lon="-1.581512">
        <ele>996.5</ele>
        <time>2010-05-08T09:49:41Z</time>
      </trkpt>
      <trkpt lat="42.682238" lon="-1.581518">
        <ele>995.6</ele>
        <time>2010-05-08T09:49:43Z</time>
      </trkpt>
      <trkpt lat="42.682193" lon="-1.581532">
        <ele>994.6</ele>
        <time>2010-05-08T09:49:46Z</time>
      </trkpt>
      <trkpt lat="42.682146" lon="-1.581600">
        <ele>992.2</ele>
        <time>2010-05-08T09:49:51Z</time>
      </trkpt>
      <trkpt lat="42.682186" lon="-1.581817">
        <ele>985.0</ele>
        <time>1989-12-31T00:00:01Z</time>
      </trkpt>
      <trkpt lat="42.682140" lon="-1.581774">
        <ele>968.2</ele>
        <time>2011-10-26T09:24:46Z</time>
      </trkpt>
      <trkpt lat="42.682121" lon="-1.581774">
        <ele>968.2</ele>
        <time>2011-10-26T09:24:47Z</time>
      </trkpt>
      <trkpt lat="42.682121" lon="-1.581774">
        <ele>968.2</ele>
        <time>2011-10-26T09:25:08Z</time>
      </trkpt>
      <trkpt lat="42.682098" lon="-1.581774">
        <ele>968.2</ele>
        <time>2011-10-26T09:25:11Z</time>
      </trkpt>
      <trkpt lat="42.682098" lon="-1.581774">
        <ele>967.2</ele>
        <time>2011-10-26T09:25:12Z</time>
      </trkpt>
      <trkpt lat="42.682056" lon="-1.581795">
        <ele>967.2</ele>
        <time>2011-10-26T09:25:20Z</time>
      </trkpt>
      <trkpt lat="42.682056" lon="-1.581774">
        <ele>967.7</ele>
        <time>2011-10-26T09:25:23Z</time>
      </trkpt>
      <trkpt lat="42.682056" lon="-1.581838">
        <ele>966.7</ele>
        <time>2011-10-26T09:25:26Z</time>
      </trkpt>
      <trkpt lat="42.682056" lon="-1.581924">
        <ele>965.8</ele>
        <time>2011-10-26T09:25:32Z</time>
      </trkpt>
      <trkpt lat="42.682079" lon="-1.581967">
        <ele>965.3</ele>
        <time>2011-10-26T09:25:37Z</time>
      </trkpt>
      <trkpt lat="42.682098" lon="-1.582031">
        <ele>964.8</ele>
        <time>2011-10-26T09:25:41Z</time>
      </trkpt>
      <trkpt lat="42.682121" lon="-1.582074">
        <ele>963.9</ele>
        <time>2011-10-26T09:25:44Z</time>
      </trkpt>
      <trkpt lat="42.682121" lon="-1.582096">
        <ele>963.4</ele>
        <time>2011-10-26T09:25:45Z</time>
      </trkpt>
      <trkpt lat="42.682140" lon="-1.582160">
        <ele>962.4</ele>
        <time>2011-10-26T09:25:49Z</time>
      </trkpt>
      <trkpt lat="42.682205" lon="-1.582246">
        <ele>961.9</ele>
        <time>2011-10-26T09:25:55Z</time>
      </trkpt>
      <trkpt lat="42.682251" lon="-1.582289">
        <ele>962.4</ele>
        <time>2011-10-26T09:26:01Z</time>
      </trkpt>
      <trkpt lat="42.682270" lon="-1.582289">
        <ele>962.4</ele>
        <time>2011-10-26T09:26:02Z</time>
      </trkpt>
      <trkpt lat="42.682293" lon="-1.582289">
        <ele>963.4</ele>
        <time>2011-10-26T09:26:05Z</time>
      </trkpt>
      <trkpt lat="42.682335" lon="-1.582310">
        <ele>962.9</ele>
        <time>2011-10-26T09:26:08Z</time>
      </trkpt>
      <trkpt lat="42.682358" lon="-1.582310">
        <ele>962.9</ele>
        <time>2011-10-26T09:26:11Z</time>
      </trkpt>
      <trkpt lat="42.682400" lon="-1.582310">
        <ele>962.9</ele>
        <time>2011-10-26T09:26:14Z</time>
      </trkpt>
      <trkpt lat="42.682423" lon="-1.582332">
        <ele>962.9</ele>
        <time>2011-10-26T09:26:17Z</time>
      </trkpt>
      <trkpt lat="42.682442" lon="-1.582332">
        <ele>962.9</ele>
        <time>2011-10-26T09:26:18Z</time>
      </trkpt>
      <trkpt lat="42.682529" lon="-1.582353">
        <ele>961.9</ele>
        <time>2011-10-26T09:26:26Z</time>
      </trkpt>
      <trkpt lat="42.682549" lon="-1.582353">
        <ele>961.9</ele>
        <time>2011-10-26T09:26:27Z</time>
      </trkpt>
      <trkpt lat="42.682594" lon="-1.582417">
        <ele>961.9</ele>
        <time>2011-10-26T09:26:33Z</time>
      </trkpt>
      <trkpt lat="42.682636" lon="-1.582439">
        <ele>962.4</ele>
        <time>2011-10-26T09:26:36Z</time>
      </trkpt>
      <trkpt lat="42.682720" lon="-1.582482">
        <ele>961.0</ele>
        <time>2011-10-26T09:26:43Z</time>
      </trkpt>
      <trkpt lat="42.682785" lon="-1.582525">
        <ele>960.5</ele>
        <time>2011-10-26T09:26:49Z</time>
      </trkpt>
      <trkpt lat="42.682785" lon="-1.582525">
        <ele>960.0</ele>
        <time>2011-10-26T09:26:51Z</time>
      </trkpt>
      <trkpt lat="42.682827" lon="-1.582568">
        <ele>958.1</ele>
        <time>2011-10-26T09:26:56Z</time>
      </trkpt>
      <trkpt lat="42.682850" lon="-1.582589">
        <ele>956.2</ele>
        <time>2011-10-26T09:26:59Z</time>
      </trkpt>
      <trkpt lat="42.682850" lon="-1.582611">
        <ele>956.2</ele>
        <time>2011-10-26T09:27:01Z</time>
      </trkpt>
      <trkpt lat="42.682938" lon="-1.582632">
        <ele>954.7</ele>
        <time>2011-10-26T09:27:07Z</time>
      </trkpt>
      <trkpt lat="42.682957" lon="-1.582611">
        <ele>955.2</ele>
        <time>2011-10-26T09:27:10Z</time>
      </trkpt>
      <trkpt lat="42.682999" lon="-1.582675">
        <ele>953.8</ele>
        <time>2011-10-26T09:27:17Z</time>
      </trkpt>
      <trkpt lat="42.682999" lon="-1.582675">
        <ele>953.3</ele>
        <time>2011-10-26T09:27:18Z</time>
      </trkpt>
      <trkpt lat="42.683022" lon="-1.582718">
        <ele>952.3</ele>
        <time>2011-10-26T09:27:20Z</time>
      </trkpt>
      <trkpt lat="42.683044" lon="-1.582804">
        <ele>951.4</ele>
        <time>2011-10-26T09:27:26Z</time>
      </trkpt>
      <trkpt lat="42.683044" lon="-1.582868">
        <ele>949.9</ele>
        <time>2011-10-26T09:27:29Z</time>
      </trkpt>
      <trkpt lat="42.683044" lon="-1.582868">
        <ele>950.4</ele>
        <time>2011-10-26T09:27:30Z</time>
      </trkpt>
      <trkpt lat="42.683044" lon="-1.582911">
        <ele>948.5</ele>
        <time>2011-10-26T09:27:32Z</time>
      </trkpt>
      <trkpt lat="42.683064" lon="-1.582975">
        <ele>948.0</ele>
        <time>2011-10-26T09:27:36Z</time>
      </trkpt>
      <trkpt lat="42.683064" lon="-1.582997">
        <ele>947.5</ele>
        <time>2011-10-26T09:27:38Z</time>
      </trkpt>
      <trkpt lat="42.683086" lon="-1.583040">
        <ele>947.5</ele>
        <time>2011-10-26T09:27:40Z</time>
      </trkpt>
      <trkpt lat="42.683086" lon="-1.583126">
        <ele>946.6</ele>
        <time>2011-10-26T09:27:46Z</time>
      </trkpt>
      <trkpt lat="42.683086" lon="-1.583190">
        <ele>945.6</ele>
        <time>2011-10-26T09:27:49Z</time>
      </trkpt>
      <trkpt lat="42.683086" lon="-1.583276">
        <ele>945.6</ele>
        <time>2011-10-26T09:27:54Z</time>
      </trkpt>
      <trkpt lat="42.683086" lon="-1.583340">
        <ele>944.6</ele>
        <time>2011-10-26T09:27:58Z</time>
      </trkpt>
      <trkpt lat="42.683064" lon="-1.583405">
        <ele>944.6</ele>
        <time>2011-10-26T09:28:02Z</time>
      </trkpt>
      <trkpt lat="42.683064" lon="-1.583405">
        <ele>944.2</ele>
        <time>2011-10-26T09:28:03Z</time>
      </trkpt>
      <trkpt lat="42.683064" lon="-1.583469">
        <ele>943.7</ele>
        <time>2011-10-26T09:28:06Z</time>
      </trkpt>
      <trkpt lat="42.683064" lon="-1.583469">
        <ele>944.2</ele>
        <time>2011-10-26T09:28:07Z</time>
      </trkpt>
      <trkpt lat="42.683064" lon="-1.583490">
        <ele>943.2</ele>
        <time>2011-10-26T09:28:09Z</time>
      </trkpt>
      <trkpt lat="42.683064" lon="-1.583533">
        <ele>941.7</ele>
        <time>2011-10-26T09:28:11Z</time>
      </trkpt>
      <trkpt lat="42.683064" lon="-1.583533">
        <ele>941.7</ele>
        <time>2011-10-26T09:28:12Z</time>
      </trkpt>
      <trkpt lat="42.683064" lon="-1.583576">
        <ele>941.7</ele>
        <time>2011-10-26T09:28:15Z</time>
      </trkpt>
      <trkpt lat="42.683044" lon="-1.583619">
        <ele>939.8</ele>
        <time>2011-10-26T09:28:18Z</time>
      </trkpt>
      <trkpt lat="42.683044" lon="-1.583662">
        <ele>939.3</ele>
        <time>2011-10-26T09:28:20Z</time>
      </trkpt>
      <trkpt lat="42.683044" lon="-1.583705">
        <ele>938.9</ele>
        <time>2011-10-26T09:28:24Z</time>
      </trkpt>
      <trkpt lat="42.683044" lon="-1.583748">
        <ele>938.4</ele>
        <time>2011-10-26T09:28:27Z</time>
      </trkpt>
      <trkpt lat="42.683044" lon="-1.583769">
        <ele>938.4</ele>
        <time>2011-10-26T09:28:28Z</time>
      </trkpt>
      <trkpt lat="42.683044" lon="-1.583791">
        <ele>938.9</ele>
        <time>2011-10-26T09:28:30Z</time>
      </trkpt>
      <trkpt lat="42.683064" lon="-1.583877">
        <ele>936.5</ele>
        <time>2011-10-26T09:28:36Z</time>
      </trkpt>
      <trkpt lat="42.683044" lon="-1.583898">
        <ele>936.0</ele>
        <time>2011-10-26T09:28:38Z</time>
      </trkpt>
      <trkpt lat="42.683044" lon="-1.583962">
        <ele>935.5</ele>
        <time>2011-10-26T09:28:41Z</time>
      </trkpt>
      <trkpt lat="42.682980" lon="-1.584091">
        <ele>934.1</ele>
        <time>2011-10-26T09:28:50Z</time>
      </trkpt>
      <trkpt lat="42.682938" lon="-1.584177">
        <ele>933.1</ele>
        <time>2011-10-26T09:28:56Z</time>
      </trkpt>
      <trkpt lat="42.682938" lon="-1.584306">
        <ele>931.2</ele>
        <time>2011-10-26T09:29:04Z</time>
      </trkpt>
      <trkpt lat="42.682957" lon="-1.584499">
        <ele>929.7</ele>
        <time>2011-10-26T09:29:15Z</time>
      </trkpt>
      <trkpt lat="42.682957" lon="-1.584628">
        <ele>928.3</ele>
        <time>2011-10-26T09:29:22Z</time>
      </trkpt>
      <trkpt lat="42.682957" lon="-1.584671">
        <ele>927.8</ele>
        <time>2011-10-26T09:29:25Z</time>
      </trkpt>
      <trkpt lat="42.682957" lon="-1.584756">
        <ele>928.3</ele>
        <time>2011-10-26T09:29:28Z</time>
      </trkpt>
      <trkpt lat="42.682980" lon="-1.584778">
        <ele>928.8</ele>
        <time>2011-10-26T09:29:30Z</time>
      </trkpt>
      <trkpt lat="42.682980" lon="-1.584821">
        <ele>928.3</ele>
        <time>2011-10-26T09:29:33Z</time>
      </trkpt>
      <trkpt lat="42.682999" lon="-1.584842">
        <ele>928.8</ele>
        <time>2011-10-26T09:29:35Z</time>
      </trkpt>
      <trkpt lat="42.683022" lon="-1.584949">
        <ele>929.3</ele>
        <time>2011-10-26T09:29:41Z</time>
      </trkpt>
      <trkpt lat="42.683044" lon="-1.584992">
        <ele>928.3</ele>
        <time>2011-10-26T09:29:44Z</time>
      </trkpt>
      <trkpt lat="42.683044" lon="-1.584992">
        <ele>928.8</ele>
        <time>2011-10-26T09:29:45Z</time>
      </trkpt>
      <trkpt lat="42.683064" lon="-1.585100">
        <ele>926.4</ele>
        <time>2011-10-26T09:29:51Z</time>
      </trkpt>
      <trkpt lat="42.683086" lon="-1.585121">
        <ele>926.4</ele>
        <time>2011-10-26T09:29:54Z</time>
      </trkpt>
      <trkpt lat="42.683128" lon="-1.585207">
        <ele>927.3</ele>
        <time>2011-10-26T09:29:59Z</time>
      </trkpt>
      <trkpt lat="42.683128" lon="-1.585228">
        <ele>928.3</ele>
        <time>2011-10-26T09:30:01Z</time>
      </trkpt>
      <trkpt lat="42.683151" lon="-1.585271">
        <ele>928.3</ele>
        <time>2011-10-26T09:30:05Z</time>
      </trkpt>
      <trkpt lat="42.683151" lon="-1.585271">
        <ele>928.8</ele>
        <time>2011-10-26T09:30:07Z</time>
      </trkpt>
      <trkpt lat="42.683193" lon="-1.585314">
        <ele>929.7</ele>
        <time>2011-10-26T09:30:12Z</time>
      </trkpt>
      <trkpt lat="42.683193" lon="-1.585336">
        <ele>930.2</ele>
        <time>2011-10-26T09:30:15Z</time>
      </trkpt>
      <trkpt lat="42.683216" lon="-1.585379">
        <ele>932.1</ele>
        <time>2011-10-26T09:30:19Z</time>
      </trkpt>
      <trkpt lat="42.683216" lon="-1.585379">
        <ele>932.6</ele>
        <time>2011-10-26T09:30:21Z</time>
      </trkpt>
      <trkpt lat="42.683216" lon="-1.585422">
        <ele>933.6</ele>
        <time>2011-10-26T09:30:24Z</time>
      </trkpt>
      <trkpt lat="42.683235" lon="-1.585443">
        <ele>933.1</ele>
        <time>2011-10-26T09:30:28Z</time>
      </trkpt>
      <trkpt lat="42.683235" lon="-1.585464">
        <ele>933.1</ele>
        <time>2011-10-26T09:30:31Z</time>
      </trkpt>
      <trkpt lat="42.683235" lon="-1.585464">
        <ele>933.6</ele>
        <time>2011-10-26T09:30:32Z</time>
      </trkpt>
      <trkpt lat="42.683235" lon="-1.585486">
        <ele>934.5</ele>
        <time>2011-10-26T09:30:36Z</time>
      </trkpt>
      <trkpt lat="42.683258" lon="-1.585529">
        <ele>934.5</ele>
        <time>2011-10-26T09:30:41Z</time>
      </trkpt>
      <trkpt lat="42.683258" lon="-1.585572">
        <ele>936.9</ele>
        <time>2011-10-26T09:30:44Z</time>
      </trkpt>
      <trkpt lat="42.683258" lon="-1.585593">
        <ele>937.4</ele>
        <time>2011-10-26T09:30:46Z</time>
      </trkpt>
      <trkpt lat="42.683281" lon="-1.585636">
        <ele>938.9</ele>
        <time>2011-10-26T09:30:51Z</time>
      </trkpt>
      <trkpt lat="42.683281" lon="-1.585636">
        <ele>939.3</ele>
        <time>2011-10-26T09:30:53Z</time>
      </trkpt>
      <trkpt lat="42.683300" lon="-1.585658">
        <ele>941.3</ele>
        <time>2011-10-26T09:30:56Z</time>
      </trkpt>
      <trkpt lat="42.683323" lon="-1.585679">
        <ele>940.3</ele>
        <time>2011-10-26T09:30:58Z</time>
      </trkpt>
      <trkpt lat="42.683323" lon="-1.585679">
        <ele>941.3</ele>
        <time>2011-10-26T09:30:59Z</time>
      </trkpt>
      <trkpt lat="42.683342" lon="-1.585679">
        <ele>943.2</ele>
        <time>2011-10-26T09:31:01Z</time>
      </trkpt>
      <trkpt lat="42.683342" lon="-1.585701">
        <ele>943.7</ele>
        <time>2011-10-26T09:31:02Z</time>
      </trkpt>
      <trkpt lat="42.683342" lon="-1.585701">
        <ele>941.3</ele>
        <time>2011-10-26T09:31:03Z</time>
      </trkpt>
      <trkpt lat="42.683342" lon="-1.585701">
        <ele>941.7</ele>
        <time>2011-10-26T09:31:04Z</time>
      </trkpt>
      <trkpt lat="42.683365" lon="-1.585722">
        <ele>942.7</ele>
        <time>2011-10-26T09:31:07Z</time>
      </trkpt>
      <trkpt lat="42.683388" lon="-1.585808">
        <ele>946.1</ele>
        <time>2011-10-26T09:31:17Z</time>
      </trkpt>
      <trkpt lat="42.683407" lon="-1.585851">
        <ele>949.0</ele>
        <time>2011-10-26T09:31:22Z</time>
      </trkpt>
      <trkpt lat="42.683430" lon="-1.585894">
        <ele>949.4</ele>
        <time>2011-10-26T09:31:25Z</time>
      </trkpt>
      <trkpt lat="42.683430" lon="-1.585915">
        <ele>951.8</ele>
        <time>2011-10-26T09:31:31Z</time>
      </trkpt>
      <trkpt lat="42.683430" lon="-1.585958">
        <ele>951.8</ele>
        <time>2011-10-26T09:31:35Z</time>
      </trkpt>
      <trkpt lat="42.683472" lon="-1.585979">
        <ele>952.3</ele>
        <time>2011-10-26T09:31:39Z</time>
      </trkpt>
      <trkpt lat="42.683495" lon="-1.586022">
        <ele>951.8</ele>
        <time>2011-10-26T09:31:43Z</time>
      </trkpt>
      <trkpt lat="42.683514" lon="-1.586044">
        <ele>952.8</ele>
        <time>2011-10-26T09:31:46Z</time>
      </trkpt>
      <trkpt lat="42.683537" lon="-1.586065">
        <ele>952.8</ele>
        <time>2011-10-26T09:31:49Z</time>
      </trkpt>
      <trkpt lat="42.683559" lon="-1.586130">
        <ele>954.2</ele>
        <time>2011-10-26T09:31:54Z</time>
      </trkpt>
      <trkpt lat="42.683601" lon="-1.586151">
        <ele>955.7</ele>
        <time>2011-10-26T09:31:59Z</time>
      </trkpt>
      <trkpt lat="42.683624" lon="-1.586194">
        <ele>958.1</ele>
        <time>2011-10-26T09:32:04Z</time>
      </trkpt>
      <trkpt lat="42.683624" lon="-1.586194">
        <ele>959.1</ele>
        <time>2011-10-26T09:32:06Z</time>
      </trkpt>
      <trkpt lat="42.683643" lon="-1.586215">
        <ele>960.0</ele>
        <time>2011-10-26T09:32:08Z</time>
      </trkpt>
      <trkpt lat="42.683666" lon="-1.586237">
        <ele>959.5</ele>
        <time>2011-10-26T09:32:14Z</time>
      </trkpt>
      <trkpt lat="42.683731" lon="-1.586215">
        <ele>962.4</ele>
        <time>2011-10-26T09:32:24Z</time>
      </trkpt>
      <trkpt lat="42.683750" lon="-1.586215">
        <ele>963.9</ele>
        <time>2011-10-26T09:32:26Z</time>
      </trkpt>
      <trkpt lat="42.683750" lon="-1.586215">
        <ele>964.8</ele>
        <time>2011-10-26T09:32:28Z</time>
      </trkpt>
      <trkpt lat="42.683838" lon="-1.586215">
        <ele>968.2</ele>
        <time>2011-10-26T09:32:42Z</time>
      </trkpt>
      <trkpt lat="42.683857" lon="-1.586194">
        <ele>971.1</ele>
        <time>2011-10-26T09:32:49Z</time>
      </trkpt>
      <trkpt lat="42.683880" lon="-1.586194">
        <ele>971.5</ele>
        <time>2011-10-26T09:32:51Z</time>
      </trkpt>
      <trkpt lat="42.683945" lon="-1.586151">
        <ele>974.9</ele>
        <time>2011-10-26T09:32:59Z</time>
      </trkpt>
      <trkpt lat="42.683945" lon="-1.586151">
        <ele>974.9</ele>
        <time>2011-10-26T09:33:00Z</time>
      </trkpt>
      <trkpt lat="42.683987" lon="-1.586108">
        <ele>977.3</ele>
        <time>2011-10-26T09:33:09Z</time>
      </trkpt>
      <trkpt lat="42.683968" lon="-1.586065">
        <ele>977.3</ele>
        <time>2011-10-26T09:33:12Z</time>
      </trkpt>
      <trkpt lat="42.683968" lon="-1.586044">
        <ele>978.3</ele>
        <time>2011-10-26T09:33:14Z</time>
      </trkpt>
      <trkpt lat="42.683987" lon="-1.586001">
        <ele>978.8</ele>
        <time>2011-10-26T09:33:19Z</time>
      </trkpt>
      <trkpt lat="42.684010" lon="-1.586001">
        <ele>978.8</ele>
        <time>2011-10-26T09:33:21Z</time>
      </trkpt>
      <trkpt lat="42.684029" lon="-1.585979">
        <ele>980.2</ele>
        <time>2011-10-26T09:33:26Z</time>
      </trkpt>
      <trkpt lat="42.684052" lon="-1.585979">
        <ele>980.7</ele>
        <time>2011-10-26T09:33:29Z</time>
      </trkpt>
      <trkpt lat="42.684052" lon="-1.585979">
        <ele>983.1</ele>
        <time>2011-10-26T09:33:34Z</time>
      </trkpt>
      <trkpt lat="42.684052" lon="-1.585979">
        <ele>983.1</ele>
        <time>2011-10-26T09:33:36Z</time>
      </trkpt>
      <trkpt lat="42.684074" lon="-1.585979">
        <ele>984.0</ele>
        <time>2011-10-26T09:33:40Z</time>
      </trkpt>
      <trkpt lat="42.684074" lon="-1.585979">
        <ele>983.6</ele>
        <time>2011-10-26T09:33:45Z</time>
      </trkpt>
      <trkpt lat="42.684093" lon="-1.585979">
        <ele>986.9</ele>
        <time>2011-10-26T09:33:51Z</time>
      </trkpt>
      <trkpt lat="42.684093" lon="-1.585979">
        <ele>986.9</ele>
        <time>2011-10-26T09:33:52Z</time>
      </trkpt>
      <trkpt lat="42.684139" lon="-1.586065">
        <ele>989.8</ele>
        <time>2011-10-26T09:34:05Z</time>
      </trkpt>
      <trkpt lat="42.684116" lon="-1.586108">
        <ele>990.3</ele>
        <time>2011-10-26T09:34:08Z</time>
      </trkpt>
      <trkpt lat="42.684139" lon="-1.586130">
        <ele>989.8</ele>
        <time>2011-10-26T09:34:11Z</time>
      </trkpt>
      <trkpt lat="42.684139" lon="-1.586130">
        <ele>990.3</ele>
        <time>2011-10-26T09:34:12Z</time>
      </trkpt>
      <trkpt lat="42.684158" lon="-1.586151">
        <ele>989.8</ele>
        <time>2011-10-26T09:34:14Z</time>
      </trkpt>
      <trkpt lat="42.684181" lon="-1.586173">
        <ele>990.8</ele>
        <time>2011-10-26T09:34:20Z</time>
      </trkpt>
      <trkpt lat="42.684200" lon="-1.586173">
        <ele>991.7</ele>
        <time>2011-10-26T09:34:24Z</time>
      </trkpt>
      <trkpt lat="42.684200" lon="-1.586173">
        <ele>993.2</ele>
        <time>2011-10-26T09:34:26Z</time>
      </trkpt>
      <trkpt lat="42.684200" lon="-1.586194">
        <ele>993.2</ele>
        <time>2011-10-26T09:34:27Z</time>
      </trkpt>
      <trkpt lat="42.684200" lon="-1.586215">
        <ele>992.7</ele>
        <time>2011-10-26T09:34:28Z</time>
      </trkpt>
      <trkpt lat="42.684223" lon="-1.586237">
        <ele>993.7</ele>
        <time>2011-10-26T09:34:30Z</time>
      </trkpt>
      <trkpt lat="42.684223" lon="-1.586301">
        <ele>993.7</ele>
        <time>2011-10-26T09:34:37Z</time>
      </trkpt>
      <trkpt lat="42.684246" lon="-1.586301">
        <ele>994.1</ele>
        <time>2011-10-26T09:34:38Z</time>
      </trkpt>
      <trkpt lat="42.684311" lon="-1.586366">
        <ele>994.1</ele>
        <time>2011-10-26T09:34:51Z</time>
      </trkpt>
      <trkpt lat="42.684395" lon="-1.586387">
        <ele>993.2</ele>
        <time>2011-10-26T09:35:00Z</time>
      </trkpt>
      <trkpt lat="42.684418" lon="-1.586409">
        <ele>991.7</ele>
        <time>2011-10-26T09:35:02Z</time>
      </trkpt>
      <trkpt lat="42.684437" lon="-1.586409">
        <ele>992.2</ele>
        <time>2011-10-26T09:35:04Z</time>
      </trkpt>
      <trkpt lat="42.684460" lon="-1.586430">
        <ele>990.8</ele>
        <time>2011-10-26T09:35:07Z</time>
      </trkpt>
      <trkpt lat="42.684483" lon="-1.586473">
        <ele>989.3</ele>
        <time>2011-10-26T09:35:10Z</time>
      </trkpt>
      <trkpt lat="42.684502" lon="-1.586473">
        <ele>989.3</ele>
        <time>2011-10-26T09:35:11Z</time>
      </trkpt>
      <trkpt lat="42.684544" lon="-1.586473">
        <ele>988.9</ele>
        <time>2011-10-26T09:35:16Z</time>
      </trkpt>
      <trkpt lat="42.684544" lon="-1.586473">
        <ele>988.4</ele>
        <time>2011-10-26T09:35:17Z</time>
      </trkpt>
      <trkpt lat="42.684589" lon="-1.586494">
        <ele>987.4</ele>
        <time>2011-10-26T09:35:22Z</time>
      </trkpt>
      <trkpt lat="42.684608" lon="-1.586516">
        <ele>987.4</ele>
        <time>2011-10-26T09:35:23Z</time>
      </trkpt>
      <trkpt lat="42.684631" lon="-1.586537">
        <ele>986.9</ele>
        <time>2011-10-26T09:35:26Z</time>
      </trkpt>
      <trkpt lat="42.684654" lon="-1.586537">
        <ele>986.0</ele>
        <time>2011-10-26T09:35:28Z</time>
      </trkpt>
      <trkpt lat="42.684673" lon="-1.586559">
        <ele>985.0</ele>
        <time>2011-10-26T09:35:31Z</time>
      </trkpt>
      <trkpt lat="42.684696" lon="-1.586623">
        <ele>984.5</ele>
        <time>2011-10-26T09:35:35Z</time>
      </trkpt>
      <trkpt lat="42.684696" lon="-1.586645">
        <ele>984.5</ele>
        <time>2011-10-26T09:35:36Z</time>
      </trkpt>
      <trkpt lat="42.684715" lon="-1.586688">
        <ele>984.5</ele>
        <time>2011-10-26T09:35:40Z</time>
      </trkpt>
      <trkpt lat="42.684780" lon="-1.586795">
        <ele>982.6</ele>
        <time>2011-10-26T09:35:48Z</time>
      </trkpt>
      <trkpt lat="42.684780" lon="-1.586816">
        <ele>982.6</ele>
        <time>2011-10-26T09:35:49Z</time>
      </trkpt>
      <trkpt lat="42.684845" lon="-1.586859">
        <ele>981.6</ele>
        <time>2011-10-26T09:35:56Z</time>
      </trkpt>
      <trkpt lat="42.684868" lon="-1.586881">
        <ele>981.2</ele>
        <time>2011-10-26T09:35:57Z</time>
      </trkpt>
      <trkpt lat="42.684887" lon="-1.586902">
        <ele>980.7</ele>
        <time>2011-10-26T09:36:00Z</time>
      </trkpt>
      <trkpt lat="42.684910" lon="-1.586902">
        <ele>980.2</ele>
        <time>2011-10-26T09:36:01Z</time>
      </trkpt>
      <trkpt lat="42.685017" lon="-1.586945">
        <ele>977.8</ele>
        <time>2011-10-26T09:36:11Z</time>
      </trkpt>
      <trkpt lat="42.685017" lon="-1.586945">
        <ele>976.4</ele>
        <time>2011-10-26T09:36:12Z</time>
      </trkpt>
      <trkpt lat="42.685017" lon="-1.586967">
        <ele>975.9</ele>
        <time>2011-10-26T09:36:13Z</time>
      </trkpt>
      <trkpt lat="42.685040" lon="-1.586967">
        <ele>976.4</ele>
        <time>2011-10-26T09:36:14Z</time>
      </trkpt>
      <trkpt lat="42.685059" lon="-1.586967">
        <ele>975.9</ele>
        <time>2011-10-26T09:36:17Z</time>
      </trkpt>
      <trkpt lat="42.685104" lon="-1.586988">
        <ele>974.4</ele>
        <time>2011-10-26T09:36:21Z</time>
      </trkpt>
      <trkpt lat="42.685104" lon="-1.586988">
        <ele>974.0</ele>
        <time>2011-10-26T09:36:22Z</time>
      </trkpt>
      <trkpt lat="42.685123" lon="-1.586988">
        <ele>973.5</ele>
        <time>2011-10-26T09:36:23Z</time>
      </trkpt>
      <trkpt lat="42.685146" lon="-1.587031">
        <ele>973.5</ele>
        <time>2011-10-26T09:36:27Z</time>
      </trkpt>
      <trkpt lat="42.685169" lon="-1.587031">
        <ele>973.5</ele>
        <time>2011-10-26T09:36:28Z</time>
      </trkpt>
      <trkpt lat="42.685188" lon="-1.587052">
        <ele>973.0</ele>
        <time>2011-10-26T09:36:31Z</time>
      </trkpt>
      <trkpt lat="42.685211" lon="-1.587052">
        <ele>973.0</ele>
        <time>2011-10-26T09:36:32Z</time>
      </trkpt>
      <trkpt lat="42.685211" lon="-1.587052">
        <ele>973.0</ele>
        <time>2011-10-26T09:36:34Z</time>
      </trkpt>
      <trkpt lat="42.685253" lon="-1.587074">
        <ele>973.5</ele>
        <time>2011-10-26T09:36:38Z</time>
      </trkpt>
      <trkpt lat="42.685276" lon="-1.587095">
        <ele>972.5</ele>
        <time>2011-10-26T09:36:39Z</time>
      </trkpt>
      <trkpt lat="42.685295" lon="-1.587117">
        <ele>971.1</ele>
        <time>2011-10-26T09:36:42Z</time>
      </trkpt>
      <trkpt lat="42.685295" lon="-1.587138">
        <ele>971.1</ele>
        <time>2011-10-26T09:36:43Z</time>
      </trkpt>
      <trkpt lat="42.685341" lon="-1.587160">
        <ele>972.0</ele>
        <time>2011-10-26T09:36:46Z</time>
      </trkpt>
      <trkpt lat="42.685341" lon="-1.587160">
        <ele>970.6</ele>
        <time>2011-10-26T09:36:47Z</time>
      </trkpt>
      <trkpt lat="42.685402" lon="-1.587181">
        <ele>968.7</ele>
        <time>2011-10-26T09:36:51Z</time>
      </trkpt>
      <trkpt lat="42.685402" lon="-1.587203">
        <ele>968.7</ele>
        <time>2011-10-26T09:36:52Z</time>
      </trkpt>
      <trkpt lat="42.685425" lon="-1.587224">
        <ele>970.1</ele>
        <time>2011-10-26T09:36:55Z</time>
      </trkpt>
      <trkpt lat="42.685490" lon="-1.587224">
        <ele>968.2</ele>
        <time>2011-10-26T09:37:00Z</time>
      </trkpt>
      <trkpt lat="42.685574" lon="-1.587224">
        <ele>966.7</ele>
        <time>2011-10-26T09:37:06Z</time>
      </trkpt>
      <trkpt lat="42.685596" lon="-1.587224">
        <ele>966.3</ele>
        <time>2011-10-26T09:37:08Z</time>
      </trkpt>
      <trkpt lat="42.685661" lon="-1.587224">
        <ele>965.8</ele>
        <time>2011-10-26T09:37:13Z</time>
      </trkpt>
      <trkpt lat="42.685684" lon="-1.587245">
        <ele>964.3</ele>
        <time>2011-10-26T09:37:16Z</time>
      </trkpt>
      <trkpt lat="42.685703" lon="-1.587267">
        <ele>965.3</ele>
        <time>2011-10-26T09:37:17Z</time>
      </trkpt>
      <trkpt lat="42.685726" lon="-1.587267">
        <ele>963.4</ele>
        <time>2011-10-26T09:37:19Z</time>
      </trkpt>
      <trkpt lat="42.685791" lon="-1.587310">
        <ele>963.4</ele>
        <time>2011-10-26T09:37:24Z</time>
      </trkpt>
      <trkpt lat="42.685833" lon="-1.587310">
        <ele>962.9</ele>
        <time>2011-10-26T09:37:27Z</time>
      </trkpt>
      <trkpt lat="42.685875" lon="-1.587331">
        <ele>962.4</ele>
        <time>2011-10-26T09:37:31Z</time>
      </trkpt>
      <trkpt lat="42.685875" lon="-1.587353">
        <ele>961.9</ele>
        <time>2011-10-26T09:37:32Z</time>
      </trkpt>
      <trkpt lat="42.685898" lon="-1.587396">
        <ele>962.4</ele>
        <time>2011-10-26T09:37:36Z</time>
      </trkpt>
      <trkpt lat="42.685917" lon="-1.587417">
        <ele>962.4</ele>
        <time>2011-10-26T09:37:38Z</time>
      </trkpt>
      <trkpt lat="42.685940" lon="-1.587439">
        <ele>961.9</ele>
        <time>2011-10-26T09:37:41Z</time>
      </trkpt>
      <trkpt lat="42.685940" lon="-1.587439">
        <ele>961.5</ele>
        <time>2011-10-26T09:37:42Z</time>
      </trkpt>
      <trkpt lat="42.685963" lon="-1.587460">
        <ele>961.9</ele>
        <time>2011-10-26T09:37:44Z</time>
      </trkpt>
      <trkpt lat="42.685982" lon="-1.587481">
        <ele>961.0</ele>
        <time>2011-10-26T09:37:48Z</time>
      </trkpt>
      <trkpt lat="42.685982" lon="-1.587503">
        <ele>960.0</ele>
        <time>2011-10-26T09:37:49Z</time>
      </trkpt>
      <trkpt lat="42.686047" lon="-1.587589">
        <ele>958.6</ele>
        <time>2011-10-26T09:37:56Z</time>
      </trkpt>
      <trkpt lat="42.686069" lon="-1.587632">
        <ele>959.1</ele>
        <time>2011-10-26T09:38:00Z</time>
      </trkpt>
      <trkpt lat="42.686069" lon="-1.587653">
        <ele>958.1</ele>
        <time>2011-10-26T09:38:02Z</time>
      </trkpt>
      <trkpt lat="42.686111" lon="-1.587718">
        <ele>957.6</ele>
        <time>2011-10-26T09:38:07Z</time>
      </trkpt>
      <trkpt lat="42.686199" lon="-1.587782">
        <ele>956.6</ele>
        <time>2011-10-26T09:38:16Z</time>
      </trkpt>
      <trkpt lat="42.686199" lon="-1.587782">
        <ele>956.6</ele>
        <time>2011-10-26T09:38:17Z</time>
      </trkpt>
      <trkpt lat="42.686218" lon="-1.587782">
        <ele>954.7</ele>
        <time>2011-10-26T09:38:20Z</time>
      </trkpt>
      <trkpt lat="42.686241" lon="-1.587803">
        <ele>954.7</ele>
        <time>2011-10-26T09:38:21Z</time>
      </trkpt>
      <trkpt lat="42.686260" lon="-1.587825">
        <ele>954.7</ele>
        <time>2011-10-26T09:38:24Z</time>
      </trkpt>
      <trkpt lat="42.686260" lon="-1.587846">
        <ele>954.7</ele>
        <time>2011-10-26T09:38:25Z</time>
      </trkpt>
      <trkpt lat="42.686283" lon="-1.587846">
        <ele>954.7</ele>
        <time>2011-10-26T09:38:27Z</time>
      </trkpt>
      <trkpt lat="42.686306" lon="-1.587868">
        <ele>953.8</ele>
        <time>2011-10-26T09:38:30Z</time>
      </trkpt>
      <trkpt lat="42.686325" lon="-1.587868">
        <ele>953.8</ele>
        <time>2011-10-26T09:38:33Z</time>
      </trkpt>
      <trkpt lat="42.686348" lon="-1.587889">
        <ele>953.3</ele>
        <time>2011-10-26T09:38:34Z</time>
      </trkpt>
      <trkpt lat="42.686371" lon="-1.587889">
        <ele>952.8</ele>
        <time>2011-10-26T09:38:37Z</time>
      </trkpt>
      <trkpt lat="42.686390" lon="-1.587889">
        <ele>952.3</ele>
        <time>2011-10-26T09:38:38Z</time>
      </trkpt>
      <trkpt lat="42.686413" lon="-1.587868">
        <ele>950.9</ele>
        <time>2011-10-26T09:38:42Z</time>
      </trkpt>
      <trkpt lat="42.686432" lon="-1.587868">
        <ele>949.4</ele>
        <time>2011-10-26T09:38:44Z</time>
      </trkpt>
      <trkpt lat="42.686455" lon="-1.587868">
        <ele>949.4</ele>
        <time>2011-10-26T09:38:45Z</time>
      </trkpt>
      <trkpt lat="42.686520" lon="-1.587889">
        <ele>948.0</ele>
        <time>2011-10-26T09:38:51Z</time>
      </trkpt>
      <trkpt lat="42.686520" lon="-1.587889">
        <ele>948.0</ele>
        <time>2011-10-26T09:38:52Z</time>
      </trkpt>
      <trkpt lat="42.686604" lon="-1.587889">
        <ele>947.5</ele>
        <time>2011-10-26T09:39:00Z</time>
      </trkpt>
      <trkpt lat="42.686649" lon="-1.587889">
        <ele>946.6</ele>
        <time>2011-10-26T09:39:03Z</time>
      </trkpt>
      <trkpt lat="42.686691" lon="-1.587911">
        <ele>943.7</ele>
        <time>2011-10-26T09:39:07Z</time>
      </trkpt>
      <trkpt lat="42.686691" lon="-1.587932">
        <ele>943.2</ele>
        <time>2011-10-26T09:39:08Z</time>
      </trkpt>
      <trkpt lat="42.686733" lon="-1.587932">
        <ele>942.2</ele>
        <time>2011-10-26T09:39:12Z</time>
      </trkpt>
      <trkpt lat="42.686756" lon="-1.587954">
        <ele>942.2</ele>
        <time>2011-10-26T09:39:14Z</time>
      </trkpt>
      <trkpt lat="42.686798" lon="-1.587975">
        <ele>942.7</ele>
        <time>2011-10-26T09:39:18Z</time>
      </trkpt>
      <trkpt lat="42.686821" lon="-1.587996">
        <ele>940.8</ele>
        <time>2011-10-26T09:39:21Z</time>
      </trkpt>
      <trkpt lat="42.686840" lon="-1.588018">
        <ele>940.3</ele>
        <time>2011-10-26T09:39:23Z</time>
      </trkpt>
      <trkpt lat="42.686840" lon="-1.588039">
        <ele>939.3</ele>
        <time>2011-10-26T09:39:24Z</time>
      </trkpt>
      <trkpt lat="42.686863" lon="-1.588061">
        <ele>938.9</ele>
        <time>2011-10-26T09:39:26Z</time>
      </trkpt>
      <trkpt lat="42.686905" lon="-1.588061">
        <ele>937.4</ele>
        <time>2011-10-26T09:39:33Z</time>
      </trkpt>
      <trkpt lat="42.686905" lon="-1.588061">
        <ele>937.9</ele>
        <time>2011-10-26T09:39:35Z</time>
      </trkpt>
      <trkpt lat="42.686947" lon="-1.588082">
        <ele>936.5</ele>
        <time>2011-10-26T09:39:39Z</time>
      </trkpt>
      <trkpt lat="42.686970" lon="-1.588104">
        <ele>936.0</ele>
        <time>2011-10-26T09:39:42Z</time>
      </trkpt>
      <trkpt lat="42.686993" lon="-1.588147">
        <ele>934.5</ele>
        <time>2011-10-26T09:39:48Z</time>
      </trkpt>
      <trkpt lat="42.687012" lon="-1.588190">
        <ele>934.1</ele>
        <time>2011-10-26T09:39:52Z</time>
      </trkpt>
      <trkpt lat="42.687012" lon="-1.588211">
        <ele>933.6</ele>
        <time>2011-10-26T09:39:54Z</time>
      </trkpt>
      <trkpt lat="42.687035" lon="-1.588254">
        <ele>932.1</ele>
        <time>2011-10-26T09:39:58Z</time>
      </trkpt>
      <trkpt lat="42.687057" lon="-1.588297">
        <ele>931.7</ele>
        <time>2011-10-26T09:40:02Z</time>
      </trkpt>
      <trkpt lat="42.687077" lon="-1.588340">
        <ele>930.7</ele>
        <time>2011-10-26T09:40:05Z</time>
      </trkpt>
      <trkpt lat="42.687099" lon="-1.588340">
        <ele>928.8</ele>
        <time>2011-10-26T09:40:09Z</time>
      </trkpt>
      <trkpt lat="42.687119" lon="-1.588361">
        <ele>927.8</ele>
        <time>2011-10-26T09:40:13Z</time>
      </trkpt>
      <trkpt lat="42.687119" lon="-1.588383">
        <ele>928.3</ele>
        <time>2011-10-26T09:40:16Z</time>
      </trkpt>
      <trkpt lat="42.687141" lon="-1.588469">
        <ele>926.4</ele>
        <time>2011-10-26T09:40:24Z</time>
      </trkpt>
      <trkpt lat="42.687164" lon="-1.588511">
        <ele>926.4</ele>
        <time>2011-10-26T09:40:26Z</time>
      </trkpt>
      <trkpt lat="42.687183" lon="-1.588554">
        <ele>924.9</ele>
        <time>2011-10-26T09:40:30Z</time>
      </trkpt>
      <trkpt lat="42.687183" lon="-1.588597">
        <ele>924.9</ele>
        <time>2011-10-26T09:40:33Z</time>
      </trkpt>
      <trkpt lat="42.687206" lon="-1.588619">
        <ele>925.9</ele>
        <time>2011-10-26T09:40:37Z</time>
      </trkpt>
      <trkpt lat="42.687206" lon="-1.588640">
        <ele>924.4</ele>
        <time>2011-10-26T09:40:38Z</time>
      </trkpt>
      <trkpt lat="42.687206" lon="-1.588726">
        <ele>925.4</ele>
        <time>2011-10-26T09:40:44Z</time>
      </trkpt>
      <trkpt lat="42.687183" lon="-1.588748">
        <ele>925.4</ele>
        <time>2011-10-26T09:40:45Z</time>
      </trkpt>
      <trkpt lat="42.687183" lon="-1.588812">
        <ele>925.9</ele>
        <time>2011-10-26T09:40:48Z</time>
      </trkpt>
      <trkpt lat="42.687164" lon="-1.588876">
        <ele>925.9</ele>
        <time>2011-10-26T09:40:51Z</time>
      </trkpt>
      <trkpt lat="42.687141" lon="-1.589026">
        <ele>925.9</ele>
        <time>2011-10-26T09:41:02Z</time>
      </trkpt>
      <trkpt lat="42.687119" lon="-1.589456">
        <ele>928.3</ele>
        <time>2011-10-26T09:41:32Z</time>
      </trkpt>
      <trkpt lat="42.687073" lon="-1.589786">
        <ele>943.7</ele>
        <time>2011-11-16T09:45:05Z</time>
      </trkpt>
      <trkpt lat="42.687099" lon="-1.589788">
        <ele>942.7</ele>
        <time>2011-11-16T09:46:47Z</time>
      </trkpt>
      <trkpt lat="42.687092" lon="-1.589846">
        <ele>941.3</ele>
        <time>2011-11-16T09:46:51Z</time>
      </trkpt>
      <trkpt lat="42.687053" lon="-1.590096">
        <ele>936.9</ele>
        <time>2011-11-16T09:47:07Z</time>
      </trkpt>
      <trkpt lat="42.687068" lon="-1.590224">
        <ele>934.1</ele>
        <time>2011-11-16T09:47:21Z</time>
      </trkpt>
      <trkpt lat="42.687161" lon="-1.590189">
        <ele>930.2</ele>
        <time>2011-11-16T09:47:38Z</time>
      </trkpt>
      <trkpt lat="42.687267" lon="-1.590129">
        <ele>925.4</ele>
        <time>2011-11-16T09:47:55Z</time>
      </trkpt>
      <trkpt lat="42.687351" lon="-1.590061">
        <ele>923.5</ele>
        <time>2011-11-16T09:48:10Z</time>
      </trkpt>
      <trkpt lat="42.687429" lon="-1.590029">
        <ele>921.6</ele>
        <time>2011-11-16T09:48:25Z</time>
      </trkpt>
      <trkpt lat="42.687522" lon="-1.589864">
        <ele>919.6</ele>
        <time>2011-11-16T09:48:44Z</time>
      </trkpt>
      <trkpt lat="42.687540" lon="-1.589715">
        <ele>918.2</ele>
        <time>2011-11-16T09:49:01Z</time>
      </trkpt>
      <trkpt lat="42.687569" lon="-1.589621">
        <ele>914.8</ele>
        <time>2011-11-16T09:49:27Z</time>
      </trkpt>
      <trkpt lat="42.687652" lon="-1.589634">
        <ele>913.9</ele>
        <time>2011-11-16T09:49:47Z</time>
      </trkpt>
      <trkpt lat="42.687742" lon="-1.589667">
        <ele>912.4</ele>
        <time>2011-11-16T09:50:01Z</time>
      </trkpt>
      <trkpt lat="42.687801" lon="-1.589704">
        <ele>911.5</ele>
        <time>2011-11-16T09:50:12Z</time>
      </trkpt>
      <trkpt lat="42.687927" lon="-1.589692">
        <ele>909.5</ele>
        <time>2011-11-16T09:50:28Z</time>
      </trkpt>
      <trkpt lat="42.688004" lon="-1.589687">
        <ele>909.1</ele>
        <time>2011-11-16T09:50:47Z</time>
      </trkpt>
      <trkpt lat="42.688005" lon="-1.589725">
        <ele>909.1</ele>
        <time>2011-11-16T09:51:08Z</time>
      </trkpt>
      <trkpt lat="42.688070" lon="-1.589770">
        <ele>909.5</ele>
        <time>2011-11-16T09:53:36Z</time>
      </trkpt>
      <trkpt lat="42.688183" lon="-1.589876">
        <ele>910.5</ele>
        <time>2011-11-16T09:53:49Z</time>
      </trkpt>
      <trkpt lat="42.688298" lon="-1.589915">
        <ele>911.5</ele>
        <time>2011-11-16T09:54:03Z</time>
      </trkpt>
      <trkpt lat="42.688434" lon="-1.589925">
        <ele>912.9</ele>
        <time>2011-11-16T09:54:20Z</time>
      </trkpt>
      <trkpt lat="42.688602" lon="-1.589887">
        <ele>911.0</ele>
        <time>2011-11-16T09:54:42Z</time>
      </trkpt>
      <trkpt lat="42.688752" lon="-1.589842">
        <ele>908.6</ele>
        <time>2011-11-16T09:54:56Z</time>
      </trkpt>
      <trkpt lat="42.688922" lon="-1.589707">
        <ele>902.8</ele>
        <time>2011-11-16T09:55:15Z</time>
      </trkpt>
      <trkpt lat="42.689014" lon="-1.589715">
        <ele>899.5</ele>
        <time>2011-11-16T09:55:31Z</time>
      </trkpt>
      <trkpt lat="42.689135" lon="-1.589694">
        <ele>895.1</ele>
        <time>2011-11-16T09:55:47Z</time>
      </trkpt>
      <trkpt lat="42.689293" lon="-1.589724">
        <ele>892.2</ele>
        <time>2011-11-16T09:56:05Z</time>
      </trkpt>
      <trkpt lat="42.689428" lon="-1.589756">
        <ele>889.8</ele>
        <time>2011-11-16T09:56:23Z</time>
      </trkpt>
      <trkpt lat="42.689595" lon="-1.589729">
        <ele>886.5</ele>
        <time>2011-11-16T09:56:40Z</time>
      </trkpt>
      <trkpt lat="42.689779" lon="-1.589704">
        <ele>884.1</ele>
        <time>2011-11-16T09:57:00Z</time>
      </trkpt>
      <trkpt lat="42.689953" lon="-1.589682">
        <ele>881.2</ele>
        <time>2011-11-16T09:57:19Z</time>
      </trkpt>
      <trkpt lat="42.690084" lon="-1.589666">
        <ele>876.9</ele>
        <time>2011-11-16T09:57:39Z</time>
      </trkpt>
      <trkpt lat="42.690275" lon="-1.589633">
        <ele>876.4</ele>
        <time>2011-11-16T09:58:00Z</time>
      </trkpt>
      <trkpt lat="42.690417" lon="-1.589532">
        <ele>875.4</ele>
        <time>2011-11-16T09:58:17Z</time>
      </trkpt>
      <trkpt lat="42.690559" lon="-1.589463">
        <ele>874.0</ele>
        <time>2011-11-16T09:58:37Z</time>
      </trkpt>
      <trkpt lat="42.690688" lon="-1.589413">
        <ele>869.6</ele>
        <time>2011-11-16T09:58:56Z</time>
      </trkpt>
      <trkpt lat="42.690765" lon="-1.589350">
        <ele>866.8</ele>
        <time>2011-11-16T09:59:12Z</time>
      </trkpt>
      <trkpt lat="42.690864" lon="-1.589249">
        <ele>864.4</ele>
        <time>2011-11-16T09:59:32Z</time>
      </trkpt>
      <trkpt lat="42.690995" lon="-1.589126">
        <ele>855.7</ele>
        <time>2011-11-16T10:00:05Z</time>
      </trkpt>
      <trkpt lat="42.691007" lon="-1.589094">
        <ele>849.5</ele>
        <time>2011-11-16T10:00:50Z</time>
      </trkpt>
      <trkpt lat="42.691124" lon="-1.589061">
        <ele>849.9</ele>
        <time>2011-11-16T10:01:33Z</time>
      </trkpt>
      <trkpt lat="42.691225" lon="-1.589003">
        <ele>850.4</ele>
        <time>2011-11-16T10:01:51Z</time>
      </trkpt>
      <trkpt lat="42.691379" lon="-1.589028">
        <ele>849.5</ele>
        <time>2011-11-16T10:02:13Z</time>
      </trkpt>
      <trkpt lat="42.691486" lon="-1.588884">
        <ele>847.5</ele>
        <time>2011-11-16T10:02:42Z</time>
      </trkpt>
      <trkpt lat="42.691576" lon="-1.588754">
        <ele>842.3</ele>
        <time>2011-11-16T10:03:10Z</time>
      </trkpt>
      <trkpt lat="42.691740" lon="-1.588641">
        <ele>837.4</ele>
        <time>2011-11-16T10:03:33Z</time>
      </trkpt>
      <trkpt lat="42.691844" lon="-1.588508">
        <ele>832.6</ele>
        <time>2011-11-16T10:03:50Z</time>
      </trkpt>
      <trkpt lat="42.691946" lon="-1.588380">
        <ele>826.4</ele>
        <time>2011-11-16T10:04:11Z</time>
      </trkpt>
      <trkpt lat="42.692092" lon="-1.588241">
        <ele>821.1</ele>
        <time>2011-11-16T10:04:29Z</time>
      </trkpt>
      <trkpt lat="42.692151" lon="-1.588130">
        <ele>817.3</ele>
        <time>2011-11-16T10:04:39Z</time>
      </trkpt>
      <trkpt lat="42.692243" lon="-1.587946">
        <ele>812.0</ele>
        <time>2011-11-16T10:04:56Z</time>
      </trkpt>
      <trkpt lat="42.692395" lon="-1.587855">
        <ele>811.0</ele>
        <time>2011-11-16T10:05:15Z</time>
      </trkpt>
      <trkpt lat="42.692526" lon="-1.587801">
        <ele>812.0</ele>
        <time>2011-11-16T10:05:34Z</time>
      </trkpt>
      <trkpt lat="42.692595" lon="-1.587778">
        <ele>813.9</ele>
        <time>2011-11-16T10:07:04Z</time>
      </trkpt>
      <trkpt lat="42.692685" lon="-1.587800">
        <ele>813.9</ele>
        <time>2011-11-16T10:11:22Z</time>
      </trkpt>
      <trkpt lat="42.692791" lon="-1.587807">
        <ele>812.0</ele>
        <time>2011-11-16T10:11:39Z</time>
      </trkpt>
      <trkpt lat="42.692928" lon="-1.587719">
        <ele>810.5</ele>
        <time>2011-11-16T10:11:56Z</time>
      </trkpt>
      <trkpt lat="42.693039" lon="-1.587524">
        <ele>808.6</ele>
        <time>2011-11-16T10:12:12Z</time>
      </trkpt>
      <trkpt lat="42.693048" lon="-1.587516">
        <ele>808.6</ele>
        <time>2011-11-16T10:12:13Z</time>
      </trkpt>
      <trkpt lat="42.693138" lon="-1.587339">
        <ele>806.7</ele>
        <time>2011-11-16T10:12:30Z</time>
      </trkpt>
      <trkpt lat="42.693255" lon="-1.587184">
        <ele>805.7</ele>
        <time>2011-11-16T10:12:48Z</time>
      </trkpt>
      <trkpt lat="42.693434" lon="-1.587022">
        <ele>804.8</ele>
        <time>2011-11-16T10:13:09Z</time>
      </trkpt>
      <trkpt lat="42.693587" lon="-1.586837">
        <ele>805.2</ele>
        <time>2011-11-16T10:13:29Z</time>
      </trkpt>
      <trkpt lat="42.693705" lon="-1.586757">
        <ele>805.7</ele>
        <time>2011-11-16T10:13:46Z</time>
      </trkpt>
      <trkpt lat="42.693808" lon="-1.586725">
        <ele>804.3</ele>
        <time>2011-11-16T10:14:08Z</time>
      </trkpt>
      <trkpt lat="42.693978" lon="-1.586701">
        <ele>800.9</ele>
        <time>2011-11-16T10:14:29Z</time>
      </trkpt>
      <trkpt lat="42.694160" lon="-1.586688">
        <ele>800.0</ele>
        <time>2011-11-16T10:14:48Z</time>
      </trkpt>
      <trkpt lat="42.694313" lon="-1.586699">
        <ele>800.0</ele>
        <time>2011-11-16T10:15:04Z</time>
      </trkpt>
      <trkpt lat="42.694489" lon="-1.586742">
        <ele>800.0</ele>
        <time>2011-11-16T10:15:24Z</time>
      </trkpt>
      <trkpt lat="42.694583" lon="-1.586747">
        <ele>802.8</ele>
        <time>2011-11-16T10:15:49Z</time>
      </trkpt>
      <trkpt lat="42.694695" lon="-1.586752">
        <ele>800.9</ele>
        <time>2011-11-16T10:16:01Z</time>
      </trkpt>
      <trkpt lat="42.694928" lon="-1.586733">
        <ele>796.6</ele>
        <time>2011-11-16T10:16:23Z</time>
      </trkpt>
      <trkpt lat="42.695102" lon="-1.586747">
        <ele>794.7</ele>
        <time>2011-11-16T10:16:38Z</time>
      </trkpt>
      <trkpt lat="42.695277" lon="-1.586762">
        <ele>791.3</ele>
        <time>2011-11-16T10:17:05Z</time>
      </trkpt>
      <trkpt lat="42.695502" lon="-1.586726">
        <ele>789.4</ele>
        <time>2011-11-16T10:17:22Z</time>
      </trkpt>
      <trkpt lat="42.695658" lon="-1.586679">
        <ele>788.9</ele>
        <time>2011-11-16T10:17:38Z</time>
      </trkpt>
      <trkpt lat="42.695859" lon="-1.586567">
        <ele>784.6</ele>
        <time>2011-11-16T10:17:59Z</time>
      </trkpt>
      <trkpt lat="42.696043" lon="-1.586514">
        <ele>781.7</ele>
        <time>2011-11-16T10:18:16Z</time>
      </trkpt>
      <trkpt lat="42.696275" lon="-1.586310">
        <ele>790.8</ele>
        <time>2011-11-15T19:49:48Z</time>
      </trkpt>
      <trkpt lat="42.696618" lon="-1.586141">
        <ele>789.9</ele>
        <time>3487-04-11T16:36:08Z</time>
      </trkpt>
      <trkpt lat="42.696922" lon="-1.585920">
        <ele>789.1</ele>
      </trkpt>
      <trkpt lat="42.697209" lon="-1.585927">
        <ele>787.8</ele>
      </trkpt>
      <trkpt lat="42.697444" lon="-1.585788">
        <ele>785.0</ele>
      </trkpt>
      <trkpt lat="42.697788" lon="-1.585619">
        <ele>780.3</ele>
      </trkpt>
      <trkpt lat="42.698241" lon="-1.585528">
        <ele>775.5</ele>
      </trkpt>
      <trkpt lat="42.698717" lon="-1.585598">
        <ele>772.1</ele>
      </trkpt>
      <trkpt lat="42.699125" lon="-1.585843">
        <ele>771.7</ele>
      </trkpt>
      <trkpt lat="42.699503" lon="-1.586076">
        <ele>771.5</ele>
      </trkpt>
      <trkpt lat="42.699605" lon="-1.586341">
        <ele>774.2</ele>
      </trkpt>
      <trkpt lat="42.699717" lon="-1.586580">
        <ele>780.3</ele>
      </trkpt>
      <trkpt lat="42.699473" lon="-1.586867">
        <ele>785.6</ele>
      </trkpt>
      <trkpt lat="42.699651" lon="-1.586849">
        <ele>786.1</ele>
      </trkpt>
      <trkpt lat="42.699798" lon="-1.586779">
        <ele>785.4</ele>
      </trkpt>
      <trkpt lat="42.700065" lon="-1.586773">
        <ele>786.8</ele>
      </trkpt>
      <trkpt lat="42.700078" lon="-1.587027">
        <ele>792.7</ele>
      </trkpt>
      <trkpt lat="42.700193" lon="-1.587480">
        <ele>807.2</ele>
      </trkpt>
      <trkpt lat="42.700057" lon="-1.587738">
        <ele>814.6</ele>
      </trkpt>
      <trkpt lat="42.700129" lon="-1.587924">
        <ele>820.9</ele>
      </trkpt>
      <trkpt lat="42.700151" lon="-1.588164">
        <ele>830.8</ele>
      </trkpt>
      <trkpt lat="42.700065" lon="-1.588394">
        <ele>839.3</ele>
      </trkpt>
      <trkpt lat="42.700001" lon="-1.588744">
        <ele>852.3</ele>
      </trkpt>
      <trkpt lat="42.700014" lon="-1.589065">
        <ele>865.0</ele>
      </trkpt>
      <trkpt lat="42.699888" lon="-1.589202">
        <ele>868.3</ele>
      </trkpt>
      <trkpt lat="42.699771" lon="-1.589392">
        <ele>873.5</ele>
      </trkpt>
      <trkpt lat="42.699626" lon="-1.589637">
        <ele>879.3</ele>
      </trkpt>
      <trkpt lat="42.699581" lon="-1.589973">
        <ele>887.2</ele>
      </trkpt>
      <trkpt lat="42.699458" lon="-1.590444">
        <ele>894.7</ele>
      </trkpt>
      <trkpt lat="42.699543" lon="-1.590925">
        <ele>907.3</ele>
      </trkpt>
      <trkpt lat="42.699607" lon="-1.591272">
        <ele>915.9</ele>
      </trkpt>
      <trkpt lat="42.699895" lon="-1.591439">
        <ele>926.3</ele>
      </trkpt>
      <trkpt lat="42.700084" lon="-1.591542">
        <ele>932.2</ele>
      </trkpt>
      <trkpt lat="42.700302" lon="-1.591577">
        <ele>939.5</ele>
      </trkpt>
      <trkpt lat="42.700521" lon="-1.591680">
        <ele>943.0</ele>
      </trkpt>
      <trkpt lat="42.700688" lon="-1.591582">
        <ele>946.5</ele>
      </trkpt>
      <trkpt lat="42.700906" lon="-1.591631">
        <ele>948.3</ele>
      </trkpt>
      <trkpt lat="42.701047" lon="-1.591869">
        <ele>947.3</ele>
      </trkpt>
      <trkpt lat="42.700941" lon="-1.592086">
        <ele>943.1</ele>
      </trkpt>
      <trkpt lat="42.700866" lon="-1.592436">
        <ele>931.6</ele>
      </trkpt>
      <trkpt lat="42.700730" lon="-1.592613">
        <ele>924.5</ele>
      </trkpt>
      <trkpt lat="42.700522" lon="-1.592591">
        <ele>922.4</ele>
      </trkpt>
      <trkpt lat="42.700155" lon="-1.592492">
        <ele>917.7</ele>
      </trkpt>
      <trkpt lat="42.699759" lon="-1.592380">
        <ele>911.1</ele>
      </trkpt>
      <trkpt lat="42.699381" lon="-1.592201">
        <ele>905.0</ele>
        <time>18317-04-11T22:11:55Z</time>
      </trkpt>
      <trkpt lat="42.699186" lon="-1.592407">
        <ele>896.9</ele>
      </trkpt>
      <trkpt lat="42.699089" lon="-1.592569">
        <ele>892.7</ele>
        <time>17853-02-09T19:02:11Z</time>
      </trkpt>
      <trkpt lat="42.699053" lon="-1.592811">
        <ele>889.5</ele>
      </trkpt>
      <trkpt lat="42.698995" lon="-1.592973">
        <ele>887.7</ele>
        <time>17359-06-22T05:31:28Z</time>
      </trkpt>
      <trkpt lat="42.698948" lon="-1.593189">
        <ele>887.7</ele>
      </trkpt>
      <trkpt lat="42.698912" lon="-1.593458">
        <ele>888.5</ele>
        <time>2791-06-14T10:00:58Z</time>
      </trkpt>
      <trkpt lat="42.698814" lon="-1.593726">
        <ele>886.0</ele>
        <time>1989-12-31T00:00:01Z</time>
      </trkpt>
      <trkpt lat="42.698299" lon="-1.594112">
        <ele>885.0</ele>
        <time>1989-12-31T00:00:01Z</time>
      </trkpt>
      <trkpt lat="42.698151" lon="-1.594348">
        <ele>888.4</ele>
        <time>1989-12-31T00:00:01Z</time>
      </trkpt>
      <trkpt lat="42.698128" lon="-1.594369">
        <ele>887.9</ele>
        <time>1989-12-31T00:00:01Z</time>
      </trkpt>
      <trkpt lat="42.698128" lon="-1.594369">
        <ele>891.3</ele>
        <time>1989-12-31T00:00:01Z</time>
      </trkpt>
      <trkpt lat="42.697826" lon="-1.594713">
        <ele>894.1</ele>
        <time>1989-12-31T00:00:01Z</time>
      </trkpt>
      <trkpt lat="42.697655" lon="-1.594563">
        <ele>895.1</ele>
        <time>1989-12-31T00:00:01Z</time>
      </trkpt>
      <trkpt lat="42.697292" lon="-1.594841">
        <ele>902.3</ele>
        <time>1989-12-31T00:00:01Z</time>
      </trkpt>
      <trkpt lat="42.697292" lon="-1.594841">
        <ele>905.2</ele>
        <time>1989-12-31T00:00:01Z</time>
      </trkpt>
      <trkpt lat="42.697483" lon="-1.595292">
        <ele>907.1</ele>
        <time>1989-12-31T00:00:01Z</time>
      </trkpt>
      <trkpt lat="42.697483" lon="-1.595421">
        <ele>910.0</ele>
        <time>1989-12-31T00:00:01Z</time>
      </trkpt>
      <trkpt lat="42.696884" lon="-1.595292">
        <ele>911.0</ele>
        <time>1989-12-31T00:00:01Z</time>
      </trkpt>
      <trkpt lat="42.696732" lon="-1.595442">
        <ele>913.9</ele>
        <time>1989-12-31T00:00:01Z</time>
      </trkpt>
      <trkpt lat="42.696777" lon="-1.595979">
        <ele>915.8</ele>
        <time>1989-12-31T00:00:01Z</time>
      </trkpt>
      <trkpt lat="42.696648" lon="-1.595614">
        <ele>916.3</ele>
        <time>1989-12-31T00:00:01Z</time>
      </trkpt>
      <trkpt lat="42.696541" lon="-1.595721">
        <ele>916.7</ele>
        <time>1989-12-31T00:00:01Z</time>
      </trkpt>
      <trkpt lat="42.696541" lon="-1.595485">
        <ele>919.6</ele>
        <time>1989-12-31T00:00:01Z</time>
      </trkpt>
      <trkpt lat="42.696281" lon="-1.595657">
        <ele>926.3</ele>
        <time>1989-12-31T00:00:01Z</time>
      </trkpt>
      <trkpt lat="42.696091" lon="-1.595635">
        <ele>929.7</ele>
        <time>1989-12-31T00:00:01Z</time>
      </trkpt>
      <trkpt lat="42.696045" lon="-1.595635">
        <ele>932.6</ele>
        <time>1989-12-31T00:00:01Z</time>
      </trkpt>
      <trkpt lat="42.695919" lon="-1.595700">
        <ele>932.6</ele>
        <time>1989-12-31T00:00:01Z</time>
      </trkpt>
      <trkpt lat="42.695660" lon="-1.596022">
        <ele>939.8</ele>
        <time>1989-12-31T00:00:01Z</time>
      </trkpt>
      <trkpt lat="42.695488" lon="-1.596107">
        <ele>942.7</ele>
        <time>1989-12-31T00:00:01Z</time>
      </trkpt>
      <trkpt lat="42.695339" lon="-1.596215">
        <ele>943.7</ele>
        <time>1989-12-31T00:00:01Z</time>
      </trkpt>
      <trkpt lat="42.695103" lon="-1.596451">
        <ele>951.3</ele>
        <time>1989-12-31T00:00:01Z</time>
      </trkpt>
      <trkpt lat="42.694996" lon="-1.596751">
        <ele>960.0</ele>
        <time>1989-12-31T00:00:01Z</time>
      </trkpt>
      <trkpt lat="42.694996" lon="-1.596751">
        <ele>963.4</ele>
        <time>1989-12-31T00:00:01Z</time>
      </trkpt>
      <trkpt lat="42.694653" lon="-1.597674">
        <ele>962.9</ele>
        <time>1989-12-31T00:00:01Z</time>
      </trkpt>
      <trkpt lat="42.694458" lon="-1.597824">
        <ele>967.2</ele>
        <time>1989-12-31T00:00:01Z</time>
      </trkpt>
      <trkpt lat="42.694458" lon="-1.597824">
        <ele>970.6</ele>
        <time>1989-12-31T00:00:01Z</time>
      </trkpt>
      <trkpt lat="42.693985" lon="-1.597610">
        <ele>972.5</ele>
        <time>1989-12-31T00:00:01Z</time>
      </trkpt>
      <trkpt lat="42.694286" lon="-1.596901">
        <ele>971.1</ele>
        <time>1989-12-31T00:00:01Z</time>
      </trkpt>
      <trkpt lat="42.694244" lon="-1.596644">
        <ele>970.6</ele>
        <time>1989-12-31T00:00:01Z</time>
      </trkpt>
      <trkpt lat="42.694180" lon="-1.596730">
        <ele>970.1</ele>
        <time>1989-12-31T00:00:01Z</time>
      </trkpt>
      <trkpt lat="42.693729" lon="-1.596901">
        <ele>1016.2</ele>
        <time>1989-12-31T00:00:01Z</time>
      </trkpt>
      <trkpt lat="42.693139" lon="-1.597817">
        <ele>1057.5</ele>
        <time>1989-12-31T00:00:01Z</time>
      </trkpt>
      <trkpt lat="42.692539" lon="-1.598840">
        <ele>1060.3</ele>
        <time>1989-12-31T00:00:01Z</time>
      </trkpt>
      <trkpt lat="42.692097" lon="-1.599562">
        <ele>1015.3</ele>
        <time>1989-12-31T00:00:01Z</time>
      </trkpt>
      <trkpt lat="42.691539" lon="-1.599456">
        <ele>1045.1</ele>
        <time>1989-12-31T00:00:01Z</time>
      </trkpt>
      <trkpt lat="42.690811" lon="-1.599219">
        <ele>1014.8</ele>
        <time>1989-12-31T00:00:01Z</time>
      </trkpt>
      <trkpt lat="42.690834" lon="-1.599455">
        <ele>1013.3</ele>
        <time>1989-12-31T00:00:01Z</time>
      </trkpt>
      <trkpt lat="42.690231" lon="-1.600034">
        <ele>1018.6</ele>
        <time>1989-12-31T00:00:01Z</time>
      </trkpt>
      <trkpt lat="42.689976" lon="-1.600184">
        <ele>1018.2</ele>
        <time>1989-12-31T00:00:01Z</time>
      </trkpt>
      <trkpt lat="42.689888" lon="-1.600249">
        <ele>1021.0</ele>
        <time>1989-12-31T00:00:01Z</time>
      </trkpt>
      <trkpt lat="42.689980" lon="-1.600532">
        <ele>1030.9</ele>
        <time>7411-03-11T16:36:42Z</time>
      </trkpt>
      <trkpt lat="42.690236" lon="-1.600814">
        <ele>1037.2</ele>
        <time>7411-03-11T16:36:42Z</time>
      </trkpt>
      <trkpt lat="42.690290" lon="-1.601322">
        <ele>1043.7</ele>
        <time>7411-03-11T16:36:42Z</time>
      </trkpt>
      <trkpt lat="42.690586" lon="-1.601481">
        <ele>1056.2</ele>
        <time>7411-03-11T16:36:42Z</time>
      </trkpt>
      <trkpt lat="42.690640" lon="-1.601732">
        <ele>1063.5</ele>
        <time>7411-03-11T16:36:42Z</time>
      </trkpt>
      <trkpt lat="42.690815" lon="-1.601910">
        <ele>1075.6</ele>
        <time>7411-03-11T16:36:42Z</time>
      </trkpt>
      <trkpt lat="42.690905" lon="-1.602265">
        <ele>1088.0</ele>
        <time>7411-03-11T16:36:42Z</time>
      </trkpt>
      <trkpt lat="42.691067" lon="-1.602510">
        <ele>1099.1</ele>
        <time>7411-03-11T16:36:42Z</time>
      </trkpt>
      <trkpt lat="42.691188" lon="-1.602725">
        <ele>1106.1</ele>
        <time>7411-03-11T16:36:42Z</time>
      </trkpt>
      <trkpt lat="42.691209" lon="-1.602836">
        <ele>1106.6</ele>
        <time>2010-05-08T10:56:35Z</time>
      </trkpt>
      <trkpt lat="42.691240" lon="-1.602990">
        <ele>1108.1</ele>
        <time>2010-05-08T10:56:48Z</time>
      </trkpt>
      <trkpt lat="42.691259" lon="-1.603029">
        <ele>1109.0</ele>
        <time>2010-05-08T10:56:52Z</time>
      </trkpt>
      <trkpt lat="42.691305" lon="-1.603097">
        <ele>1110.5</ele>
        <time>2010-05-08T10:57:01Z</time>
      </trkpt>
      <trkpt lat="42.691336" lon="-1.603118">
        <ele>1111.4</ele>
        <time>2010-05-08T10:57:05Z</time>
      </trkpt>
      <trkpt lat="42.691388" lon="-1.603216">
        <ele>1112.4</ele>
        <time>2010-05-08T10:57:14Z</time>
      </trkpt>
      <trkpt lat="42.691395" lon="-1.603246">
        <ele>1111.9</ele>
        <time>2010-05-08T10:57:16Z</time>
      </trkpt>
      <trkpt lat="42.691436" lon="-1.603312">
        <ele>1114.3</ele>
        <time>2010-05-08T10:57:26Z</time>
      </trkpt>
      <trkpt lat="42.691443" lon="-1.603342">
        <ele>1115.8</ele>
        <time>2010-05-08T10:57:29Z</time>
      </trkpt>
      <trkpt lat="42.691456" lon="-1.603392">
        <ele>1117.2</ele>
        <time>2010-05-08T10:57:35Z</time>
      </trkpt>
      <trkpt lat="42.691505" lon="-1.603433">
        <ele>1119.6</ele>
        <time>2010-05-08T10:57:48Z</time>
      </trkpt>
      <trkpt lat="42.691558" lon="-1.603586">
        <ele>1122.0</ele>
        <time>2010-05-08T10:58:01Z</time>
      </trkpt>
      <trkpt lat="42.691550" lon="-1.603699">
        <ele>1124.4</ele>
        <time>2010-05-08T10:58:15Z</time>
      </trkpt>
      <trkpt lat="42.691593" lon="-1.603847">
        <ele>1125.4</ele>
        <time>2010-05-08T10:58:25Z</time>
      </trkpt>
      <trkpt lat="42.691667" lon="-1.603885">
        <ele>1128.7</ele>
        <time>2010-05-08T10:58:39Z</time>
      </trkpt>
      <trkpt lat="42.691667" lon="-1.603935">
        <ele>1132.1</ele>
        <time>2010-05-08T10:58:54Z</time>
      </trkpt>
      <trkpt lat="42.691620" lon="-1.603969">
        <ele>1132.6</ele>
        <time>2010-05-08T10:58:58Z</time>
      </trkpt>
      <trkpt lat="42.691679" lon="-1.604049">
        <ele>1135.9</ele>
        <time>2010-05-08T10:59:11Z</time>
      </trkpt>
      <trkpt lat="42.691731" lon="-1.604047">
        <ele>1138.8</ele>
        <time>2010-05-08T10:59:30Z</time>
      </trkpt>
      <trkpt lat="42.691741" lon="-1.604067">
        <ele>1140.3</ele>
        <time>2010-05-08T10:59:36Z</time>
      </trkpt>
      <trkpt lat="42.691811" lon="-1.604154">
        <ele>1143.6</ele>
        <time>2010-05-08T10:59:49Z</time>
      </trkpt>
      <trkpt lat="42.691854" lon="-1.604250">
        <ele>1144.1</ele>
        <time>2010-05-08T11:00:06Z</time>
      </trkpt>
      <trkpt lat="42.691774" lon="-1.604346">
        <ele>1144.6</ele>
        <time>2010-05-08T11:00:16Z</time>
      </trkpt>
      <trkpt lat="42.691700" lon="-1.604393">
        <ele>1143.6</ele>
        <time>2010-05-08T11:00:24Z</time>
      </trkpt>
      <trkpt lat="42.691681" lon="-1.604552">
        <ele>1143.6</ele>
        <time>2010-05-08T11:00:31Z</time>
      </trkpt>
      <trkpt lat="42.691664" lon="-1.604601">
        <ele>1143.6</ele>
        <time>2010-05-08T11:00:34Z</time>
      </trkpt>
      <trkpt lat="42.691660" lon="-1.604648">
        <ele>1143.1</ele>
        <time>2010-05-08T11:00:40Z</time>
      </trkpt>
      <trkpt lat="42.691530" lon="-1.604730">
        <ele>1142.2</ele>
        <time>2010-05-08T11:00:52Z</time>
      </trkpt>
      <trkpt lat="42.691517" lon="-1.604803">
        <ele>1142.2</ele>
        <time>2010-05-08T11:00:57Z</time>
      </trkpt>
      <trkpt lat="42.691526" lon="-1.604953">
        <ele>1142.2</ele>
        <time>2010-05-08T11:01:05Z</time>
      </trkpt>
      <trkpt lat="42.691554" lon="-1.605203">
        <ele>1141.7</ele>
        <time>2010-05-08T11:01:18Z</time>
      </trkpt>
      <trkpt lat="42.691474" lon="-1.605353">
        <ele>1143.1</ele>
        <time>2010-05-08T11:01:30Z</time>
      </trkpt>
      <trkpt lat="42.691474" lon="-1.605375">
        <ele>1142.7</ele>
        <time>2010-05-08T11:01:31Z</time>
      </trkpt>
      <trkpt lat="42.691492" lon="-1.605503">
        <ele>1141.7</ele>
        <time>2010-05-08T11:01:37Z</time>
      </trkpt>
      <trkpt lat="42.691473" lon="-1.605520">
        <ele>1141.7</ele>
        <time>2010-05-08T11:01:40Z</time>
      </trkpt>
      <trkpt lat="42.691399" lon="-1.605742">
        <ele>1143.1</ele>
        <time>2010-05-08T11:01:53Z</time>
      </trkpt>
      <trkpt lat="42.691380" lon="-1.605844">
        <ele>1144.1</ele>
        <time>2010-05-08T11:01:57Z</time>
      </trkpt>
      <trkpt lat="42.691443" lon="-1.605982">
        <ele>1145.1</ele>
        <time>2010-05-08T11:02:08Z</time>
      </trkpt>
      <trkpt lat="42.691458" lon="-1.606036">
        <ele>1145.1</ele>
        <time>2010-05-08T11:02:13Z</time>
      </trkpt>
      <trkpt lat="42.691472" lon="-1.606251">
        <ele>1145.1</ele>
        <time>2010-05-08T11:02:26Z</time>
      </trkpt>
      <trkpt lat="42.691420" lon="-1.606300">
        <ele>1148.4</ele>
        <time>2010-05-08T11:02:38Z</time>
      </trkpt>
      <trkpt lat="42.691370" lon="-1.606332">
        <ele>1150.8</ele>
        <time>2010-05-08T11:02:51Z</time>
      </trkpt>
      <trkpt lat="42.691276" lon="-1.606342">
        <ele>1152.8</ele>
        <time>2010-05-08T11:03:01Z</time>
      </trkpt>
      <trkpt lat="42.691258" lon="-1.606378">
        <ele>1153.2</ele>
        <time>2010-05-08T11:03:05Z</time>
      </trkpt>
      <trkpt lat="42.691188" lon="-1.606498">
        <ele>1155.6</ele>
        <time>2010-05-08T11:03:18Z</time>
      </trkpt>
      <trkpt lat="42.691146" lon="-1.606601">
        <ele>1156.6</ele>
        <time>2010-05-08T11:03:28Z</time>
      </trkpt>
      <trkpt lat="42.691176" lon="-1.606656">
        <ele>1158.5</ele>
        <time>2010-05-08T11:03:37Z</time>
      </trkpt>
      <trkpt lat="42.691242" lon="-1.606674">
        <ele>1160.4</ele>
        <time>2010-05-08T11:03:50Z</time>
      </trkpt>
      <trkpt lat="42.691228" lon="-1.606682">
        <ele>1160.9</ele>
        <time>2010-05-08T11:04:17Z</time>
      </trkpt>
      <trkpt lat="42.691238" lon="-1.606664">
        <ele>1160.0</ele>
        <time>2010-05-08T11:04:36Z</time>
      </trkpt>
      <trkpt lat="42.691237" lon="-1.606694">
        <ele>1160.9</ele>
        <time>2010-05-08T11:04:51Z</time>
      </trkpt>
      <trkpt lat="42.691219" lon="-1.606689">
        <ele>1160.0</ele>
        <time>2010-05-08T11:05:39Z</time>
      </trkpt>
      <trkpt lat="42.691197" lon="-1.606665">
        <ele>1156.6</ele>
        <time>2010-05-08T11:05:54Z</time>
      </trkpt>
      <trkpt lat="42.691191" lon="-1.606667">
        <ele>1156.6</ele>
        <time>2010-05-08T11:05:56Z</time>
      </trkpt>
      <trkpt lat="42.691106" lon="-1.606684">
        <ele>1154.7</ele>
        <time>2010-05-08T11:06:02Z</time>
      </trkpt>
      <trkpt lat="42.691011" lon="-1.606804">
        <ele>1155.2</ele>
        <time>2010-05-08T11:06:12Z</time>
      </trkpt>
      <trkpt lat="42.690894" lon="-1.606871">
        <ele>1152.3</ele>
        <time>2010-05-08T11:06:22Z</time>
      </trkpt>
      <trkpt lat="42.690826" lon="-1.607019">
        <ele>1152.8</ele>
        <time>2010-05-08T11:06:32Z</time>
      </trkpt>
      <trkpt lat="42.690745" lon="-1.607082">
        <ele>1152.8</ele>
        <time>2010-05-08T11:06:44Z</time>
      </trkpt>
      <trkpt lat="42.690729" lon="-1.607251">
        <ele>1150.8</ele>
        <time>2010-05-08T11:06:59Z</time>
      </trkpt>
      <trkpt lat="42.690659" lon="-1.607367">
        <ele>1148.4</ele>
        <time>2010-05-08T11:07:19Z</time>
      </trkpt>
      <trkpt lat="42.690612" lon="-1.607409">
        <ele>1147.9</ele>
        <time>2010-05-08T11:07:26Z</time>
      </trkpt>
      <trkpt lat="42.690581" lon="-1.607430">
        <ele>1147.0</ele>
        <time>2010-05-08T11:07:30Z</time>
      </trkpt>
      <trkpt lat="42.690582" lon="-1.607555">
        <ele>1145.1</ele>
        <time>2010-05-08T11:07:38Z</time>
      </trkpt>
      <trkpt lat="42.690559" lon="-1.607599">
        <ele>1144.6</ele>
        <time>2010-05-08T11:07:41Z</time>
      </trkpt>
      <trkpt lat="42.690555" lon="-1.607666">
        <ele>1142.7</ele>
        <time>2010-05-08T11:07:47Z</time>
      </trkpt>
      <trkpt lat="42.690508" lon="-1.607704">
        <ele>1141.7</ele>
        <time>2010-05-08T11:07:51Z</time>
      </trkpt>
      <trkpt lat="42.690523" lon="-1.607742">
        <ele>1139.8</ele>
        <time>2010-05-08T11:07:56Z</time>
      </trkpt>
      <trkpt lat="42.690421" lon="-1.607880">
        <ele>1140.7</ele>
        <time>2010-05-08T11:08:09Z</time>
      </trkpt>
      <trkpt lat="42.690357" lon="-1.608043">
        <ele>1141.2</ele>
        <time>2010-05-08T11:08:22Z</time>
      </trkpt>
      <trkpt lat="42.690248" lon="-1.608154">
        <ele>1141.7</ele>
        <time>2010-05-08T11:08:34Z</time>
      </trkpt>
      <trkpt lat="42.690141" lon="-1.608162">
        <ele>1143.6</ele>
        <time>2010-05-08T11:08:47Z</time>
      </trkpt>
      <trkpt lat="42.690137" lon="-1.608220">
        <ele>1144.1</ele>
        <time>2010-05-08T11:08:50Z</time>
      </trkpt>
      <trkpt lat="42.690101" lon="-1.608278">
        <ele>1143.1</ele>
        <time>2010-05-08T11:08:53Z</time>
      </trkpt>
      <trkpt lat="42.690073" lon="-1.608416">
        <ele>1142.7</ele>
        <time>2010-05-08T11:09:01Z</time>
      </trkpt>
      <trkpt lat="42.690048" lon="-1.608577">
        <ele>1143.1</ele>
        <time>2010-05-08T11:09:12Z</time>
      </trkpt>
      <trkpt lat="42.689983" lon="-1.608729">
        <ele>1144.1</ele>
        <time>2010-05-08T11:09:23Z</time>
      </trkpt>
      <trkpt lat="42.689960" lon="-1.608854">
        <ele>1145.6</ele>
        <time>2010-05-08T11:09:34Z</time>
      </trkpt>
      <trkpt lat="42.689913" lon="-1.609007">
        <ele>1147.0</ele>
        <time>2010-05-08T11:09:47Z</time>
      </trkpt>
      <trkpt lat="42.689882" lon="-1.609150">
        <ele>1147.5</ele>
        <time>2010-05-08T11:09:57Z</time>
      </trkpt>
      <trkpt lat="42.689822" lon="-1.609267">
        <ele>1149.9</ele>
        <time>2010-05-08T11:10:07Z</time>
      </trkpt>
      <trkpt lat="42.689830" lon="-1.609304">
        <ele>1149.9</ele>
        <time>2010-05-08T11:10:13Z</time>
      </trkpt>
      <trkpt lat="42.689860" lon="-1.609427">
        <ele>1148.9</ele>
        <time>2010-05-08T11:10:18Z</time>
      </trkpt>
      <trkpt lat="42.689854" lon="-1.609502">
        <ele>1147.9</ele>
        <time>2010-05-08T11:10:29Z</time>
      </trkpt>
      <trkpt lat="42.689758" lon="-1.609560">
        <ele>1148.4</ele>
        <time>2010-05-08T11:10:42Z</time>
      </trkpt>
      <trkpt lat="42.689709" lon="-1.609567">
        <ele>1147.0</ele>
        <time>2010-05-08T11:10:48Z</time>
      </trkpt>
      <trkpt lat="42.689697" lon="-1.609633">
        <ele>1147.9</ele>
        <time>2010-05-08T11:10:55Z</time>
      </trkpt>
      <trkpt lat="42.689688" lon="-1.609699">
        <ele>1147.5</ele>
        <time>2010-05-08T11:11:01Z</time>
      </trkpt>
      <trkpt lat="42.689681" lon="-1.609772">
        <ele>1147.0</ele>
        <time>2010-05-08T11:11:03Z</time>
      </trkpt>
      <trkpt lat="42.689667" lon="-1.609787">
        <ele>1147.0</ele>
        <time>2010-05-08T11:11:05Z</time>
      </trkpt>
      <trkpt lat="42.689647" lon="-1.609792">
        <ele>1146.5</ele>
        <time>2010-05-08T11:11:09Z</time>
      </trkpt>
      <trkpt lat="42.689604" lon="-1.609761">
        <ele>1144.6</ele>
        <time>2010-05-08T11:11:13Z</time>
      </trkpt>
      <trkpt lat="42.689562" lon="-1.609876">
        <ele>1143.6</ele>
        <time>2010-05-08T11:11:19Z</time>
      </trkpt>
      <trkpt lat="42.689602" lon="-1.609980">
        <ele>1145.6</ele>
        <time>2010-05-08T11:11:28Z</time>
      </trkpt>
      <trkpt lat="42.689547" lon="-1.610111">
        <ele>1146.0</ele>
        <time>2010-05-08T11:11:41Z</time>
      </trkpt>
      <trkpt lat="42.689530" lon="-1.610219">
        <ele>1145.6</ele>
        <time>2010-05-08T11:11:51Z</time>
      </trkpt>
      <trkpt lat="42.689477" lon="-1.610322">
        <ele>1145.6</ele>
        <time>2010-05-08T11:12:00Z</time>
      </trkpt>
      <trkpt lat="42.689408" lon="-1.610348">
        <ele>1147.0</ele>
        <time>2010-05-08T11:12:11Z</time>
      </trkpt>
      <trkpt lat="42.689394" lon="-1.610348">
        <ele>1148.4</ele>
        <time>2010-05-08T11:12:15Z</time>
      </trkpt>
      <trkpt lat="42.689367" lon="-1.610332">
        <ele>1149.9</ele>
        <time>2010-05-08T11:12:22Z</time>
      </trkpt>
      <trkpt lat="42.689339" lon="-1.610356">
        <ele>1149.9</ele>
        <time>2010-05-08T11:12:32Z</time>
      </trkpt>
      <trkpt lat="42.689327" lon="-1.610384">
        <ele>1150.3</ele>
        <time>2010-05-08T11:12:37Z</time>
      </trkpt>
      <trkpt lat="42.689289" lon="-1.610447">
        <ele>1150.3</ele>
        <time>2010-05-08T11:12:49Z</time>
      </trkpt>
      <trkpt lat="42.689270" lon="-1.610499">
        <ele>1150.3</ele>
        <time>2010-05-08T11:12:59Z</time>
      </trkpt>
      <trkpt lat="42.689266" lon="-1.610534">
        <ele>1149.4</ele>
        <time>2010-05-08T11:13:12Z</time>
      </trkpt>
      <trkpt lat="42.689224" lon="-1.610563">
        <ele>1149.9</ele>
        <time>2010-05-08T11:13:21Z</time>
      </trkpt>
      <trkpt lat="42.689200" lon="-1.610600">
        <ele>1149.4</ele>
        <time>2010-05-08T11:13:37Z</time>
      </trkpt>
      <trkpt lat="42.689172" lon="-1.610664">
        <ele>1147.9</ele>
        <time>2010-05-08T11:13:58Z</time>
      </trkpt>
      <trkpt lat="42.689163" lon="-1.610792">
        <ele>1146.0</ele>
        <time>2010-05-08T11:14:10Z</time>
      </trkpt>
      <trkpt lat="42.689161" lon="-1.610812">
        <ele>1146.0</ele>
        <time>2010-05-08T11:14:11Z</time>
      </trkpt>
      <trkpt lat="42.689115" lon="-1.610890">
        <ele>1143.6</ele>
        <time>2010-05-08T11:14:16Z</time>
      </trkpt>
      <trkpt lat="42.689087" lon="-1.610959">
        <ele>1141.2</ele>
        <time>2010-05-08T11:14:30Z</time>
      </trkpt>
      <trkpt lat="42.689058" lon="-1.610939">
        <ele>1139.8</ele>
        <time>2010-05-08T11:14:41Z</time>
      </trkpt>
      <trkpt lat="42.689051" lon="-1.610995">
        <ele>1137.9</ele>
        <time>2010-05-08T11:14:44Z</time>
      </trkpt>
      <trkpt lat="42.689016" lon="-1.611084">
        <ele>1136.4</ele>
        <time>2010-05-08T11:14:48Z</time>
      </trkpt>
      <trkpt lat="42.689043" lon="-1.611110">
        <ele>1136.4</ele>
        <time>2010-05-08T11:14:52Z</time>
      </trkpt>
      <trkpt lat="42.688999" lon="-1.611173">
        <ele>1134.5</ele>
        <time>2010-05-08T11:14:56Z</time>
      </trkpt>
      <trkpt lat="42.689014" lon="-1.611267">
        <ele>1134.0</ele>
        <time>2010-05-08T11:15:01Z</time>
      </trkpt>
      <trkpt lat="42.689031" lon="-1.611353">
        <ele>1131.1</ele>
        <time>2010-05-08T11:15:09Z</time>
      </trkpt>
      <trkpt lat="42.688967" lon="-1.611399">
        <ele>1129.2</ele>
        <time>2010-05-08T11:15:19Z</time>
      </trkpt>
      <trkpt lat="42.688936" lon="-1.611493">
        <ele>1127.3</ele>
        <time>2010-05-08T11:15:34Z</time>
      </trkpt>
      <trkpt lat="42.688932" lon="-1.611514">
        <ele>1126.8</ele>
        <time>2010-05-08T11:15:36Z</time>
      </trkpt>
      <trkpt lat="42.688916" lon="-1.611571">
        <ele>1125.4</ele>
        <time>2010-05-08T11:15:41Z</time>
      </trkpt>
      <trkpt lat="42.688794" lon="-1.611695">
        <ele>1123.9</ele>
        <time>2010-05-08T11:15:52Z</time>
      </trkpt>
      <trkpt lat="42.688763" lon="-1.611727">
        <ele>1123.9</ele>
        <time>2010-05-08T11:15:54Z</time>
      </trkpt>
      <trkpt lat="42.688647" lon="-1.611871">
        <ele>1123.4</ele>
        <time>2010-05-08T11:16:08Z</time>
      </trkpt>
      <trkpt lat="42.688604" lon="-1.611948">
        <ele>1123.0</ele>
        <time>2010-05-08T11:16:13Z</time>
      </trkpt>
      <trkpt lat="42.688535" lon="-1.612112">
        <ele>1123.0</ele>
        <time>2010-05-08T11:16:22Z</time>
      </trkpt>
      <trkpt lat="42.688470" lon="-1.612176">
        <ele>1122.5</ele>
        <time>2010-05-08T11:16:29Z</time>
      </trkpt>
      <trkpt lat="42.688401" lon="-1.612282">
        <ele>1123.0</ele>
        <time>2010-05-08T11:16:41Z</time>
      </trkpt>
      <trkpt lat="42.688395" lon="-1.612306">
        <ele>1123.0</ele>
        <time>2010-05-08T11:16:43Z</time>
      </trkpt>
      <trkpt lat="42.688351" lon="-1.612420">
        <ele>1124.9</ele>
        <time>2010-05-08T11:16:55Z</time>
      </trkpt>
      <trkpt lat="42.688298" lon="-1.612523">
        <ele>1125.4</ele>
        <time>2010-05-08T11:17:05Z</time>
      </trkpt>
      <trkpt lat="42.688163" lon="-1.612621">
        <ele>1127.8</ele>
        <time>2010-05-08T11:17:20Z</time>
      </trkpt>
      <trkpt lat="42.688092" lon="-1.612736">
        <ele>1131.1</ele>
        <time>2010-05-08T11:17:29Z</time>
      </trkpt>
      <trkpt lat="42.688026" lon="-1.612761">
        <ele>1132.1</ele>
        <time>2010-05-08T11:17:40Z</time>
      </trkpt>
      <trkpt lat="42.688005" lon="-1.612778">
        <ele>1132.6</ele>
        <time>2010-05-08T11:17:43Z</time>
      </trkpt>
      <trkpt lat="42.688006" lon="-1.612798">
        <ele>1133.1</ele>
        <time>2010-05-08T11:17:45Z</time>
      </trkpt>
      <trkpt lat="42.687976" lon="-1.612846">
        <ele>1134.5</ele>
        <time>2010-05-08T11:17:55Z</time>
      </trkpt>
      <trkpt lat="42.687907" lon="-1.612903">
        <ele>1136.9</ele>
        <time>2010-05-08T11:18:10Z</time>
      </trkpt>
      <trkpt lat="42.687905" lon="-1.612911">
        <ele>1136.9</ele>
        <time>2010-05-08T11:18:11Z</time>
      </trkpt>
      <trkpt lat="42.687903" lon="-1.612937">
        <ele>1137.4</ele>
        <time>2010-05-08T11:18:13Z</time>
      </trkpt>
      <trkpt lat="42.687835" lon="-1.613023">
        <ele>1138.8</ele>
        <time>2010-05-08T11:18:25Z</time>
      </trkpt>
      <trkpt lat="42.687774" lon="-1.613081">
        <ele>1139.8</ele>
        <time>2010-05-08T11:18:36Z</time>
      </trkpt>
      <trkpt lat="42.687721" lon="-1.613139">
        <ele>1139.8</ele>
        <time>2010-05-08T11:18:43Z</time>
      </trkpt>
      <trkpt lat="42.687716" lon="-1.613230">
        <ele>1139.3</ele>
        <time>2010-05-08T11:18:50Z</time>
      </trkpt>
      <trkpt lat="42.687701" lon="-1.613282">
        <ele>1137.4</ele>
        <time>2010-05-08T11:18:56Z</time>
      </trkpt>
      <trkpt lat="42.687689" lon="-1.613362">
        <ele>1136.9</ele>
        <time>2010-05-08T11:19:01Z</time>
      </trkpt>
      <trkpt lat="42.687691" lon="-1.613391">
        <ele>1136.4</ele>
        <time>2010-05-08T11:19:03Z</time>
      </trkpt>
      <trkpt lat="42.687692" lon="-1.613448">
        <ele>1135.4</ele>
        <time>2010-05-08T11:19:07Z</time>
      </trkpt>
      <trkpt lat="42.687687" lon="-1.613532">
        <ele>1133.5</ele>
        <time>2010-05-08T11:19:15Z</time>
      </trkpt>
      <trkpt lat="42.687666" lon="-1.613559">
        <ele>1132.6</ele>
        <time>2010-05-08T11:19:18Z</time>
      </trkpt>
      <trkpt lat="42.687601" lon="-1.613616">
        <ele>1131.6</ele>
        <time>2010-05-08T11:19:25Z</time>
      </trkpt>
      <trkpt lat="42.687578" lon="-1.613635">
        <ele>1131.6</ele>
        <time>2010-05-08T11:19:27Z</time>
      </trkpt>
      <trkpt lat="42.687473" lon="-1.613694">
        <ele>1129.7</ele>
        <time>2010-05-08T11:19:33Z</time>
      </trkpt>
      <trkpt lat="42.687411" lon="-1.613754">
        <ele>1129.7</ele>
        <time>2010-05-08T11:19:37Z</time>
      </trkpt>
      <trkpt lat="42.687399" lon="-1.613792">
        <ele>1129.2</ele>
        <time>2010-05-08T11:19:42Z</time>
      </trkpt>
      <trkpt lat="42.687363" lon="-1.613820">
        <ele>1128.2</ele>
        <time>2010-05-08T11:19:44Z</time>
      </trkpt>
      <trkpt lat="42.687352" lon="-1.613901">
        <ele>1127.3</ele>
        <time>2010-05-08T11:19:47Z</time>
      </trkpt>
      <trkpt lat="42.687313" lon="-1.613931">
        <ele>1127.3</ele>
        <time>2010-05-08T11:19:51Z</time>
      </trkpt>
      <trkpt lat="42.687124" lon="-1.613949">
        <ele>1127.3</ele>
        <time>2010-05-08T11:20:02Z</time>
      </trkpt>
      <trkpt lat="42.687109" lon="-1.613941">
        <ele>1127.3</ele>
        <time>2010-05-08T11:20:05Z</time>
      </trkpt>
      <trkpt lat="42.687030" lon="-1.614055">
        <ele>1125.8</ele>
        <time>2010-05-08T11:20:12Z</time>
      </trkpt>
      <trkpt lat="42.687004" lon="-1.614239">
        <ele>1122.5</ele>
        <time>2010-05-08T11:20:22Z</time>
      </trkpt>
      <trkpt lat="42.687000" lon="-1.614310">
        <ele>1121.5</ele>
        <time>2010-05-08T11:20:34Z</time>
      </trkpt>
      <trkpt lat="42.686996" lon="-1.614366">
        <ele>1120.6</ele>
        <time>2010-05-08T11:20:36Z</time>
      </trkpt>
      <trkpt lat="42.686939" lon="-1.614492">
        <ele>1119.1</ele>
        <time>2010-05-08T11:20:45Z</time>
      </trkpt>
      <trkpt lat="42.686937" lon="-1.614583">
        <ele>1117.7</ele>
        <time>2010-05-08T11:20:48Z</time>
      </trkpt>
      <trkpt lat="42.686981" lon="-1.614578">
        <ele>1116.7</ele>
        <time>2010-05-08T11:20:50Z</time>
      </trkpt>
      <trkpt lat="42.687016" lon="-1.614695">
        <ele>1113.8</ele>
        <time>2010-05-08T11:20:56Z</time>
      </trkpt>
      <trkpt lat="42.687016" lon="-1.614698">
        <ele>1113.8</ele>
        <time>2010-05-08T11:20:57Z</time>
      </trkpt>
      <trkpt lat="42.687014" lon="-1.614797">
        <ele>1112.9</ele>
        <time>2010-05-08T11:21:00Z</time>
      </trkpt>
      <trkpt lat="42.686904" lon="-1.614821">
        <ele>1112.4</ele>
        <time>2010-05-08T11:21:10Z</time>
      </trkpt>
      <trkpt lat="42.686824" lon="-1.615079">
        <ele>1111.4</ele>
        <time>2010-05-08T11:21:21Z</time>
      </trkpt>
      <trkpt lat="42.686832" lon="-1.615087">
        <ele>1110.0</ele>
        <time>2010-05-08T11:21:23Z</time>
      </trkpt>
      <trkpt lat="42.686785" lon="-1.615221">
        <ele>1109.0</ele>
        <time>2010-05-08T11:21:34Z</time>
      </trkpt>
      <trkpt lat="42.686781" lon="-1.615203">
        <ele>1108.5</ele>
        <time>2010-05-08T11:21:35Z</time>
      </trkpt>
      <trkpt lat="42.686677" lon="-1.615295">
        <ele>1110.9</ele>
        <time>2010-05-08T11:21:45Z</time>
      </trkpt>
      <trkpt lat="42.686587" lon="-1.615326">
        <ele>1112.4</ele>
        <time>2010-05-08T11:21:55Z</time>
      </trkpt>
      <trkpt lat="42.686520" lon="-1.615361">
        <ele>1115.3</ele>
        <time>2010-05-08T11:22:08Z</time>
      </trkpt>
      <trkpt lat="42.686407" lon="-1.615378">
        <ele>1116.7</ele>
        <time>2010-05-08T11:22:22Z</time>
      </trkpt>
      <trkpt lat="42.686376" lon="-1.615573">
        <ele>1118.6</ele>
        <time>2010-05-08T11:22:33Z</time>
      </trkpt>
      <trkpt lat="42.686350" lon="-1.615659">
        <ele>1118.2</ele>
        <time>2010-05-08T11:22:44Z</time>
      </trkpt>
      <trkpt lat="42.686341" lon="-1.615777">
        <ele>1119.6</ele>
        <time>2010-05-08T11:22:54Z</time>
      </trkpt>
      <trkpt lat="42.686342" lon="-1.615858">
        <ele>1119.6</ele>
        <time>2010-05-08T11:22:58Z</time>
      </trkpt>
      <trkpt lat="42.686301" lon="-1.615964">
        <ele>1122.0</ele>
        <time>2010-05-08T11:23:09Z</time>
      </trkpt>
      <trkpt lat="42.686275" lon="-1.616014">
        <ele>1123.4</ele>
        <time>2010-05-08T11:23:18Z</time>
      </trkpt>
      <trkpt lat="42.686243" lon="-1.616072">
        <ele>1124.9</ele>
        <time>2010-05-08T11:23:27Z</time>
      </trkpt>
      <trkpt lat="42.686220" lon="-1.616069">
        <ele>1127.3</ele>
        <time>2010-05-08T11:23:39Z</time>
      </trkpt>
      <trkpt lat="42.686135" lon="-1.616057">
        <ele>1130.2</ele>
        <time>2010-05-08T11:23:52Z</time>
      </trkpt>
      <trkpt lat="42.686073" lon="-1.616069">
        <ele>1133.1</ele>
        <time>2010-05-08T11:24:06Z</time>
      </trkpt>
      <trkpt lat="42.686064" lon="-1.616064">
        <ele>1133.5</ele>
        <time>2010-05-08T11:24:10Z</time>
      </trkpt>
      <trkpt lat="42.686012" lon="-1.616106">
        <ele>1135.9</ele>
        <time>2010-05-08T11:24:24Z</time>
      </trkpt>
      <trkpt lat="42.685938" lon="-1.616138">
        <ele>1138.8</ele>
        <time>2010-05-08T11:24:38Z</time>
      </trkpt>
      <trkpt lat="42.685871" lon="-1.616117">
        <ele>1140.3</ele>
        <time>2010-05-08T11:24:51Z</time>
      </trkpt>
      <trkpt lat="42.685869" lon="-1.616116">
        <ele>1140.3</ele>
        <time>2010-05-08T11:24:52Z</time>
      </trkpt>
      <trkpt lat="42.685820" lon="-1.616110">
        <ele>1142.2</ele>
        <time>2010-05-08T11:25:03Z</time>
      </trkpt>
      <trkpt lat="42.685774" lon="-1.616162">
        <ele>1144.1</ele>
        <time>2010-05-08T11:25:15Z</time>
      </trkpt>
      <trkpt lat="42.685731" lon="-1.616285">
        <ele>1146.5</ele>
        <time>2010-05-08T11:25:28Z</time>
      </trkpt>
      <trkpt lat="42.685699" lon="-1.616302">
        <ele>1147.0</ele>
        <time>2010-05-08T11:25:31Z</time>
      </trkpt>
      <trkpt lat="42.685697" lon="-1.616330">
        <ele>1147.5</ele>
        <time>2010-05-08T11:25:35Z</time>
      </trkpt>
      <trkpt lat="42.685655" lon="-1.616382">
        <ele>1148.4</ele>
        <time>2010-05-08T11:25:46Z</time>
      </trkpt>
      <trkpt lat="42.685601" lon="-1.616450">
        <ele>1147.9</ele>
        <time>2010-05-08T11:26:05Z</time>
      </trkpt>
      <trkpt lat="42.685570" lon="-1.616427">
        <ele>1147.5</ele>
        <time>2010-05-08T11:26:07Z</time>
      </trkpt>
      <trkpt lat="42.685475" lon="-1.616427">
        <ele>1144.6</ele>
        <time>2010-05-08T11:26:19Z</time>
      </trkpt>
      <trkpt lat="42.685447" lon="-1.616427">
        <ele>1144.1</ele>
        <time>2010-05-08T11:26:22Z</time>
      </trkpt>
      <trkpt lat="42.685449" lon="-1.616480">
        <ele>1142.7</ele>
        <time>2010-05-08T11:26:24Z</time>
      </trkpt>
      <trkpt lat="42.685334" lon="-1.616519">
        <ele>1141.7</ele>
        <time>2010-05-08T11:26:33Z</time>
      </trkpt>
      <trkpt lat="42.685341" lon="-1.616590">
        <ele>1141.7</ele>
        <time>2010-05-08T11:26:36Z</time>
      </trkpt>
      <trkpt lat="42.685324" lon="-1.616572">
        <ele>1141.2</ele>
        <time>2010-05-08T11:26:38Z</time>
      </trkpt>
      <trkpt lat="42.685231" lon="-1.616628">
        <ele>1139.8</ele>
        <time>2010-05-08T11:26:50Z</time>
      </trkpt>
      <trkpt lat="42.685144" lon="-1.616686">
        <ele>1138.8</ele>
        <time>2010-05-08T11:27:00Z</time>
      </trkpt>
      <trkpt lat="42.685136" lon="-1.616695">
        <ele>1138.8</ele>
        <time>2010-05-08T11:27:02Z</time>
      </trkpt>
      <trkpt lat="42.685093" lon="-1.616711">
        <ele>1138.3</ele>
        <time>2010-05-08T11:27:06Z</time>
      </trkpt>
      <trkpt lat="42.685061" lon="-1.616777">
        <ele>1135.9</ele>
        <time>2010-05-08T11:27:12Z</time>
      </trkpt>
      <trkpt lat="42.685031" lon="-1.616799">
        <ele>1135.4</ele>
        <time>2010-05-08T11:27:16Z</time>
      </trkpt>
      <trkpt lat="42.685005" lon="-1.616868">
        <ele>1133.5</ele>
        <time>2010-05-08T11:27:23Z</time>
      </trkpt>
      <trkpt lat="42.684982" lon="-1.616896">
        <ele>1132.6</ele>
        <time>2010-05-08T11:27:25Z</time>
      </trkpt>
      <trkpt lat="42.684928" lon="-1.616898">
        <ele>1131.6</ele>
        <time>2010-05-08T11:27:32Z</time>
      </trkpt>
      <trkpt lat="42.684925" lon="-1.616932">
        <ele>1130.7</ele>
        <time>2010-05-08T11:27:38Z</time>
      </trkpt>
      <trkpt lat="42.684783" lon="-1.616970">
        <ele>1127.3</ele>
        <time>2010-05-08T11:27:53Z</time>
      </trkpt>
      <trkpt lat="42.684779" lon="-1.616982">
        <ele>1127.3</ele>
        <time>2010-05-08T11:27:54Z</time>
      </trkpt>
      <trkpt lat="42.684738" lon="-1.617061">
        <ele>1123.4</ele>
        <time>2010-05-08T11:28:02Z</time>
      </trkpt>
      <trkpt lat="42.684693" lon="-1.617026">
        <ele>1122.5</ele>
        <time>2010-05-08T11:28:08Z</time>
      </trkpt>
      <trkpt lat="42.684690" lon="-1.617028">
        <ele>1122.5</ele>
        <time>2010-05-08T11:28:09Z</time>
      </trkpt>
      <trkpt lat="42.684667" lon="-1.617021">
        <ele>1122.0</ele>
        <time>2010-05-08T11:28:12Z</time>
      </trkpt>
      <trkpt lat="42.684636" lon="-1.617035">
        <ele>1122.0</ele>
        <time>2010-05-08T11:28:15Z</time>
      </trkpt>
      <trkpt lat="42.684632" lon="-1.617121">
        <ele>1118.2</ele>
        <time>2010-05-08T11:28:24Z</time>
      </trkpt>
      <trkpt lat="42.684595" lon="-1.617136">
        <ele>1116.7</ele>
        <time>2010-05-08T11:28:28Z</time>
      </trkpt>
      <trkpt lat="42.684574" lon="-1.617117">
        <ele>1116.2</ele>
        <time>2010-05-08T11:28:30Z</time>
      </trkpt>
      <trkpt lat="42.684500" lon="-1.617155">
        <ele>1114.3</ele>
        <time>2010-05-08T11:28:41Z</time>
      </trkpt>
      <trkpt lat="42.684460" lon="-1.617175">
        <ele>1112.4</ele>
        <time>2010-05-08T11:28:52Z</time>
      </trkpt>
      <trkpt lat="42.684406" lon="-1.617218">
        <ele>1109.0</ele>
        <time>2010-05-08T11:29:01Z</time>
      </trkpt>
      <trkpt lat="42.684349" lon="-1.617265">
        <ele>1107.1</ele>
        <time>2010-05-08T11:29:11Z</time>
      </trkpt>
      <trkpt lat="42.684269" lon="-1.617267">
        <ele>1104.2</ele>
        <time>2010-05-08T11:29:21Z</time>
      </trkpt>
      <trkpt lat="42.684211" lon="-1.617267">
        <ele>1101.8</ele>
        <time>2010-05-08T11:29:29Z</time>
      </trkpt>
      <trkpt lat="42.684105" lon="-1.617255">
        <ele>1098.9</ele>
        <time>2010-05-08T11:29:40Z</time>
      </trkpt>
      <trkpt lat="42.684063" lon="-1.617243">
        <ele>1098.0</ele>
        <time>2010-05-08T11:29:46Z</time>
      </trkpt>
      <trkpt lat="42.683970" lon="-1.617212">
        <ele>1094.1</ele>
        <time>2010-05-08T11:29:58Z</time>
      </trkpt>
      <trkpt lat="42.683946" lon="-1.617188">
        <ele>1094.1</ele>
        <time>2010-05-08T11:30:01Z</time>
      </trkpt>
      <trkpt lat="42.683901" lon="-1.617070">
        <ele>1093.2</ele>
        <time>2010-05-08T11:30:10Z</time>
      </trkpt>
      <trkpt lat="42.683848" lon="-1.616951">
        <ele>1089.3</ele>
        <time>2010-05-08T11:30:20Z</time>
      </trkpt>
      <trkpt lat="42.683819" lon="-1.616944">
        <ele>1088.3</ele>
        <time>2010-05-08T11:30:23Z</time>
      </trkpt>
      <trkpt lat="42.683789" lon="-1.616909">
        <ele>1086.9</ele>
        <time>2010-05-08T11:30:26Z</time>
      </trkpt>
      <trkpt lat="42.683768" lon="-1.616907">
        <ele>1085.5</ele>
        <time>2010-05-08T11:30:29Z</time>
      </trkpt>
      <trkpt lat="42.683749" lon="-1.616889">
        <ele>1085.0</ele>
        <time>2010-05-08T11:30:31Z</time>
      </trkpt>
      <trkpt lat="42.683689" lon="-1.616731">
        <ele>1083.5</ele>
        <time>2010-05-08T11:30:39Z</time>
      </trkpt>
      <trkpt lat="42.683595" lon="-1.616642">
        <ele>1079.2</ele>
        <time>2010-05-08T11:30:50Z</time>
      </trkpt>
      <trkpt lat="42.683586" lon="-1.616629">
        <ele>1077.3</ele>
        <time>2010-05-08T11:30:55Z</time>
      </trkpt>
      <trkpt lat="42.683583" lon="-1.616615">
        <ele>1076.8</ele>
        <time>2010-05-08T11:30:56Z</time>
      </trkpt>
      <trkpt lat="42.683573" lon="-1.616583">
        <ele>1076.3</ele>
        <time>2010-05-08T11:30:58Z</time>
      </trkpt>
      <trkpt lat="42.683548" lon="-1.616568">
        <ele>1073.0</ele>
        <time>2010-05-08T11:31:06Z</time>
      </trkpt>
      <trkpt lat="42.683531" lon="-1.616556">
        <ele>1072.0</ele>
        <time>2010-05-08T11:31:10Z</time>
      </trkpt>
      <trkpt lat="42.683464" lon="-1.616545">
        <ele>1067.7</ele>
        <time>2010-05-08T11:31:19Z</time>
      </trkpt>
      <trkpt lat="42.683443" lon="-1.616562">
        <ele>1067.2</ele>
        <time>2010-05-08T11:31:20Z</time>
      </trkpt>
      <trkpt lat="42.683407" lon="-1.616566">
        <ele>1065.3</ele>
        <time>2010-05-08T11:31:24Z</time>
      </trkpt>
      <trkpt lat="42.683316" lon="-1.616622">
        <ele>1061.4</ele>
        <time>2010-05-08T11:31:34Z</time>
      </trkpt>
      <trkpt lat="42.683268" lon="-1.616687">
        <ele>1059.5</ele>
        <time>2010-05-08T11:31:40Z</time>
      </trkpt>
      <trkpt lat="42.683250" lon="-1.616789">
        <ele>1058.1</ele>
        <time>2010-05-08T11:31:48Z</time>
      </trkpt>
      <trkpt lat="42.683212" lon="-1.616825">
        <ele>1056.2</ele>
        <time>2010-05-08T11:31:51Z</time>
      </trkpt>
      <trkpt lat="42.683180" lon="-1.616878">
        <ele>1054.2</ele>
        <time>2010-05-08T11:31:55Z</time>
      </trkpt>
      <trkpt lat="42.683174" lon="-1.616885">
        <ele>1053.7</ele>
        <time>2010-05-08T11:31:56Z</time>
      </trkpt>
      <trkpt lat="42.683146" lon="-1.617037">
        <ele>1051.8</ele>
        <time>2010-05-08T11:32:04Z</time>
      </trkpt>
      <trkpt lat="42.682978" lon="-1.617282">
        <ele>1051.8</ele>
        <time>2010-05-08T11:32:16Z</time>
      </trkpt>
      <trkpt lat="42.683041" lon="-1.617362">
        <ele>1052.8</ele>
        <time>2010-05-08T11:32:33Z</time>
      </trkpt>
      <trkpt lat="42.683041" lon="-1.617362">
        <ele>1052.3</ele>
        <time>2010-05-08T11:33:06Z</time>
      </trkpt>
      <trkpt lat="42.683005" lon="-1.617446">
        <ele>1052.3</ele>
        <time>2010-05-08T11:33:11Z</time>
      </trkpt>
      <trkpt lat="42.683001" lon="-1.617539">
        <ele>1052.3</ele>
        <time>2010-05-08T11:33:15Z</time>
      </trkpt>
      <trkpt lat="42.682995" lon="-1.617641">
        <ele>1050.9</ele>
        <time>2010-05-08T11:33:23Z</time>
      </trkpt>
      <trkpt lat="42.682938" lon="-1.617774">
        <ele>1049.9</ele>
        <time>2010-05-08T11:33:34Z</time>
      </trkpt>
      <trkpt lat="42.682983" lon="-1.617916">
        <ele>1049.9</ele>
        <time>2010-05-08T11:33:43Z</time>
      </trkpt>
      <trkpt lat="42.682942" lon="-1.618011">
        <ele>1050.4</ele>
        <time>2010-05-08T11:33:48Z</time>
      </trkpt>
      <trkpt lat="42.682926" lon="-1.618257">
        <ele>1049.4</ele>
        <time>2010-05-08T11:34:00Z</time>
      </trkpt>
      <trkpt lat="42.682893" lon="-1.618317">
        <ele>1049.4</ele>
        <time>2010-05-08T11:34:03Z</time>
      </trkpt>
      <trkpt lat="42.682852" lon="-1.618431">
        <ele>1048.4</ele>
        <time>2010-05-08T11:34:09Z</time>
      </trkpt>
      <trkpt lat="42.682837" lon="-1.618468">
        <ele>1048.4</ele>
        <time>2010-05-08T11:34:11Z</time>
      </trkpt>
      <trkpt lat="42.682825" lon="-1.618528">
        <ele>1048.0</ele>
        <time>2010-05-08T11:34:14Z</time>
      </trkpt>
      <trkpt lat="42.682753" lon="-1.618729">
        <ele>1050.4</ele>
        <time>2010-05-08T11:34:27Z</time>
      </trkpt>
      <trkpt lat="42.682737" lon="-1.618749">
        <ele>1051.3</ele>
        <time>2010-05-08T11:34:31Z</time>
      </trkpt>
      <trkpt lat="42.682810" lon="-1.618794">
        <ele>1053.7</ele>
        <time>2010-05-08T11:34:42Z</time>
      </trkpt>
      <trkpt lat="42.682953" lon="-1.618954">
        <ele>1055.2</ele>
        <time>2010-05-08T11:34:52Z</time>
      </trkpt>
      <trkpt lat="42.683092" lon="-1.619111">
        <ele>1055.7</ele>
        <time>2010-05-08T11:35:03Z</time>
      </trkpt>
      <trkpt lat="42.683201" lon="-1.619208">
        <ele>1056.6</ele>
        <time>2010-05-08T11:35:16Z</time>
      </trkpt>
      <trkpt lat="42.683326" lon="-1.619283">
        <ele>1055.7</ele>
        <time>2010-05-08T11:35:24Z</time>
      </trkpt>
      <trkpt lat="42.683382" lon="-1.619414">
        <ele>1055.2</ele>
        <time>2010-05-08T11:35:35Z</time>
      </trkpt>
      <trkpt lat="42.683364" lon="-1.619440">
        <ele>1055.2</ele>
        <time>2010-05-08T11:35:36Z</time>
      </trkpt>
      <trkpt lat="42.683420" lon="-1.619591">
        <ele>1054.7</ele>
        <time>2010-05-08T11:35:46Z</time>
      </trkpt>
      <trkpt lat="42.683428" lon="-1.619660">
        <ele>1055.2</ele>
        <time>2010-05-08T11:35:49Z</time>
      </trkpt>
      <trkpt lat="42.683441" lon="-1.619929">
        <ele>1055.7</ele>
        <time>2010-05-08T11:36:01Z</time>
      </trkpt>
      <trkpt lat="42.683449" lon="-1.620108">
        <ele>1057.1</ele>
        <time>2010-05-08T11:36:14Z</time>
      </trkpt>
      <trkpt lat="42.683448" lon="-1.620183">
        <ele>1058.1</ele>
        <time>2010-05-08T11:36:18Z</time>
      </trkpt>
      <trkpt lat="42.683471" lon="-1.620399">
        <ele>1059.0</ele>
        <time>2010-05-08T11:36:30Z</time>
      </trkpt>
      <trkpt lat="42.683461" lon="-1.620438">
        <ele>1060.0</ele>
        <time>2010-05-08T11:36:32Z</time>
      </trkpt>
      <trkpt lat="42.683451" lon="-1.620446">
        <ele>1060.5</ele>
        <time>2010-05-08T11:36:34Z</time>
      </trkpt>
      <trkpt lat="42.683518" lon="-1.620566">
        <ele>1061.9</ele>
        <time>2010-05-08T11:36:42Z</time>
      </trkpt>
      <trkpt lat="42.683501" lon="-1.620579">
        <ele>1061.4</ele>
        <time>2010-05-08T11:36:44Z</time>
      </trkpt>
      <trkpt lat="42.683515" lon="-1.620707">
        <ele>1063.4</ele>
        <time>2010-05-08T11:36:55Z</time>
      </trkpt>
      <trkpt lat="42.683511" lon="-1.620775">
        <ele>1064.3</ele>
        <time>2010-05-08T11:37:00Z</time>
      </trkpt>
      <trkpt lat="42.683493" lon="-1.620802">
        <ele>1066.2</ele>
        <time>2010-05-08T11:37:09Z</time>
      </trkpt>
      <trkpt lat="42.683495" lon="-1.620947">
        <ele>1068.2</ele>
        <time>2010-05-08T11:37:18Z</time>
      </trkpt>
      <trkpt lat="42.683486" lon="-1.620958">
        <ele>1069.1</ele>
        <time>2010-05-08T11:37:22Z</time>
      </trkpt>
      <trkpt lat="42.683487" lon="-1.621018">
        <ele>1071.1</ele>
        <time>2010-05-08T11:37:33Z</time>
      </trkpt>
      <trkpt lat="42.683511" lon="-1.621088">
        <ele>1072.5</ele>
        <time>2010-05-08T11:37:43Z</time>
      </trkpt>
      <trkpt lat="42.683561" lon="-1.621094">
        <ele>1074.4</ele>
        <time>2010-05-08T11:37:51Z</time>
      </trkpt>
      <trkpt lat="42.683559" lon="-1.621110">
        <ele>1075.8</ele>
        <time>2010-05-08T11:37:57Z</time>
      </trkpt>
      <trkpt lat="42.683537" lon="-1.621129">
        <ele>1077.8</ele>
        <time>2010-05-08T11:38:08Z</time>
      </trkpt>
      <trkpt lat="42.683525" lon="-1.621211">
        <ele>1080.2</ele>
        <time>2010-05-08T11:38:20Z</time>
      </trkpt>
      <trkpt lat="42.683485" lon="-1.621232">
        <ele>1081.1</ele>
        <time>2010-05-08T11:38:25Z</time>
      </trkpt>
      <trkpt lat="42.683494" lon="-1.621284">
        <ele>1081.6</ele>
        <time>2010-05-08T11:38:30Z</time>
      </trkpt>
      <trkpt lat="42.683452" lon="-1.621351">
        <ele>1083.5</ele>
        <time>2010-05-08T11:38:39Z</time>
      </trkpt>
      <trkpt lat="42.683434" lon="-1.621384">
        <ele>1083.5</ele>
        <time>2010-05-08T11:38:42Z</time>
      </trkpt>
      <trkpt lat="42.683428" lon="-1.621410">
        <ele>1083.5</ele>
        <time>2010-05-08T11:38:44Z</time>
      </trkpt>
      <trkpt lat="42.683366" lon="-1.621526">
        <ele>1085.5</ele>
        <time>2010-05-08T11:38:54Z</time>
      </trkpt>
      <trkpt lat="42.683384" lon="-1.621617">
        <ele>1086.4</ele>
        <time>2010-05-08T11:39:03Z</time>
      </trkpt>
      <trkpt lat="42.683355" lon="-1.621681">
        <ele>1086.4</ele>
        <time>2010-05-08T11:39:09Z</time>
      </trkpt>
      <trkpt lat="42.683367" lon="-1.621742">
        <ele>1087.9</ele>
        <time>2010-05-08T11:39:14Z</time>
      </trkpt>
      <trkpt lat="42.683414" lon="-1.621844">
        <ele>1090.3</ele>
        <time>2010-05-08T11:39:26Z</time>
      </trkpt>
      <trkpt lat="42.683440" lon="-1.621896">
        <ele>1091.7</ele>
        <time>2010-05-08T11:39:33Z</time>
      </trkpt>
      <trkpt lat="42.683434" lon="-1.621940">
        <ele>1091.7</ele>
        <time>2010-05-08T11:39:38Z</time>
      </trkpt>
      <trkpt lat="42.683419" lon="-1.622009">
        <ele>1093.2</ele>
        <time>2010-05-08T11:39:45Z</time>
      </trkpt>
      <trkpt lat="42.683380" lon="-1.622125">
        <ele>1093.2</ele>
        <time>2010-05-08T11:39:53Z</time>
      </trkpt>
      <trkpt lat="42.683361" lon="-1.622154">
        <ele>1092.7</ele>
        <time>2010-05-08T11:39:55Z</time>
      </trkpt>
      <trkpt lat="42.683339" lon="-1.622286">
        <ele>1093.2</ele>
        <time>2010-05-08T11:40:03Z</time>
      </trkpt>
      <trkpt lat="42.683247" lon="-1.622497">
        <ele>1094.6</ele>
        <time>2010-05-08T11:40:17Z</time>
      </trkpt>
      <trkpt lat="42.683195" lon="-1.622545">
        <ele>1095.1</ele>
        <time>2010-05-08T11:40:22Z</time>
      </trkpt>
      <trkpt lat="42.683075" lon="-1.622564">
        <ele>1096.0</ele>
        <time>2010-05-08T11:40:33Z</time>
      </trkpt>
      <trkpt lat="42.682961" lon="-1.622608">
        <ele>1096.0</ele>
        <time>2010-05-08T11:40:43Z</time>
      </trkpt>
      <trkpt lat="42.682886" lon="-1.622695">
        <ele>1097.0</ele>
        <time>2010-05-08T11:40:51Z</time>
      </trkpt>
      <trkpt lat="42.682826" lon="-1.622781">
        <ele>1095.1</ele>
        <time>2010-05-08T11:40:58Z</time>
      </trkpt>
      <trkpt lat="42.682788" lon="-1.622829">
        <ele>1096.5</ele>
        <time>2010-05-08T11:41:02Z</time>
      </trkpt>
      <trkpt lat="42.682659" lon="-1.622972">
        <ele>1097.0</ele>
        <time>2010-05-08T11:41:14Z</time>
      </trkpt>
      <trkpt lat="42.682649" lon="-1.622984">
        <ele>1097.0</ele>
        <time>2010-05-08T11:41:15Z</time>
      </trkpt>
      <trkpt lat="42.682555" lon="-1.623200">
        <ele>1098.4</ele>
        <time>2010-05-08T11:41:28Z</time>
      </trkpt>
      <trkpt lat="42.682532" lon="-1.623224">
        <ele>1099.4</ele>
        <time>2010-05-08T11:41:30Z</time>
      </trkpt>
      <trkpt lat="42.682402" lon="-1.623358">
        <ele>1101.3</ele>
        <time>2010-05-08T11:41:42Z</time>
      </trkpt>
      <trkpt lat="42.682253" lon="-1.623445">
        <ele>1101.8</ele>
        <time>2010-05-08T11:41:53Z</time>
      </trkpt>
      <trkpt lat="42.682254" lon="-1.623575">
        <ele>1103.7</ele>
        <time>2010-05-08T11:42:01Z</time>
      </trkpt>
      <trkpt lat="42.682254" lon="-1.623593">
        <ele>1103.7</ele>
        <time>2010-05-08T11:42:02Z</time>
      </trkpt>
      <trkpt lat="42.682240" lon="-1.623659">
        <ele>1103.7</ele>
        <time>2010-05-08T11:42:06Z</time>
      </trkpt>
      <trkpt lat="42.682216" lon="-1.623764">
        <ele>1105.2</ele>
        <time>2010-05-08T11:42:13Z</time>
      </trkpt>
      <trkpt lat="42.682187" lon="-1.623815">
        <ele>1105.2</ele>
        <time>2010-05-08T11:42:17Z</time>
      </trkpt>
      <trkpt lat="42.682172" lon="-1.623939">
        <ele>1106.6</ele>
        <time>2010-05-08T11:42:24Z</time>
      </trkpt>
      <trkpt lat="42.682152" lon="-1.624036">
        <ele>1106.6</ele>
        <time>2010-05-08T11:42:31Z</time>
      </trkpt>
      <trkpt lat="42.682119" lon="-1.624079">
        <ele>1107.6</ele>
        <time>2010-05-08T11:42:35Z</time>
      </trkpt>
      <trkpt lat="42.682114" lon="-1.624135">
        <ele>1108.5</ele>
        <time>2010-05-08T11:42:39Z</time>
      </trkpt>
      <trkpt lat="42.682103" lon="-1.624153">
        <ele>1108.5</ele>
        <time>2010-05-08T11:42:41Z</time>
      </trkpt>
      <trkpt lat="42.682004" lon="-1.624285">
        <ele>1110.5</ele>
        <time>2010-05-08T11:42:53Z</time>
      </trkpt>
      <trkpt lat="42.681986" lon="-1.624300">
        <ele>1110.9</ele>
        <time>2010-05-08T11:42:55Z</time>
      </trkpt>
      <trkpt lat="42.681938" lon="-1.624377">
        <ele>1112.4</ele>
        <time>2010-05-08T11:43:02Z</time>
      </trkpt>
      <trkpt lat="42.681931" lon="-1.624387">
        <ele>1110.9</ele>
        <time>2010-05-08T11:43:03Z</time>
      </trkpt>
      <trkpt lat="42.681922" lon="-1.624467">
        <ele>1112.4</ele>
        <time>2010-05-08T11:43:08Z</time>
      </trkpt>
      <trkpt lat="42.681842" lon="-1.624616">
        <ele>1113.8</ele>
        <time>2010-05-08T11:43:24Z</time>
      </trkpt>
      <trkpt lat="42.681810" lon="-1.624671">
        <ele>1111.9</ele>
        <time>2010-05-08T11:43:45Z</time>
      </trkpt>
      <trkpt lat="42.681753" lon="-1.624765">
        <ele>1110.5</ele>
        <time>2010-05-08T11:43:58Z</time>
      </trkpt>
      <trkpt lat="42.681682" lon="-1.624817">
        <ele>1111.4</ele>
        <time>2010-05-08T11:44:04Z</time>
      </trkpt>
      <trkpt lat="42.681605" lon="-1.624914">
        <ele>1111.4</ele>
        <time>2010-05-08T11:44:14Z</time>
      </trkpt>
      <trkpt lat="42.681500" lon="-1.624918">
        <ele>1110.5</ele>
        <time>2010-05-08T11:44:25Z</time>
      </trkpt>
      <trkpt lat="42.681500" lon="-1.624918">
        <ele>1110.5</ele>
        <time>2010-05-08T11:44:27Z</time>
      </trkpt>
      <trkpt lat="42.681492" lon="-1.624909">
        <ele>1109.0</ele>
        <time>2010-05-08T11:44:30Z</time>
      </trkpt>
      <trkpt lat="42.681474" lon="-1.624899">
        <ele>1108.5</ele>
        <time>2010-05-08T11:44:33Z</time>
      </trkpt>
      <trkpt lat="42.681422" lon="-1.624858">
        <ele>1108.1</ele>
        <time>2010-05-08T11:44:38Z</time>
      </trkpt>
      <trkpt lat="42.681416" lon="-1.624852">
        <ele>1106.6</ele>
        <time>2010-05-08T11:44:40Z</time>
      </trkpt>
      <trkpt lat="42.681397" lon="-1.624838">
        <ele>1106.6</ele>
        <time>2010-05-08T11:44:50Z</time>
      </trkpt>
      <trkpt lat="42.681417" lon="-1.624815">
        <ele>1107.1</ele>
        <time>2010-05-08T11:44:55Z</time>
      </trkpt>
      <trkpt lat="42.681390" lon="-1.624725">
        <ele>1107.1</ele>
        <time>2010-05-08T11:45:01Z</time>
      </trkpt>
      <trkpt lat="42.681422" lon="-1.624690">
        <ele>1107.6</ele>
        <time>2010-05-08T11:45:04Z</time>
      </trkpt>
      <trkpt lat="42.681346" lon="-1.624609">
        <ele>1105.2</ele>
        <time>2010-05-08T11:45:11Z</time>
      </trkpt>
      <trkpt lat="42.681330" lon="-1.624600">
        <ele>1105.7</ele>
        <time>2010-05-08T11:45:12Z</time>
      </trkpt>
      <trkpt lat="42.681281" lon="-1.624690">
        <ele>1104.7</ele>
        <time>2010-05-08T11:45:17Z</time>
      </trkpt>
      <trkpt lat="42.681251" lon="-1.624725">
        <ele>1104.2</ele>
        <time>2010-05-08T11:45:20Z</time>
      </trkpt>
      <trkpt lat="42.681166" lon="-1.624833">
        <ele>1102.8</ele>
        <time>2010-05-08T11:45:32Z</time>
      </trkpt>
      <trkpt lat="42.681152" lon="-1.624836">
        <ele>1101.8</ele>
        <time>2010-05-08T11:45:33Z</time>
      </trkpt>
      <trkpt lat="42.681093" lon="-1.624879">
        <ele>1099.9</ele>
        <time>2010-05-08T11:45:38Z</time>
      </trkpt>
      <trkpt lat="42.681082" lon="-1.624895">
        <ele>1100.8</ele>
        <time>2010-05-08T11:45:39Z</time>
      </trkpt>
      <trkpt lat="42.681060" lon="-1.624930">
        <ele>1099.9</ele>
        <time>2010-05-08T11:45:42Z</time>
      </trkpt>
      <trkpt lat="42.681018" lon="-1.624952">
        <ele>1098.4</ele>
        <time>2010-05-08T11:45:46Z</time>
      </trkpt>
      <trkpt lat="42.680982" lon="-1.625007">
        <ele>1099.4</ele>
        <time>2010-05-08T11:45:50Z</time>
      </trkpt>
      <trkpt lat="42.680949" lon="-1.625039">
        <ele>1097.5</ele>
        <time>2010-05-08T11:45:53Z</time>
      </trkpt>
      <trkpt lat="42.680914" lon="-1.625115">
        <ele>1096.0</ele>
        <time>2010-05-08T11:45:58Z</time>
      </trkpt>
      <trkpt lat="42.680882" lon="-1.625158">
        <ele>1095.1</ele>
        <time>2010-05-08T11:46:01Z</time>
      </trkpt>
      <trkpt lat="42.680862" lon="-1.625175">
        <ele>1093.6</ele>
        <time>2010-05-08T11:46:03Z</time>
      </trkpt>
      <trkpt lat="42.680778" lon="-1.625245">
        <ele>1092.7</ele>
        <time>2010-05-08T11:46:13Z</time>
      </trkpt>
      <trkpt lat="42.680738" lon="-1.625285">
        <ele>1091.7</ele>
        <time>2010-05-08T11:46:17Z</time>
      </trkpt>
      <trkpt lat="42.680666" lon="-1.625392">
        <ele>1090.3</ele>
        <time>2010-05-08T11:46:25Z</time>
      </trkpt>
      <trkpt lat="42.680607" lon="-1.625485">
        <ele>1088.3</ele>
        <time>2010-05-08T11:46:32Z</time>
      </trkpt>
      <trkpt lat="42.680597" lon="-1.625513">
        <ele>1088.3</ele>
        <time>2010-05-08T11:46:34Z</time>
      </trkpt>
      <trkpt lat="42.680525" lon="-1.625610">
        <ele>1085.9</ele>
        <time>2010-05-08T11:46:43Z</time>
      </trkpt>
      <trkpt lat="42.680471" lon="-1.625766">
        <ele>1083.1</ele>
        <time>2010-05-08T11:46:55Z</time>
      </trkpt>
      <trkpt lat="42.680464" lon="-1.625783">
        <ele>1083.1</ele>
        <time>2010-05-08T11:46:56Z</time>
      </trkpt>
      <trkpt lat="42.680382" lon="-1.625908">
        <ele>1080.7</ele>
        <time>2010-05-08T11:47:04Z</time>
      </trkpt>
      <trkpt lat="42.680373" lon="-1.625941">
        <ele>1080.2</ele>
        <time>2010-05-08T11:47:06Z</time>
      </trkpt>
      <trkpt lat="42.680249" lon="-1.626041">
        <ele>1076.3</ele>
        <time>2010-05-08T11:47:17Z</time>
      </trkpt>
      <trkpt lat="42.680214" lon="-1.626056">
        <ele>1076.8</ele>
        <time>2010-05-08T11:47:19Z</time>
      </trkpt>
      <trkpt lat="42.680188" lon="-1.626085">
        <ele>1076.3</ele>
        <time>2010-05-08T11:47:22Z</time>
      </trkpt>
      <trkpt lat="42.680115" lon="-1.626152">
        <ele>1074.4</ele>
        <time>2010-05-08T11:47:29Z</time>
      </trkpt>
      <trkpt lat="42.680065" lon="-1.626220">
        <ele>1072.5</ele>
        <time>2010-05-08T11:47:34Z</time>
      </trkpt>
      <trkpt lat="42.679999" lon="-1.626276">
        <ele>1071.5</ele>
        <time>2010-05-08T11:47:39Z</time>
      </trkpt>
      <trkpt lat="42.679955" lon="-1.626293">
        <ele>1070.6</ele>
        <time>2010-05-08T11:47:42Z</time>
      </trkpt>
      <trkpt lat="42.679932" lon="-1.626335">
        <ele>1070.6</ele>
        <time>2010-05-08T11:47:45Z</time>
      </trkpt>
      <trkpt lat="42.679812" lon="-1.626435">
        <ele>1068.6</ele>
        <time>2010-05-08T11:47:55Z</time>
      </trkpt>
      <trkpt lat="42.679696" lon="-1.626559">
        <ele>1067.7</ele>
        <time>2010-05-08T11:48:05Z</time>
      </trkpt>
      <trkpt lat="42.679636" lon="-1.626567">
        <ele>1065.3</ele>
        <time>2010-05-08T11:48:09Z</time>
      </trkpt>
      <trkpt lat="42.679570" lon="-1.626604">
        <ele>1064.3</ele>
        <time>2010-05-08T11:48:13Z</time>
      </trkpt>
      <trkpt lat="42.679559" lon="-1.626619">
        <ele>1063.4</ele>
        <time>2010-05-08T11:48:15Z</time>
      </trkpt>
      <trkpt lat="42.679466" lon="-1.626730">
        <ele>1062.9</ele>
        <time>2010-05-08T11:48:22Z</time>
      </trkpt>
      <trkpt lat="42.679392" lon="-1.626755">
        <ele>1061.4</ele>
        <time>2010-05-08T11:48:29Z</time>
      </trkpt>
      <trkpt lat="42.679294" lon="-1.626815">
        <ele>1060.0</ele>
        <time>2010-05-08T11:48:39Z</time>
      </trkpt>
      <trkpt lat="42.679197" lon="-1.626881">
        <ele>1058.1</ele>
        <time>2010-05-08T11:48:49Z</time>
      </trkpt>
      <trkpt lat="42.679160" lon="-1.626932">
        <ele>1057.1</ele>
        <time>2010-05-08T11:48:53Z</time>
      </trkpt>
      <trkpt lat="42.679142" lon="-1.626994">
        <ele>1056.6</ele>
        <time>2010-05-08T11:48:57Z</time>
      </trkpt>
      <trkpt lat="42.679080" lon="-1.627111">
        <ele>1054.2</ele>
        <time>2010-05-08T11:49:06Z</time>
      </trkpt>
      <trkpt lat="42.679035" lon="-1.627166">
        <ele>1053.7</ele>
        <time>2010-05-08T11:49:11Z</time>
      </trkpt>
      <trkpt lat="42.679016" lon="-1.627192">
        <ele>1052.8</ele>
        <time>2010-05-08T11:49:13Z</time>
      </trkpt>
      <trkpt lat="42.679008" lon="-1.627205">
        <ele>1053.7</ele>
        <time>2010-05-08T11:49:14Z</time>
      </trkpt>
      <trkpt lat="42.678958" lon="-1.627229">
        <ele>1052.8</ele>
        <time>2010-05-08T11:49:18Z</time>
      </trkpt>
      <trkpt lat="42.678846" lon="-1.627305">
        <ele>1051.8</ele>
        <time>2010-05-08T11:49:26Z</time>
      </trkpt>
      <trkpt lat="42.678828" lon="-1.627332">
        <ele>1050.9</ele>
        <time>2010-05-08T11:49:30Z</time>
      </trkpt>
      <trkpt lat="42.678816" lon="-1.627328">
        <ele>1051.3</ele>
        <time>2010-05-08T11:49:31Z</time>
      </trkpt>
      <trkpt lat="42.678734" lon="-1.627329">
        <ele>1051.8</ele>
        <time>2010-05-08T11:49:36Z</time>
      </trkpt>
      <trkpt lat="42.678642" lon="-1.627419">
        <ele>1050.9</ele>
        <time>2010-05-08T11:49:45Z</time>
      </trkpt>
      <trkpt lat="42.678623" lon="-1.627451">
        <ele>1049.4</ele>
        <time>2010-05-08T11:49:49Z</time>
      </trkpt>
      <trkpt lat="42.678601" lon="-1.627480">
        <ele>1049.9</ele>
        <time>2010-05-08T11:49:51Z</time>
      </trkpt>
      <trkpt lat="42.678494" lon="-1.627509">
        <ele>1049.4</ele>
        <time>2010-05-08T11:50:01Z</time>
      </trkpt>
      <trkpt lat="42.678408" lon="-1.627526">
        <ele>1048.4</ele>
        <time>2010-05-08T11:50:06Z</time>
      </trkpt>
      <trkpt lat="42.678394" lon="-1.627522">
        <ele>1048.9</ele>
        <time>2010-05-08T11:50:07Z</time>
      </trkpt>
      <trkpt lat="42.678343" lon="-1.627539">
        <ele>1049.4</ele>
        <time>2010-05-08T11:50:12Z</time>
      </trkpt>
      <trkpt lat="42.678317" lon="-1.627594">
        <ele>1048.9</ele>
        <time>2010-05-08T11:50:14Z</time>
      </trkpt>
      <trkpt lat="42.678128" lon="-1.627701">
        <ele>1046.1</ele>
        <time>2010-05-08T11:50:29Z</time>
      </trkpt>
      <trkpt lat="42.678083" lon="-1.627756">
        <ele>1045.1</ele>
        <time>2010-05-08T11:50:34Z</time>
      </trkpt>
      <trkpt lat="42.678039" lon="-1.627832">
        <ele>1044.1</ele>
        <time>2010-05-08T11:50:39Z</time>
      </trkpt>
      <trkpt lat="42.677904" lon="-1.627926">
        <ele>1042.7</ele>
        <time>2010-05-08T11:50:48Z</time>
      </trkpt>
      <trkpt lat="42.677811" lon="-1.627987">
        <ele>1041.7</ele>
        <time>2010-05-08T11:50:56Z</time>
      </trkpt>
      <trkpt lat="42.677793" lon="-1.628089">
        <ele>1041.2</ele>
        <time>2010-05-08T11:51:08Z</time>
      </trkpt>
      <trkpt lat="42.677784" lon="-1.628106">
        <ele>1040.3</ele>
        <time>2010-05-08T11:51:22Z</time>
      </trkpt>
      <trkpt lat="42.677783" lon="-1.628097">
        <ele>1040.3</ele>
        <time>2010-05-08T11:52:07Z</time>
      </trkpt>
      <trkpt lat="42.677780" lon="-1.628081">
        <ele>1041.2</ele>
        <time>2010-05-08T11:52:17Z</time>
      </trkpt>
      <trkpt lat="42.677782" lon="-1.628093">
        <ele>1041.2</ele>
        <time>2010-05-08T11:52:34Z</time>
      </trkpt>
      <trkpt lat="42.677774" lon="-1.628087">
        <ele>1040.8</ele>
        <time>2010-05-08T11:52:42Z</time>
      </trkpt>
      <trkpt lat="42.677709" lon="-1.628134">
        <ele>1039.8</ele>
        <time>2010-05-08T11:52:48Z</time>
      </trkpt>
      <trkpt lat="42.677645" lon="-1.628176">
        <ele>1039.8</ele>
        <time>2010-05-08T11:52:52Z</time>
      </trkpt>
      <trkpt lat="42.677612" lon="-1.628182">
        <ele>1038.8</ele>
        <time>2010-05-08T11:52:57Z</time>
      </trkpt>
      <trkpt lat="42.677507" lon="-1.628222">
        <ele>1035.5</ele>
        <time>2010-05-08T11:53:09Z</time>
      </trkpt>
      <trkpt lat="42.677447" lon="-1.628261">
        <ele>1035.0</ele>
        <time>2010-05-08T11:53:22Z</time>
      </trkpt>
      <trkpt lat="42.677433" lon="-1.628226">
        <ele>1035.0</ele>
        <time>2010-05-08T11:53:52Z</time>
      </trkpt>
      <trkpt lat="42.677445" lon="-1.628184">
        <ele>1034.5</ele>
        <time>2010-05-08T11:53:54Z</time>
      </trkpt>
      <trkpt lat="42.677474" lon="-1.628122">
        <ele>1032.1</ele>
        <time>2010-05-08T11:54:06Z</time>
      </trkpt>
      <trkpt lat="42.677488" lon="-1.628022">
        <ele>1029.2</ele>
        <time>2010-05-08T11:54:18Z</time>
      </trkpt>
      <trkpt lat="42.677482" lon="-1.627987">
        <ele>1027.8</ele>
        <time>2010-05-08T11:54:22Z</time>
      </trkpt>
      <trkpt lat="42.677471" lon="-1.627928">
        <ele>1024.4</ele>
        <time>2010-05-08T11:54:31Z</time>
      </trkpt>
      <trkpt lat="42.677470" lon="-1.627840">
        <ele>1022.0</ele>
        <time>2010-05-08T11:54:43Z</time>
      </trkpt>
      <trkpt lat="42.677481" lon="-1.627771">
        <ele>1019.6</ele>
        <time>2010-05-08T11:54:55Z</time>
      </trkpt>
      <trkpt lat="42.677459" lon="-1.627740">
        <ele>1017.7</ele>
        <time>2010-05-08T11:55:01Z</time>
      </trkpt>
      <trkpt lat="42.677452" lon="-1.627698">
        <ele>1016.2</ele>
        <time>2010-05-08T11:55:04Z</time>
      </trkpt>
      <trkpt lat="42.677469" lon="-1.627653">
        <ele>1012.9</ele>
        <time>2010-05-08T11:55:14Z</time>
      </trkpt>
      <trkpt lat="42.677378" lon="-1.627637">
        <ele>1009.5</ele>
        <time>2010-05-08T11:55:27Z</time>
      </trkpt>
      <trkpt lat="42.677355" lon="-1.627605">
        <ele>1007.1</ele>
        <time>2010-05-08T11:55:38Z</time>
      </trkpt>
      <trkpt lat="42.677312" lon="-1.627585">
        <ele>1004.2</ele>
        <time>2010-05-08T11:55:53Z</time>
      </trkpt>
      <trkpt lat="42.677264" lon="-1.627602">
        <ele>1002.8</ele>
        <time>2010-05-08T11:55:56Z</time>
      </trkpt>
      <trkpt lat="42.677261" lon="-1.627545">
        <ele>1000.9</ele>
        <time>2010-05-08T11:56:07Z</time>
      </trkpt>
      <trkpt lat="42.677226" lon="-1.627533">
        <ele>998.0</ele>
        <time>2010-05-08T11:56:17Z</time>
      </trkpt>
      <trkpt lat="42.677194" lon="-1.627485">
        <ele>994.6</ele>
        <time>2010-05-08T11:56:26Z</time>
      </trkpt>
      <trkpt lat="42.677144" lon="-1.627433">
        <ele>992.7</ele>
        <time>2010-05-08T11:56:37Z</time>
      </trkpt>
      <trkpt lat="42.677094" lon="-1.627355">
        <ele>988.8</ele>
        <time>2010-05-08T11:56:49Z</time>
      </trkpt>
      <trkpt lat="42.677077" lon="-1.627366">
        <ele>988.8</ele>
        <time>2010-05-08T11:56:50Z</time>
      </trkpt>
      <trkpt lat="42.677045" lon="-1.627376">
        <ele>986.9</ele>
        <time>2010-05-08T11:56:58Z</time>
      </trkpt>
      <trkpt lat="42.677011" lon="-1.627339">
        <ele>984.0</ele>
        <time>2010-05-08T11:57:08Z</time>
      </trkpt>
      <trkpt lat="42.676983" lon="-1.627302">
        <ele>982.1</ele>
        <time>2010-05-08T11:57:17Z</time>
      </trkpt>
      <trkpt lat="42.676949" lon="-1.627234">
        <ele>979.7</ele>
        <time>2010-05-08T11:57:30Z</time>
      </trkpt>
      <trkpt lat="42.676930" lon="-1.627174">
        <ele>977.3</ele>
        <time>2010-05-08T11:57:42Z</time>
      </trkpt>
      <trkpt lat="42.676865" lon="-1.627122">
        <ele>974.4</ele>
        <time>2010-05-08T11:57:54Z</time>
      </trkpt>
      <trkpt lat="42.676860" lon="-1.627069">
        <ele>974.9</ele>
        <time>2010-05-08T11:57:57Z</time>
      </trkpt>
      <trkpt lat="42.676769" lon="-1.626977">
        <ele>971.1</ele>
        <time>2010-05-08T11:58:08Z</time>
      </trkpt>
      <trkpt lat="42.676729" lon="-1.626895">
        <ele>968.7</ele>
        <time>2010-05-08T11:58:20Z</time>
      </trkpt>
      <trkpt lat="42.676699" lon="-1.626883">
        <ele>967.7</ele>
        <time>2010-05-08T11:58:22Z</time>
      </trkpt>
      <trkpt lat="42.676554" lon="-1.626794">
        <ele>963.9</ele>
        <time>2010-05-08T11:58:32Z</time>
      </trkpt>
      <trkpt lat="42.676528" lon="-1.626770">
        <ele>961.9</ele>
        <time>2010-05-08T11:58:36Z</time>
      </trkpt>
      <trkpt lat="42.676487" lon="-1.626625">
        <ele>959.5</ele>
        <time>2010-05-08T11:58:41Z</time>
      </trkpt>
      <trkpt lat="42.676435" lon="-1.626629">
        <ele>958.6</ele>
        <time>2010-05-08T11:58:45Z</time>
      </trkpt>
      <trkpt lat="42.676331" lon="-1.626552">
        <ele>954.2</ele>
        <time>2010-05-08T11:58:55Z</time>
      </trkpt>
      <trkpt lat="42.676296" lon="-1.626487">
        <ele>952.3</ele>
        <time>2010-05-08T11:59:00Z</time>
      </trkpt>
      <trkpt lat="42.676224" lon="-1.626378">
        <ele>949.4</ele>
        <time>2010-05-08T11:59:10Z</time>
      </trkpt>
      <trkpt lat="42.676157" lon="-1.626292">
        <ele>947.0</ele>
        <time>2010-05-08T11:59:19Z</time>
      </trkpt>
      <trkpt lat="42.676123" lon="-1.626245">
        <ele>947.0</ele>
        <time>2010-05-08T11:59:22Z</time>
      </trkpt>
      <trkpt lat="42.676099" lon="-1.626258">
        <ele>946.6</ele>
        <time>2010-05-08T11:59:25Z</time>
      </trkpt>
      <trkpt lat="42.676064" lon="-1.626279">
        <ele>946.1</ele>
        <time>2010-05-08T11:59:27Z</time>
      </trkpt>
      <trkpt lat="42.676012" lon="-1.626396">
        <ele>945.6</ele>
        <time>2010-05-08T11:59:34Z</time>
      </trkpt>
      <trkpt lat="42.676028" lon="-1.626453">
        <ele>945.6</ele>
        <time>2010-05-08T11:59:36Z</time>
      </trkpt>
      <trkpt lat="42.676047" lon="-1.626475">
        <ele>944.6</ele>
        <time>2010-05-08T11:59:38Z</time>
      </trkpt>
      <trkpt lat="42.676034" lon="-1.626506">
        <ele>945.1</ele>
        <time>2010-05-08T11:59:41Z</time>
      </trkpt>
      <trkpt lat="42.676055" lon="-1.626541">
        <ele>944.6</ele>
        <time>2010-05-08T11:59:43Z</time>
      </trkpt>
      <trkpt lat="42.676058" lon="-1.626627">
        <ele>943.7</ele>
        <time>2010-05-08T11:59:48Z</time>
      </trkpt>
      <trkpt lat="42.676011" lon="-1.626802">
        <ele>942.2</ele>
        <time>2010-05-08T11:59:57Z</time>
      </trkpt>
      <trkpt lat="42.675994" lon="-1.626842">
        <ele>942.2</ele>
        <time>2010-05-08T11:59:59Z</time>
      </trkpt>
      <trkpt lat="42.675933" lon="-1.626967">
        <ele>939.3</ele>
        <time>2010-05-08T12:00:09Z</time>
      </trkpt>
      <trkpt lat="42.675942" lon="-1.627056">
        <ele>939.3</ele>
        <time>2010-05-08T12:00:14Z</time>
      </trkpt>
      <trkpt lat="42.675881" lon="-1.627079">
        <ele>938.4</ele>
        <time>2010-05-08T12:00:17Z</time>
      </trkpt>
      <trkpt lat="42.675870" lon="-1.627153">
        <ele>937.9</ele>
        <time>2010-05-08T12:00:20Z</time>
      </trkpt>
      <trkpt lat="42.675784" lon="-1.627316">
        <ele>936.0</ele>
        <time>2010-05-08T12:00:30Z</time>
      </trkpt>
      <trkpt lat="42.675717" lon="-1.627392">
        <ele>934.5</ele>
        <time>2010-05-08T12:00:39Z</time>
      </trkpt>
      <trkpt lat="42.675711" lon="-1.627411">
        <ele>933.6</ele>
        <time>2010-05-08T12:00:40Z</time>
      </trkpt>
      <trkpt lat="42.675613" lon="-1.627384">
        <ele>933.6</ele>
        <time>2010-05-08T12:00:45Z</time>
      </trkpt>
      <trkpt lat="42.675515" lon="-1.627446">
        <ele>931.2</ele>
        <time>2010-05-08T12:00:53Z</time>
      </trkpt>
      <trkpt lat="42.675439" lon="-1.627495">
        <ele>931.2</ele>
        <time>2010-05-08T12:00:59Z</time>
      </trkpt>
      <trkpt lat="42.675293" lon="-1.627670">
        <ele>928.8</ele>
        <time>2010-05-08T12:01:09Z</time>
      </trkpt>
      <trkpt lat="42.675240" lon="-1.627740">
        <ele>927.3</ele>
        <time>2010-05-08T12:01:14Z</time>
      </trkpt>
      <trkpt lat="42.675119" lon="-1.627773">
        <ele>925.9</ele>
        <time>2010-05-08T12:01:22Z</time>
      </trkpt>
      <trkpt lat="42.675020" lon="-1.627903">
        <ele>922.0</ele>
        <time>2010-05-08T12:01:28Z</time>
      </trkpt>
      <trkpt lat="42.675013" lon="-1.627911">
        <ele>922.0</ele>
        <time>2010-05-08T12:01:29Z</time>
      </trkpt>
      <trkpt lat="42.674886" lon="-1.628015">
        <ele>918.7</ele>
        <time>2010-05-08T12:01:36Z</time>
      </trkpt>
      <trkpt lat="42.674744" lon="-1.628086">
        <ele>916.3</ele>
        <time>2010-05-08T12:01:44Z</time>
      </trkpt>
      <trkpt lat="42.674672" lon="-1.628109">
        <ele>914.3</ele>
        <time>2010-05-08T12:01:49Z</time>
      </trkpt>
      <trkpt lat="42.674576" lon="-1.628186">
        <ele>912.0</ele>
        <time>2010-05-08T12:01:55Z</time>
      </trkpt>
      <trkpt lat="42.674471" lon="-1.628223">
        <ele>910.0</ele>
        <time>2010-05-08T12:02:02Z</time>
      </trkpt>
      <trkpt lat="42.674329" lon="-1.628338">
        <ele>907.1</ele>
        <time>2010-05-08T12:02:12Z</time>
      </trkpt>
      <trkpt lat="42.674205" lon="-1.628481">
        <ele>903.8</ele>
        <time>2010-05-08T12:02:25Z</time>
      </trkpt>
      <trkpt lat="42.674129" lon="-1.628510">
        <ele>901.8</ele>
        <time>2010-05-08T12:02:33Z</time>
      </trkpt>
      <trkpt lat="42.674071" lon="-1.628607">
        <ele>899.9</ele>
        <time>2010-05-08T12:02:44Z</time>
      </trkpt>
      <trkpt lat="42.674077" lon="-1.628627">
        <ele>899.9</ele>
        <time>2010-05-08T12:02:45Z</time>
      </trkpt>
      <trkpt lat="42.673994" lon="-1.628789">
        <ele>896.6</ele>
        <time>2010-05-08T12:02:57Z</time>
      </trkpt>
      <trkpt lat="42.673900" lon="-1.628971">
        <ele>894.6</ele>
        <time>2010-05-08T12:03:08Z</time>
      </trkpt>
      <trkpt lat="42.673798" lon="-1.629097">
        <ele>891.8</ele>
        <time>2010-05-08T12:03:18Z</time>
      </trkpt>
      <trkpt lat="42.673751" lon="-1.629139">
        <ele>890.8</ele>
        <time>2010-05-08T12:03:22Z</time>
      </trkpt>
      <trkpt lat="42.673729" lon="-1.629143">
        <ele>890.3</ele>
        <time>2010-05-08T12:03:24Z</time>
      </trkpt>
      <trkpt lat="42.673574" lon="-1.629244">
        <ele>887.4</ele>
        <time>2010-05-08T12:03:37Z</time>
      </trkpt>
      <trkpt lat="42.673456" lon="-1.629370">
        <ele>885.5</ele>
        <time>2010-05-08T12:03:48Z</time>
      </trkpt>
      <trkpt lat="42.673371" lon="-1.629420">
        <ele>883.6</ele>
        <time>2010-05-08T12:03:56Z</time>
      </trkpt>
      <trkpt lat="42.673319" lon="-1.629441">
        <ele>883.1</ele>
        <time>2010-05-08T12:04:06Z</time>
      </trkpt>
      <trkpt lat="42.673186" lon="-1.629499">
        <ele>879.3</ele>
        <time>2010-05-08T12:04:19Z</time>
      </trkpt>
      <trkpt lat="42.673182" lon="-1.629502">
        <ele>879.3</ele>
        <time>2010-05-08T12:04:20Z</time>
      </trkpt>
      <trkpt lat="42.673063" lon="-1.629585">
        <ele>876.9</ele>
        <time>2010-05-08T12:04:31Z</time>
      </trkpt>
      <trkpt lat="42.673045" lon="-1.629596">
        <ele>876.4</ele>
        <time>2010-05-08T12:04:41Z</time>
      </trkpt>
      <trkpt lat="42.673079" lon="-1.629559">
        <ele>876.4</ele>
        <time>2010-05-08T12:04:46Z</time>
      </trkpt>
      <trkpt lat="42.673097" lon="-1.629553">
        <ele>877.8</ele>
        <time>2010-05-08T12:04:49Z</time>
      </trkpt>
      <trkpt lat="42.673028" lon="-1.629570">
        <ele>877.3</ele>
        <time>2010-05-08T12:05:04Z</time>
      </trkpt>
      <trkpt lat="42.672966" lon="-1.629592">
        <ele>874.5</ele>
        <time>2010-05-08T12:05:21Z</time>
      </trkpt>
      <trkpt lat="42.672982" lon="-1.629686">
        <ele>872.0</ele>
        <time>2010-05-08T12:05:31Z</time>
      </trkpt>
      <trkpt lat="42.672887" lon="-1.629611">
        <ele>869.7</ele>
        <time>2010-05-08T12:05:41Z</time>
      </trkpt>
      <trkpt lat="42.672824" lon="-1.629608">
        <ele>867.7</ele>
        <time>2010-05-08T12:05:46Z</time>
      </trkpt>
      <trkpt lat="42.672755" lon="-1.629672">
        <ele>865.3</ele>
        <time>2010-05-08T12:05:54Z</time>
      </trkpt>
      <trkpt lat="42.672672" lon="-1.629767">
        <ele>862.9</ele>
        <time>2010-05-08T12:06:05Z</time>
      </trkpt>
      <trkpt lat="42.672578" lon="-1.629817">
        <ele>860.0</ele>
        <time>2010-05-08T12:06:16Z</time>
      </trkpt>
      <trkpt lat="42.672504" lon="-1.629886">
        <ele>857.6</ele>
        <time>2010-05-08T12:06:25Z</time>
      </trkpt>
      <trkpt lat="42.672440" lon="-1.629944">
        <ele>856.2</ele>
        <time>2010-05-08T12:06:30Z</time>
      </trkpt>
      <trkpt lat="42.672407" lon="-1.629948">
        <ele>855.2</ele>
        <time>2010-05-08T12:06:33Z</time>
      </trkpt>
      <trkpt lat="42.672286" lon="-1.630082">
        <ele>851.4</ele>
        <time>2010-05-08T12:06:46Z</time>
      </trkpt>
      <trkpt lat="42.672211" lon="-1.630067">
        <ele>849.5</ele>
        <time>2010-05-08T12:06:53Z</time>
      </trkpt>
      <trkpt lat="42.672126" lon="-1.630119">
        <ele>846.6</ele>
        <time>2010-05-08T12:07:02Z</time>
      </trkpt>
      <trkpt lat="42.672041" lon="-1.630151">
        <ele>843.7</ele>
        <time>2010-05-08T12:07:11Z</time>
      </trkpt>
      <trkpt lat="42.671993" lon="-1.630184">
        <ele>842.7</ele>
        <time>2010-05-08T12:07:15Z</time>
      </trkpt>
      <trkpt lat="42.671913" lon="-1.630282">
        <ele>839.8</ele>
        <time>2010-05-08T12:07:27Z</time>
      </trkpt>
      <trkpt lat="42.671864" lon="-1.630341">
        <ele>837.9</ele>
        <time>2010-05-08T12:07:32Z</time>
      </trkpt>
      <trkpt lat="42.671775" lon="-1.630347">
        <ele>835.0</ele>
        <time>2010-05-08T12:07:43Z</time>
      </trkpt>
      <trkpt lat="42.671769" lon="-1.630352">
        <ele>835.0</ele>
        <time>2010-05-08T12:07:45Z</time>
      </trkpt>
      <trkpt lat="42.671686" lon="-1.630326">
        <ele>832.6</ele>
        <time>2010-05-08T12:07:50Z</time>
      </trkpt>
      <trkpt lat="42.671590" lon="-1.630304">
        <ele>829.8</ele>
        <time>2010-05-08T12:07:59Z</time>
      </trkpt>
      <trkpt lat="42.671536" lon="-1.630307">
        <ele>828.3</ele>
        <time>2010-05-08T12:08:04Z</time>
      </trkpt>
      <trkpt lat="42.671460" lon="-1.630471">
        <ele>825.0</ele>
        <time>2010-05-08T12:08:18Z</time>
      </trkpt>
      <trkpt lat="42.671399" lon="-1.630506">
        <ele>823.0</ele>
        <time>2010-05-08T12:08:26Z</time>
      </trkpt>
      <trkpt lat="42.671332" lon="-1.630550">
        <ele>819.7</ele>
        <time>2010-05-08T12:08:36Z</time>
      </trkpt>
      <trkpt lat="42.671243" lon="-1.630625">
        <ele>816.8</ele>
        <time>2010-05-08T12:08:48Z</time>
      </trkpt>
      <trkpt lat="42.671223" lon="-1.630629">
        <ele>816.8</ele>
        <time>2010-05-08T12:08:49Z</time>
      </trkpt>
      <trkpt lat="42.671183" lon="-1.630582">
        <ele>816.3</ele>
        <time>2010-05-08T12:08:51Z</time>
      </trkpt>
      <trkpt lat="42.671102" lon="-1.630647">
        <ele>814.4</ele>
        <time>2010-05-08T12:08:57Z</time>
      </trkpt>
      <trkpt lat="42.671063" lon="-1.630656">
        <ele>813.4</ele>
        <time>2010-05-08T12:09:02Z</time>
      </trkpt>
      <trkpt lat="42.670956" lon="-1.630727">
        <ele>810.0</ele>
        <time>2010-05-08T12:09:13Z</time>
      </trkpt>
      <trkpt lat="42.670821" lon="-1.630767">
        <ele>807.6</ele>
        <time>2010-05-08T12:09:25Z</time>
      </trkpt>
      <trkpt lat="42.670733" lon="-1.630778">
        <ele>804.8</ele>
        <time>2010-05-08T12:09:35Z</time>
      </trkpt>
      <trkpt lat="42.670649" lon="-1.630759">
        <ele>802.4</ele>
        <time>2010-05-08T12:09:41Z</time>
      </trkpt>
      <trkpt lat="42.670582" lon="-1.630774">
        <ele>800.9</ele>
        <time>2010-05-08T12:09:47Z</time>
      </trkpt>
      <trkpt lat="42.670488" lon="-1.630793">
        <ele>798.5</ele>
        <time>2010-05-08T12:09:55Z</time>
      </trkpt>
      <trkpt lat="42.670447" lon="-1.630826">
        <ele>797.5</ele>
        <time>2010-05-08T12:09:59Z</time>
      </trkpt>
      <trkpt lat="42.670343" lon="-1.630905">
        <ele>794.7</ele>
        <time>2010-05-08T12:10:10Z</time>
      </trkpt>
      <trkpt lat="42.670293" lon="-1.630916">
        <ele>792.7</ele>
        <time>2010-05-08T12:10:13Z</time>
      </trkpt>
      <trkpt lat="42.670181" lon="-1.630972">
        <ele>789.9</ele>
        <time>2010-05-08T12:10:24Z</time>
      </trkpt>
      <trkpt lat="42.670087" lon="-1.631015">
        <ele>787.0</ele>
        <time>2010-05-08T12:10:33Z</time>
      </trkpt>
      <trkpt lat="42.669933" lon="-1.631104">
        <ele>783.6</ele>
        <time>2010-05-08T12:10:45Z</time>
      </trkpt>
      <trkpt lat="42.669893" lon="-1.631093">
        <ele>783.6</ele>
        <time>2010-05-08T12:10:50Z</time>
      </trkpt>
      <trkpt lat="42.669783" lon="-1.631121">
        <ele>781.2</ele>
        <time>2010-05-08T12:10:57Z</time>
      </trkpt>
      <trkpt lat="42.669722" lon="-1.631218">
        <ele>780.2</ele>
        <time>2010-05-08T12:11:03Z</time>
      </trkpt>
      <trkpt lat="42.669547" lon="-1.631251">
        <ele>778.3</ele>
        <time>2010-05-08T12:11:16Z</time>
      </trkpt>
      <trkpt lat="42.669439" lon="-1.631351">
        <ele>775.0</ele>
        <time>2010-05-08T12:11:27Z</time>
      </trkpt>
      <trkpt lat="42.669439" lon="-1.631351">
        <ele>775.0</ele>
        <time>2010-05-08T12:11:28Z</time>
      </trkpt>
      <trkpt lat="42.669213" lon="-1.631339">
        <ele>772.6</ele>
        <time>2010-05-08T12:11:39Z</time>
      </trkpt>
      <trkpt lat="42.669041" lon="-1.631363">
        <ele>771.1</ele>
        <time>2010-05-08T12:11:50Z</time>
      </trkpt>
      <trkpt lat="42.668889" lon="-1.631419">
        <ele>768.2</ele>
        <time>2010-05-08T12:12:00Z</time>
      </trkpt>
      <trkpt lat="42.668773" lon="-1.631385">
        <ele>767.8</ele>
        <time>2010-05-08T12:12:06Z</time>
      </trkpt>
      <trkpt lat="42.668738" lon="-1.631416">
        <ele>767.8</ele>
        <time>2010-05-08T12:12:08Z</time>
      </trkpt>
      <trkpt lat="42.668583" lon="-1.631493">
        <ele>765.8</ele>
        <time>2010-05-08T12:12:20Z</time>
      </trkpt>
      <trkpt lat="42.668397" lon="-1.631487">
        <ele>763.4</ele>
        <time>2010-05-08T12:12:32Z</time>
      </trkpt>
      <trkpt lat="42.668302" lon="-1.631480">
        <ele>762.5</ele>
        <time>2010-05-08T12:12:37Z</time>
      </trkpt>
      <trkpt lat="42.668238" lon="-1.631539">
        <ele>762.0</ele>
        <time>2010-05-08T12:12:42Z</time>
      </trkpt>
      <trkpt lat="42.668213" lon="-1.631560">
        <ele>762.0</ele>
        <time>2010-05-08T12:12:44Z</time>
      </trkpt>
      <trkpt lat="42.668133" lon="-1.631540">
        <ele>761.0</ele>
        <time>2010-05-08T12:12:48Z</time>
      </trkpt>
      <trkpt lat="42.668072" lon="-1.631601">
        <ele>760.5</ele>
        <time>2010-05-08T12:12:53Z</time>
      </trkpt>
      <trkpt lat="42.668006" lon="-1.631649">
        <ele>759.6</ele>
        <time>2010-05-08T12:12:58Z</time>
      </trkpt>
      <trkpt lat="42.667957" lon="-1.631710">
        <ele>759.1</ele>
        <time>2010-05-08T12:13:02Z</time>
      </trkpt>
      <trkpt lat="42.667811" lon="-1.631845">
        <ele>756.7</ele>
        <time>2010-05-08T12:13:14Z</time>
      </trkpt>
      <trkpt lat="42.667652" lon="-1.631833">
        <ele>755.7</ele>
        <time>2010-05-08T12:13:25Z</time>
      </trkpt>
      <trkpt lat="42.667576" lon="-1.631767">
        <ele>757.2</ele>
        <time>2010-05-08T12:13:31Z</time>
      </trkpt>
      <trkpt lat="42.667402" lon="-1.631729">
        <ele>754.3</ele>
        <time>2010-05-08T12:13:43Z</time>
      </trkpt>
      <trkpt lat="42.667322" lon="-1.631712">
        <ele>753.8</ele>
        <time>2010-05-08T12:13:48Z</time>
      </trkpt>
      <trkpt lat="42.667074" lon="-1.631793">
        <ele>751.9</ele>
        <time>2010-05-08T12:14:03Z</time>
      </trkpt>
      <trkpt lat="42.666915" lon="-1.631869">
        <ele>751.4</ele>
        <time>2010-05-08T12:14:16Z</time>
      </trkpt>
      <trkpt lat="42.666880" lon="-1.631850">
        <ele>751.4</ele>
        <time>2010-05-08T12:14:18Z</time>
      </trkpt>
      <trkpt lat="42.666772" lon="-1.631862">
        <ele>750.0</ele>
        <time>2010-05-08T12:14:25Z</time>
      </trkpt>
      <trkpt lat="42.666746" lon="-1.631911">
        <ele>750.5</ele>
        <time>2010-05-08T12:14:29Z</time>
      </trkpt>
      <trkpt lat="42.666530" lon="-1.632031">
        <ele>748.0</ele>
        <time>2010-05-08T12:14:43Z</time>
      </trkpt>
      <trkpt lat="42.666419" lon="-1.632133">
        <ele>747.6</ele>
        <time>2010-05-08T12:14:51Z</time>
      </trkpt>
      <trkpt lat="42.666324" lon="-1.632265">
        <ele>744.7</ele>
        <time>2010-05-08T12:14:59Z</time>
      </trkpt>
      <trkpt lat="42.666177" lon="-1.632459">
        <ele>746.6</ele>
        <time>2010-05-08T12:15:15Z</time>
      </trkpt>
      <trkpt lat="42.666003" lon="-1.632607">
        <ele>744.7</ele>
        <time>2010-05-08T12:15:28Z</time>
      </trkpt>
      <trkpt lat="42.665964" lon="-1.632616">
        <ele>744.2</ele>
        <time>2010-05-08T12:15:30Z</time>
      </trkpt>
      <trkpt lat="42.665947" lon="-1.632649">
        <ele>743.2</ele>
        <time>2010-05-08T12:15:33Z</time>
      </trkpt>
      <trkpt lat="42.665879" lon="-1.632630">
        <ele>741.3</ele>
        <time>2010-05-08T12:15:39Z</time>
      </trkpt>
      <trkpt lat="42.665838" lon="-1.632645">
        <ele>740.3</ele>
        <time>2010-05-08T12:15:42Z</time>
      </trkpt>
      <trkpt lat="42.665716" lon="-1.632692">
        <ele>739.4</ele>
        <time>2010-05-08T12:15:50Z</time>
      </trkpt>
      <trkpt lat="42.665586" lon="-1.632699">
        <ele>738.0</ele>
        <time>2010-05-08T12:15:59Z</time>
      </trkpt>
      <trkpt lat="42.665549" lon="-1.632712">
        <ele>737.5</ele>
        <time>2010-05-08T12:16:02Z</time>
      </trkpt>
      <trkpt lat="42.665514" lon="-1.632683">
        <ele>737.5</ele>
        <time>2010-05-08T12:16:05Z</time>
      </trkpt>
      <trkpt lat="42.665430" lon="-1.632652">
        <ele>736.5</ele>
        <time>2010-05-08T12:16:11Z</time>
      </trkpt>
      <trkpt lat="42.665290" lon="-1.632655">
        <ele>734.1</ele>
        <time>2010-05-08T12:16:21Z</time>
      </trkpt>
      <trkpt lat="42.665255" lon="-1.632668">
        <ele>733.1</ele>
        <time>2010-05-08T12:16:23Z</time>
      </trkpt>
      <trkpt lat="42.665230" lon="-1.632667">
        <ele>732.7</ele>
        <time>2010-05-08T12:16:26Z</time>
      </trkpt>
      <trkpt lat="42.665135" lon="-1.632739">
        <ele>731.2</ele>
        <time>2010-05-08T12:16:34Z</time>
      </trkpt>
      <trkpt lat="42.665116" lon="-1.632794">
        <ele>730.3</ele>
        <time>2010-05-08T12:16:37Z</time>
      </trkpt>
      <trkpt lat="42.665039" lon="-1.632933">
        <ele>727.4</ele>
        <time>2010-05-08T12:16:47Z</time>
      </trkpt>
      <trkpt lat="42.664972" lon="-1.633120">
        <ele>725.5</ele>
        <time>2010-05-08T12:16:56Z</time>
      </trkpt>
      <trkpt lat="42.664847" lon="-1.633274">
        <ele>724.0</ele>
        <time>2010-05-08T12:17:05Z</time>
      </trkpt>
      <trkpt lat="42.664676" lon="-1.633301">
        <ele>722.6</ele>
        <time>2010-05-08T12:17:17Z</time>
      </trkpt>
      <trkpt lat="42.664613" lon="-1.633348">
        <ele>721.1</ele>
        <time>2010-05-08T12:17:24Z</time>
      </trkpt>
      <trkpt lat="42.664506" lon="-1.633314">
        <ele>719.7</ele>
        <time>2010-05-08T12:17:31Z</time>
      </trkpt>
      <trkpt lat="42.664346" lon="-1.633303">
        <ele>718.7</ele>
        <time>2010-05-08T12:17:43Z</time>
      </trkpt>
      <trkpt lat="42.664305" lon="-1.633322">
        <ele>719.2</ele>
        <time>2010-05-08T12:17:47Z</time>
      </trkpt>
      <trkpt lat="42.664117" lon="-1.633185">
        <ele>717.8</ele>
        <time>2010-05-08T12:18:00Z</time>
      </trkpt>
      <trkpt lat="42.664081" lon="-1.633141">
        <ele>717.3</ele>
        <time>2010-05-08T12:18:03Z</time>
      </trkpt>
      <trkpt lat="42.663979" lon="-1.633115">
        <ele>717.8</ele>
        <time>2010-05-08T12:18:07Z</time>
      </trkpt>
      <trkpt lat="42.663952" lon="-1.633085">
        <ele>717.3</ele>
        <time>2010-05-08T12:18:11Z</time>
      </trkpt>
      <trkpt lat="42.663933" lon="-1.633044">
        <ele>716.8</ele>
        <time>2010-05-08T12:18:14Z</time>
      </trkpt>
      <trkpt lat="42.663822" lon="-1.632953">
        <ele>716.8</ele>
        <time>2010-05-08T12:18:21Z</time>
      </trkpt>
      <trkpt lat="42.663788" lon="-1.632946">
        <ele>716.3</ele>
        <time>2010-05-08T12:18:25Z</time>
      </trkpt>
      <trkpt lat="42.663701" lon="-1.632928">
        <ele>715.4</ele>
        <time>2010-05-08T12:18:29Z</time>
      </trkpt>
      <trkpt lat="42.663589" lon="-1.632788">
        <ele>713.9</ele>
        <time>2010-05-08T12:18:36Z</time>
      </trkpt>
      <trkpt lat="42.663454" lon="-1.632712">
        <ele>712.5</ele>
        <time>2010-05-08T12:18:45Z</time>
      </trkpt>
      <trkpt lat="42.663431" lon="-1.632718">
        <ele>712.5</ele>
        <time>2010-05-08T12:18:48Z</time>
      </trkpt>
      <trkpt lat="42.663240" lon="-1.632657">
        <ele>711.0</ele>
        <time>2010-05-08T12:19:00Z</time>
      </trkpt>
      <trkpt lat="42.663155" lon="-1.632648">
        <ele>711.5</ele>
        <time>2010-05-08T12:19:04Z</time>
      </trkpt>
      <trkpt lat="42.663072" lon="-1.632651">
        <ele>710.5</ele>
        <time>2010-05-08T12:19:11Z</time>
      </trkpt>
      <trkpt lat="42.662922" lon="-1.632493">
        <ele>709.1</ele>
        <time>2010-05-08T12:19:20Z</time>
      </trkpt>
      <trkpt lat="42.662780" lon="-1.632422">
        <ele>709.1</ele>
        <time>2010-05-08T12:19:30Z</time>
      </trkpt>
      <trkpt lat="42.662619" lon="-1.632383">
        <ele>708.6</ele>
        <time>2010-05-08T12:19:41Z</time>
      </trkpt>
      <trkpt lat="42.662450" lon="-1.632307">
        <ele>708.2</ele>
        <time>2010-05-08T12:19:52Z</time>
      </trkpt>
      <trkpt lat="42.662390" lon="-1.632314">
        <ele>708.2</ele>
        <time>2010-05-08T12:19:56Z</time>
      </trkpt>
      <trkpt lat="42.662316" lon="-1.632209">
        <ele>707.7</ele>
        <time>2010-05-08T12:20:00Z</time>
      </trkpt>
      <trkpt lat="42.662217" lon="-1.632193">
        <ele>708.6</ele>
        <time>2010-05-08T12:20:10Z</time>
      </trkpt>
      <trkpt lat="42.662003" lon="-1.632008">
        <ele>708.2</ele>
        <time>2010-05-08T12:20:25Z</time>
      </trkpt>
      <trkpt lat="42.662001" lon="-1.631985">
        <ele>708.2</ele>
        <time>2010-05-08T12:20:26Z</time>
      </trkpt>
      <trkpt lat="42.661956" lon="-1.631879">
        <ele>707.2</ele>
        <time>2010-05-08T12:20:31Z</time>
      </trkpt>
      <trkpt lat="42.661919" lon="-1.631881">
        <ele>707.7</ele>
        <time>2010-05-08T12:20:34Z</time>
      </trkpt>
      <trkpt lat="42.661879" lon="-1.631848">
        <ele>707.2</ele>
        <time>2010-05-08T12:20:36Z</time>
      </trkpt>
      <trkpt lat="42.661746" lon="-1.631669">
        <ele>706.7</ele>
        <time>2010-05-08T12:20:48Z</time>
      </trkpt>
      <trkpt lat="42.661637" lon="-1.631492">
        <ele>704.8</ele>
        <time>2010-05-08T12:21:00Z</time>
      </trkpt>
      <trkpt lat="42.661596" lon="-1.631449">
        <ele>703.3</ele>
        <time>2010-05-08T12:21:03Z</time>
      </trkpt>
      <trkpt lat="42.661521" lon="-1.631374">
        <ele>700.5</ele>
        <time>2010-05-08T12:21:12Z</time>
      </trkpt>
      <trkpt lat="42.661513" lon="-1.631361">
        <ele>700.9</ele>
        <time>2010-05-08T12:21:13Z</time>
      </trkpt>
      <trkpt lat="42.661479" lon="-1.631319">
        <ele>701.4</ele>
        <time>2010-05-08T12:21:15Z</time>
      </trkpt>
      <trkpt lat="42.661440" lon="-1.631309">
        <ele>699.5</ele>
        <time>2010-05-08T12:21:17Z</time>
      </trkpt>
      <trkpt lat="42.661373" lon="-1.631180">
        <ele>698.0</ele>
        <time>2010-05-08T12:21:25Z</time>
      </trkpt>
      <trkpt lat="42.661294" lon="-1.631145">
        <ele>696.1</ele>
        <time>2010-05-08T12:21:31Z</time>
      </trkpt>
      <trkpt lat="42.661224" lon="-1.631034">
        <ele>695.7</ele>
        <time>2010-05-08T12:21:37Z</time>
      </trkpt>
      <trkpt lat="42.661121" lon="-1.630983">
        <ele>693.7</ele>
        <time>2010-05-08T12:21:45Z</time>
      </trkpt>
      <trkpt lat="42.660891" lon="-1.630831">
        <ele>690.8</ele>
        <time>2010-05-08T12:22:00Z</time>
      </trkpt>
      <trkpt lat="42.660832" lon="-1.630801">
        <ele>689.4</ele>
        <time>2010-05-08T12:22:05Z</time>
      </trkpt>
      <trkpt lat="42.660784" lon="-1.630782">
        <ele>688.4</ele>
        <time>2010-05-08T12:22:08Z</time>
      </trkpt>
      <trkpt lat="42.660712" lon="-1.630665">
        <ele>687.5</ele>
        <time>2010-05-08T12:22:13Z</time>
      </trkpt>
      <trkpt lat="42.660573" lon="-1.630570">
        <ele>685.1</ele>
        <time>2010-05-08T12:22:25Z</time>
      </trkpt>
      <trkpt lat="42.660465" lon="-1.630399">
        <ele>682.2</ele>
        <time>2010-05-08T12:22:35Z</time>
      </trkpt>
      <trkpt lat="42.660353" lon="-1.630351">
        <ele>680.3</ele>
        <time>2010-05-08T12:22:45Z</time>
      </trkpt>
      <trkpt lat="42.660196" lon="-1.630242">
        <ele>678.3</ele>
        <time>2010-05-08T12:22:54Z</time>
      </trkpt>
      <trkpt lat="42.660043" lon="-1.630045">
        <ele>675.0</ele>
        <time>2010-05-08T12:23:06Z</time>
      </trkpt>
      <trkpt lat="42.659931" lon="-1.629917">
        <ele>673.1</ele>
        <time>2010-05-08T12:23:14Z</time>
      </trkpt>
      <trkpt lat="42.659884" lon="-1.629863">
        <ele>671.6</ele>
        <time>2010-05-08T12:23:18Z</time>
      </trkpt>
      <trkpt lat="42.659695" lon="-1.629784">
        <ele>667.8</ele>
        <time>2010-05-08T12:23:30Z</time>
      </trkpt>
      <trkpt lat="42.659651" lon="-1.629768">
        <ele>667.8</ele>
        <time>2010-05-08T12:23:32Z</time>
      </trkpt>
      <trkpt lat="42.659567" lon="-1.629725">
        <ele>665.8</ele>
        <time>2010-05-08T12:23:38Z</time>
      </trkpt>
      <trkpt lat="42.659552" lon="-1.629664">
        <ele>665.8</ele>
        <time>2010-05-08T12:23:41Z</time>
      </trkpt>
      <trkpt lat="42.659483" lon="-1.629396">
        <ele>663.5</ele>
        <time>2010-05-08T12:23:53Z</time>
      </trkpt>
      <trkpt lat="42.659469" lon="-1.629363">
        <ele>663.5</ele>
        <time>2010-05-08T12:23:54Z</time>
      </trkpt>
      <trkpt lat="42.659306" lon="-1.629189">
        <ele>661.5</ele>
        <time>2010-05-08T12:24:06Z</time>
      </trkpt>
      <trkpt lat="42.659098" lon="-1.629049">
        <ele>658.6</ele>
        <time>2010-05-08T12:24:20Z</time>
      </trkpt>
      <trkpt lat="42.658974" lon="-1.628900">
        <ele>657.2</ele>
        <time>2010-05-08T12:24:31Z</time>
      </trkpt>
      <trkpt lat="42.658919" lon="-1.628803">
        <ele>655.8</ele>
        <time>2010-05-08T12:24:36Z</time>
      </trkpt>
      <trkpt lat="42.658856" lon="-1.628676">
        <ele>654.3</ele>
        <time>2010-05-08T12:24:42Z</time>
      </trkpt>
      <trkpt lat="42.658821" lon="-1.628610">
        <ele>653.8</ele>
        <time>2010-05-08T12:24:45Z</time>
      </trkpt>
      <trkpt lat="42.658754" lon="-1.628421">
        <ele>651.9</ele>
        <time>2010-05-08T12:24:55Z</time>
      </trkpt>
      <trkpt lat="42.658742" lon="-1.628399">
        <ele>651.9</ele>
        <time>2010-05-08T12:24:56Z</time>
      </trkpt>
      <trkpt lat="42.658681" lon="-1.628283">
        <ele>651.4</ele>
        <time>2010-05-08T12:25:01Z</time>
      </trkpt>
      <trkpt lat="42.658680" lon="-1.628249">
        <ele>651.0</ele>
        <time>2010-05-08T12:25:04Z</time>
      </trkpt>
      <trkpt lat="42.658686" lon="-1.628019">
        <ele>648.5</ele>
        <time>2010-05-08T12:25:16Z</time>
      </trkpt>
      <trkpt lat="42.658678" lon="-1.627913">
        <ele>649.0</ele>
        <time>2010-05-08T12:25:21Z</time>
      </trkpt>
      <trkpt lat="42.658694" lon="-1.627829">
        <ele>648.1</ele>
        <time>2010-05-08T12:25:24Z</time>
      </trkpt>
      <trkpt lat="42.658703" lon="-1.627671">
        <ele>646.1</ele>
        <time>2010-05-08T12:25:33Z</time>
      </trkpt>
      <trkpt lat="42.658698" lon="-1.627637">
        <ele>646.1</ele>
        <time>2010-05-08T12:25:35Z</time>
      </trkpt>
      <trkpt lat="42.658750" lon="-1.627514">
        <ele>646.1</ele>
        <time>2010-05-08T12:25:39Z</time>
      </trkpt>
      <trkpt lat="42.658778" lon="-1.627367">
        <ele>644.7</ele>
        <time>2010-05-08T12:25:48Z</time>
      </trkpt>
      <trkpt lat="42.658890" lon="-1.627284">
        <ele>644.7</ele>
        <time>2010-05-08T12:25:55Z</time>
      </trkpt>
      <trkpt lat="42.658953" lon="-1.627204">
        <ele>644.2</ele>
        <time>2010-05-08T12:26:01Z</time>
      </trkpt>
      <trkpt lat="42.659133" lon="-1.627165">
        <ele>644.2</ele>
        <time>2010-05-08T12:26:11Z</time>
      </trkpt>
      <trkpt lat="42.659275" lon="-1.627147">
        <ele>644.7</ele>
        <time>2010-05-08T12:26:20Z</time>
      </trkpt>
      <trkpt lat="42.659313" lon="-1.627128">
        <ele>644.7</ele>
        <time>2010-05-08T12:26:22Z</time>
      </trkpt>
      <trkpt lat="42.659378" lon="-1.627043">
        <ele>644.2</ele>
        <time>2010-05-08T12:26:28Z</time>
      </trkpt>
      <trkpt lat="42.659253" lon="-1.626831">
        <ele>643.3</ele>
        <time>2010-05-08T12:26:40Z</time>
      </trkpt>
      <trkpt lat="42.659088" lon="-1.626687">
        <ele>642.8</ele>
        <time>2010-05-08T12:26:52Z</time>
      </trkpt>
      <trkpt lat="42.659044" lon="-1.626630">
        <ele>640.9</ele>
        <time>2010-05-08T12:26:55Z</time>
      </trkpt>
      <trkpt lat="42.658947" lon="-1.626573">
        <ele>638.9</ele>
        <time>2010-05-08T12:27:03Z</time>
      </trkpt>
      <trkpt lat="42.659034" lon="-1.626384">
        <ele>638.5</ele>
        <time>2010-05-08T12:27:12Z</time>
      </trkpt>
      <trkpt lat="42.658970" lon="-1.626172">
        <ele>637.5</ele>
        <time>2010-05-08T12:27:22Z</time>
      </trkpt>
      <trkpt lat="42.658938" lon="-1.626193">
        <ele>637.5</ele>
        <time>2010-05-08T12:27:24Z</time>
      </trkpt>
      <trkpt lat="42.658909" lon="-1.626225">
        <ele>638.0</ele>
        <time>2010-05-08T12:27:26Z</time>
      </trkpt>
      <trkpt lat="42.658827" lon="-1.626073">
        <ele>638.5</ele>
        <time>2010-05-08T12:27:39Z</time>
      </trkpt>
      <trkpt lat="42.658842" lon="-1.626091">
        <ele>638.5</ele>
        <time>2010-05-08T12:27:44Z</time>
      </trkpt>
      <trkpt lat="42.658848" lon="-1.626139">
        <ele>637.5</ele>
        <time>2010-05-08T12:27:54Z</time>
      </trkpt>
      <trkpt lat="42.658850" lon="-1.626145">
        <ele>638.5</ele>
        <time>2010-05-08T12:28:25Z</time>
      </trkpt>
      <trkpt lat="42.658858" lon="-1.626108">
        <ele>638.5</ele>
        <time>2010-05-08T12:28:36Z</time>
      </trkpt>
      <trkpt lat="42.658862" lon="-1.626107">
        <ele>638.5</ele>
        <time>2010-05-08T12:28:38Z</time>
      </trkpt>
      <trkpt lat="42.658795" lon="-1.626046">
        <ele>639.4</ele>
        <time>2010-05-08T12:28:45Z</time>
      </trkpt>
      <trkpt lat="42.658533" lon="-1.625940">
        <ele>639.4</ele>
        <time>2010-05-08T12:29:01Z</time>
      </trkpt>
      <trkpt lat="42.658490" lon="-1.625941">
        <ele>638.9</ele>
        <time>2010-05-08T12:29:04Z</time>
      </trkpt>
      <trkpt lat="42.658476" lon="-1.625937">
        <ele>638.9</ele>
        <time>2010-05-08T12:29:06Z</time>
      </trkpt>
      <trkpt lat="42.658310" lon="-1.625863">
        <ele>639.4</ele>
        <time>2010-05-08T12:29:15Z</time>
      </trkpt>
      <trkpt lat="42.658129" lon="-1.625834">
        <ele>640.9</ele>
        <time>2010-05-08T12:29:29Z</time>
      </trkpt>
      <trkpt lat="42.658069" lon="-1.625841">
        <ele>641.8</ele>
        <time>2010-05-08T12:29:37Z</time>
      </trkpt>
      <trkpt lat="42.658082" lon="-1.625918">
        <ele>641.8</ele>
        <time>2010-05-08T12:29:41Z</time>
      </trkpt>
      <trkpt lat="42.657968" lon="-1.625927">
        <ele>642.8</ele>
        <time>2010-05-08T12:29:48Z</time>
      </trkpt>
      <trkpt lat="42.657935" lon="-1.625986">
        <ele>644.2</ele>
        <time>2010-05-08T12:29:55Z</time>
      </trkpt>
      <trkpt lat="42.657818" lon="-1.626000">
        <ele>645.7</ele>
        <time>2010-05-08T12:30:05Z</time>
      </trkpt>
      <trkpt lat="42.657776" lon="-1.626031">
        <ele>646.1</ele>
        <time>2010-05-08T12:30:08Z</time>
      </trkpt>
      <trkpt lat="42.657738" lon="-1.626046">
        <ele>647.6</ele>
        <time>2010-05-08T12:30:13Z</time>
      </trkpt>
      <trkpt lat="42.657714" lon="-1.626060">
        <ele>646.6</ele>
        <time>2010-05-08T12:30:15Z</time>
      </trkpt>
      <trkpt lat="42.657707" lon="-1.626077">
        <ele>648.1</ele>
        <time>2010-05-08T12:30:17Z</time>
      </trkpt>
      <trkpt lat="42.657656" lon="-1.626115">
        <ele>648.5</ele>
        <time>2010-05-08T12:30:21Z</time>
      </trkpt>
      <trkpt lat="42.657661" lon="-1.626153">
        <ele>648.1</ele>
        <time>2010-05-08T12:30:23Z</time>
      </trkpt>
      <trkpt lat="42.657642" lon="-1.626178">
        <ele>648.1</ele>
        <time>2010-05-08T12:30:25Z</time>
      </trkpt>
      <trkpt lat="42.657545" lon="-1.626385">
        <ele>647.6</ele>
        <time>2010-05-08T12:30:37Z</time>
      </trkpt>
      <trkpt lat="42.657432" lon="-1.626546">
        <ele>647.6</ele>
        <time>2010-05-08T12:30:49Z</time>
      </trkpt>
      <trkpt lat="42.657404" lon="-1.626585">
        <ele>648.5</ele>
        <time>2010-05-08T12:30:51Z</time>
      </trkpt>
      <trkpt lat="42.657399" lon="-1.626622">
        <ele>649.0</ele>
        <time>2010-05-08T12:30:55Z</time>
      </trkpt>
      <trkpt lat="42.657210" lon="-1.626741">
        <ele>650.0</ele>
        <time>2010-05-08T12:31:10Z</time>
      </trkpt>
      <trkpt lat="42.657184" lon="-1.626724">
        <ele>650.5</ele>
        <time>2010-05-08T12:31:12Z</time>
      </trkpt>
      <trkpt lat="42.657088" lon="-1.626682">
        <ele>650.0</ele>
        <time>2010-05-08T12:31:20Z</time>
      </trkpt>
      <trkpt lat="42.656938" lon="-1.626571">
        <ele>650.0</ele>
        <time>2010-05-08T12:31:31Z</time>
      </trkpt>
      <trkpt lat="42.656716" lon="-1.626484">
        <ele>650.5</ele>
        <time>2010-05-08T12:31:48Z</time>
      </trkpt>
      <trkpt lat="42.656509" lon="-1.626539">
        <ele>651.4</ele>
        <time>2010-05-08T12:32:01Z</time>
      </trkpt>
      <trkpt lat="42.656344" lon="-1.626558">
        <ele>651.4</ele>
        <time>2010-05-08T12:32:13Z</time>
      </trkpt>
      <trkpt lat="42.656147" lon="-1.626589">
        <ele>654.3</ele>
        <time>2010-05-08T12:32:28Z</time>
      </trkpt>
      <trkpt lat="42.656011" lon="-1.626629">
        <ele>655.3</ele>
        <time>2010-05-08T12:32:40Z</time>
      </trkpt>
      <trkpt lat="42.655969" lon="-1.626633">
        <ele>655.3</ele>
        <time>2010-05-08T12:32:42Z</time>
      </trkpt>
      <trkpt lat="42.655809" lon="-1.626575">
        <ele>656.7</ele>
        <time>2010-05-08T12:32:54Z</time>
      </trkpt>
      <trkpt lat="42.655677" lon="-1.626488">
        <ele>657.7</ele>
        <time>2010-05-08T12:33:05Z</time>
      </trkpt>
      <trkpt lat="42.655644" lon="-1.626459">
        <ele>658.2</ele>
        <time>2010-05-08T12:33:08Z</time>
      </trkpt>
      <trkpt lat="42.655543" lon="-1.626394">
        <ele>659.1</ele>
        <time>2010-05-08T12:33:17Z</time>
      </trkpt>
      <trkpt lat="42.655491" lon="-1.626321">
        <ele>659.6</ele>
        <time>2010-05-08T12:33:22Z</time>
      </trkpt>
      <trkpt lat="42.655405" lon="-1.626263">
        <ele>660.6</ele>
        <time>2010-05-08T12:33:28Z</time>
      </trkpt>
      <trkpt lat="42.655366" lon="-1.626233">
        <ele>661.0</ele>
        <time>2010-05-08T12:33:33Z</time>
      </trkpt>
      <trkpt lat="42.655299" lon="-1.626185">
        <ele>661.5</ele>
        <time>2010-05-08T12:33:38Z</time>
      </trkpt>
      <trkpt lat="42.655210" lon="-1.626150">
        <ele>663.0</ele>
        <time>2010-05-08T12:33:46Z</time>
      </trkpt>
      <trkpt lat="42.654997" lon="-1.625993">
        <ele>663.0</ele>
        <time>2010-05-08T12:34:04Z</time>
      </trkpt>
      <trkpt lat="42.654817" lon="-1.625909">
        <ele>662.5</ele>
        <time>2010-05-08T12:34:17Z</time>
      </trkpt>
      <trkpt lat="42.654594" lon="-1.625920">
        <ele>660.6</ele>
        <time>2010-05-08T12:34:31Z</time>
      </trkpt>
      <trkpt lat="42.654475" lon="-1.625977">
        <ele>660.6</ele>
        <time>2010-05-08T12:34:39Z</time>
      </trkpt>
      <trkpt lat="42.654329" lon="-1.626018">
        <ele>660.1</ele>
        <time>2010-05-08T12:34:49Z</time>
      </trkpt>
      <trkpt lat="42.654206" lon="-1.626106">
        <ele>658.6</ele>
        <time>2010-05-08T12:34:59Z</time>
      </trkpt>
      <trkpt lat="42.654093" lon="-1.626182">
        <ele>658.2</ele>
        <time>2010-05-08T12:35:08Z</time>
      </trkpt>
      <trkpt lat="42.653989" lon="-1.626235">
        <ele>656.2</ele>
        <time>2010-05-08T12:35:18Z</time>
      </trkpt>
      <trkpt lat="42.653959" lon="-1.626269">
        <ele>655.8</ele>
        <time>2010-05-08T12:35:20Z</time>
      </trkpt>
      <trkpt lat="42.653874" lon="-1.626305">
        <ele>655.3</ele>
        <time>2010-05-08T12:35:26Z</time>
      </trkpt>
      <trkpt lat="42.653853" lon="-1.626314">
        <ele>654.3</ele>
        <time>2010-05-08T12:35:29Z</time>
      </trkpt>
      <trkpt lat="42.653800" lon="-1.626385">
        <ele>653.8</ele>
        <time>2010-05-08T12:35:36Z</time>
      </trkpt>
      <trkpt lat="42.653747" lon="-1.626380">
        <ele>652.4</ele>
        <time>2010-05-08T12:35:40Z</time>
      </trkpt>
      <trkpt lat="42.653676" lon="-1.626409">
        <ele>651.9</ele>
        <time>2010-05-08T12:35:45Z</time>
      </trkpt>
      <trkpt lat="42.653553" lon="-1.626471">
        <ele>650.5</ele>
        <time>2010-05-08T12:35:55Z</time>
      </trkpt>
      <trkpt lat="42.653524" lon="-1.626446">
        <ele>650.5</ele>
        <time>2010-05-08T12:35:59Z</time>
      </trkpt>
      <trkpt lat="42.653331" lon="-1.626297">
        <ele>649.5</ele>
        <time>2010-05-08T12:36:13Z</time>
      </trkpt>
      <trkpt lat="42.653122" lon="-1.626290">
        <ele>648.5</ele>
        <time>2010-05-08T12:36:26Z</time>
      </trkpt>
      <trkpt lat="42.652920" lon="-1.626248">
        <ele>646.6</ele>
        <time>2010-05-08T12:36:42Z</time>
      </trkpt>
      <trkpt lat="42.652682" lon="-1.626184">
        <ele>646.6</ele>
        <time>2010-05-08T12:36:58Z</time>
      </trkpt>
      <trkpt lat="42.652608" lon="-1.626182">
        <ele>646.6</ele>
        <time>2010-05-08T12:37:04Z</time>
      </trkpt>
      <trkpt lat="42.652562" lon="-1.626234">
        <ele>646.1</ele>
        <time>2010-05-08T12:37:08Z</time>
      </trkpt>
      <trkpt lat="42.652418" lon="-1.626242">
        <ele>645.7</ele>
        <time>2010-05-08T12:37:18Z</time>
      </trkpt>
      <trkpt lat="42.652340" lon="-1.626203">
        <ele>645.2</ele>
        <time>2010-05-08T12:37:26Z</time>
      </trkpt>
      <trkpt lat="42.652103" lon="-1.626194">
        <ele>644.2</ele>
        <time>2010-05-08T12:37:39Z</time>
      </trkpt>
      <trkpt lat="42.652034" lon="-1.626067">
        <ele>645.2</ele>
        <time>2010-05-08T12:37:49Z</time>
      </trkpt>
      <trkpt lat="42.651974" lon="-1.626009">
        <ele>645.2</ele>
        <time>2010-05-08T12:38:05Z</time>
      </trkpt>
      <trkpt lat="42.651822" lon="-1.625978">
        <ele>644.7</ele>
        <time>2010-05-08T12:39:36Z</time>
      </trkpt>
      <trkpt lat="42.651892" lon="-1.626006">
        <ele>645.2</ele>
        <time>2010-05-08T12:40:28Z</time>
      </trkpt>
      <trkpt lat="42.651913" lon="-1.625992">
        <ele>645.7</ele>
        <time>2010-05-08T12:40:52Z</time>
      </trkpt>
      <trkpt lat="42.651845" lon="-1.625973">
        <ele>645.2</ele>
        <time>2010-05-08T12:41:08Z</time>
      </trkpt>
      <trkpt lat="42.651983" lon="-1.626031">
        <ele>644.7</ele>
        <time>2010-05-08T12:42:10Z</time>
      </trkpt>
      <trkpt lat="42.651946" lon="-1.626011">
        <ele>645.2</ele>
        <time>2010-05-08T12:42:21Z</time>
      </trkpt>
      <trkpt lat="42.651996" lon="-1.626003">
        <ele>645.7</ele>
        <time>2010-05-08T12:45:24Z</time>
      </trkpt>
      <trkpt lat="42.652005" lon="-1.626018">
        <ele>646.1</ele>
        <time>2010-05-08T12:45:50Z</time>
      </trkpt>
      <trkpt lat="42.651931" lon="-1.625998">
        <ele>645.7</ele>
        <time>2010-05-08T12:46:32Z</time>
      </trkpt>
      <trkpt lat="42.652035" lon="-1.626047">
        <ele>646.1</ele>
        <time>2010-05-08T12:46:52Z</time>
      </trkpt>
      <trkpt lat="42.652098" lon="-1.626025">
        <ele>646.1</ele>
        <time>2010-05-08T12:47:01Z</time>
      </trkpt>
      <trkpt lat="42.652137" lon="-1.626002">
        <ele>646.6</ele>
        <time>2010-05-08T12:47:13Z</time>
      </trkpt>
      <trkpt lat="42.652184" lon="-1.625868">
        <ele>648.1</ele>
        <time>2010-05-08T12:47:23Z</time>
      </trkpt>
      <trkpt lat="42.652272" lon="-1.625854">
        <ele>649.0</ele>
        <time>2010-05-08T12:47:31Z</time>
      </trkpt>
      <trkpt lat="42.652302" lon="-1.625887">
        <ele>649.5</ele>
        <time>2010-05-08T12:47:33Z</time>
      </trkpt>
      <trkpt lat="42.652311" lon="-1.625853">
        <ele>650.0</ele>
        <time>2010-05-08T12:47:36Z</time>
      </trkpt>
      <trkpt lat="42.652367" lon="-1.625776">
        <ele>650.5</ele>
        <time>2010-05-08T12:47:40Z</time>
      </trkpt>
      <trkpt lat="42.652367" lon="-1.625746">
        <ele>651.4</ele>
        <time>2010-05-08T12:47:44Z</time>
      </trkpt>
      <trkpt lat="42.652488" lon="-1.625680">
        <ele>651.9</ele>
        <time>2010-05-08T12:47:51Z</time>
      </trkpt>
      <trkpt lat="42.652519" lon="-1.625655">
        <ele>652.4</ele>
        <time>2010-05-08T12:47:56Z</time>
      </trkpt>
      <trkpt lat="42.652570" lon="-1.625480">
        <ele>654.3</ele>
        <time>2010-05-08T12:48:07Z</time>
      </trkpt>
      <trkpt lat="42.652584" lon="-1.625443">
        <ele>654.3</ele>
        <time>2010-05-08T12:48:10Z</time>
      </trkpt>
      <trkpt lat="42.652608" lon="-1.625413">
        <ele>655.3</ele>
        <time>2010-05-08T12:48:12Z</time>
      </trkpt>
      <trkpt lat="42.652635" lon="-1.625358">
        <ele>655.3</ele>
        <time>2010-05-08T12:48:16Z</time>
      </trkpt>
      <trkpt lat="42.652690" lon="-1.625198">
        <ele>656.7</ele>
        <time>2010-05-08T12:48:27Z</time>
      </trkpt>
      <trkpt lat="42.652730" lon="-1.625162">
        <ele>657.7</ele>
        <time>2010-05-08T12:48:32Z</time>
      </trkpt>
      <trkpt lat="42.652763" lon="-1.625046">
        <ele>659.6</ele>
        <time>2010-05-08T12:48:41Z</time>
      </trkpt>
      <trkpt lat="42.652770" lon="-1.625019">
        <ele>659.1</ele>
        <time>2010-05-08T12:48:43Z</time>
      </trkpt>
      <trkpt lat="42.652818" lon="-1.624940">
        <ele>660.1</ele>
        <time>2010-05-08T12:48:50Z</time>
      </trkpt>
      <trkpt lat="42.652887" lon="-1.624806">
        <ele>663.0</ele>
        <time>2010-05-08T12:49:02Z</time>
      </trkpt>
      <trkpt lat="42.652934" lon="-1.624731">
        <ele>663.9</ele>
        <time>2010-05-08T12:49:16Z</time>
      </trkpt>
      <trkpt lat="42.652934" lon="-1.624731">
        <ele>663.9</ele>
        <time>2010-05-08T12:49:27Z</time>
      </trkpt>
      <trkpt lat="42.652940" lon="-1.624674">
        <ele>664.4</ele>
        <time>2010-05-08T12:49:31Z</time>
      </trkpt>
      <trkpt lat="42.652954" lon="-1.624632">
        <ele>665.4</ele>
        <time>2010-05-08T12:49:34Z</time>
      </trkpt>
      <trkpt lat="42.652984" lon="-1.624495">
        <ele>665.8</ele>
        <time>2010-05-08T12:49:44Z</time>
      </trkpt>
      <trkpt lat="42.653088" lon="-1.624499">
        <ele>666.8</ele>
        <time>2010-05-08T12:49:47Z</time>
      </trkpt>
      <trkpt lat="42.653055" lon="-1.624395">
        <ele>666.8</ele>
        <time>2010-05-08T12:49:57Z</time>
      </trkpt>
      <trkpt lat="42.653099" lon="-1.624261">
        <ele>669.2</ele>
        <time>2010-05-08T12:50:09Z</time>
      </trkpt>
      <trkpt lat="42.653066" lon="-1.624217">
        <ele>670.7</ele>
        <time>2010-05-08T12:50:19Z</time>
      </trkpt>
      <trkpt lat="42.653040" lon="-1.624159">
        <ele>671.1</ele>
        <time>2010-05-08T12:50:22Z</time>
      </trkpt>
      <trkpt lat="42.653066" lon="-1.624084">
        <ele>672.1</ele>
        <time>2010-05-08T12:50:27Z</time>
      </trkpt>
      <trkpt lat="42.653087" lon="-1.624004">
        <ele>674.0</ele>
        <time>2010-05-08T12:50:35Z</time>
      </trkpt>
      <trkpt lat="42.653110" lon="-1.623984">
        <ele>674.5</ele>
        <time>2010-05-08T12:50:37Z</time>
      </trkpt>
      <trkpt lat="42.653162" lon="-1.623847">
        <ele>675.0</ele>
        <time>2010-05-08T12:50:46Z</time>
      </trkpt>
      <trkpt lat="42.653222" lon="-1.623714">
        <ele>676.9</ele>
        <time>2010-05-08T12:50:56Z</time>
      </trkpt>
      <trkpt lat="42.653280" lon="-1.623637">
        <ele>677.9</ele>
        <time>2010-05-08T12:51:04Z</time>
      </trkpt>
      <trkpt lat="42.653356" lon="-1.623596">
        <ele>678.8</ele>
        <time>2010-05-08T12:51:12Z</time>
      </trkpt>
      <trkpt lat="42.653411" lon="-1.623495">
        <ele>680.3</ele>
        <time>2010-05-08T12:51:18Z</time>
      </trkpt>
      <trkpt lat="42.653424" lon="-1.623400">
        <ele>681.7</ele>
        <time>2010-05-08T12:51:25Z</time>
      </trkpt>
      <trkpt lat="42.653454" lon="-1.623371">
        <ele>681.7</ele>
        <time>2010-05-08T12:51:27Z</time>
      </trkpt>
      <trkpt lat="42.653483" lon="-1.623299">
        <ele>683.6</ele>
        <time>2010-05-08T12:51:34Z</time>
      </trkpt>
      <trkpt lat="42.653515" lon="-1.623254">
        <ele>683.6</ele>
        <time>2010-05-08T12:51:37Z</time>
      </trkpt>
      <trkpt lat="42.653526" lon="-1.623235">
        <ele>684.1</ele>
        <time>2010-05-08T12:51:39Z</time>
      </trkpt>
      <trkpt lat="42.653609" lon="-1.623132">
        <ele>685.6</ele>
        <time>2010-05-08T12:51:50Z</time>
      </trkpt>
      <trkpt lat="42.653621" lon="-1.623108">
        <ele>686.0</ele>
        <time>2010-05-08T12:51:54Z</time>
      </trkpt>
      <trkpt lat="42.653641" lon="-1.623072">
        <ele>687.0</ele>
        <time>2010-05-08T12:51:57Z</time>
      </trkpt>
      <trkpt lat="42.653677" lon="-1.622953">
        <ele>688.0</ele>
        <time>2010-05-08T12:52:04Z</time>
      </trkpt>
      <trkpt lat="42.653705" lon="-1.622895">
        <ele>688.9</ele>
        <time>2010-05-08T12:52:09Z</time>
      </trkpt>
      <trkpt lat="42.653729" lon="-1.622865">
        <ele>689.4</ele>
        <time>2010-05-08T12:52:11Z</time>
      </trkpt>
      <trkpt lat="42.653738" lon="-1.622804">
        <ele>690.4</ele>
        <time>2010-05-08T12:52:16Z</time>
      </trkpt>
      <trkpt lat="42.653732" lon="-1.622754">
        <ele>690.4</ele>
        <time>2010-05-08T12:52:18Z</time>
      </trkpt>
      <trkpt lat="42.653785" lon="-1.622716">
        <ele>691.8</ele>
        <time>2010-05-08T12:52:25Z</time>
      </trkpt>
      <trkpt lat="42.653781" lon="-1.622683">
        <ele>692.8</ele>
        <time>2010-05-08T12:52:27Z</time>
      </trkpt>
      <trkpt lat="42.653822" lon="-1.622571">
        <ele>694.2</ele>
        <time>2010-05-08T12:52:38Z</time>
      </trkpt>
      <trkpt lat="42.653861" lon="-1.622513">
        <ele>695.7</ele>
        <time>2010-05-08T12:52:49Z</time>
      </trkpt>
      <trkpt lat="42.653897" lon="-1.622361">
        <ele>697.1</ele>
        <time>2010-05-08T12:53:01Z</time>
      </trkpt>
      <trkpt lat="42.653904" lon="-1.622271">
        <ele>698.0</ele>
        <time>2010-05-08T12:53:11Z</time>
      </trkpt>
      <trkpt lat="42.653893" lon="-1.622185">
        <ele>699.0</ele>
        <time>2010-05-08T12:53:16Z</time>
      </trkpt>
      <trkpt lat="42.653893" lon="-1.622018">
        <ele>700.5</ele>
        <time>2010-05-08T12:53:28Z</time>
      </trkpt>
      <trkpt lat="42.653924" lon="-1.621905">
        <ele>702.4</ele>
        <time>2010-05-08T12:53:37Z</time>
      </trkpt>
      <trkpt lat="42.653938" lon="-1.621852">
        <ele>703.3</ele>
        <time>2010-05-08T12:53:41Z</time>
      </trkpt>
      <trkpt lat="42.654007" lon="-1.621733">
        <ele>704.8</ele>
        <time>2010-05-08T12:53:52Z</time>
      </trkpt>
      <trkpt lat="42.654015" lon="-1.621739">
        <ele>705.3</ele>
        <time>2010-05-08T12:53:53Z</time>
      </trkpt>
      <trkpt lat="42.654048" lon="-1.621692">
        <ele>706.2</ele>
        <time>2010-05-08T12:53:57Z</time>
      </trkpt>
      <trkpt lat="42.654091" lon="-1.621659">
        <ele>706.7</ele>
        <time>2010-05-08T12:54:02Z</time>
      </trkpt>
      <trkpt lat="42.654119" lon="-1.621604">
        <ele>706.7</ele>
        <time>2010-05-08T12:54:07Z</time>
      </trkpt>
      <trkpt lat="42.654127" lon="-1.621599">
        <ele>707.7</ele>
        <time>2010-05-08T12:54:09Z</time>
      </trkpt>
      <trkpt lat="42.654154" lon="-1.621538">
        <ele>708.2</ele>
        <time>2010-05-08T12:54:13Z</time>
      </trkpt>
      <trkpt lat="42.654143" lon="-1.621497">
        <ele>708.2</ele>
        <time>2010-05-08T12:54:15Z</time>
      </trkpt>
      <trkpt lat="42.654110" lon="-1.621438">
        <ele>710.1</ele>
        <time>2010-05-08T12:54:21Z</time>
      </trkpt>
      <trkpt lat="42.654117" lon="-1.621395">
        <ele>710.5</ele>
        <time>2010-05-08T12:54:23Z</time>
      </trkpt>
      <trkpt lat="42.654204" lon="-1.621306">
        <ele>711.5</ele>
        <time>2010-05-08T12:54:33Z</time>
      </trkpt>
      <trkpt lat="42.654272" lon="-1.621196">
        <ele>713.0</ele>
        <time>2010-05-08T12:54:40Z</time>
      </trkpt>
      <trkpt lat="42.654286" lon="-1.621126">
        <ele>713.0</ele>
        <time>2010-05-08T12:54:44Z</time>
      </trkpt>
      <trkpt lat="42.654296" lon="-1.621086">
        <ele>713.4</ele>
        <time>2010-05-08T12:54:46Z</time>
      </trkpt>
      <trkpt lat="42.654322" lon="-1.620961">
        <ele>714.4</ele>
        <time>2010-05-08T12:54:55Z</time>
      </trkpt>
      <trkpt lat="42.654343" lon="-1.620921">
        <ele>714.9</ele>
        <time>2010-05-08T12:54:58Z</time>
      </trkpt>
      <trkpt lat="42.654402" lon="-1.620779">
        <ele>716.3</ele>
        <time>2010-05-08T12:55:10Z</time>
      </trkpt>
      <trkpt lat="42.654396" lon="-1.620764">
        <ele>717.8</ele>
        <time>2010-05-08T12:55:11Z</time>
      </trkpt>
      <trkpt lat="42.654407" lon="-1.620738">
        <ele>717.8</ele>
        <time>2010-05-08T12:55:14Z</time>
      </trkpt>
      <trkpt lat="42.654436" lon="-1.620631">
        <ele>721.1</ele>
        <time>2010-05-08T12:55:24Z</time>
      </trkpt>
      <trkpt lat="42.654509" lon="-1.620555">
        <ele>722.1</ele>
        <time>2010-05-08T12:55:29Z</time>
      </trkpt>
      <trkpt lat="42.654506" lon="-1.620484">
        <ele>723.0</ele>
        <time>2010-05-08T12:55:35Z</time>
      </trkpt>
      <trkpt lat="42.654498" lon="-1.620430">
        <ele>723.0</ele>
        <time>2010-05-08T12:55:37Z</time>
      </trkpt>
      <trkpt lat="42.654552" lon="-1.620407">
        <ele>724.0</ele>
        <time>2010-05-08T12:55:42Z</time>
      </trkpt>
      <trkpt lat="42.654570" lon="-1.620398">
        <ele>725.0</ele>
        <time>2010-05-08T12:55:46Z</time>
      </trkpt>
      <trkpt lat="42.654658" lon="-1.620351">
        <ele>725.5</ele>
        <time>2010-05-08T12:55:52Z</time>
      </trkpt>
      <trkpt lat="42.654651" lon="-1.620332">
        <ele>726.4</ele>
        <time>2010-05-08T12:55:54Z</time>
      </trkpt>
      <trkpt lat="42.654720" lon="-1.620177">
        <ele>727.9</ele>
        <time>2010-05-08T12:56:04Z</time>
      </trkpt>
      <trkpt lat="42.654766" lon="-1.620118">
        <ele>728.8</ele>
        <time>2010-05-08T12:56:09Z</time>
      </trkpt>
      <trkpt lat="42.654808" lon="-1.620083">
        <ele>729.3</ele>
        <time>2010-05-08T12:56:15Z</time>
      </trkpt>
      <trkpt lat="42.654833" lon="-1.619983">
        <ele>730.7</ele>
        <time>2010-05-08T12:56:22Z</time>
      </trkpt>
      <trkpt lat="42.654871" lon="-1.619915">
        <ele>732.7</ele>
        <time>2010-05-08T12:56:31Z</time>
      </trkpt>
      <trkpt lat="42.654887" lon="-1.619907">
        <ele>732.7</ele>
        <time>2010-05-08T12:56:32Z</time>
      </trkpt>
      <trkpt lat="42.654924" lon="-1.619876">
        <ele>734.6</ele>
        <time>2010-05-08T12:56:39Z</time>
      </trkpt>
      <trkpt lat="42.655007" lon="-1.619844">
        <ele>736.0</ele>
        <time>2010-05-08T12:56:47Z</time>
      </trkpt>
      <trkpt lat="42.655017" lon="-1.619833">
        <ele>736.0</ele>
        <time>2010-05-08T12:56:48Z</time>
      </trkpt>
      <trkpt lat="42.655064" lon="-1.619789">
        <ele>737.0</ele>
        <time>2010-05-08T12:56:53Z</time>
      </trkpt>
      <trkpt lat="42.655086" lon="-1.619721">
        <ele>738.9</ele>
        <time>2010-05-08T12:57:03Z</time>
      </trkpt>
      <trkpt lat="42.655099" lon="-1.619709">
        <ele>739.9</ele>
        <time>2010-05-08T12:57:04Z</time>
      </trkpt>
      <trkpt lat="42.655112" lon="-1.619733">
        <ele>740.3</ele>
        <time>2010-05-08T12:57:08Z</time>
      </trkpt>
      <trkpt lat="42.655160" lon="-1.619677">
        <ele>741.3</ele>
        <time>2010-05-08T12:57:14Z</time>
      </trkpt>
      <trkpt lat="42.655186" lon="-1.619631">
        <ele>743.2</ele>
        <time>2010-05-08T12:57:24Z</time>
      </trkpt>
      <trkpt lat="42.655246" lon="-1.619567">
        <ele>744.7</ele>
        <time>2010-05-08T12:57:33Z</time>
      </trkpt>
      <trkpt lat="42.655290" lon="-1.619556">
        <ele>746.1</ele>
        <time>2010-05-08T12:57:38Z</time>
      </trkpt>
      <trkpt lat="42.655315" lon="-1.619523">
        <ele>747.6</ele>
        <time>2010-05-08T12:57:44Z</time>
      </trkpt>
      <trkpt lat="42.655328" lon="-1.619487">
        <ele>749.0</ele>
        <time>2010-05-08T12:57:50Z</time>
      </trkpt>
      <trkpt lat="42.655388" lon="-1.619433">
        <ele>751.4</ele>
        <time>2010-05-08T12:58:02Z</time>
      </trkpt>
      <trkpt lat="42.655450" lon="-1.619405">
        <ele>753.3</ele>
        <time>2010-05-08T12:58:11Z</time>
      </trkpt>
      <trkpt lat="42.655452" lon="-1.619383">
        <ele>754.3</ele>
        <time>2010-05-08T12:58:14Z</time>
      </trkpt>
      <trkpt lat="42.655504" lon="-1.619302">
        <ele>756.7</ele>
        <time>2010-05-08T12:58:25Z</time>
      </trkpt>
      <trkpt lat="42.655542" lon="-1.619261">
        <ele>758.6</ele>
        <time>2010-05-08T12:58:35Z</time>
      </trkpt>
      <trkpt lat="42.655562" lon="-1.619246">
        <ele>759.6</ele>
        <time>2010-05-08T12:58:40Z</time>
      </trkpt>
      <trkpt lat="42.655595" lon="-1.619192">
        <ele>761.5</ele>
        <time>2010-05-08T12:58:50Z</time>
      </trkpt>
      <trkpt lat="42.655655" lon="-1.619179">
        <ele>763.9</ele>
        <time>2010-05-08T12:59:01Z</time>
      </trkpt>
      <trkpt lat="42.655715" lon="-1.619131">
        <ele>765.8</ele>
        <time>2010-05-08T12:59:12Z</time>
      </trkpt>
      <trkpt lat="42.655756" lon="-1.619120">
        <ele>767.3</ele>
        <time>2010-05-08T12:59:17Z</time>
      </trkpt>
      <trkpt lat="42.655802" lon="-1.619110">
        <ele>769.2</ele>
        <time>2010-05-08T12:59:30Z</time>
      </trkpt>
      <trkpt lat="42.655858" lon="-1.619083">
        <ele>771.6</ele>
        <time>2010-05-08T12:59:41Z</time>
      </trkpt>
      <trkpt lat="42.655906" lon="-1.619058">
        <ele>773.0</ele>
        <time>2010-05-08T12:59:47Z</time>
      </trkpt>
      <trkpt lat="42.655916" lon="-1.619055">
        <ele>775.9</ele>
        <time>2010-05-08T12:59:58Z</time>
      </trkpt>
      <trkpt lat="42.655963" lon="-1.618999">
        <ele>776.9</ele>
        <time>2010-05-08T13:00:05Z</time>
      </trkpt>
      <trkpt lat="42.655952" lon="-1.618957">
        <ele>777.8</ele>
        <time>2010-05-08T13:00:10Z</time>
      </trkpt>
      <trkpt lat="42.655945" lon="-1.618865">
        <ele>778.8</ele>
        <time>2010-05-08T13:00:19Z</time>
      </trkpt>
      <trkpt lat="42.655930" lon="-1.618748">
        <ele>780.2</ele>
        <time>2010-05-08T13:00:27Z</time>
      </trkpt>
      <trkpt lat="42.655896" lon="-1.618620">
        <ele>781.2</ele>
        <time>2010-05-08T13:00:36Z</time>
      </trkpt>
      <trkpt lat="42.655855" lon="-1.618524">
        <ele>782.2</ele>
        <time>2010-05-08T13:00:45Z</time>
      </trkpt>
      <trkpt lat="42.655845" lon="-1.618491">
        <ele>782.7</ele>
        <time>2010-05-08T13:00:47Z</time>
      </trkpt>
      <trkpt lat="42.655838" lon="-1.618399">
        <ele>784.1</ele>
        <time>2010-05-08T13:00:56Z</time>
      </trkpt>
      <trkpt lat="42.655815" lon="-1.618317">
        <ele>786.0</ele>
        <time>2010-05-08T13:01:05Z</time>
      </trkpt>
      <trkpt lat="42.655790" lon="-1.618240">
        <ele>787.0</ele>
        <time>2010-05-08T13:01:08Z</time>
      </trkpt>
      <trkpt lat="42.655771" lon="-1.618126">
        <ele>787.5</ele>
        <time>2010-05-08T13:01:17Z</time>
      </trkpt>
      <trkpt lat="42.655776" lon="-1.618119">
        <ele>788.9</ele>
        <time>2010-05-08T13:01:21Z</time>
      </trkpt>
      <trkpt lat="42.655802" lon="-1.617935">
        <ele>790.3</ele>
        <time>2010-05-08T13:01:33Z</time>
      </trkpt>
      <trkpt lat="42.655726" lon="-1.617885">
        <ele>792.7</ele>
        <time>2010-05-08T13:01:43Z</time>
      </trkpt>
      <trkpt lat="42.655690" lon="-1.617694">
        <ele>794.2</ele>
        <time>2010-05-08T13:01:55Z</time>
      </trkpt>
      <trkpt lat="42.655662" lon="-1.617651">
        <ele>795.6</ele>
        <time>2010-05-08T13:02:04Z</time>
      </trkpt>
      <trkpt lat="42.655633" lon="-1.617523">
        <ele>798.0</ele>
        <time>2010-05-08T13:02:14Z</time>
      </trkpt>
      <trkpt lat="42.655633" lon="-1.617523">
        <ele>797.1</ele>
        <time>2010-05-08T13:02:15Z</time>
      </trkpt>
      <trkpt lat="42.655544" lon="-1.617445">
        <ele>799.5</ele>
        <time>2010-05-08T13:02:24Z</time>
      </trkpt>
      <trkpt lat="42.655503" lon="-1.617394">
        <ele>800.9</ele>
        <time>2010-05-08T13:02:34Z</time>
      </trkpt>
      <trkpt lat="42.655450" lon="-1.617321">
        <ele>802.4</ele>
        <time>2010-05-08T13:02:43Z</time>
      </trkpt>
      <trkpt lat="42.655365" lon="-1.617261">
        <ele>804.8</ele>
        <time>2010-05-08T13:02:54Z</time>
      </trkpt>
      <trkpt lat="42.655265" lon="-1.617126">
        <ele>807.2</ele>
        <time>2010-05-08T13:03:05Z</time>
      </trkpt>
      <trkpt lat="42.655230" lon="-1.617032">
        <ele>809.1</ele>
        <time>2010-05-08T13:03:16Z</time>
      </trkpt>
      <trkpt lat="42.655232" lon="-1.617033">
        <ele>809.6</ele>
        <time>2010-05-08T13:03:18Z</time>
      </trkpt>
      <trkpt lat="42.655167" lon="-1.616982">
        <ele>811.5</ele>
        <time>2010-05-08T13:03:28Z</time>
      </trkpt>
      <trkpt lat="42.655123" lon="-1.616830">
        <ele>813.4</ele>
        <time>2010-05-08T13:03:41Z</time>
      </trkpt>
      <trkpt lat="42.655036" lon="-1.616790">
        <ele>814.4</ele>
        <time>2010-05-08T13:03:48Z</time>
      </trkpt>
      <trkpt lat="42.654976" lon="-1.616722">
        <ele>816.8</ele>
        <time>2010-05-08T13:03:58Z</time>
      </trkpt>
      <trkpt lat="42.654974" lon="-1.616724">
        <ele>816.8</ele>
        <time>2010-05-08T13:04:01Z</time>
      </trkpt>
      <trkpt lat="42.654952" lon="-1.616659">
        <ele>817.3</ele>
        <time>2010-05-08T13:04:07Z</time>
      </trkpt>
      <trkpt lat="42.654934" lon="-1.616615">
        <ele>818.2</ele>
        <time>2010-05-08T13:04:11Z</time>
      </trkpt>
      <trkpt lat="42.654946" lon="-1.616566">
        <ele>820.6</ele>
        <time>2010-05-08T13:04:23Z</time>
      </trkpt>
      <trkpt lat="42.654955" lon="-1.616567">
        <ele>821.1</ele>
        <time>2010-05-08T13:04:25Z</time>
      </trkpt>
      <trkpt lat="42.654973" lon="-1.616585">
        <ele>821.1</ele>
        <time>2010-05-08T13:04:27Z</time>
      </trkpt>
      <trkpt lat="42.655099" lon="-1.616590">
        <ele>823.0</ele>
        <time>2010-05-08T13:04:37Z</time>
      </trkpt>
      <trkpt lat="42.655177" lon="-1.616601">
        <ele>825.0</ele>
        <time>2010-05-08T13:04:48Z</time>
      </trkpt>
      <trkpt lat="42.655338" lon="-1.616581">
        <ele>826.9</ele>
        <time>2010-05-08T13:05:01Z</time>
      </trkpt>
      <trkpt lat="42.655508" lon="-1.616584">
        <ele>830.2</ele>
        <time>2010-05-08T13:05:20Z</time>
      </trkpt>
      <trkpt lat="42.655663" lon="-1.616532">
        <ele>833.1</ele>
        <time>2010-05-08T13:05:40Z</time>
      </trkpt>
      <trkpt lat="42.655737" lon="-1.616462">
        <ele>835.0</ele>
        <time>2010-05-08T13:05:51Z</time>
      </trkpt>
      <trkpt lat="42.655782" lon="-1.616430">
        <ele>837.9</ele>
        <time>2010-05-08T13:06:04Z</time>
      </trkpt>
      <trkpt lat="42.655844" lon="-1.616351">
        <ele>841.3</ele>
        <time>2010-05-08T13:06:20Z</time>
      </trkpt>
      <trkpt lat="42.655859" lon="-1.616337">
        <ele>841.8</ele>
        <time>2010-05-08T13:06:26Z</time>
      </trkpt>
      <trkpt lat="42.655863" lon="-1.616260">
        <ele>843.2</ele>
        <time>2010-05-08T13:06:32Z</time>
      </trkpt>
      <trkpt lat="42.655807" lon="-1.616186">
        <ele>844.7</ele>
        <time>2010-05-08T13:06:43Z</time>
      </trkpt>
      <trkpt lat="42.655724" lon="-1.616055">
        <ele>847.5</ele>
        <time>2010-05-08T13:06:58Z</time>
      </trkpt>
      <trkpt lat="42.655642" lon="-1.615943">
        <ele>849.9</ele>
        <time>2010-05-08T13:07:14Z</time>
      </trkpt>
      <trkpt lat="42.655640" lon="-1.615851">
        <ele>852.3</ele>
        <time>2010-05-08T13:07:25Z</time>
      </trkpt>
      <trkpt lat="42.655663" lon="-1.615745">
        <ele>853.3</ele>
        <time>2010-05-08T13:07:34Z</time>
      </trkpt>
      <trkpt lat="42.655638" lon="-1.615702">
        <ele>854.3</ele>
        <time>2010-05-08T13:07:39Z</time>
      </trkpt>
      <trkpt lat="42.655597" lon="-1.615644">
        <ele>854.8</ele>
        <time>2010-05-08T13:07:47Z</time>
      </trkpt>
      <trkpt lat="42.655597" lon="-1.615623">
        <ele>855.7</ele>
        <time>2010-05-08T13:07:51Z</time>
      </trkpt>
      <trkpt lat="42.655571" lon="-1.615487">
        <ele>857.2</ele>
        <time>2010-05-08T13:07:59Z</time>
      </trkpt>
      <trkpt lat="42.655553" lon="-1.615374">
        <ele>858.6</ele>
        <time>2010-05-08T13:08:09Z</time>
      </trkpt>
      <trkpt lat="42.655528" lon="-1.615250">
        <ele>859.6</ele>
        <time>2010-05-08T13:08:17Z</time>
      </trkpt>
      <trkpt lat="42.655536" lon="-1.615205">
        <ele>859.6</ele>
        <time>2010-05-08T13:08:22Z</time>
      </trkpt>
      <trkpt lat="42.655559" lon="-1.615051">
        <ele>860.0</ele>
        <time>2010-05-08T13:08:34Z</time>
      </trkpt>
      <trkpt lat="42.655563" lon="-1.615029">
        <ele>860.5</ele>
        <time>2010-05-08T13:08:35Z</time>
      </trkpt>
      <trkpt lat="42.655544" lon="-1.614868">
        <ele>859.6</ele>
        <time>2010-05-08T13:08:43Z</time>
      </trkpt>
      <trkpt lat="42.655557" lon="-1.614777">
        <ele>860.0</ele>
        <time>2010-05-08T13:08:48Z</time>
      </trkpt>
      <trkpt lat="42.655555" lon="-1.614651">
        <ele>859.6</ele>
        <time>2010-05-08T13:08:54Z</time>
      </trkpt>
      <trkpt lat="42.655595" lon="-1.614503">
        <ele>860.5</ele>
        <time>2010-05-08T13:09:04Z</time>
      </trkpt>
      <trkpt lat="42.655649" lon="-1.614415">
        <ele>863.4</ele>
        <time>2010-05-08T13:09:15Z</time>
      </trkpt>
      <trkpt lat="42.655634" lon="-1.614312">
        <ele>864.4</ele>
        <time>2010-05-08T13:09:23Z</time>
      </trkpt>
      <trkpt lat="42.655627" lon="-1.614288">
        <ele>864.4</ele>
        <time>2010-05-08T13:09:24Z</time>
      </trkpt>
      <trkpt lat="42.655615" lon="-1.614156">
        <ele>866.3</ele>
        <time>2010-05-08T13:09:35Z</time>
      </trkpt>
      <trkpt lat="42.655688" lon="-1.614135">
        <ele>867.7</ele>
        <time>2010-05-08T13:09:46Z</time>
      </trkpt>
      <trkpt lat="42.655766" lon="-1.614040">
        <ele>869.7</ele>
        <time>2010-05-08T13:09:57Z</time>
      </trkpt>
      <trkpt lat="42.655800" lon="-1.613967">
        <ele>872.0</ele>
        <time>2010-05-08T13:10:07Z</time>
      </trkpt>
      <trkpt lat="42.655853" lon="-1.613901">
        <ele>874.5</ele>
        <time>2010-05-08T13:10:17Z</time>
      </trkpt>
      <trkpt lat="42.655910" lon="-1.613872">
        <ele>875.4</ele>
        <time>2010-05-08T13:10:23Z</time>
      </trkpt>
      <trkpt lat="42.655934" lon="-1.613887">
        <ele>877.3</ele>
        <time>2010-05-08T13:10:28Z</time>
      </trkpt>
      <trkpt lat="42.655982" lon="-1.613863">
        <ele>878.3</ele>
        <time>2010-05-08T13:10:37Z</time>
      </trkpt>
      <trkpt lat="42.656009" lon="-1.613868">
        <ele>879.7</ele>
        <time>2010-05-08T13:10:41Z</time>
      </trkpt>
      <trkpt lat="42.656014" lon="-1.613827">
        <ele>881.2</ele>
        <time>2010-05-08T13:10:49Z</time>
      </trkpt>
      <trkpt lat="42.656051" lon="-1.613792">
        <ele>882.6</ele>
        <time>2010-05-08T13:11:01Z</time>
      </trkpt>
      <trkpt lat="42.656119" lon="-1.613778">
        <ele>884.5</ele>
        <time>2010-05-08T13:11:10Z</time>
      </trkpt>
      <trkpt lat="42.656170" lon="-1.613815">
        <ele>887.0</ele>
        <time>2010-05-08T13:11:23Z</time>
      </trkpt>
      <trkpt lat="42.656220" lon="-1.613792">
        <ele>888.9</ele>
        <time>2010-05-08T13:11:34Z</time>
      </trkpt>
      <trkpt lat="42.656238" lon="-1.613801">
        <ele>888.9</ele>
        <time>2010-05-08T13:11:37Z</time>
      </trkpt>
      <trkpt lat="42.656284" lon="-1.613866">
        <ele>889.8</ele>
        <time>2010-05-08T13:11:43Z</time>
      </trkpt>
      <trkpt lat="42.656272" lon="-1.613800">
        <ele>890.8</ele>
        <time>2010-05-08T13:11:49Z</time>
      </trkpt>
      <trkpt lat="42.656298" lon="-1.613827">
        <ele>891.8</ele>
        <time>2010-05-08T13:11:53Z</time>
      </trkpt>
      <trkpt lat="42.656372" lon="-1.613823">
        <ele>894.2</ele>
        <time>2010-05-08T13:12:04Z</time>
      </trkpt>
      <trkpt lat="42.656427" lon="-1.613881">
        <ele>895.1</ele>
        <time>2010-05-08T13:12:09Z</time>
      </trkpt>
      <trkpt lat="42.656464" lon="-1.613881">
        <ele>896.6</ele>
        <time>2010-05-08T13:12:21Z</time>
      </trkpt>
      <trkpt lat="42.656546" lon="-1.613928">
        <ele>898.5</ele>
        <time>2010-05-08T13:12:31Z</time>
      </trkpt>
      <trkpt lat="42.656589" lon="-1.613909">
        <ele>900.9</ele>
        <time>2010-05-08T13:12:42Z</time>
      </trkpt>
      <trkpt lat="42.656633" lon="-1.613887">
        <ele>902.3</ele>
        <time>2010-05-08T13:12:51Z</time>
      </trkpt>
      <trkpt lat="42.656668" lon="-1.613811">
        <ele>904.7</ele>
        <time>2010-05-08T13:13:05Z</time>
      </trkpt>
      <trkpt lat="42.656700" lon="-1.613715">
        <ele>906.7</ele>
        <time>2010-05-08T13:13:16Z</time>
      </trkpt>
      <trkpt lat="42.656724" lon="-1.613679">
        <ele>908.1</ele>
        <time>2010-05-08T13:13:26Z</time>
      </trkpt>
      <trkpt lat="42.656794" lon="-1.613683">
        <ele>909.1</ele>
        <time>2010-05-08T13:13:36Z</time>
      </trkpt>
      <trkpt lat="42.656837" lon="-1.613646">
        <ele>910.5</ele>
        <time>2010-05-08T13:13:48Z</time>
      </trkpt>
      <trkpt lat="42.656924" lon="-1.613621">
        <ele>912.0</ele>
        <time>2010-05-08T13:13:59Z</time>
      </trkpt>
      <trkpt lat="42.656922" lon="-1.613612">
        <ele>912.0</ele>
        <time>2010-05-08T13:14:00Z</time>
      </trkpt>
      <trkpt lat="42.657010" lon="-1.613577">
        <ele>913.4</ele>
        <time>2010-05-08T13:14:10Z</time>
      </trkpt>
      <trkpt lat="42.657057" lon="-1.613559">
        <ele>915.3</ele>
        <time>2010-05-08T13:14:22Z</time>
      </trkpt>
      <trkpt lat="42.657090" lon="-1.613613">
        <ele>918.2</ele>
        <time>2010-05-08T13:14:40Z</time>
      </trkpt>
      <trkpt lat="42.657070" lon="-1.613703">
        <ele>920.6</ele>
        <time>2010-05-08T13:14:50Z</time>
      </trkpt>
      <trkpt lat="42.657116" lon="-1.613946">
        <ele>924.0</ele>
        <time>2010-05-08T13:15:09Z</time>
      </trkpt>
      <trkpt lat="42.657232" lon="-1.613862">
        <ele>926.8</ele>
        <time>2010-05-08T13:15:33Z</time>
      </trkpt>
      <trkpt lat="42.657338" lon="-1.613855">
        <ele>929.7</ele>
        <time>2010-05-08T13:15:47Z</time>
      </trkpt>
      <trkpt lat="42.657386" lon="-1.613789">
        <ele>931.7</ele>
        <time>2010-05-08T13:16:06Z</time>
      </trkpt>
      <trkpt lat="42.657482" lon="-1.613804">
        <ele>934.5</ele>
        <time>2010-05-08T13:19:03Z</time>
      </trkpt>
      <trkpt lat="42.657573" lon="-1.613813">
        <ele>936.0</ele>
        <time>2010-05-08T13:19:11Z</time>
      </trkpt>
      <trkpt lat="42.657682" lon="-1.613779">
        <ele>938.9</ele>
        <time>2010-05-08T13:19:25Z</time>
      </trkpt>
      <trkpt lat="42.657704" lon="-1.613862">
        <ele>941.3</ele>
        <time>2010-05-08T13:19:38Z</time>
      </trkpt>
      <trkpt lat="42.657694" lon="-1.613965">
        <ele>944.2</ele>
        <time>2010-05-08T13:19:48Z</time>
      </trkpt>
      <trkpt lat="42.657719" lon="-1.614031">
        <ele>947.0</ele>
        <time>2010-05-08T13:20:02Z</time>
      </trkpt>
      <trkpt lat="42.657704" lon="-1.614182">
        <ele>950.4</ele>
        <time>2010-05-08T13:20:19Z</time>
      </trkpt>
      <trkpt lat="42.657723" lon="-1.614280">
        <ele>951.8</ele>
        <time>2010-05-08T13:20:32Z</time>
      </trkpt>
      <trkpt lat="42.657705" lon="-1.614434">
        <ele>954.7</ele>
        <time>2010-05-08T13:20:48Z</time>
      </trkpt>
      <trkpt lat="42.657715" lon="-1.614424">
        <ele>956.2</ele>
        <time>2010-05-08T13:20:57Z</time>
      </trkpt>
      <trkpt lat="42.657688" lon="-1.614419">
        <ele>956.7</ele>
        <time>2010-05-08T13:20:59Z</time>
      </trkpt>
      <trkpt lat="42.657649" lon="-1.614466">
        <ele>960.0</ele>
        <time>2010-05-08T13:21:15Z</time>
      </trkpt>
      <trkpt lat="42.657620" lon="-1.614507">
        <ele>963.4</ele>
        <time>2010-05-08T13:21:36Z</time>
      </trkpt>
      <trkpt lat="42.657569" lon="-1.614507">
        <ele>965.8</ele>
        <time>2010-05-08T13:22:08Z</time>
      </trkpt>
      <trkpt lat="42.657569" lon="-1.614507">
        <ele>966.3</ele>
        <time>2010-05-08T13:22:09Z</time>
      </trkpt>
      <trkpt lat="42.657527" lon="-1.614478">
        <ele>968.7</ele>
        <time>2010-05-08T13:22:24Z</time>
      </trkpt>
      <trkpt lat="42.657496" lon="-1.614524">
        <ele>970.6</ele>
        <time>2010-05-08T13:22:35Z</time>
      </trkpt>
      <trkpt lat="42.657480" lon="-1.614482">
        <ele>970.6</ele>
        <time>2010-05-08T13:22:44Z</time>
      </trkpt>
      <trkpt lat="42.657477" lon="-1.614496">
        <ele>973.5</ele>
        <time>2010-05-08T13:23:23Z</time>
      </trkpt>
      <trkpt lat="42.657479" lon="-1.614522">
        <ele>976.8</ele>
        <time>2010-05-08T13:23:45Z</time>
      </trkpt>
      <trkpt lat="42.657461" lon="-1.614653">
        <ele>980.2</ele>
        <time>2010-05-08T13:24:10Z</time>
      </trkpt>
      <trkpt lat="42.657445" lon="-1.614661">
        <ele>980.2</ele>
        <time>2010-05-08T13:24:11Z</time>
      </trkpt>
      <trkpt lat="42.657433" lon="-1.614681">
        <ele>980.2</ele>
        <time>2010-05-08T13:24:13Z</time>
      </trkpt>
      <trkpt lat="42.657477" lon="-1.614711">
        <ele>982.6</ele>
        <time>2010-05-08T13:24:25Z</time>
      </trkpt>
      <trkpt lat="42.657494" lon="-1.614713">
        <ele>984.0</ele>
        <time>2010-05-08T13:24:40Z</time>
      </trkpt>
      <trkpt lat="42.657489" lon="-1.614718">
        <ele>984.5</ele>
        <time>2010-05-08T13:24:42Z</time>
      </trkpt>
      <trkpt lat="42.657518" lon="-1.614814">
        <ele>986.5</ele>
        <time>2010-05-08T13:24:52Z</time>
      </trkpt>
      <trkpt lat="42.657489" lon="-1.614815">
        <ele>987.9</ele>
        <time>2010-05-08T13:25:01Z</time>
      </trkpt>
      <trkpt lat="42.657489" lon="-1.614847">
        <ele>988.4</ele>
        <time>2010-05-08T13:25:03Z</time>
      </trkpt>
      <trkpt lat="42.657475" lon="-1.614926">
        <ele>989.3</ele>
        <time>2010-05-08T13:25:14Z</time>
      </trkpt>
      <trkpt lat="42.657459" lon="-1.614920">
        <ele>989.3</ele>
        <time>2010-05-08T13:25:15Z</time>
      </trkpt>
      <trkpt lat="42.657462" lon="-1.614962">
        <ele>987.9</ele>
        <time>2010-05-08T13:25:18Z</time>
      </trkpt>
      <trkpt lat="42.657451" lon="-1.614988">
        <ele>988.8</ele>
        <time>2010-05-08T13:25:20Z</time>
      </trkpt>
      <trkpt lat="42.657486" lon="-1.615026">
        <ele>986.5</ele>
        <time>2010-05-08T13:25:27Z</time>
      </trkpt>
      <trkpt lat="42.657438" lon="-1.615068">
        <ele>985.0</ele>
        <time>2010-05-08T13:25:40Z</time>
      </trkpt>
      <trkpt lat="42.657480" lon="-1.615080">
        <ele>986.0</ele>
        <time>2010-05-08T13:26:12Z</time>
      </trkpt>
      <trkpt lat="42.657474" lon="-1.615157">
        <ele>986.9</ele>
        <time>2010-05-08T13:26:26Z</time>
      </trkpt>
      <trkpt lat="42.657489" lon="-1.615099">
        <ele>986.9</ele>
        <time>2010-05-08T13:27:11Z</time>
      </trkpt>
      <trkpt lat="42.657500" lon="-1.615120">
        <ele>986.0</ele>
        <time>2010-05-08T13:27:14Z</time>
      </trkpt>
      <trkpt lat="42.657524" lon="-1.615048">
        <ele>985.0</ele>
        <time>2010-05-08T13:27:27Z</time>
      </trkpt>
      <trkpt lat="42.657553" lon="-1.615065">
        <ele>984.5</ele>
        <time>2010-05-08T13:27:37Z</time>
      </trkpt>
      <trkpt lat="42.657581" lon="-1.615035">
        <ele>983.1</ele>
        <time>2010-05-08T13:27:44Z</time>
      </trkpt>
      <trkpt lat="42.657597" lon="-1.615058">
        <ele>979.2</ele>
        <time>2010-05-08T13:27:54Z</time>
      </trkpt>
      <trkpt lat="42.657599" lon="-1.615192">
        <ele>976.8</ele>
        <time>2010-05-08T13:28:05Z</time>
      </trkpt>
      <trkpt lat="42.657603" lon="-1.615192">
        <ele>975.9</ele>
        <time>2010-05-08T13:28:10Z</time>
      </trkpt>
      <trkpt lat="42.657612" lon="-1.615256">
        <ele>972.5</ele>
        <time>2010-05-08T13:28:24Z</time>
      </trkpt>
      <trkpt lat="42.657653" lon="-1.615340">
        <ele>970.6</ele>
        <time>2010-05-08T13:28:31Z</time>
      </trkpt>
      <trkpt lat="42.657735" lon="-1.615176">
        <ele>967.7</ele>
        <time>2010-05-08T13:28:43Z</time>
      </trkpt>
      <trkpt lat="42.657772" lon="-1.615068">
        <ele>965.3</ele>
        <time>2010-05-08T13:28:54Z</time>
      </trkpt>
      <trkpt lat="42.657777" lon="-1.615001">
        <ele>964.8</ele>
        <time>2010-05-08T13:29:04Z</time>
      </trkpt>
      <trkpt lat="42.657818" lon="-1.615012">
        <ele>961.9</ele>
        <time>2010-05-08T13:29:10Z</time>
      </trkpt>
      <trkpt lat="42.657852" lon="-1.614975">
        <ele>961.5</ele>
        <time>2010-05-08T13:29:12Z</time>
      </trkpt>
      <trkpt lat="42.657886" lon="-1.614896">
        <ele>959.0</ele>
        <time>2010-05-08T13:29:19Z</time>
      </trkpt>
      <trkpt lat="42.657876" lon="-1.614750">
        <ele>957.1</ele>
        <time>2010-05-08T13:29:33Z</time>
      </trkpt>
      <trkpt lat="42.657858" lon="-1.614678">
        <ele>956.2</ele>
        <time>2010-05-08T13:29:46Z</time>
      </trkpt>
      <trkpt lat="42.657880" lon="-1.614650">
        <ele>952.3</ele>
        <time>2010-05-08T13:29:59Z</time>
      </trkpt>
      <trkpt lat="42.657776" lon="-1.614475">
        <ele>954.2</ele>
        <time>2010-05-08T13:30:10Z</time>
      </trkpt>
      <trkpt lat="42.657745" lon="-1.614426">
        <ele>954.7</ele>
        <time>2010-05-08T13:30:21Z</time>
      </trkpt>
      <trkpt lat="42.657762" lon="-1.614296">
        <ele>952.8</ele>
        <time>2010-05-08T13:30:28Z</time>
      </trkpt>
      <trkpt lat="42.657725" lon="-1.614186">
        <ele>950.9</ele>
        <time>2010-05-08T13:30:35Z</time>
      </trkpt>
      <trkpt lat="42.657737" lon="-1.614049">
        <ele>948.0</ele>
        <time>2010-05-08T13:30:42Z</time>
      </trkpt>
      <trkpt lat="42.657760" lon="-1.613999">
        <ele>945.6</ele>
        <time>2010-05-08T13:30:46Z</time>
      </trkpt>
      <trkpt lat="42.657746" lon="-1.613970">
        <ele>944.6</ele>
        <time>2010-05-08T13:30:47Z</time>
      </trkpt>
      <trkpt lat="42.657738" lon="-1.613805">
        <ele>941.8</ele>
        <time>2010-05-08T13:30:54Z</time>
      </trkpt>
      <trkpt lat="42.657732" lon="-1.613805">
        <ele>941.3</ele>
        <time>2010-05-08T13:30:55Z</time>
      </trkpt>
      <trkpt lat="42.657591" lon="-1.613810">
        <ele>938.9</ele>
        <time>2010-05-08T13:31:02Z</time>
      </trkpt>
      <trkpt lat="42.657456" lon="-1.613794">
        <ele>935.0</ele>
        <time>2010-05-08T13:31:09Z</time>
      </trkpt>
      <trkpt lat="42.657428" lon="-1.613794">
        <ele>934.5</ele>
        <time>2010-05-08T13:31:10Z</time>
      </trkpt>
      <trkpt lat="42.657390" lon="-1.613776">
        <ele>932.1</ele>
        <time>2010-05-08T13:31:14Z</time>
      </trkpt>
      <trkpt lat="42.657288" lon="-1.613851">
        <ele>929.2</ele>
        <time>2010-05-08T13:31:18Z</time>
      </trkpt>
      <trkpt lat="42.657208" lon="-1.613894">
        <ele>926.4</ele>
        <time>2010-05-08T13:31:24Z</time>
      </trkpt>
      <trkpt lat="42.657186" lon="-1.613873">
        <ele>926.4</ele>
        <time>2010-05-08T13:31:25Z</time>
      </trkpt>
      <trkpt lat="42.657102" lon="-1.613889">
        <ele>924.5</ele>
        <time>2010-05-08T13:31:28Z</time>
      </trkpt>
      <trkpt lat="42.657076" lon="-1.613817">
        <ele>922.0</ele>
        <time>2010-05-08T13:31:35Z</time>
      </trkpt>
      <trkpt lat="42.657100" lon="-1.613751">
        <ele>920.1</ele>
        <time>2010-05-08T13:31:40Z</time>
      </trkpt>
      <trkpt lat="42.657103" lon="-1.613686">
        <ele>919.6</ele>
        <time>2010-05-08T13:31:42Z</time>
      </trkpt>
      <trkpt lat="42.657133" lon="-1.613633">
        <ele>918.7</ele>
        <time>2010-05-08T13:31:45Z</time>
      </trkpt>
      <trkpt lat="42.657132" lon="-1.613531">
        <ele>916.8</ele>
        <time>2010-05-08T13:31:49Z</time>
      </trkpt>
      <trkpt lat="42.657042" lon="-1.613529">
        <ele>914.3</ele>
        <time>2010-05-08T13:31:56Z</time>
      </trkpt>
      <trkpt lat="42.657013" lon="-1.613452">
        <ele>911.5</ele>
        <time>2010-05-08T13:32:05Z</time>
      </trkpt>
      <trkpt lat="42.657006" lon="-1.613279">
        <ele>909.1</ele>
        <time>2010-05-08T13:32:12Z</time>
      </trkpt>
      <trkpt lat="42.657023" lon="-1.613220">
        <ele>908.1</ele>
        <time>2010-05-08T13:32:14Z</time>
      </trkpt>
      <trkpt lat="42.657122" lon="-1.612943">
        <ele>905.2</ele>
        <time>2010-05-08T13:32:24Z</time>
      </trkpt>
      <trkpt lat="42.657132" lon="-1.612915">
        <ele>905.2</ele>
        <time>2010-05-08T13:32:25Z</time>
      </trkpt>
      <trkpt lat="42.657213" lon="-1.612699">
        <ele>902.3</ele>
        <time>2010-05-08T13:32:33Z</time>
      </trkpt>
      <trkpt lat="42.657295" lon="-1.612440">
        <ele>899.5</ele>
        <time>2010-05-08T13:32:43Z</time>
      </trkpt>
      <trkpt lat="42.657300" lon="-1.612428">
        <ele>899.0</ele>
        <time>2010-05-08T13:32:44Z</time>
      </trkpt>
      <trkpt lat="42.657400" lon="-1.612300">
        <ele>897.0</ele>
        <time>2010-05-08T13:32:50Z</time>
      </trkpt>
      <trkpt lat="42.657407" lon="-1.612254">
        <ele>896.1</ele>
        <time>2010-05-08T13:32:54Z</time>
      </trkpt>
      <trkpt lat="42.657496" lon="-1.611991">
        <ele>892.7</ele>
        <time>2010-05-08T13:33:04Z</time>
      </trkpt>
      <trkpt lat="42.657625" lon="-1.611814">
        <ele>891.3</ele>
        <time>2010-05-08T13:33:12Z</time>
      </trkpt>
      <trkpt lat="42.657687" lon="-1.611635">
        <ele>890.8</ele>
        <time>2010-05-08T13:33:21Z</time>
      </trkpt>
      <trkpt lat="42.657717" lon="-1.611530">
        <ele>887.9</ele>
        <time>2010-05-08T13:33:28Z</time>
      </trkpt>
      <trkpt lat="42.657771" lon="-1.611449">
        <ele>886.5</ele>
        <time>2010-05-08T13:33:32Z</time>
      </trkpt>
      <trkpt lat="42.657805" lon="-1.611318">
        <ele>885.0</ele>
        <time>2010-05-08T13:33:37Z</time>
      </trkpt>
      <trkpt lat="42.657942" lon="-1.611106">
        <ele>882.6</ele>
        <time>2010-05-08T13:33:47Z</time>
      </trkpt>
      <trkpt lat="42.658015" lon="-1.610962">
        <ele>880.2</ele>
        <time>2010-05-08T13:33:55Z</time>
      </trkpt>
      <trkpt lat="42.658070" lon="-1.610865">
        <ele>878.8</ele>
        <time>2010-05-08T13:33:59Z</time>
      </trkpt>
      <trkpt lat="42.658043" lon="-1.610749">
        <ele>875.9</ele>
        <time>2010-05-08T13:34:05Z</time>
      </trkpt>
      <trkpt lat="42.658084" lon="-1.610622">
        <ele>873.5</ele>
        <time>2010-05-08T13:34:11Z</time>
      </trkpt>
      <trkpt lat="42.658121" lon="-1.610544">
        <ele>872.5</ele>
        <time>2010-05-08T13:34:14Z</time>
      </trkpt>
      <trkpt lat="42.658203" lon="-1.610411">
        <ele>871.1</ele>
        <time>2010-05-08T13:34:22Z</time>
      </trkpt>
      <trkpt lat="42.658220" lon="-1.610389">
        <ele>871.1</ele>
        <time>2010-05-08T13:34:25Z</time>
      </trkpt>
      <trkpt lat="42.658250" lon="-1.610326">
        <ele>870.6</ele>
        <time>2010-05-08T13:34:29Z</time>
      </trkpt>
      <trkpt lat="42.658328" lon="-1.610227">
        <ele>868.2</ele>
        <time>2010-05-08T13:34:35Z</time>
      </trkpt>
      <trkpt lat="42.658324" lon="-1.610169">
        <ele>867.2</ele>
        <time>2010-05-08T13:34:37Z</time>
      </trkpt>
      <trkpt lat="42.658319" lon="-1.610103">
        <ele>865.8</ele>
        <time>2010-05-08T13:34:40Z</time>
      </trkpt>
      <trkpt lat="42.658317" lon="-1.610065">
        <ele>864.4</ele>
        <time>2010-05-08T13:34:42Z</time>
      </trkpt>
      <trkpt lat="42.658335" lon="-1.610049">
        <ele>863.9</ele>
        <time>2010-05-08T13:34:43Z</time>
      </trkpt>
      <trkpt lat="42.658383" lon="-1.609991">
        <ele>863.4</ele>
        <time>2010-05-08T13:34:47Z</time>
      </trkpt>
      <trkpt lat="42.658427" lon="-1.609852">
        <ele>861.5</ele>
        <time>2010-05-08T13:34:53Z</time>
      </trkpt>
      <trkpt lat="42.658472" lon="-1.609754">
        <ele>859.6</ele>
        <time>2010-05-08T13:35:00Z</time>
      </trkpt>
      <trkpt lat="42.658582" lon="-1.609647">
        <ele>858.1</ele>
        <time>2010-05-08T13:35:06Z</time>
      </trkpt>
      <trkpt lat="42.658656" lon="-1.609589">
        <ele>856.7</ele>
        <time>2010-05-08T13:35:12Z</time>
      </trkpt>
      <trkpt lat="42.658772" lon="-1.609438">
        <ele>853.8</ele>
        <time>2010-05-08T13:35:25Z</time>
      </trkpt>
      <trkpt lat="42.658791" lon="-1.609427">
        <ele>853.8</ele>
        <time>2010-05-08T13:35:26Z</time>
      </trkpt>
      <trkpt lat="42.658825" lon="-1.609364">
        <ele>852.8</ele>
        <time>2010-05-08T13:35:30Z</time>
      </trkpt>
      <trkpt lat="42.658851" lon="-1.609309">
        <ele>850.9</ele>
        <time>2010-05-08T13:35:37Z</time>
      </trkpt>
      <trkpt lat="42.658948" lon="-1.609225">
        <ele>849.5</ele>
        <time>2010-05-08T13:35:43Z</time>
      </trkpt>
      <trkpt lat="42.659010" lon="-1.609187">
        <ele>848.5</ele>
        <time>2010-05-08T13:35:45Z</time>
      </trkpt>
      <trkpt lat="42.659042" lon="-1.609133">
        <ele>847.5</ele>
        <time>2010-05-08T13:35:48Z</time>
      </trkpt>
      <trkpt lat="42.659118" lon="-1.609021">
        <ele>845.1</ele>
        <time>2010-05-08T13:35:53Z</time>
      </trkpt>
      <trkpt lat="42.659171" lon="-1.608948">
        <ele>843.2</ele>
        <time>2010-05-08T13:35:58Z</time>
      </trkpt>
      <trkpt lat="42.659196" lon="-1.608912">
        <ele>842.7</ele>
        <time>2010-05-08T13:36:01Z</time>
      </trkpt>
      <trkpt lat="42.659312" lon="-1.608864">
        <ele>839.4</ele>
        <time>2010-05-08T13:36:12Z</time>
      </trkpt>
      <trkpt lat="42.659422" lon="-1.608787">
        <ele>838.4</ele>
        <time>2010-05-08T13:36:20Z</time>
      </trkpt>
      <trkpt lat="42.659619" lon="-1.608659">
        <ele>836.0</ele>
        <time>2010-05-08T13:36:30Z</time>
      </trkpt>
      <trkpt lat="42.659777" lon="-1.608446">
        <ele>831.2</ele>
        <time>2010-05-08T13:36:40Z</time>
      </trkpt>
      <trkpt lat="42.659914" lon="-1.608275">
        <ele>828.3</ele>
        <time>2010-05-08T13:36:50Z</time>
      </trkpt>
      <trkpt lat="42.659988" lon="-1.608157">
        <ele>826.9</ele>
        <time>2010-05-08T13:36:57Z</time>
      </trkpt>
      <trkpt lat="42.660154" lon="-1.607934">
        <ele>824.5</ele>
        <time>2010-05-08T13:37:08Z</time>
      </trkpt>
      <trkpt lat="42.660300" lon="-1.607775">
        <ele>823.0</ele>
        <time>2010-05-08T13:37:18Z</time>
      </trkpt>
      <trkpt lat="42.660336" lon="-1.607676">
        <ele>821.1</ele>
        <time>2010-05-08T13:37:22Z</time>
      </trkpt>
      <trkpt lat="42.660277" lon="-1.607476">
        <ele>819.7</ele>
        <time>2010-05-08T13:37:30Z</time>
      </trkpt>
      <trkpt lat="42.660230" lon="-1.607347">
        <ele>819.7</ele>
        <time>2010-05-08T13:37:39Z</time>
      </trkpt>
      <trkpt lat="42.660176" lon="-1.607244">
        <ele>819.2</ele>
        <time>2010-05-08T13:37:42Z</time>
      </trkpt>
      <trkpt lat="42.660080" lon="-1.607058">
        <ele>818.2</ele>
        <time>2010-05-08T13:37:53Z</time>
      </trkpt>
      <trkpt lat="42.660061" lon="-1.607063">
        <ele>817.7</ele>
        <time>2010-05-08T13:37:55Z</time>
      </trkpt>
      <trkpt lat="42.659964" lon="-1.606784">
        <ele>814.8</ele>
        <time>2010-05-08T13:38:04Z</time>
      </trkpt>
      <trkpt lat="42.659968" lon="-1.606667">
        <ele>814.4</ele>
        <time>2010-05-08T13:38:08Z</time>
      </trkpt>
      <trkpt lat="42.659936" lon="-1.606530">
        <ele>814.4</ele>
        <time>2010-05-08T13:38:12Z</time>
      </trkpt>
      <trkpt lat="42.659930" lon="-1.606358">
        <ele>813.9</ele>
        <time>2010-05-08T13:38:19Z</time>
      </trkpt>
      <trkpt lat="42.659953" lon="-1.606176">
        <ele>812.9</ele>
        <time>2010-05-08T13:38:28Z</time>
      </trkpt>
      <trkpt lat="42.659964" lon="-1.605906">
        <ele>811.0</ele>
        <time>2010-05-08T13:38:38Z</time>
      </trkpt>
      <trkpt lat="42.659851" lon="-1.605656">
        <ele>809.6</ele>
        <time>2010-05-08T13:38:46Z</time>
      </trkpt>
      <trkpt lat="42.659803" lon="-1.605573">
        <ele>810.5</ele>
        <time>2010-05-08T13:38:50Z</time>
      </trkpt>
      <trkpt lat="42.659708" lon="-1.605483">
        <ele>810.5</ele>
        <time>2010-05-08T13:38:59Z</time>
      </trkpt>
      <trkpt lat="42.659686" lon="-1.605478">
        <ele>810.0</ele>
        <time>2010-05-08T13:39:02Z</time>
      </trkpt>
      <trkpt lat="42.659618" lon="-1.605403">
        <ele>810.0</ele>
        <time>2010-05-08T13:39:07Z</time>
      </trkpt>
      <trkpt lat="42.659460" lon="-1.605246">
        <ele>808.6</ele>
        <time>2010-05-08T13:39:20Z</time>
      </trkpt>
      <trkpt lat="42.659435" lon="-1.605242">
        <ele>808.6</ele>
        <time>2010-05-08T13:39:21Z</time>
      </trkpt>
      <trkpt lat="42.659335" lon="-1.605071">
        <ele>807.6</ele>
        <time>2010-05-08T13:39:32Z</time>
      </trkpt>
      <trkpt lat="42.659208" lon="-1.604850">
        <ele>807.6</ele>
        <time>2010-05-08T13:39:41Z</time>
      </trkpt>
      <trkpt lat="42.659137" lon="-1.604620">
        <ele>806.7</ele>
        <time>2010-05-08T13:39:48Z</time>
      </trkpt>
      <trkpt lat="42.659054" lon="-1.604353">
        <ele>804.8</ele>
        <time>2010-05-08T13:39:57Z</time>
      </trkpt>
      <trkpt lat="42.658953" lon="-1.604153">
        <ele>802.4</ele>
        <time>2010-05-08T13:40:06Z</time>
      </trkpt>
      <trkpt lat="42.658856" lon="-1.604008">
        <ele>801.4</ele>
        <time>2010-05-08T13:40:15Z</time>
      </trkpt>
      <trkpt lat="42.658759" lon="-1.603832">
        <ele>801.4</ele>
        <time>2010-05-08T13:40:25Z</time>
      </trkpt>
      <trkpt lat="42.658719" lon="-1.603768">
        <ele>800.9</ele>
        <time>2010-05-08T13:40:28Z</time>
      </trkpt>
      <trkpt lat="42.658599" lon="-1.603588">
        <ele>799.0</ele>
        <time>2010-05-08T13:40:39Z</time>
      </trkpt>
      <trkpt lat="42.658517" lon="-1.603510">
        <ele>798.0</ele>
        <time>2010-05-08T13:40:43Z</time>
      </trkpt>
      <trkpt lat="42.658328" lon="-1.603509">
        <ele>795.2</ele>
        <time>2010-05-08T13:40:55Z</time>
      </trkpt>
      <trkpt lat="42.658288" lon="-1.603511">
        <ele>793.7</ele>
        <time>2010-05-08T13:40:59Z</time>
      </trkpt>
      <trkpt lat="42.658253" lon="-1.603493">
        <ele>792.7</ele>
        <time>2010-05-08T13:41:01Z</time>
      </trkpt>
      <trkpt lat="42.658093" lon="-1.603440">
        <ele>790.3</ele>
        <time>2010-05-08T13:41:10Z</time>
      </trkpt>
      <trkpt lat="42.657930" lon="-1.603340">
        <ele>787.9</ele>
        <time>2010-05-08T13:41:16Z</time>
      </trkpt>
      <trkpt lat="42.657829" lon="-1.603334">
        <ele>786.0</ele>
        <time>2010-05-08T13:41:22Z</time>
      </trkpt>
      <trkpt lat="42.657773" lon="-1.603322">
        <ele>786.5</ele>
        <time>2010-05-08T13:41:24Z</time>
      </trkpt>
      <trkpt lat="42.657600" lon="-1.603343">
        <ele>783.6</ele>
        <time>2010-05-08T13:41:34Z</time>
      </trkpt>
      <trkpt lat="42.657437" lon="-1.603389">
        <ele>782.2</ele>
        <time>2010-05-08T13:41:44Z</time>
      </trkpt>
      <trkpt lat="42.657191" lon="-1.603450">
        <ele>781.7</ele>
        <time>2010-05-08T13:41:56Z</time>
      </trkpt>
      <trkpt lat="42.657026" lon="-1.603479">
        <ele>781.2</ele>
        <time>2010-05-08T13:42:06Z</time>
      </trkpt>
      <trkpt lat="42.656986" lon="-1.603480">
        <ele>780.2</ele>
        <time>2010-05-08T13:42:08Z</time>
      </trkpt>
      <trkpt lat="42.656828" lon="-1.603462">
        <ele>779.3</ele>
        <time>2010-05-08T13:42:19Z</time>
      </trkpt>
      <trkpt lat="42.656731" lon="-1.603497">
        <ele>778.3</ele>
        <time>2010-05-08T13:42:25Z</time>
      </trkpt>
      <trkpt lat="42.656528" lon="-1.603482">
        <ele>776.9</ele>
        <time>2010-05-08T13:42:37Z</time>
      </trkpt>
      <trkpt lat="42.656287" lon="-1.603485">
        <ele>775.0</ele>
        <time>2010-05-08T13:42:50Z</time>
      </trkpt>
      <trkpt lat="42.656106" lon="-1.603522">
        <ele>773.5</ele>
        <time>2010-05-08T13:43:02Z</time>
      </trkpt>
      <trkpt lat="42.655951" lon="-1.603564">
        <ele>772.1</ele>
        <time>2010-05-08T13:43:13Z</time>
      </trkpt>
      <trkpt lat="42.655815" lon="-1.603623">
        <ele>770.6</ele>
        <time>2010-05-08T13:43:21Z</time>
      </trkpt>
      <trkpt lat="42.655659" lon="-1.603663">
        <ele>769.2</ele>
        <time>2010-05-08T13:43:31Z</time>
      </trkpt>
      <trkpt lat="42.655640" lon="-1.603661">
        <ele>769.2</ele>
        <time>2010-05-08T13:43:32Z</time>
      </trkpt>
      <trkpt lat="42.655461" lon="-1.603728">
        <ele>767.8</ele>
        <time>2010-05-08T13:43:43Z</time>
      </trkpt>
      <trkpt lat="42.655335" lon="-1.603792">
        <ele>765.3</ele>
        <time>2010-05-08T13:43:55Z</time>
      </trkpt>
      <trkpt lat="42.655268" lon="-1.603790">
        <ele>764.9</ele>
        <time>2010-05-08T13:44:00Z</time>
      </trkpt>
      <trkpt lat="42.655171" lon="-1.603721">
        <ele>763.4</ele>
        <time>2010-05-08T13:44:07Z</time>
      </trkpt>
      <trkpt lat="42.655091" lon="-1.603693">
        <ele>761.5</ele>
        <time>2010-05-08T13:44:13Z</time>
      </trkpt>
      <trkpt lat="42.655088" lon="-1.603702">
        <ele>762.0</ele>
        <time>2010-05-08T13:44:15Z</time>
      </trkpt>
      <trkpt lat="42.655068" lon="-1.603640">
        <ele>761.5</ele>
        <time>2010-05-08T13:44:20Z</time>
      </trkpt>
      <trkpt lat="42.655057" lon="-1.603540">
        <ele>761.5</ele>
        <time>2010-05-08T13:44:31Z</time>
      </trkpt>
      <trkpt lat="42.655052" lon="-1.603540">
        <ele>762.0</ele>
        <time>2010-05-08T13:44:56Z</time>
      </trkpt>
      <trkpt lat="42.654950" lon="-1.603600">
        <ele>760.5</ele>
        <time>2010-05-08T13:45:08Z</time>
      </trkpt>
      <trkpt lat="42.654864" lon="-1.603391">
        <ele>757.2</ele>
        <time>2010-05-08T13:45:22Z</time>
      </trkpt>
      <trkpt lat="42.654780" lon="-1.603210">
        <ele>754.8</ele>
        <time>2010-05-08T13:45:32Z</time>
      </trkpt>
      <trkpt lat="42.654772" lon="-1.603160">
        <ele>753.8</ele>
        <time>2010-05-08T13:45:36Z</time>
      </trkpt>
      <trkpt lat="42.654671" lon="-1.602951">
        <ele>750.0</ele>
        <time>2010-05-08T13:45:47Z</time>
      </trkpt>
      <trkpt lat="42.654651" lon="-1.602929">
        <ele>749.5</ele>
        <time>2010-05-08T13:45:48Z</time>
      </trkpt>
      <trkpt lat="42.654597" lon="-1.602896">
        <ele>748.5</ele>
        <time>2010-05-08T13:45:52Z</time>
      </trkpt>
      <trkpt lat="42.654424" lon="-1.602808">
        <ele>746.1</ele>
        <time>2010-05-08T13:46:02Z</time>
      </trkpt>
    </trkseg>
  </trk>
</gpx>
